<?xml version="1.0" encoding="UTF-8" standalone="no" ?>
<gpx xmlns="http://www.topografix.com/GPX/1/1" xmlns:xsi="http://www.w3.org/2001/XMLSchema-instance" xsi:schemaLocation="http://www.topografix.com/GPX/1/1 http://www.topografix.com/GPX/1/1/gpx.xsd" version="1.1" creator="VisuGPX - https://www.visugpx.com">
  <metadata>
    <name>2016-09-22 Walk from St Just d-Avray</name>
    <desc><![CDATA[2016-04-28 Walk from St Just d-Avray]]></desc>
  </metadata>
  <wpt lat="46.00287" lon="4.44251">
    <ele>573</ele>
    <name><![CDATA[2016-09-22 09:06 (Start)]]></name>
  </wpt>
  <wpt lat="46.00282" lon="4.44252">
    <ele>574</ele>
    <name><![CDATA[2016-09-22 09:06 (End)]]></name>
    <desc><![CDATA[Created by Google My Tracks on Android  Name: 2016-09-22 09:06 Activity type: walking Description: - Total distance: 25.86 km (16.1 mi) Total time: 7:10:32 Moving time: 7:03:35 Average speed: 3.60 km/h (2.2 mi/h) Average moving speed: 3.66 km/h (2.3 mi/h) Max speed: 5.40 km/h (3.4 mi/h) Average pace: 16:39 min/km (26:48 min/mi) Average moving pace: 16:23 min/km (26:22 min/mi) Fastest pace: 11:07 min/km (17:53 min/mi) Max elevation: 934 m (3065 ft) Min elevation: 114 m (375 ft) Elevation gain: 1647 m (5404 ft) Max grade: 2667 % Min grade: -33 % Recorded: 22/09/2016 09:06]]></desc>
  </wpt>
  <trk>
    <name><![CDATA[2016-09-22 09:06]]></name>
    <trkseg>
      <trkpt lat="46.00287" lon="4.44251">
        <ele>573</ele>
        <time>2016-09-22T07:06:53.277Z</time>
      </trkpt>
      <trkpt lat="46.00278" lon="4.44252">
        <ele>574</ele>
        <time>2016-09-22T07:07:30Z</time>
      </trkpt>
      <trkpt lat="46.00278" lon="4.44253">
        <ele>574</ele>
        <time>2016-09-22T07:07:31Z</time>
      </trkpt>
      <trkpt lat="46.00271" lon="4.44246">
        <ele>579</ele>
        <time>2016-09-22T07:10:06Z</time>
      </trkpt>
      <trkpt lat="46.0027" lon="4.44244">
        <ele>579</ele>
        <time>2016-09-22T07:10:07Z</time>
      </trkpt>
      <trkpt lat="46.00263" lon="4.44237">
        <ele>579</ele>
        <time>2016-09-22T07:10:16Z</time>
      </trkpt>
      <trkpt lat="46.00263" lon="4.44235">
        <ele>579</ele>
        <time>2016-09-22T07:10:17Z</time>
      </trkpt>
      <trkpt lat="46.00256" lon="4.44228">
        <ele>579</ele>
        <time>2016-09-22T07:10:26Z</time>
      </trkpt>
      <trkpt lat="46.00255" lon="4.44227">
        <ele>579</ele>
        <time>2016-09-22T07:10:27Z</time>
      </trkpt>
      <trkpt lat="46.0026" lon="4.44217">
        <ele>580</ele>
        <time>2016-09-22T07:10:37Z</time>
      </trkpt>
      <trkpt lat="46.00261" lon="4.44216">
        <ele>580</ele>
        <time>2016-09-22T07:10:38Z</time>
      </trkpt>
      <trkpt lat="46.00264" lon="4.44204">
        <ele>580</ele>
        <time>2016-09-22T07:10:47Z</time>
      </trkpt>
      <trkpt lat="46.00264" lon="4.44203">
        <ele>580</ele>
        <time>2016-09-22T07:10:48Z</time>
      </trkpt>
      <trkpt lat="46.0027" lon="4.44194">
        <ele>580</ele>
        <time>2016-09-22T07:10:57Z</time>
      </trkpt>
      <trkpt lat="46.0027" lon="4.44193">
        <ele>581</ele>
        <time>2016-09-22T07:10:58Z</time>
      </trkpt>
      <trkpt lat="46.00273" lon="4.44181">
        <ele>581</ele>
        <time>2016-09-22T07:11:07Z</time>
      </trkpt>
      <trkpt lat="46.00273" lon="4.4418">
        <ele>581</ele>
        <time>2016-09-22T07:11:08Z</time>
      </trkpt>
      <trkpt lat="46.00273" lon="4.44168">
        <ele>581</ele>
        <time>2016-09-22T07:11:17Z</time>
      </trkpt>
      <trkpt lat="46.00273" lon="4.44166">
        <ele>584</ele>
        <time>2016-09-22T07:11:18Z</time>
      </trkpt>
      <trkpt lat="46.00275" lon="4.44155">
        <ele>584</ele>
        <time>2016-09-22T07:11:38Z</time>
      </trkpt>
      <trkpt lat="46.00276" lon="4.44153">
        <ele>584</ele>
        <time>2016-09-22T07:11:39Z</time>
      </trkpt>
      <trkpt lat="46.00279" lon="4.44142">
        <ele>584</ele>
        <time>2016-09-22T07:11:46Z</time>
      </trkpt>
      <trkpt lat="46.00279" lon="4.4414">
        <ele>584</ele>
        <time>2016-09-22T07:11:47Z</time>
      </trkpt>
      <trkpt lat="46.00283" lon="4.44128">
        <ele>584</ele>
        <time>2016-09-22T07:12:02Z</time>
      </trkpt>
      <trkpt lat="46.00283" lon="4.44127">
        <ele>584</ele>
        <time>2016-09-22T07:12:03Z</time>
      </trkpt>
      <trkpt lat="46.00289" lon="4.44118">
        <ele>584</ele>
        <time>2016-09-22T07:12:10Z</time>
      </trkpt>
      <trkpt lat="46.0029" lon="4.44117">
        <ele>584</ele>
        <time>2016-09-22T07:12:11Z</time>
      </trkpt>
      <trkpt lat="46.00295" lon="4.44107">
        <ele>584</ele>
        <time>2016-09-22T07:12:18Z</time>
      </trkpt>
      <trkpt lat="46.00296" lon="4.44105">
        <ele>584</ele>
        <time>2016-09-22T07:12:19Z</time>
      </trkpt>
      <trkpt lat="46.00298" lon="4.44095">
        <ele>584</ele>
        <time>2016-09-22T07:12:25Z</time>
      </trkpt>
      <trkpt lat="46.00298" lon="4.44093">
        <ele>584</ele>
        <time>2016-09-22T07:12:26Z</time>
      </trkpt>
      <trkpt lat="46.003" lon="4.44081">
        <ele>586</ele>
        <time>2016-09-22T07:12:32Z</time>
      </trkpt>
      <trkpt lat="46.003" lon="4.4408">
        <ele>586</ele>
        <time>2016-09-22T07:12:33Z</time>
      </trkpt>
      <trkpt lat="46.00303" lon="4.44069">
        <ele>586</ele>
        <time>2016-09-22T07:12:39Z</time>
      </trkpt>
      <trkpt lat="46.00303" lon="4.44067">
        <ele>586</ele>
        <time>2016-09-22T07:12:40Z</time>
      </trkpt>
      <trkpt lat="46.00306" lon="4.44056">
        <ele>586</ele>
        <time>2016-09-22T07:12:46Z</time>
      </trkpt>
      <trkpt lat="46.00307" lon="4.44055">
        <ele>586</ele>
        <time>2016-09-22T07:12:47Z</time>
      </trkpt>
      <trkpt lat="46.0031" lon="4.44044">
        <ele>587</ele>
        <time>2016-09-22T07:12:53Z</time>
      </trkpt>
      <trkpt lat="46.0031" lon="4.44042">
        <ele>587</ele>
        <time>2016-09-22T07:12:54Z</time>
      </trkpt>
      <trkpt lat="46.00312" lon="4.4403">
        <ele>587</ele>
        <time>2016-09-22T07:13:01Z</time>
      </trkpt>
      <trkpt lat="46.00312" lon="4.44028">
        <ele>587</ele>
        <time>2016-09-22T07:13:02Z</time>
      </trkpt>
      <trkpt lat="46.00313" lon="4.44017">
        <ele>588</ele>
        <time>2016-09-22T07:13:08Z</time>
      </trkpt>
      <trkpt lat="46.00313" lon="4.44015">
        <ele>588</ele>
        <time>2016-09-22T07:13:09Z</time>
      </trkpt>
      <trkpt lat="46.00315" lon="4.44004">
        <ele>588</ele>
        <time>2016-09-22T07:13:15Z</time>
      </trkpt>
      <trkpt lat="46.00315" lon="4.44002">
        <ele>588</ele>
        <time>2016-09-22T07:13:16Z</time>
      </trkpt>
      <trkpt lat="46.00318" lon="4.43991">
        <ele>590</ele>
        <time>2016-09-22T07:13:22Z</time>
      </trkpt>
      <trkpt lat="46.00319" lon="4.43989">
        <ele>590</ele>
        <time>2016-09-22T07:13:23Z</time>
      </trkpt>
      <trkpt lat="46.00319" lon="4.43978">
        <ele>590</ele>
        <time>2016-09-22T07:13:29Z</time>
      </trkpt>
      <trkpt lat="46.00319" lon="4.43976">
        <ele>590</ele>
        <time>2016-09-22T07:13:30Z</time>
      </trkpt>
      <trkpt lat="46.00317" lon="4.43963">
        <ele>591</ele>
        <time>2016-09-22T07:13:37Z</time>
      </trkpt>
      <trkpt lat="46.00316" lon="4.43962">
        <ele>591</ele>
        <time>2016-09-22T07:13:38Z</time>
      </trkpt>
      <trkpt lat="46.00314" lon="4.43949">
        <ele>591</ele>
        <time>2016-09-22T07:13:45Z</time>
      </trkpt>
      <trkpt lat="46.00314" lon="4.43947">
        <ele>591</ele>
        <time>2016-09-22T07:13:46Z</time>
      </trkpt>
      <trkpt lat="46.00313" lon="4.43935">
        <ele>592</ele>
        <time>2016-09-22T07:13:52Z</time>
      </trkpt>
      <trkpt lat="46.00312" lon="4.43933">
        <ele>592</ele>
        <time>2016-09-22T07:13:53Z</time>
      </trkpt>
      <trkpt lat="46.00312" lon="4.43921">
        <ele>592</ele>
        <time>2016-09-22T07:13:59Z</time>
      </trkpt>
      <trkpt lat="46.00312" lon="4.43919">
        <ele>592</ele>
        <time>2016-09-22T07:14:00Z</time>
      </trkpt>
      <trkpt lat="46.00313" lon="4.43908">
        <ele>595</ele>
        <time>2016-09-22T07:14:06Z</time>
      </trkpt>
      <trkpt lat="46.00313" lon="4.43906">
        <ele>595</ele>
        <time>2016-09-22T07:14:07Z</time>
      </trkpt>
      <trkpt lat="46.00313" lon="4.43894">
        <ele>595</ele>
        <time>2016-09-22T07:14:13Z</time>
      </trkpt>
      <trkpt lat="46.00313" lon="4.43892">
        <ele>595</ele>
        <time>2016-09-22T07:14:14Z</time>
      </trkpt>
      <trkpt lat="46.00313" lon="4.4388">
        <ele>596</ele>
        <time>2016-09-22T07:14:20Z</time>
      </trkpt>
      <trkpt lat="46.00313" lon="4.43878">
        <ele>596</ele>
        <time>2016-09-22T07:14:21Z</time>
      </trkpt>
      <trkpt lat="46.00312" lon="4.43866">
        <ele>596</ele>
        <time>2016-09-22T07:14:27Z</time>
      </trkpt>
      <trkpt lat="46.00312" lon="4.43864">
        <ele>596</ele>
        <time>2016-09-22T07:14:28Z</time>
      </trkpt>
      <trkpt lat="46.00309" lon="4.43853">
        <ele>597</ele>
        <time>2016-09-22T07:14:35Z</time>
      </trkpt>
      <trkpt lat="46.00308" lon="4.43851">
        <ele>597</ele>
        <time>2016-09-22T07:14:36Z</time>
      </trkpt>
      <trkpt lat="46.00304" lon="4.4384">
        <ele>597</ele>
        <time>2016-09-22T07:14:44Z</time>
      </trkpt>
      <trkpt lat="46.00304" lon="4.43838">
        <ele>597</ele>
        <time>2016-09-22T07:14:45Z</time>
      </trkpt>
      <trkpt lat="46.00303" lon="4.43825">
        <ele>602</ele>
        <time>2016-09-22T07:14:53Z</time>
      </trkpt>
      <trkpt lat="46.00303" lon="4.43824">
        <ele>602</ele>
        <time>2016-09-22T07:14:54Z</time>
      </trkpt>
      <trkpt lat="46.00304" lon="4.43811">
        <ele>602</ele>
        <time>2016-09-22T07:15:01Z</time>
      </trkpt>
      <trkpt lat="46.00304" lon="4.43809">
        <ele>602</ele>
        <time>2016-09-22T07:15:02Z</time>
      </trkpt>
      <trkpt lat="46.00304" lon="4.43797">
        <ele>603</ele>
        <time>2016-09-22T07:15:09Z</time>
      </trkpt>
      <trkpt lat="46.00303" lon="4.43795">
        <ele>603</ele>
        <time>2016-09-22T07:15:10Z</time>
      </trkpt>
      <trkpt lat="46.003" lon="4.43784">
        <ele>603</ele>
        <time>2016-09-22T07:15:17Z</time>
      </trkpt>
      <trkpt lat="46.00299" lon="4.43782">
        <ele>603</ele>
        <time>2016-09-22T07:15:18Z</time>
      </trkpt>
      <trkpt lat="46.00296" lon="4.43771">
        <ele>604</ele>
        <time>2016-09-22T07:15:25Z</time>
      </trkpt>
      <trkpt lat="46.00295" lon="4.43769">
        <ele>604</ele>
        <time>2016-09-22T07:15:26Z</time>
      </trkpt>
      <trkpt lat="46.00292" lon="4.43758">
        <ele>604</ele>
        <time>2016-09-22T07:15:33Z</time>
      </trkpt>
      <trkpt lat="46.00291" lon="4.43756">
        <ele>604</ele>
        <time>2016-09-22T07:15:34Z</time>
      </trkpt>
      <trkpt lat="46.00287" lon="4.43747">
        <ele>609</ele>
        <time>2016-09-22T07:15:41Z</time>
      </trkpt>
      <trkpt lat="46.00286" lon="4.43745">
        <ele>609</ele>
        <time>2016-09-22T07:15:42Z</time>
      </trkpt>
      <trkpt lat="46.00281" lon="4.43736">
        <ele>610</ele>
        <time>2016-09-22T07:15:50Z</time>
      </trkpt>
      <trkpt lat="46.0028" lon="4.43734">
        <ele>610</ele>
        <time>2016-09-22T07:15:51Z</time>
      </trkpt>
      <trkpt lat="46.00276" lon="4.43724">
        <ele>610</ele>
        <time>2016-09-22T07:15:58Z</time>
      </trkpt>
      <trkpt lat="46.00276" lon="4.43722">
        <ele>610</ele>
        <time>2016-09-22T07:15:59Z</time>
      </trkpt>
      <trkpt lat="46.00273" lon="4.4371">
        <ele>611</ele>
        <time>2016-09-22T07:16:05Z</time>
      </trkpt>
      <trkpt lat="46.00273" lon="4.43708">
        <ele>611</ele>
        <time>2016-09-22T07:16:06Z</time>
      </trkpt>
      <trkpt lat="46.00271" lon="4.43697">
        <ele>612</ele>
        <time>2016-09-22T07:16:12Z</time>
      </trkpt>
      <trkpt lat="46.00271" lon="4.43695">
        <ele>612</ele>
        <time>2016-09-22T07:16:13Z</time>
      </trkpt>
      <trkpt lat="46.0027" lon="4.43684">
        <ele>613</ele>
        <time>2016-09-22T07:16:19Z</time>
      </trkpt>
      <trkpt lat="46.0027" lon="4.43682">
        <ele>613</ele>
        <time>2016-09-22T07:16:20Z</time>
      </trkpt>
      <trkpt lat="46.00269" lon="4.4367">
        <ele>614</ele>
        <time>2016-09-22T07:16:26Z</time>
      </trkpt>
      <trkpt lat="46.00269" lon="4.43668">
        <ele>614</ele>
        <time>2016-09-22T07:16:27Z</time>
      </trkpt>
      <trkpt lat="46.00268" lon="4.43656">
        <ele>615</ele>
        <time>2016-09-22T07:16:34Z</time>
      </trkpt>
      <trkpt lat="46.00268" lon="4.43654">
        <ele>615</ele>
        <time>2016-09-22T07:16:35Z</time>
      </trkpt>
      <trkpt lat="46.00267" lon="4.43642">
        <ele>615</ele>
        <time>2016-09-22T07:16:41Z</time>
      </trkpt>
      <trkpt lat="46.00267" lon="4.4364">
        <ele>615</ele>
        <time>2016-09-22T07:16:42Z</time>
      </trkpt>
      <trkpt lat="46.00267" lon="4.43628">
        <ele>615</ele>
        <time>2016-09-22T07:16:48Z</time>
      </trkpt>
      <trkpt lat="46.00267" lon="4.43626">
        <ele>615</ele>
        <time>2016-09-22T07:16:49Z</time>
      </trkpt>
      <trkpt lat="46.00267" lon="4.43614">
        <ele>615</ele>
        <time>2016-09-22T07:16:55Z</time>
      </trkpt>
      <trkpt lat="46.00267" lon="4.43612">
        <ele>615</ele>
        <time>2016-09-22T07:16:56Z</time>
      </trkpt>
      <trkpt lat="46.00266" lon="4.436">
        <ele>615</ele>
        <time>2016-09-22T07:17:03Z</time>
      </trkpt>
      <trkpt lat="46.00266" lon="4.43598">
        <ele>615</ele>
        <time>2016-09-22T07:17:04Z</time>
      </trkpt>
      <trkpt lat="46.00267" lon="4.43586">
        <ele>616</ele>
        <time>2016-09-22T07:17:10Z</time>
      </trkpt>
      <trkpt lat="46.00267" lon="4.43585">
        <ele>616</ele>
        <time>2016-09-22T07:17:11Z</time>
      </trkpt>
      <trkpt lat="46.00268" lon="4.43574">
        <ele>616</ele>
        <time>2016-09-22T07:17:16Z</time>
      </trkpt>
      <trkpt lat="46.00268" lon="4.43572">
        <ele>616</ele>
        <time>2016-09-22T07:17:17Z</time>
      </trkpt>
      <trkpt lat="46.00269" lon="4.43561">
        <ele>616</ele>
        <time>2016-09-22T07:17:22Z</time>
      </trkpt>
      <trkpt lat="46.0027" lon="4.43559">
        <ele>616</ele>
        <time>2016-09-22T07:17:23Z</time>
      </trkpt>
      <trkpt lat="46.0027" lon="4.43548">
        <ele>617</ele>
        <time>2016-09-22T07:17:28Z</time>
      </trkpt>
      <trkpt lat="46.0027" lon="4.43545">
        <ele>617</ele>
        <time>2016-09-22T07:17:29Z</time>
      </trkpt>
      <trkpt lat="46.00268" lon="4.43533">
        <ele>617</ele>
        <time>2016-09-22T07:17:35Z</time>
      </trkpt>
      <trkpt lat="46.00268" lon="4.43531">
        <ele>617</ele>
        <time>2016-09-22T07:17:36Z</time>
      </trkpt>
      <trkpt lat="46.00266" lon="4.43519">
        <ele>618</ele>
        <time>2016-09-22T07:17:42Z</time>
      </trkpt>
      <trkpt lat="46.00265" lon="4.43517">
        <ele>619</ele>
        <time>2016-09-22T07:17:43Z</time>
      </trkpt>
      <trkpt lat="46.00262" lon="4.43506">
        <ele>620</ele>
        <time>2016-09-22T07:17:49Z</time>
      </trkpt>
      <trkpt lat="46.00261" lon="4.43504">
        <ele>620</ele>
        <time>2016-09-22T07:17:50Z</time>
      </trkpt>
      <trkpt lat="46.00258" lon="4.43493">
        <ele>620</ele>
        <time>2016-09-22T07:17:56Z</time>
      </trkpt>
      <trkpt lat="46.00258" lon="4.43491">
        <ele>620</ele>
        <time>2016-09-22T07:17:57Z</time>
      </trkpt>
      <trkpt lat="46.00253" lon="4.4348">
        <ele>619</ele>
        <time>2016-09-22T07:18:03Z</time>
      </trkpt>
      <trkpt lat="46.00252" lon="4.43479">
        <ele>619</ele>
        <time>2016-09-22T07:18:04Z</time>
      </trkpt>
      <trkpt lat="46.00247" lon="4.4347">
        <ele>620</ele>
        <time>2016-09-22T07:18:09Z</time>
      </trkpt>
      <trkpt lat="46.00246" lon="4.43468">
        <ele>620</ele>
        <time>2016-09-22T07:18:10Z</time>
      </trkpt>
      <trkpt lat="46.00242" lon="4.43458">
        <ele>620</ele>
        <time>2016-09-22T07:18:16Z</time>
      </trkpt>
      <trkpt lat="46.00242" lon="4.43457">
        <ele>620</ele>
        <time>2016-09-22T07:18:17Z</time>
      </trkpt>
      <trkpt lat="46.00238" lon="4.43447">
        <ele>619</ele>
        <time>2016-09-22T07:18:23Z</time>
      </trkpt>
      <trkpt lat="46.00237" lon="4.43445">
        <ele>619</ele>
        <time>2016-09-22T07:18:24Z</time>
      </trkpt>
      <trkpt lat="46.00233" lon="4.43434">
        <ele>619</ele>
        <time>2016-09-22T07:18:30Z</time>
      </trkpt>
      <trkpt lat="46.00232" lon="4.43432">
        <ele>619</ele>
        <time>2016-09-22T07:18:31Z</time>
      </trkpt>
      <trkpt lat="46.00228" lon="4.43422">
        <ele>619</ele>
        <time>2016-09-22T07:18:36Z</time>
      </trkpt>
      <trkpt lat="46.00227" lon="4.4342">
        <ele>619</ele>
        <time>2016-09-22T07:18:37Z</time>
      </trkpt>
      <trkpt lat="46.00222" lon="4.43411">
        <ele>619</ele>
        <time>2016-09-22T07:18:43Z</time>
      </trkpt>
      <trkpt lat="46.00221" lon="4.43409">
        <ele>619</ele>
        <time>2016-09-22T07:18:44Z</time>
      </trkpt>
      <trkpt lat="46.00215" lon="4.43401">
        <ele>619</ele>
        <time>2016-09-22T07:18:50Z</time>
      </trkpt>
      <trkpt lat="46.00214" lon="4.43399">
        <ele>619</ele>
        <time>2016-09-22T07:18:51Z</time>
      </trkpt>
      <trkpt lat="46.00208" lon="4.43392">
        <ele>619</ele>
        <time>2016-09-22T07:18:56Z</time>
      </trkpt>
      <trkpt lat="46.00208" lon="4.4339">
        <ele>619</ele>
        <time>2016-09-22T07:18:57Z</time>
      </trkpt>
      <trkpt lat="46.00203" lon="4.43381">
        <ele>619</ele>
        <time>2016-09-22T07:19:03Z</time>
      </trkpt>
      <trkpt lat="46.00203" lon="4.43379">
        <ele>619</ele>
        <time>2016-09-22T07:19:04Z</time>
      </trkpt>
      <trkpt lat="46.00199" lon="4.43369">
        <ele>619</ele>
        <time>2016-09-22T07:19:09Z</time>
      </trkpt>
      <trkpt lat="46.00198" lon="4.43368">
        <ele>619</ele>
        <time>2016-09-22T07:19:10Z</time>
      </trkpt>
      <trkpt lat="46.00193" lon="4.43358">
        <ele>619</ele>
        <time>2016-09-22T07:19:16Z</time>
      </trkpt>
      <trkpt lat="46.00193" lon="4.43356">
        <ele>619</ele>
        <time>2016-09-22T07:19:17Z</time>
      </trkpt>
      <trkpt lat="46.00187" lon="4.43346">
        <ele>620</ele>
        <time>2016-09-22T07:19:23Z</time>
      </trkpt>
      <trkpt lat="46.00186" lon="4.43345">
        <ele>620</ele>
        <time>2016-09-22T07:19:24Z</time>
      </trkpt>
      <trkpt lat="46.0018" lon="4.43336">
        <ele>621</ele>
        <time>2016-09-22T07:19:30Z</time>
      </trkpt>
      <trkpt lat="46.00179" lon="4.43335">
        <ele>621</ele>
        <time>2016-09-22T07:19:31Z</time>
      </trkpt>
      <trkpt lat="46.00174" lon="4.43325">
        <ele>621</ele>
        <time>2016-09-22T07:19:37Z</time>
      </trkpt>
      <trkpt lat="46.00174" lon="4.43323">
        <ele>621</ele>
        <time>2016-09-22T07:19:38Z</time>
      </trkpt>
      <trkpt lat="46.0017" lon="4.43313">
        <ele>620</ele>
        <time>2016-09-22T07:19:44Z</time>
      </trkpt>
      <trkpt lat="46.0017" lon="4.43311">
        <ele>620</ele>
        <time>2016-09-22T07:19:45Z</time>
      </trkpt>
      <trkpt lat="46.00166" lon="4.43299">
        <ele>624</ele>
        <time>2016-09-22T07:19:52Z</time>
      </trkpt>
      <trkpt lat="46.00166" lon="4.43298">
        <ele>624</ele>
        <time>2016-09-22T07:19:53Z</time>
      </trkpt>
      <trkpt lat="46.00163" lon="4.43287">
        <ele>624</ele>
        <time>2016-09-22T07:19:59Z</time>
      </trkpt>
      <trkpt lat="46.00162" lon="4.43285">
        <ele>624</ele>
        <time>2016-09-22T07:20:00Z</time>
      </trkpt>
      <trkpt lat="46.00158" lon="4.43275">
        <ele>624</ele>
        <time>2016-09-22T07:20:06Z</time>
      </trkpt>
      <trkpt lat="46.00157" lon="4.43273">
        <ele>624</ele>
        <time>2016-09-22T07:20:07Z</time>
      </trkpt>
      <trkpt lat="46.00153" lon="4.43264">
        <ele>624</ele>
        <time>2016-09-22T07:20:13Z</time>
      </trkpt>
      <trkpt lat="46.00152" lon="4.43262">
        <ele>624</ele>
        <time>2016-09-22T07:20:14Z</time>
      </trkpt>
      <trkpt lat="46.00146" lon="4.43254">
        <ele>624</ele>
        <time>2016-09-22T07:20:20Z</time>
      </trkpt>
      <trkpt lat="46.00145" lon="4.43253">
        <ele>624</ele>
        <time>2016-09-22T07:20:21Z</time>
      </trkpt>
      <trkpt lat="46.00139" lon="4.43245">
        <ele>625</ele>
        <time>2016-09-22T07:20:26Z</time>
      </trkpt>
      <trkpt lat="46.00138" lon="4.43244">
        <ele>625</ele>
        <time>2016-09-22T07:20:27Z</time>
      </trkpt>
      <trkpt lat="46.00131" lon="4.43237">
        <ele>625</ele>
        <time>2016-09-22T07:20:33Z</time>
      </trkpt>
      <trkpt lat="46.0013" lon="4.43236">
        <ele>625</ele>
        <time>2016-09-22T07:20:34Z</time>
      </trkpt>
      <trkpt lat="46.00124" lon="4.43228">
        <ele>626</ele>
        <time>2016-09-22T07:20:41Z</time>
      </trkpt>
      <trkpt lat="46.00123" lon="4.43226">
        <ele>626</ele>
        <time>2016-09-22T07:20:42Z</time>
      </trkpt>
      <trkpt lat="46.00116" lon="4.43218">
        <ele>626</ele>
        <time>2016-09-22T07:20:48Z</time>
      </trkpt>
      <trkpt lat="46.00115" lon="4.43217">
        <ele>626</ele>
        <time>2016-09-22T07:20:49Z</time>
      </trkpt>
      <trkpt lat="46.00109" lon="4.43208">
        <ele>627</ele>
        <time>2016-09-22T07:20:56Z</time>
      </trkpt>
      <trkpt lat="46.00109" lon="4.43206">
        <ele>627</ele>
        <time>2016-09-22T07:20:57Z</time>
      </trkpt>
      <trkpt lat="46.00103" lon="4.43196">
        <ele>627</ele>
        <time>2016-09-22T07:21:06Z</time>
      </trkpt>
      <trkpt lat="46.00103" lon="4.43194">
        <ele>627</ele>
        <time>2016-09-22T07:21:07Z</time>
      </trkpt>
      <trkpt lat="46.00097" lon="4.43185">
        <ele>628</ele>
        <time>2016-09-22T07:21:14Z</time>
      </trkpt>
      <trkpt lat="46.00096" lon="4.43184">
        <ele>629</ele>
        <time>2016-09-22T07:21:15Z</time>
      </trkpt>
      <trkpt lat="46.00089" lon="4.43178">
        <ele>630</ele>
        <time>2016-09-22T07:21:22Z</time>
      </trkpt>
      <trkpt lat="46.00088" lon="4.43178">
        <ele>630</ele>
        <time>2016-09-22T07:21:23Z</time>
      </trkpt>
      <trkpt lat="46.00081" lon="4.43171">
        <ele>633</ele>
        <time>2016-09-22T07:21:30Z</time>
      </trkpt>
      <trkpt lat="46.0008" lon="4.4317">
        <ele>633</ele>
        <time>2016-09-22T07:21:31Z</time>
      </trkpt>
      <trkpt lat="46.00072" lon="4.43165">
        <ele>634</ele>
        <time>2016-09-22T07:21:38Z</time>
      </trkpt>
      <trkpt lat="46.00072" lon="4.43163">
        <ele>634</ele>
        <time>2016-09-22T07:21:39Z</time>
      </trkpt>
      <trkpt lat="46.00065" lon="4.43156">
        <ele>635</ele>
        <time>2016-09-22T07:21:46Z</time>
      </trkpt>
      <trkpt lat="46.00064" lon="4.43155">
        <ele>635</ele>
        <time>2016-09-22T07:21:47Z</time>
      </trkpt>
      <trkpt lat="46.00057" lon="4.43147">
        <ele>635</ele>
        <time>2016-09-22T07:21:54Z</time>
      </trkpt>
      <trkpt lat="46.00056" lon="4.43146">
        <ele>635</ele>
        <time>2016-09-22T07:21:55Z</time>
      </trkpt>
      <trkpt lat="46.00051" lon="4.43136">
        <ele>636</ele>
        <time>2016-09-22T07:22:02Z</time>
      </trkpt>
      <trkpt lat="46.0005" lon="4.43135">
        <ele>636</ele>
        <time>2016-09-22T07:22:03Z</time>
      </trkpt>
      <trkpt lat="46.00045" lon="4.43125">
        <ele>636</ele>
        <time>2016-09-22T07:22:09Z</time>
      </trkpt>
      <trkpt lat="46.00044" lon="4.43124">
        <ele>636</ele>
        <time>2016-09-22T07:22:10Z</time>
      </trkpt>
      <trkpt lat="46.0004" lon="4.43114">
        <ele>637</ele>
        <time>2016-09-22T07:22:17Z</time>
      </trkpt>
      <trkpt lat="46.00039" lon="4.43113">
        <ele>637</ele>
        <time>2016-09-22T07:22:18Z</time>
      </trkpt>
      <trkpt lat="46.00034" lon="4.43104">
        <ele>638</ele>
        <time>2016-09-22T07:22:28Z</time>
      </trkpt>
      <trkpt lat="46.00033" lon="4.43103">
        <ele>638</ele>
        <time>2016-09-22T07:22:29Z</time>
      </trkpt>
      <trkpt lat="46.00028" lon="4.43093">
        <ele>639</ele>
        <time>2016-09-22T07:22:37Z</time>
      </trkpt>
      <trkpt lat="46.00027" lon="4.43091">
        <ele>639</ele>
        <time>2016-09-22T07:22:38Z</time>
      </trkpt>
      <trkpt lat="46.00024" lon="4.43079">
        <ele>639</ele>
        <time>2016-09-22T07:22:46Z</time>
      </trkpt>
      <trkpt lat="46.00024" lon="4.43078">
        <ele>639</ele>
        <time>2016-09-22T07:22:47Z</time>
      </trkpt>
      <trkpt lat="46.0002" lon="4.43067">
        <ele>639</ele>
        <time>2016-09-22T07:22:54Z</time>
      </trkpt>
      <trkpt lat="46.00019" lon="4.43066">
        <ele>639</ele>
        <time>2016-09-22T07:22:55Z</time>
      </trkpt>
      <trkpt lat="46.00013" lon="4.43058">
        <ele>639</ele>
        <time>2016-09-22T07:23:02Z</time>
      </trkpt>
      <trkpt lat="46.00012" lon="4.43057">
        <ele>639</ele>
        <time>2016-09-22T07:23:03Z</time>
      </trkpt>
      <trkpt lat="46.00008" lon="4.43047">
        <ele>639</ele>
        <time>2016-09-22T07:23:15Z</time>
      </trkpt>
      <trkpt lat="46.00007" lon="4.43046">
        <ele>639</ele>
        <time>2016-09-22T07:23:16Z</time>
      </trkpt>
      <trkpt lat="46" lon="4.43039">
        <ele>639</ele>
        <time>2016-09-22T07:23:24Z</time>
      </trkpt>
      <trkpt lat="46" lon="4.43037">
        <ele>646</ele>
        <time>2016-09-22T07:23:25Z</time>
      </trkpt>
      <trkpt lat="45.99993" lon="4.43028">
        <ele>646</ele>
        <time>2016-09-22T07:23:30Z</time>
      </trkpt>
      <trkpt lat="45.99992" lon="4.43026">
        <ele>646</ele>
        <time>2016-09-22T07:23:31Z</time>
      </trkpt>
      <trkpt lat="45.99985" lon="4.43018">
        <ele>646</ele>
        <time>2016-09-22T07:23:36Z</time>
      </trkpt>
      <trkpt lat="45.99984" lon="4.43017">
        <ele>646</ele>
        <time>2016-09-22T07:23:37Z</time>
      </trkpt>
      <trkpt lat="45.99979" lon="4.43007">
        <ele>646</ele>
        <time>2016-09-22T07:23:43Z</time>
      </trkpt>
      <trkpt lat="45.99978" lon="4.43005">
        <ele>646</ele>
        <time>2016-09-22T07:23:44Z</time>
      </trkpt>
      <trkpt lat="45.99971" lon="4.42996">
        <ele>647</ele>
        <time>2016-09-22T07:23:50Z</time>
      </trkpt>
      <trkpt lat="45.9997" lon="4.42995">
        <ele>647</ele>
        <time>2016-09-22T07:23:51Z</time>
      </trkpt>
      <trkpt lat="45.99964" lon="4.42986">
        <ele>647</ele>
        <time>2016-09-22T07:23:58Z</time>
      </trkpt>
      <trkpt lat="45.99963" lon="4.42985">
        <ele>647</ele>
        <time>2016-09-22T07:23:59Z</time>
      </trkpt>
      <trkpt lat="45.99957" lon="4.42977">
        <ele>648</ele>
        <time>2016-09-22T07:24:04Z</time>
      </trkpt>
      <trkpt lat="45.99956" lon="4.42976">
        <ele>648</ele>
        <time>2016-09-22T07:24:05Z</time>
      </trkpt>
      <trkpt lat="45.99951" lon="4.42967">
        <ele>648</ele>
        <time>2016-09-22T07:24:11Z</time>
      </trkpt>
      <trkpt lat="45.9995" lon="4.42965">
        <ele>648</ele>
        <time>2016-09-22T07:24:12Z</time>
      </trkpt>
      <trkpt lat="45.99945" lon="4.42955">
        <ele>649</ele>
        <time>2016-09-22T07:24:18Z</time>
      </trkpt>
      <trkpt lat="45.99944" lon="4.42953">
        <ele>649</ele>
        <time>2016-09-22T07:24:19Z</time>
      </trkpt>
      <trkpt lat="45.99939" lon="4.42944">
        <ele>649</ele>
        <time>2016-09-22T07:24:25Z</time>
      </trkpt>
      <trkpt lat="45.99938" lon="4.42943">
        <ele>650</ele>
        <time>2016-09-22T07:24:26Z</time>
      </trkpt>
      <trkpt lat="45.99932" lon="4.42934">
        <ele>651</ele>
        <time>2016-09-22T07:24:32Z</time>
      </trkpt>
      <trkpt lat="45.9993" lon="4.42932">
        <ele>651</ele>
        <time>2016-09-22T07:24:33Z</time>
      </trkpt>
      <trkpt lat="45.99925" lon="4.42925">
        <ele>653</ele>
        <time>2016-09-22T07:24:38Z</time>
      </trkpt>
      <trkpt lat="45.99923" lon="4.42924">
        <ele>653</ele>
        <time>2016-09-22T07:24:39Z</time>
      </trkpt>
      <trkpt lat="45.99917" lon="4.42916">
        <ele>656</ele>
        <time>2016-09-22T07:24:46Z</time>
      </trkpt>
      <trkpt lat="45.99916" lon="4.42915">
        <ele>656</ele>
        <time>2016-09-22T07:24:47Z</time>
      </trkpt>
      <trkpt lat="45.99908" lon="4.42908">
        <ele>658</ele>
        <time>2016-09-22T07:24:54Z</time>
      </trkpt>
      <trkpt lat="45.99907" lon="4.42906">
        <ele>659</ele>
        <time>2016-09-22T07:24:55Z</time>
      </trkpt>
      <trkpt lat="45.99902" lon="4.42898">
        <ele>660</ele>
        <time>2016-09-22T07:25:01Z</time>
      </trkpt>
      <trkpt lat="45.99901" lon="4.42896">
        <ele>660</ele>
        <time>2016-09-22T07:25:02Z</time>
      </trkpt>
      <trkpt lat="45.99895" lon="4.42887">
        <ele>661</ele>
        <time>2016-09-22T07:25:10Z</time>
      </trkpt>
      <trkpt lat="45.99895" lon="4.42886">
        <ele>661</ele>
        <time>2016-09-22T07:25:11Z</time>
      </trkpt>
      <trkpt lat="45.99887" lon="4.4288">
        <ele>661</ele>
        <time>2016-09-22T07:25:20Z</time>
      </trkpt>
      <trkpt lat="45.99886" lon="4.42878">
        <ele>661</ele>
        <time>2016-09-22T07:25:21Z</time>
      </trkpt>
      <trkpt lat="45.9988" lon="4.4287">
        <ele>662</ele>
        <time>2016-09-22T07:25:28Z</time>
      </trkpt>
      <trkpt lat="45.99879" lon="4.42868">
        <ele>662</ele>
        <time>2016-09-22T07:25:29Z</time>
      </trkpt>
      <trkpt lat="45.99874" lon="4.42859">
        <ele>662</ele>
        <time>2016-09-22T07:25:35Z</time>
      </trkpt>
      <trkpt lat="45.99873" lon="4.42857">
        <ele>662</ele>
        <time>2016-09-22T07:25:36Z</time>
      </trkpt>
      <trkpt lat="45.99867" lon="4.42849">
        <ele>663</ele>
        <time>2016-09-22T07:25:42Z</time>
      </trkpt>
      <trkpt lat="45.99866" lon="4.42848">
        <ele>664</ele>
        <time>2016-09-22T07:25:43Z</time>
      </trkpt>
      <trkpt lat="45.99859" lon="4.42842">
        <ele>665</ele>
        <time>2016-09-22T07:25:50Z</time>
      </trkpt>
      <trkpt lat="45.99858" lon="4.42841">
        <ele>665</ele>
        <time>2016-09-22T07:25:51Z</time>
      </trkpt>
      <trkpt lat="45.99852" lon="4.42831">
        <ele>664</ele>
        <time>2016-09-22T07:25:58Z</time>
      </trkpt>
      <trkpt lat="45.99852" lon="4.4283">
        <ele>664</ele>
        <time>2016-09-22T07:25:59Z</time>
      </trkpt>
      <trkpt lat="45.99846" lon="4.4282">
        <ele>664</ele>
        <time>2016-09-22T07:26:06Z</time>
      </trkpt>
      <trkpt lat="45.99845" lon="4.42819">
        <ele>664</ele>
        <time>2016-09-22T07:26:07Z</time>
      </trkpt>
      <trkpt lat="45.99839" lon="4.42811">
        <ele>664</ele>
        <time>2016-09-22T07:26:13Z</time>
      </trkpt>
      <trkpt lat="45.99838" lon="4.4281">
        <ele>664</ele>
        <time>2016-09-22T07:26:14Z</time>
      </trkpt>
      <trkpt lat="45.99832" lon="4.42801">
        <ele>678</ele>
        <time>2016-09-22T07:26:20Z</time>
      </trkpt>
      <trkpt lat="45.99831" lon="4.42799">
        <ele>678</ele>
        <time>2016-09-22T07:26:21Z</time>
      </trkpt>
      <trkpt lat="45.99828" lon="4.42789">
        <ele>678</ele>
        <time>2016-09-22T07:26:27Z</time>
      </trkpt>
      <trkpt lat="45.99827" lon="4.42787">
        <ele>678</ele>
        <time>2016-09-22T07:26:28Z</time>
      </trkpt>
      <trkpt lat="45.99824" lon="4.42777">
        <ele>678</ele>
        <time>2016-09-22T07:26:34Z</time>
      </trkpt>
      <trkpt lat="45.99824" lon="4.42775">
        <ele>677</ele>
        <time>2016-09-22T07:26:35Z</time>
      </trkpt>
      <trkpt lat="45.9982" lon="4.42764">
        <ele>677</ele>
        <time>2016-09-22T07:26:41Z</time>
      </trkpt>
      <trkpt lat="45.9982" lon="4.42763">
        <ele>676</ele>
        <time>2016-09-22T07:26:42Z</time>
      </trkpt>
      <trkpt lat="45.99814" lon="4.42754">
        <ele>677</ele>
        <time>2016-09-22T07:26:49Z</time>
      </trkpt>
      <trkpt lat="45.99813" lon="4.42753">
        <ele>677</ele>
        <time>2016-09-22T07:26:50Z</time>
      </trkpt>
      <trkpt lat="45.99806" lon="4.42746">
        <ele>674</ele>
        <time>2016-09-22T07:26:57Z</time>
      </trkpt>
      <trkpt lat="45.99805" lon="4.42745">
        <ele>675</ele>
        <time>2016-09-22T07:26:58Z</time>
      </trkpt>
      <trkpt lat="45.998" lon="4.42735">
        <ele>675</ele>
        <time>2016-09-22T07:27:06Z</time>
      </trkpt>
      <trkpt lat="45.99799" lon="4.42734">
        <ele>675</ele>
        <time>2016-09-22T07:27:07Z</time>
      </trkpt>
      <trkpt lat="45.99792" lon="4.42725">
        <ele>676</ele>
        <time>2016-09-22T07:27:15Z</time>
      </trkpt>
      <trkpt lat="45.99792" lon="4.42724">
        <ele>676</ele>
        <time>2016-09-22T07:27:16Z</time>
      </trkpt>
      <trkpt lat="45.99789" lon="4.42713">
        <ele>676</ele>
        <time>2016-09-22T07:27:33Z</time>
      </trkpt>
      <trkpt lat="45.99789" lon="4.42711">
        <ele>676</ele>
        <time>2016-09-22T07:27:34Z</time>
      </trkpt>
      <trkpt lat="45.99784" lon="4.42704">
        <ele>676</ele>
        <time>2016-09-22T07:27:40Z</time>
      </trkpt>
      <trkpt lat="45.99783" lon="4.42701">
        <ele>676</ele>
        <time>2016-09-22T07:27:41Z</time>
      </trkpt>
      <trkpt lat="45.99775" lon="4.42697">
        <ele>677</ele>
        <time>2016-09-22T07:27:49Z</time>
      </trkpt>
      <trkpt lat="45.99773" lon="4.42697">
        <ele>677</ele>
        <time>2016-09-22T07:27:50Z</time>
      </trkpt>
      <trkpt lat="45.99765" lon="4.42693">
        <ele>678</ele>
        <time>2016-09-22T07:27:57Z</time>
      </trkpt>
      <trkpt lat="45.99764" lon="4.42692">
        <ele>678</ele>
        <time>2016-09-22T07:27:58Z</time>
      </trkpt>
      <trkpt lat="45.99757" lon="4.42683">
        <ele>680</ele>
        <time>2016-09-22T07:28:07Z</time>
      </trkpt>
      <trkpt lat="45.99757" lon="4.42682">
        <ele>680</ele>
        <time>2016-09-22T07:28:08Z</time>
      </trkpt>
      <trkpt lat="45.99752" lon="4.42671">
        <ele>682</ele>
        <time>2016-09-22T07:28:15Z</time>
      </trkpt>
      <trkpt lat="45.99751" lon="4.4267">
        <ele>683</ele>
        <time>2016-09-22T07:28:16Z</time>
      </trkpt>
      <trkpt lat="45.99748" lon="4.42659">
        <ele>687</ele>
        <time>2016-09-22T07:28:23Z</time>
      </trkpt>
      <trkpt lat="45.99748" lon="4.42657">
        <ele>687</ele>
        <time>2016-09-22T07:28:24Z</time>
      </trkpt>
      <trkpt lat="45.99744" lon="4.42647">
        <ele>689</ele>
        <time>2016-09-22T07:28:33Z</time>
      </trkpt>
      <trkpt lat="45.99744" lon="4.42645">
        <ele>690</ele>
        <time>2016-09-22T07:28:34Z</time>
      </trkpt>
      <trkpt lat="45.99739" lon="4.42636">
        <ele>690</ele>
        <time>2016-09-22T07:28:41Z</time>
      </trkpt>
      <trkpt lat="45.99738" lon="4.42635">
        <ele>691</ele>
        <time>2016-09-22T07:28:42Z</time>
      </trkpt>
      <trkpt lat="45.99734" lon="4.42625">
        <ele>691</ele>
        <time>2016-09-22T07:28:49Z</time>
      </trkpt>
      <trkpt lat="45.99733" lon="4.42624">
        <ele>691</ele>
        <time>2016-09-22T07:28:50Z</time>
      </trkpt>
      <trkpt lat="45.99727" lon="4.42615">
        <ele>691</ele>
        <time>2016-09-22T07:28:57Z</time>
      </trkpt>
      <trkpt lat="45.99726" lon="4.42614">
        <ele>691</ele>
        <time>2016-09-22T07:28:58Z</time>
      </trkpt>
      <trkpt lat="45.99722" lon="4.42605">
        <ele>691</ele>
        <time>2016-09-22T07:29:06Z</time>
      </trkpt>
      <trkpt lat="45.99721" lon="4.42603">
        <ele>690</ele>
        <time>2016-09-22T07:29:07Z</time>
      </trkpt>
      <trkpt lat="45.99716" lon="4.42593">
        <ele>691</ele>
        <time>2016-09-22T07:29:13Z</time>
      </trkpt>
      <trkpt lat="45.99715" lon="4.42591">
        <ele>691</ele>
        <time>2016-09-22T07:29:14Z</time>
      </trkpt>
      <trkpt lat="45.9971" lon="4.42581">
        <ele>686</ele>
        <time>2016-09-22T07:29:22Z</time>
      </trkpt>
      <trkpt lat="45.99709" lon="4.4258">
        <ele>686</ele>
        <time>2016-09-22T07:29:23Z</time>
      </trkpt>
      <trkpt lat="45.99704" lon="4.4257">
        <ele>687</ele>
        <time>2016-09-22T07:29:32Z</time>
      </trkpt>
      <trkpt lat="45.99703" lon="4.42569">
        <ele>687</ele>
        <time>2016-09-22T07:29:33Z</time>
      </trkpt>
      <trkpt lat="45.997" lon="4.42558">
        <ele>687</ele>
        <time>2016-09-22T07:29:41Z</time>
      </trkpt>
      <trkpt lat="45.997" lon="4.42556">
        <ele>687</ele>
        <time>2016-09-22T07:29:42Z</time>
      </trkpt>
      <trkpt lat="45.99696" lon="4.42545">
        <ele>687</ele>
        <time>2016-09-22T07:29:49Z</time>
      </trkpt>
      <trkpt lat="45.99695" lon="4.42543">
        <ele>687</ele>
        <time>2016-09-22T07:29:50Z</time>
      </trkpt>
      <trkpt lat="45.99697" lon="4.42532">
        <ele>686</ele>
        <time>2016-09-22T07:29:59Z</time>
      </trkpt>
      <trkpt lat="45.99697" lon="4.4253">
        <ele>685</ele>
        <time>2016-09-22T07:30:00Z</time>
      </trkpt>
      <trkpt lat="45.99693" lon="4.4252">
        <ele>686</ele>
        <time>2016-09-22T07:30:07Z</time>
      </trkpt>
      <trkpt lat="45.99692" lon="4.42519">
        <ele>686</ele>
        <time>2016-09-22T07:30:08Z</time>
      </trkpt>
      <trkpt lat="45.99688" lon="4.42509">
        <ele>687</ele>
        <time>2016-09-22T07:30:16Z</time>
      </trkpt>
      <trkpt lat="45.99688" lon="4.42507">
        <ele>687</ele>
        <time>2016-09-22T07:30:17Z</time>
      </trkpt>
      <trkpt lat="45.99684" lon="4.42496">
        <ele>684</ele>
        <time>2016-09-22T07:30:30Z</time>
      </trkpt>
      <trkpt lat="45.99684" lon="4.42495">
        <ele>685</ele>
        <time>2016-09-22T07:30:31Z</time>
      </trkpt>
      <trkpt lat="45.99678" lon="4.42485">
        <ele>684</ele>
        <time>2016-09-22T07:30:40Z</time>
      </trkpt>
      <trkpt lat="45.99678" lon="4.42484">
        <ele>684</ele>
        <time>2016-09-22T07:30:41Z</time>
      </trkpt>
      <trkpt lat="45.99669" lon="4.42479">
        <ele>684</ele>
        <time>2016-09-22T07:30:47Z</time>
      </trkpt>
      <trkpt lat="45.99668" lon="4.42477">
        <ele>684</ele>
        <time>2016-09-22T07:30:48Z</time>
      </trkpt>
      <trkpt lat="45.99666" lon="4.42466">
        <ele>697</ele>
        <time>2016-09-22T07:30:55Z</time>
      </trkpt>
      <trkpt lat="45.99666" lon="4.42465">
        <ele>697</ele>
        <time>2016-09-22T07:30:56Z</time>
      </trkpt>
      <trkpt lat="45.99663" lon="4.42455">
        <ele>696</ele>
        <time>2016-09-22T07:31:07Z</time>
      </trkpt>
      <trkpt lat="45.99662" lon="4.42452">
        <ele>696</ele>
        <time>2016-09-22T07:31:08Z</time>
      </trkpt>
      <trkpt lat="45.99656" lon="4.42445">
        <ele>695</ele>
        <time>2016-09-22T07:31:13Z</time>
      </trkpt>
      <trkpt lat="45.99654" lon="4.42444">
        <ele>695</ele>
        <time>2016-09-22T07:31:14Z</time>
      </trkpt>
      <trkpt lat="45.99646" lon="4.4244">
        <ele>696</ele>
        <time>2016-09-22T07:31:19Z</time>
      </trkpt>
      <trkpt lat="45.99646" lon="4.4244">
        <ele>696</ele>
        <time>2016-09-22T07:31:20Z</time>
      </trkpt>
      <trkpt lat="45.99639" lon="4.42433">
        <ele>697</ele>
        <time>2016-09-22T07:31:25Z</time>
      </trkpt>
      <trkpt lat="45.99638" lon="4.42432">
        <ele>697</ele>
        <time>2016-09-22T07:31:26Z</time>
      </trkpt>
      <trkpt lat="45.9963" lon="4.42425">
        <ele>698</ele>
        <time>2016-09-22T07:31:32Z</time>
      </trkpt>
      <trkpt lat="45.9963" lon="4.42424">
        <ele>698</ele>
        <time>2016-09-22T07:31:33Z</time>
      </trkpt>
      <trkpt lat="45.99625" lon="4.42415">
        <ele>695</ele>
        <time>2016-09-22T07:31:40Z</time>
      </trkpt>
      <trkpt lat="45.99624" lon="4.42414">
        <ele>695</ele>
        <time>2016-09-22T07:31:41Z</time>
      </trkpt>
      <trkpt lat="45.99618" lon="4.42405">
        <ele>696</ele>
        <time>2016-09-22T07:31:48Z</time>
      </trkpt>
      <trkpt lat="45.99618" lon="4.42404">
        <ele>696</ele>
        <time>2016-09-22T07:31:49Z</time>
      </trkpt>
      <trkpt lat="45.9961" lon="4.42399">
        <ele>698</ele>
        <time>2016-09-22T07:31:54Z</time>
      </trkpt>
      <trkpt lat="45.99609" lon="4.42398">
        <ele>698</ele>
        <time>2016-09-22T07:31:55Z</time>
      </trkpt>
      <trkpt lat="45.99602" lon="4.42393">
        <ele>699</ele>
        <time>2016-09-22T07:32:02Z</time>
      </trkpt>
      <trkpt lat="45.996" lon="4.42392">
        <ele>699</ele>
        <time>2016-09-22T07:32:03Z</time>
      </trkpt>
      <trkpt lat="45.99595" lon="4.42382">
        <ele>699</ele>
        <time>2016-09-22T07:32:10Z</time>
      </trkpt>
      <trkpt lat="45.99594" lon="4.4238">
        <ele>699</ele>
        <time>2016-09-22T07:32:11Z</time>
      </trkpt>
      <trkpt lat="45.99589" lon="4.42371">
        <ele>699</ele>
        <time>2016-09-22T07:32:18Z</time>
      </trkpt>
      <trkpt lat="45.99589" lon="4.42369">
        <ele>699</ele>
        <time>2016-09-22T07:32:19Z</time>
      </trkpt>
      <trkpt lat="45.99584" lon="4.4236">
        <ele>699</ele>
        <time>2016-09-22T07:32:26Z</time>
      </trkpt>
      <trkpt lat="45.99584" lon="4.42359">
        <ele>699</ele>
        <time>2016-09-22T07:32:27Z</time>
      </trkpt>
      <trkpt lat="45.99578" lon="4.42349">
        <ele>708</ele>
        <time>2016-09-22T07:32:35Z</time>
      </trkpt>
      <trkpt lat="45.99578" lon="4.42347">
        <ele>708</ele>
        <time>2016-09-22T07:32:36Z</time>
      </trkpt>
      <trkpt lat="45.99571" lon="4.4234">
        <ele>707</ele>
        <time>2016-09-22T07:32:45Z</time>
      </trkpt>
      <trkpt lat="45.99569" lon="4.42339">
        <ele>708</ele>
        <time>2016-09-22T07:32:46Z</time>
      </trkpt>
      <trkpt lat="45.99562" lon="4.42334">
        <ele>709</ele>
        <time>2016-09-22T07:32:54Z</time>
      </trkpt>
      <trkpt lat="45.99561" lon="4.42333">
        <ele>709</ele>
        <time>2016-09-22T07:32:55Z</time>
      </trkpt>
      <trkpt lat="45.99554" lon="4.42329">
        <ele>711</ele>
        <time>2016-09-22T07:33:03Z</time>
      </trkpt>
      <trkpt lat="45.99553" lon="4.42327">
        <ele>711</ele>
        <time>2016-09-22T07:33:04Z</time>
      </trkpt>
      <trkpt lat="45.99545" lon="4.42319">
        <ele>712</ele>
        <time>2016-09-22T07:33:11Z</time>
      </trkpt>
      <trkpt lat="45.99545" lon="4.42319">
        <ele>712</ele>
        <time>2016-09-22T07:33:12Z</time>
      </trkpt>
      <trkpt lat="45.99538" lon="4.4231">
        <ele>713</ele>
        <time>2016-09-22T07:33:19Z</time>
      </trkpt>
      <trkpt lat="45.99537" lon="4.42309">
        <ele>713</ele>
        <time>2016-09-22T07:33:20Z</time>
      </trkpt>
      <trkpt lat="45.99531" lon="4.42299">
        <ele>714</ele>
        <time>2016-09-22T07:33:32Z</time>
      </trkpt>
      <trkpt lat="45.99531" lon="4.42298">
        <ele>714</ele>
        <time>2016-09-22T07:33:33Z</time>
      </trkpt>
      <trkpt lat="45.99534" lon="4.42286">
        <ele>714</ele>
        <time>2016-09-22T07:33:38Z</time>
      </trkpt>
      <trkpt lat="45.99534" lon="4.42284">
        <ele>714</ele>
        <time>2016-09-22T07:33:39Z</time>
      </trkpt>
      <trkpt lat="45.99531" lon="4.42271">
        <ele>715</ele>
        <time>2016-09-22T07:33:47Z</time>
      </trkpt>
      <trkpt lat="45.99532" lon="4.42269">
        <ele>715</ele>
        <time>2016-09-22T07:33:48Z</time>
      </trkpt>
      <trkpt lat="45.99533" lon="4.42257">
        <ele>715</ele>
        <time>2016-09-22T07:33:54Z</time>
      </trkpt>
      <trkpt lat="45.99533" lon="4.42255">
        <ele>715</ele>
        <time>2016-09-22T07:33:55Z</time>
      </trkpt>
      <trkpt lat="45.99535" lon="4.42243">
        <ele>720</ele>
        <time>2016-09-22T07:34:01Z</time>
      </trkpt>
      <trkpt lat="45.99535" lon="4.42239">
        <ele>720</ele>
        <time>2016-09-22T07:34:02Z</time>
      </trkpt>
      <trkpt lat="45.99538" lon="4.4223">
        <ele>720</ele>
        <time>2016-09-22T07:34:07Z</time>
      </trkpt>
      <trkpt lat="45.99539" lon="4.42227">
        <ele>720</ele>
        <time>2016-09-22T07:34:08Z</time>
      </trkpt>
      <trkpt lat="45.9954" lon="4.42215">
        <ele>721</ele>
        <time>2016-09-22T07:34:14Z</time>
      </trkpt>
      <trkpt lat="45.99541" lon="4.42213">
        <ele>721</ele>
        <time>2016-09-22T07:34:15Z</time>
      </trkpt>
      <trkpt lat="45.99542" lon="4.42201">
        <ele>721</ele>
        <time>2016-09-22T07:34:23Z</time>
      </trkpt>
      <trkpt lat="45.99542" lon="4.42199">
        <ele>721</ele>
        <time>2016-09-22T07:34:24Z</time>
      </trkpt>
      <trkpt lat="45.99545" lon="4.42188">
        <ele>721</ele>
        <time>2016-09-22T07:34:30Z</time>
      </trkpt>
      <trkpt lat="45.99545" lon="4.42186">
        <ele>722</ele>
        <time>2016-09-22T07:34:31Z</time>
      </trkpt>
      <trkpt lat="45.99548" lon="4.42174">
        <ele>722</ele>
        <time>2016-09-22T07:34:40Z</time>
      </trkpt>
      <trkpt lat="45.99548" lon="4.42173">
        <ele>722</ele>
        <time>2016-09-22T07:34:41Z</time>
      </trkpt>
      <trkpt lat="45.99553" lon="4.42163">
        <ele>728</ele>
        <time>2016-09-22T07:34:51Z</time>
      </trkpt>
      <trkpt lat="45.99554" lon="4.42162">
        <ele>728</ele>
        <time>2016-09-22T07:34:52Z</time>
      </trkpt>
      <trkpt lat="45.99561" lon="4.42156">
        <ele>727</ele>
        <time>2016-09-22T07:35:01Z</time>
      </trkpt>
      <trkpt lat="45.99562" lon="4.42155">
        <ele>727</ele>
        <time>2016-09-22T07:35:02Z</time>
      </trkpt>
      <trkpt lat="45.9957" lon="4.4215">
        <ele>726</ele>
        <time>2016-09-22T07:35:12Z</time>
      </trkpt>
      <trkpt lat="45.99571" lon="4.4215">
        <ele>726</ele>
        <time>2016-09-22T07:35:13Z</time>
      </trkpt>
      <trkpt lat="45.99579" lon="4.42145">
        <ele>726</ele>
        <time>2016-09-22T07:35:21Z</time>
      </trkpt>
      <trkpt lat="45.99579" lon="4.42144">
        <ele>726</ele>
        <time>2016-09-22T07:35:22Z</time>
      </trkpt>
      <trkpt lat="45.99587" lon="4.42139">
        <ele>725</ele>
        <time>2016-09-22T07:35:32Z</time>
      </trkpt>
      <trkpt lat="45.99588" lon="4.42138">
        <ele>725</ele>
        <time>2016-09-22T07:35:33Z</time>
      </trkpt>
      <trkpt lat="45.99595" lon="4.42134">
        <ele>726</ele>
        <time>2016-09-22T07:35:43Z</time>
      </trkpt>
      <trkpt lat="45.99596" lon="4.42133">
        <ele>726</ele>
        <time>2016-09-22T07:35:44Z</time>
      </trkpt>
      <trkpt lat="45.99604" lon="4.42128">
        <ele>727</ele>
        <time>2016-09-22T07:35:53Z</time>
      </trkpt>
      <trkpt lat="45.99605" lon="4.42128">
        <ele>727</ele>
        <time>2016-09-22T07:35:54Z</time>
      </trkpt>
      <trkpt lat="45.99612" lon="4.42122">
        <ele>728</ele>
        <time>2016-09-22T07:36:04Z</time>
      </trkpt>
      <trkpt lat="45.99613" lon="4.42121">
        <ele>728</ele>
        <time>2016-09-22T07:36:05Z</time>
      </trkpt>
      <trkpt lat="45.99621" lon="4.42117">
        <ele>729</ele>
        <time>2016-09-22T07:36:14Z</time>
      </trkpt>
      <trkpt lat="45.99621" lon="4.42116">
        <ele>729</ele>
        <time>2016-09-22T07:36:15Z</time>
      </trkpt>
      <trkpt lat="45.99629" lon="4.42112">
        <ele>729</ele>
        <time>2016-09-22T07:36:23Z</time>
      </trkpt>
      <trkpt lat="45.9963" lon="4.42111">
        <ele>729</ele>
        <time>2016-09-22T07:36:24Z</time>
      </trkpt>
      <trkpt lat="45.99637" lon="4.42105">
        <ele>730</ele>
        <time>2016-09-22T07:36:32Z</time>
      </trkpt>
      <trkpt lat="45.99638" lon="4.42104">
        <ele>730</ele>
        <time>2016-09-22T07:36:33Z</time>
      </trkpt>
      <trkpt lat="45.99644" lon="4.42096">
        <ele>732</ele>
        <time>2016-09-22T07:36:42Z</time>
      </trkpt>
      <trkpt lat="45.99645" lon="4.42096">
        <ele>732</ele>
        <time>2016-09-22T07:36:43Z</time>
      </trkpt>
      <trkpt lat="45.99654" lon="4.42092">
        <ele>734</ele>
        <time>2016-09-22T07:36:54Z</time>
      </trkpt>
      <trkpt lat="45.99654" lon="4.42091">
        <ele>734</ele>
        <time>2016-09-22T07:36:55Z</time>
      </trkpt>
      <trkpt lat="45.99661" lon="4.42084">
        <ele>737</ele>
        <time>2016-09-22T07:37:03Z</time>
      </trkpt>
      <trkpt lat="45.99662" lon="4.42084">
        <ele>737</ele>
        <time>2016-09-22T07:37:04Z</time>
      </trkpt>
      <trkpt lat="45.9967" lon="4.42078">
        <ele>742</ele>
        <time>2016-09-22T07:37:15Z</time>
      </trkpt>
      <trkpt lat="45.9967" lon="4.42078">
        <ele>743</ele>
        <time>2016-09-22T07:37:16Z</time>
      </trkpt>
      <trkpt lat="45.99678" lon="4.42074">
        <ele>746</ele>
        <time>2016-09-22T07:37:27Z</time>
      </trkpt>
      <trkpt lat="45.99679" lon="4.42074">
        <ele>746</ele>
        <time>2016-09-22T07:37:28Z</time>
      </trkpt>
      <trkpt lat="45.99686" lon="4.42066">
        <ele>749</ele>
        <time>2016-09-22T07:37:41Z</time>
      </trkpt>
      <trkpt lat="45.99686" lon="4.42065">
        <ele>749</ele>
        <time>2016-09-22T07:37:42Z</time>
      </trkpt>
      <trkpt lat="45.99694" lon="4.42059">
        <ele>751</ele>
        <time>2016-09-22T07:37:50Z</time>
      </trkpt>
      <trkpt lat="45.99696" lon="4.42059">
        <ele>751</ele>
        <time>2016-09-22T07:37:51Z</time>
      </trkpt>
      <trkpt lat="45.99704" lon="4.42055">
        <ele>753</ele>
        <time>2016-09-22T07:38:00Z</time>
      </trkpt>
      <trkpt lat="45.99705" lon="4.42055">
        <ele>753</ele>
        <time>2016-09-22T07:38:01Z</time>
      </trkpt>
      <trkpt lat="45.99713" lon="4.42054">
        <ele>753</ele>
        <time>2016-09-22T07:38:09Z</time>
      </trkpt>
      <trkpt lat="45.99714" lon="4.42053">
        <ele>753</ele>
        <time>2016-09-22T07:38:10Z</time>
      </trkpt>
      <trkpt lat="45.99721" lon="4.42048">
        <ele>754</ele>
        <time>2016-09-22T07:38:26Z</time>
      </trkpt>
      <trkpt lat="45.99722" lon="4.42048">
        <ele>754</ele>
        <time>2016-09-22T07:38:27Z</time>
      </trkpt>
      <trkpt lat="45.99731" lon="4.42044">
        <ele>755</ele>
        <time>2016-09-22T07:38:40Z</time>
      </trkpt>
      <trkpt lat="45.99731" lon="4.42044">
        <ele>755</ele>
        <time>2016-09-22T07:38:41Z</time>
      </trkpt>
      <trkpt lat="45.9974" lon="4.42045">
        <ele>755</ele>
        <time>2016-09-22T07:38:52Z</time>
      </trkpt>
      <trkpt lat="45.9974" lon="4.42045">
        <ele>755</ele>
        <time>2016-09-22T07:38:53Z</time>
      </trkpt>
      <trkpt lat="45.99748" lon="4.42041">
        <ele>756</ele>
        <time>2016-09-22T07:39:01Z</time>
      </trkpt>
      <trkpt lat="45.99749" lon="4.42041">
        <ele>756</ele>
        <time>2016-09-22T07:39:02Z</time>
      </trkpt>
      <trkpt lat="45.99756" lon="4.42034">
        <ele>761</ele>
        <time>2016-09-22T07:39:12Z</time>
      </trkpt>
      <trkpt lat="45.99758" lon="4.42033">
        <ele>761</ele>
        <time>2016-09-22T07:39:13Z</time>
      </trkpt>
      <trkpt lat="45.99766" lon="4.42029">
        <ele>762</ele>
        <time>2016-09-22T07:39:19Z</time>
      </trkpt>
      <trkpt lat="45.99766" lon="4.42029">
        <ele>762</ele>
        <time>2016-09-22T07:39:20Z</time>
      </trkpt>
      <trkpt lat="45.99774" lon="4.42024">
        <ele>762</ele>
        <time>2016-09-22T07:39:27Z</time>
      </trkpt>
      <trkpt lat="45.99775" lon="4.42023">
        <ele>762</ele>
        <time>2016-09-22T07:39:28Z</time>
      </trkpt>
      <trkpt lat="45.99784" lon="4.4202">
        <ele>762</ele>
        <time>2016-09-22T07:39:37Z</time>
      </trkpt>
      <trkpt lat="45.99784" lon="4.42019">
        <ele>762</ele>
        <time>2016-09-22T07:39:38Z</time>
      </trkpt>
      <trkpt lat="45.99793" lon="4.4202">
        <ele>763</ele>
        <time>2016-09-22T07:39:50Z</time>
      </trkpt>
      <trkpt lat="45.99794" lon="4.4202">
        <ele>763</ele>
        <time>2016-09-22T07:39:51Z</time>
      </trkpt>
      <trkpt lat="45.99802" lon="4.42019">
        <ele>763</ele>
        <time>2016-09-22T07:39:58Z</time>
      </trkpt>
      <trkpt lat="45.99803" lon="4.42018">
        <ele>763</ele>
        <time>2016-09-22T07:39:59Z</time>
      </trkpt>
      <trkpt lat="45.99811" lon="4.42017">
        <ele>764</ele>
        <time>2016-09-22T07:40:05Z</time>
      </trkpt>
      <trkpt lat="45.99812" lon="4.42017">
        <ele>764</ele>
        <time>2016-09-22T07:40:06Z</time>
      </trkpt>
      <trkpt lat="45.9982" lon="4.42014">
        <ele>765</ele>
        <time>2016-09-22T07:40:12Z</time>
      </trkpt>
      <trkpt lat="45.99821" lon="4.42013">
        <ele>765</ele>
        <time>2016-09-22T07:40:13Z</time>
      </trkpt>
      <trkpt lat="45.9983" lon="4.42012">
        <ele>767</ele>
        <time>2016-09-22T07:40:20Z</time>
      </trkpt>
      <trkpt lat="45.99831" lon="4.42012">
        <ele>767</ele>
        <time>2016-09-22T07:40:21Z</time>
      </trkpt>
      <trkpt lat="45.99839" lon="4.42017">
        <ele>769</ele>
        <time>2016-09-22T07:40:29Z</time>
      </trkpt>
      <trkpt lat="45.9984" lon="4.42017">
        <ele>769</ele>
        <time>2016-09-22T07:40:30Z</time>
      </trkpt>
      <trkpt lat="45.99848" lon="4.42014">
        <ele>770</ele>
        <time>2016-09-22T07:40:40Z</time>
      </trkpt>
      <trkpt lat="45.99849" lon="4.42013">
        <ele>770</ele>
        <time>2016-09-22T07:40:41Z</time>
      </trkpt>
      <trkpt lat="45.99849" lon="4.42">
        <ele>770</ele>
        <time>2016-09-22T07:40:50Z</time>
      </trkpt>
      <trkpt lat="45.99849" lon="4.41999">
        <ele>775</ele>
        <time>2016-09-22T07:40:51Z</time>
      </trkpt>
      <trkpt lat="45.9985" lon="4.41986">
        <ele>776</ele>
        <time>2016-09-22T07:41:34Z</time>
      </trkpt>
      <trkpt lat="45.9985" lon="4.41986">
        <ele>776</ele>
        <time>2016-09-22T07:41:35Z</time>
      </trkpt>
      <trkpt lat="45.99853" lon="4.41975">
        <ele>777</ele>
        <time>2016-09-22T07:45:38Z</time>
      </trkpt>
      <trkpt lat="45.99853" lon="4.41973">
        <ele>777</ele>
        <time>2016-09-22T07:45:39Z</time>
      </trkpt>
      <trkpt lat="45.99854" lon="4.41962">
        <ele>778</ele>
        <time>2016-09-22T07:45:45Z</time>
      </trkpt>
      <trkpt lat="45.99853" lon="4.4196">
        <ele>778</ele>
        <time>2016-09-22T07:45:46Z</time>
      </trkpt>
      <trkpt lat="45.99853" lon="4.41948">
        <ele>778</ele>
        <time>2016-09-22T07:45:52Z</time>
      </trkpt>
      <trkpt lat="45.99852" lon="4.41947">
        <ele>778</ele>
        <time>2016-09-22T07:45:53Z</time>
      </trkpt>
      <trkpt lat="45.9985" lon="4.41934">
        <ele>778</ele>
        <time>2016-09-22T07:46:00Z</time>
      </trkpt>
      <trkpt lat="45.9985" lon="4.41933">
        <ele>778</ele>
        <time>2016-09-22T07:46:01Z</time>
      </trkpt>
      <trkpt lat="45.99846" lon="4.41923">
        <ele>778</ele>
        <time>2016-09-22T07:46:08Z</time>
      </trkpt>
      <trkpt lat="45.99845" lon="4.41921">
        <ele>778</ele>
        <time>2016-09-22T07:46:09Z</time>
      </trkpt>
      <trkpt lat="45.9984" lon="4.41912">
        <ele>778</ele>
        <time>2016-09-22T07:46:16Z</time>
      </trkpt>
      <trkpt lat="45.99839" lon="4.41912">
        <ele>778</ele>
        <time>2016-09-22T07:46:17Z</time>
      </trkpt>
      <trkpt lat="45.9983" lon="4.41912">
        <ele>778</ele>
        <time>2016-09-22T07:46:26Z</time>
      </trkpt>
      <trkpt lat="45.99829" lon="4.41913">
        <ele>778</ele>
        <time>2016-09-22T07:46:27Z</time>
      </trkpt>
      <trkpt lat="45.9982" lon="4.41913">
        <ele>779</ele>
        <time>2016-09-22T07:46:39Z</time>
      </trkpt>
      <trkpt lat="45.9982" lon="4.41913">
        <ele>779</ele>
        <time>2016-09-22T07:46:40Z</time>
      </trkpt>
      <trkpt lat="45.99811" lon="4.41912">
        <ele>779</ele>
        <time>2016-09-22T07:46:51Z</time>
      </trkpt>
      <trkpt lat="45.9981" lon="4.41911">
        <ele>779</ele>
        <time>2016-09-22T07:46:52Z</time>
      </trkpt>
      <trkpt lat="45.99801" lon="4.4191">
        <ele>779</ele>
        <time>2016-09-22T07:47:00Z</time>
      </trkpt>
      <trkpt lat="45.998" lon="4.4191">
        <ele>779</ele>
        <time>2016-09-22T07:47:01Z</time>
      </trkpt>
      <trkpt lat="45.99792" lon="4.41907">
        <ele>780</ele>
        <time>2016-09-22T07:47:08Z</time>
      </trkpt>
      <trkpt lat="45.99791" lon="4.41907">
        <ele>780</ele>
        <time>2016-09-22T07:47:09Z</time>
      </trkpt>
      <trkpt lat="45.99782" lon="4.41903">
        <ele>780</ele>
        <time>2016-09-22T07:47:16Z</time>
      </trkpt>
      <trkpt lat="45.99781" lon="4.41903">
        <ele>780</ele>
        <time>2016-09-22T07:47:17Z</time>
      </trkpt>
      <trkpt lat="45.99772" lon="4.41901">
        <ele>780</ele>
        <time>2016-09-22T07:47:23Z</time>
      </trkpt>
      <trkpt lat="45.99772" lon="4.41901">
        <ele>780</ele>
        <time>2016-09-22T07:47:24Z</time>
      </trkpt>
      <trkpt lat="45.99763" lon="4.41899">
        <ele>781</ele>
        <time>2016-09-22T07:47:31Z</time>
      </trkpt>
      <trkpt lat="45.99762" lon="4.41899">
        <ele>781</ele>
        <time>2016-09-22T07:47:32Z</time>
      </trkpt>
      <trkpt lat="45.99754" lon="4.41896">
        <ele>781</ele>
        <time>2016-09-22T07:47:38Z</time>
      </trkpt>
      <trkpt lat="45.99753" lon="4.41896">
        <ele>781</ele>
        <time>2016-09-22T07:47:39Z</time>
      </trkpt>
      <trkpt lat="45.99745" lon="4.41891">
        <ele>784</ele>
        <time>2016-09-22T07:47:48Z</time>
      </trkpt>
      <trkpt lat="45.99744" lon="4.41891">
        <ele>784</ele>
        <time>2016-09-22T07:47:49Z</time>
      </trkpt>
      <trkpt lat="45.99737" lon="4.41887">
        <ele>784</ele>
        <time>2016-09-22T07:47:57Z</time>
      </trkpt>
      <trkpt lat="45.99735" lon="4.41886">
        <ele>784</ele>
        <time>2016-09-22T07:47:58Z</time>
      </trkpt>
      <trkpt lat="45.99728" lon="4.41883">
        <ele>785</ele>
        <time>2016-09-22T07:48:04Z</time>
      </trkpt>
      <trkpt lat="45.99726" lon="4.41882">
        <ele>785</ele>
        <time>2016-09-22T07:48:05Z</time>
      </trkpt>
      <trkpt lat="45.99718" lon="4.41879">
        <ele>785</ele>
        <time>2016-09-22T07:48:11Z</time>
      </trkpt>
      <trkpt lat="45.99716" lon="4.41879">
        <ele>785</ele>
        <time>2016-09-22T07:48:12Z</time>
      </trkpt>
      <trkpt lat="45.99709" lon="4.41881">
        <ele>786</ele>
        <time>2016-09-22T07:48:19Z</time>
      </trkpt>
      <trkpt lat="45.99707" lon="4.41881">
        <ele>786</ele>
        <time>2016-09-22T07:48:20Z</time>
      </trkpt>
      <trkpt lat="45.99699" lon="4.41881">
        <ele>786</ele>
        <time>2016-09-22T07:48:29Z</time>
      </trkpt>
      <trkpt lat="45.99698" lon="4.41881">
        <ele>786</ele>
        <time>2016-09-22T07:48:30Z</time>
      </trkpt>
      <trkpt lat="45.9969" lon="4.41882">
        <ele>786</ele>
        <time>2016-09-22T07:48:38Z</time>
      </trkpt>
      <trkpt lat="45.99689" lon="4.41882">
        <ele>786</ele>
        <time>2016-09-22T07:48:39Z</time>
      </trkpt>
      <trkpt lat="45.99682" lon="4.41884">
        <ele>786</ele>
        <time>2016-09-22T07:48:48Z</time>
      </trkpt>
      <trkpt lat="45.9968" lon="4.41885">
        <ele>786</ele>
        <time>2016-09-22T07:48:49Z</time>
      </trkpt>
      <trkpt lat="45.99671" lon="4.41886">
        <ele>786</ele>
        <time>2016-09-22T07:48:56Z</time>
      </trkpt>
      <trkpt lat="45.9967" lon="4.41885">
        <ele>786</ele>
        <time>2016-09-22T07:48:57Z</time>
      </trkpt>
      <trkpt lat="45.99662" lon="4.41887">
        <ele>789</ele>
        <time>2016-09-22T07:49:04Z</time>
      </trkpt>
      <trkpt lat="45.99661" lon="4.41888">
        <ele>789</ele>
        <time>2016-09-22T07:49:05Z</time>
      </trkpt>
      <trkpt lat="45.99652" lon="4.41888">
        <ele>789</ele>
        <time>2016-09-22T07:49:11Z</time>
      </trkpt>
      <trkpt lat="45.99651" lon="4.41888">
        <ele>789</ele>
        <time>2016-09-22T07:49:12Z</time>
      </trkpt>
      <trkpt lat="45.99642" lon="4.41885">
        <ele>789</ele>
        <time>2016-09-22T07:49:17Z</time>
      </trkpt>
      <trkpt lat="45.9964" lon="4.41885">
        <ele>790</ele>
        <time>2016-09-22T07:49:18Z</time>
      </trkpt>
      <trkpt lat="45.99632" lon="4.41886">
        <ele>790</ele>
        <time>2016-09-22T07:49:23Z</time>
      </trkpt>
      <trkpt lat="45.99631" lon="4.41886">
        <ele>790</ele>
        <time>2016-09-22T07:49:24Z</time>
      </trkpt>
      <trkpt lat="45.99622" lon="4.41887">
        <ele>790</ele>
        <time>2016-09-22T07:49:30Z</time>
      </trkpt>
      <trkpt lat="45.9962" lon="4.41887">
        <ele>790</ele>
        <time>2016-09-22T07:49:31Z</time>
      </trkpt>
      <trkpt lat="45.99612" lon="4.41888">
        <ele>790</ele>
        <time>2016-09-22T07:49:37Z</time>
      </trkpt>
      <trkpt lat="45.9961" lon="4.41889">
        <ele>790</ele>
        <time>2016-09-22T07:49:38Z</time>
      </trkpt>
      <trkpt lat="45.99602" lon="4.41889">
        <ele>790</ele>
        <time>2016-09-22T07:49:44Z</time>
      </trkpt>
      <trkpt lat="45.996" lon="4.41889">
        <ele>790</ele>
        <time>2016-09-22T07:49:45Z</time>
      </trkpt>
      <trkpt lat="45.99592" lon="4.41889">
        <ele>790</ele>
        <time>2016-09-22T07:49:50Z</time>
      </trkpt>
      <trkpt lat="45.9959" lon="4.41889">
        <ele>790</ele>
        <time>2016-09-22T07:49:51Z</time>
      </trkpt>
      <trkpt lat="45.99582" lon="4.41886">
        <ele>789</ele>
        <time>2016-09-22T07:49:57Z</time>
      </trkpt>
      <trkpt lat="45.99581" lon="4.41886">
        <ele>789</ele>
        <time>2016-09-22T07:49:58Z</time>
      </trkpt>
      <trkpt lat="45.99573" lon="4.41883">
        <ele>789</ele>
        <time>2016-09-22T07:50:04Z</time>
      </trkpt>
      <trkpt lat="45.99572" lon="4.41882">
        <ele>789</ele>
        <time>2016-09-22T07:50:05Z</time>
      </trkpt>
      <trkpt lat="45.99564" lon="4.41879">
        <ele>789</ele>
        <time>2016-09-22T07:50:12Z</time>
      </trkpt>
      <trkpt lat="45.99563" lon="4.41879">
        <ele>789</ele>
        <time>2016-09-22T07:50:13Z</time>
      </trkpt>
      <trkpt lat="45.99555" lon="4.41875">
        <ele>789</ele>
        <time>2016-09-22T07:50:19Z</time>
      </trkpt>
      <trkpt lat="45.99554" lon="4.41874">
        <ele>789</ele>
        <time>2016-09-22T07:50:20Z</time>
      </trkpt>
      <trkpt lat="45.99546" lon="4.41868">
        <ele>789</ele>
        <time>2016-09-22T07:50:27Z</time>
      </trkpt>
      <trkpt lat="45.99545" lon="4.41867">
        <ele>789</ele>
        <time>2016-09-22T07:50:28Z</time>
      </trkpt>
      <trkpt lat="45.99538" lon="4.41862">
        <ele>789</ele>
        <time>2016-09-22T07:50:35Z</time>
      </trkpt>
      <trkpt lat="45.99537" lon="4.41861">
        <ele>789</ele>
        <time>2016-09-22T07:50:36Z</time>
      </trkpt>
      <trkpt lat="45.99529" lon="4.41854">
        <ele>789</ele>
        <time>2016-09-22T07:50:49Z</time>
      </trkpt>
      <trkpt lat="45.99528" lon="4.41854">
        <ele>789</ele>
        <time>2016-09-22T07:50:50Z</time>
      </trkpt>
      <trkpt lat="45.9952" lon="4.41849">
        <ele>790</ele>
        <time>2016-09-22T07:50:59Z</time>
      </trkpt>
      <trkpt lat="45.99519" lon="4.41848">
        <ele>790</ele>
        <time>2016-09-22T07:51:00Z</time>
      </trkpt>
      <trkpt lat="45.99512" lon="4.41841">
        <ele>790</ele>
        <time>2016-09-22T07:51:10Z</time>
      </trkpt>
      <trkpt lat="45.9951" lon="4.4184">
        <ele>791</ele>
        <time>2016-09-22T07:51:11Z</time>
      </trkpt>
      <trkpt lat="45.99503" lon="4.41836">
        <ele>791</ele>
        <time>2016-09-22T07:51:15Z</time>
      </trkpt>
      <trkpt lat="45.99502" lon="4.41834">
        <ele>792</ele>
        <time>2016-09-22T07:51:16Z</time>
      </trkpt>
      <trkpt lat="45.99494" lon="4.4183">
        <ele>792</ele>
        <time>2016-09-22T07:51:21Z</time>
      </trkpt>
      <trkpt lat="45.99492" lon="4.4183">
        <ele>793</ele>
        <time>2016-09-22T07:51:22Z</time>
      </trkpt>
      <trkpt lat="45.99485" lon="4.41826">
        <ele>793</ele>
        <time>2016-09-22T07:51:27Z</time>
      </trkpt>
      <trkpt lat="45.99484" lon="4.41825">
        <ele>793</ele>
        <time>2016-09-22T07:51:28Z</time>
      </trkpt>
      <trkpt lat="45.99475" lon="4.41821">
        <ele>793</ele>
        <time>2016-09-22T07:51:33Z</time>
      </trkpt>
      <trkpt lat="45.99474" lon="4.41821">
        <ele>793</ele>
        <time>2016-09-22T07:51:34Z</time>
      </trkpt>
      <trkpt lat="45.99465" lon="4.41821">
        <ele>794</ele>
        <time>2016-09-22T07:51:40Z</time>
      </trkpt>
      <trkpt lat="45.99464" lon="4.4182">
        <ele>794</ele>
        <time>2016-09-22T07:51:41Z</time>
      </trkpt>
      <trkpt lat="45.99455" lon="4.41819">
        <ele>794</ele>
        <time>2016-09-22T07:51:48Z</time>
      </trkpt>
      <trkpt lat="45.99454" lon="4.41819">
        <ele>794</ele>
        <time>2016-09-22T07:51:49Z</time>
      </trkpt>
      <trkpt lat="45.99446" lon="4.41819">
        <ele>795</ele>
        <time>2016-09-22T07:51:55Z</time>
      </trkpt>
      <trkpt lat="45.99444" lon="4.4182">
        <ele>795</ele>
        <time>2016-09-22T07:51:56Z</time>
      </trkpt>
      <trkpt lat="45.99436" lon="4.41821">
        <ele>795</ele>
        <time>2016-09-22T07:52:02Z</time>
      </trkpt>
      <trkpt lat="45.99435" lon="4.41821">
        <ele>795</ele>
        <time>2016-09-22T07:52:03Z</time>
      </trkpt>
      <trkpt lat="45.99427" lon="4.41822">
        <ele>796</ele>
        <time>2016-09-22T07:52:10Z</time>
      </trkpt>
      <trkpt lat="45.99426" lon="4.41821">
        <ele>796</ele>
        <time>2016-09-22T07:52:11Z</time>
      </trkpt>
      <trkpt lat="45.99417" lon="4.41819">
        <ele>801</ele>
        <time>2016-09-22T07:52:18Z</time>
      </trkpt>
      <trkpt lat="45.99415" lon="4.41819">
        <ele>801</ele>
        <time>2016-09-22T07:52:19Z</time>
      </trkpt>
      <trkpt lat="45.99407" lon="4.41815">
        <ele>803</ele>
        <time>2016-09-22T07:52:26Z</time>
      </trkpt>
      <trkpt lat="45.99406" lon="4.41815">
        <ele>803</ele>
        <time>2016-09-22T07:52:27Z</time>
      </trkpt>
      <trkpt lat="45.99399" lon="4.41809">
        <ele>804</ele>
        <time>2016-09-22T07:52:37Z</time>
      </trkpt>
      <trkpt lat="45.99398" lon="4.41808">
        <ele>804</ele>
        <time>2016-09-22T07:52:38Z</time>
      </trkpt>
      <trkpt lat="45.99391" lon="4.418">
        <ele>805</ele>
        <time>2016-09-22T07:52:45Z</time>
      </trkpt>
      <trkpt lat="45.9939" lon="4.41799">
        <ele>805</ele>
        <time>2016-09-22T07:52:46Z</time>
      </trkpt>
      <trkpt lat="45.99384" lon="4.4179">
        <ele>805</ele>
        <time>2016-09-22T07:52:54Z</time>
      </trkpt>
      <trkpt lat="45.99383" lon="4.41789">
        <ele>806</ele>
        <time>2016-09-22T07:52:55Z</time>
      </trkpt>
      <trkpt lat="45.99376" lon="4.41782">
        <ele>806</ele>
        <time>2016-09-22T07:53:03Z</time>
      </trkpt>
      <trkpt lat="45.99375" lon="4.41781">
        <ele>806</ele>
        <time>2016-09-22T07:53:04Z</time>
      </trkpt>
      <trkpt lat="45.99368" lon="4.41775">
        <ele>807</ele>
        <time>2016-09-22T07:53:12Z</time>
      </trkpt>
      <trkpt lat="45.99367" lon="4.41774">
        <ele>807</ele>
        <time>2016-09-22T07:53:13Z</time>
      </trkpt>
      <trkpt lat="45.9936" lon="4.41768">
        <ele>808</ele>
        <time>2016-09-22T07:53:22Z</time>
      </trkpt>
      <trkpt lat="45.99359" lon="4.41767">
        <ele>808</ele>
        <time>2016-09-22T07:53:23Z</time>
      </trkpt>
      <trkpt lat="45.99351" lon="4.41761">
        <ele>809</ele>
        <time>2016-09-22T07:53:31Z</time>
      </trkpt>
      <trkpt lat="45.9935" lon="4.4176">
        <ele>809</ele>
        <time>2016-09-22T07:53:32Z</time>
      </trkpt>
      <trkpt lat="45.99343" lon="4.41755">
        <ele>811</ele>
        <time>2016-09-22T07:53:39Z</time>
      </trkpt>
      <trkpt lat="45.99342" lon="4.41754">
        <ele>811</ele>
        <time>2016-09-22T07:53:40Z</time>
      </trkpt>
      <trkpt lat="45.99335" lon="4.41746">
        <ele>810</ele>
        <time>2016-09-22T07:53:47Z</time>
      </trkpt>
      <trkpt lat="45.99335" lon="4.41744">
        <ele>810</ele>
        <time>2016-09-22T07:53:48Z</time>
      </trkpt>
      <trkpt lat="45.99328" lon="4.41737">
        <ele>815</ele>
        <time>2016-09-22T07:53:55Z</time>
      </trkpt>
      <trkpt lat="45.99327" lon="4.41736">
        <ele>815</ele>
        <time>2016-09-22T07:53:56Z</time>
      </trkpt>
      <trkpt lat="45.99321" lon="4.41729">
        <ele>815</ele>
        <time>2016-09-22T07:54:03Z</time>
      </trkpt>
      <trkpt lat="45.9932" lon="4.41728">
        <ele>815</ele>
        <time>2016-09-22T07:54:04Z</time>
      </trkpt>
      <trkpt lat="45.99313" lon="4.41722">
        <ele>816</ele>
        <time>2016-09-22T07:54:11Z</time>
      </trkpt>
      <trkpt lat="45.99312" lon="4.41721">
        <ele>816</ele>
        <time>2016-09-22T07:54:12Z</time>
      </trkpt>
      <trkpt lat="45.99306" lon="4.41712">
        <ele>816</ele>
        <time>2016-09-22T07:54:18Z</time>
      </trkpt>
      <trkpt lat="45.99306" lon="4.41711">
        <ele>816</ele>
        <time>2016-09-22T07:54:19Z</time>
      </trkpt>
      <trkpt lat="45.99299" lon="4.41703">
        <ele>816</ele>
        <time>2016-09-22T07:54:26Z</time>
      </trkpt>
      <trkpt lat="45.99298" lon="4.41702">
        <ele>816</ele>
        <time>2016-09-22T07:54:27Z</time>
      </trkpt>
      <trkpt lat="45.99291" lon="4.41695">
        <ele>816</ele>
        <time>2016-09-22T07:54:34Z</time>
      </trkpt>
      <trkpt lat="45.9929" lon="4.41694">
        <ele>816</ele>
        <time>2016-09-22T07:54:35Z</time>
      </trkpt>
      <trkpt lat="45.99283" lon="4.41686">
        <ele>817</ele>
        <time>2016-09-22T07:54:42Z</time>
      </trkpt>
      <trkpt lat="45.99282" lon="4.41684">
        <ele>817</ele>
        <time>2016-09-22T07:54:43Z</time>
      </trkpt>
      <trkpt lat="45.99274" lon="4.41677">
        <ele>818</ele>
        <time>2016-09-22T07:54:50Z</time>
      </trkpt>
      <trkpt lat="45.99273" lon="4.41676">
        <ele>818</ele>
        <time>2016-09-22T07:54:51Z</time>
      </trkpt>
      <trkpt lat="45.99266" lon="4.4167">
        <ele>819</ele>
        <time>2016-09-22T07:54:58Z</time>
      </trkpt>
      <trkpt lat="45.99265" lon="4.41669">
        <ele>819</ele>
        <time>2016-09-22T07:54:59Z</time>
      </trkpt>
      <trkpt lat="45.99257" lon="4.41664">
        <ele>816</ele>
        <time>2016-09-22T07:55:08Z</time>
      </trkpt>
      <trkpt lat="45.99256" lon="4.41663">
        <ele>816</ele>
        <time>2016-09-22T07:55:09Z</time>
      </trkpt>
      <trkpt lat="45.99249" lon="4.41658">
        <ele>822</ele>
        <time>2016-09-22T07:55:17Z</time>
      </trkpt>
      <trkpt lat="45.99248" lon="4.41657">
        <ele>822</ele>
        <time>2016-09-22T07:55:18Z</time>
      </trkpt>
      <trkpt lat="45.9924" lon="4.41652">
        <ele>823</ele>
        <time>2016-09-22T07:55:26Z</time>
      </trkpt>
      <trkpt lat="45.99239" lon="4.41651">
        <ele>823</ele>
        <time>2016-09-22T07:55:27Z</time>
      </trkpt>
      <trkpt lat="45.99231" lon="4.41646">
        <ele>823</ele>
        <time>2016-09-22T07:55:35Z</time>
      </trkpt>
      <trkpt lat="45.99231" lon="4.41645">
        <ele>824</ele>
        <time>2016-09-22T07:55:36Z</time>
      </trkpt>
      <trkpt lat="45.99222" lon="4.41642">
        <ele>824</ele>
        <time>2016-09-22T07:55:44Z</time>
      </trkpt>
      <trkpt lat="45.99221" lon="4.41641">
        <ele>825</ele>
        <time>2016-09-22T07:55:45Z</time>
      </trkpt>
      <trkpt lat="45.99214" lon="4.41637">
        <ele>825</ele>
        <time>2016-09-22T07:55:53Z</time>
      </trkpt>
      <trkpt lat="45.99213" lon="4.41637">
        <ele>825</ele>
        <time>2016-09-22T07:55:54Z</time>
      </trkpt>
      <trkpt lat="45.99204" lon="4.41633">
        <ele>826</ele>
        <time>2016-09-22T07:56:03Z</time>
      </trkpt>
      <trkpt lat="45.99204" lon="4.41632">
        <ele>827</ele>
        <time>2016-09-22T07:56:04Z</time>
      </trkpt>
      <trkpt lat="45.99195" lon="4.41628">
        <ele>827</ele>
        <time>2016-09-22T07:56:14Z</time>
      </trkpt>
      <trkpt lat="45.99194" lon="4.41627">
        <ele>827</ele>
        <time>2016-09-22T07:56:15Z</time>
      </trkpt>
      <trkpt lat="45.99186" lon="4.41621">
        <ele>827</ele>
        <time>2016-09-22T07:56:23Z</time>
      </trkpt>
      <trkpt lat="45.99185" lon="4.4162">
        <ele>827</ele>
        <time>2016-09-22T07:56:24Z</time>
      </trkpt>
      <trkpt lat="45.99179" lon="4.41614">
        <ele>827</ele>
        <time>2016-09-22T07:56:30Z</time>
      </trkpt>
      <trkpt lat="45.99178" lon="4.41612">
        <ele>827</ele>
        <time>2016-09-22T07:56:31Z</time>
      </trkpt>
      <trkpt lat="45.99171" lon="4.41604">
        <ele>826</ele>
        <time>2016-09-22T07:56:38Z</time>
      </trkpt>
      <trkpt lat="45.9917" lon="4.41602">
        <ele>826</ele>
        <time>2016-09-22T07:56:39Z</time>
      </trkpt>
      <trkpt lat="45.99164" lon="4.41594">
        <ele>834</ele>
        <time>2016-09-22T07:56:46Z</time>
      </trkpt>
      <trkpt lat="45.99163" lon="4.41593">
        <ele>834</ele>
        <time>2016-09-22T07:56:47Z</time>
      </trkpt>
      <trkpt lat="45.99157" lon="4.41586">
        <ele>834</ele>
        <time>2016-09-22T07:56:53Z</time>
      </trkpt>
      <trkpt lat="45.99156" lon="4.41585">
        <ele>834</ele>
        <time>2016-09-22T07:56:54Z</time>
      </trkpt>
      <trkpt lat="45.99149" lon="4.41577">
        <ele>829</ele>
        <time>2016-09-22T07:57:01Z</time>
      </trkpt>
      <trkpt lat="45.99148" lon="4.41576">
        <ele>830</ele>
        <time>2016-09-22T07:57:02Z</time>
      </trkpt>
      <trkpt lat="45.99142" lon="4.41568">
        <ele>831</ele>
        <time>2016-09-22T07:57:09Z</time>
      </trkpt>
      <trkpt lat="45.9914" lon="4.41567">
        <ele>831</ele>
        <time>2016-09-22T07:57:10Z</time>
      </trkpt>
      <trkpt lat="45.99134" lon="4.4156">
        <ele>831</ele>
        <time>2016-09-22T07:57:16Z</time>
      </trkpt>
      <trkpt lat="45.99133" lon="4.41559">
        <ele>832</ele>
        <time>2016-09-22T07:57:17Z</time>
      </trkpt>
      <trkpt lat="45.99127" lon="4.41551">
        <ele>832</ele>
        <time>2016-09-22T07:57:24Z</time>
      </trkpt>
      <trkpt lat="45.99126" lon="4.4155">
        <ele>832</ele>
        <time>2016-09-22T07:57:25Z</time>
      </trkpt>
      <trkpt lat="45.99118" lon="4.41544">
        <ele>833</ele>
        <time>2016-09-22T07:57:34Z</time>
      </trkpt>
      <trkpt lat="45.99118" lon="4.41543">
        <ele>833</ele>
        <time>2016-09-22T07:57:35Z</time>
      </trkpt>
      <trkpt lat="45.99111" lon="4.41536">
        <ele>833</ele>
        <time>2016-09-22T07:57:43Z</time>
      </trkpt>
      <trkpt lat="45.9911" lon="4.41535">
        <ele>833</ele>
        <time>2016-09-22T07:57:44Z</time>
      </trkpt>
      <trkpt lat="45.99103" lon="4.41526">
        <ele>834</ele>
        <time>2016-09-22T07:57:52Z</time>
      </trkpt>
      <trkpt lat="45.99102" lon="4.41525">
        <ele>834</ele>
        <time>2016-09-22T07:57:53Z</time>
      </trkpt>
      <trkpt lat="45.99096" lon="4.41518">
        <ele>834</ele>
        <time>2016-09-22T07:58:01Z</time>
      </trkpt>
      <trkpt lat="45.99095" lon="4.41517">
        <ele>835</ele>
        <time>2016-09-22T07:58:02Z</time>
      </trkpt>
      <trkpt lat="45.99088" lon="4.41511">
        <ele>836</ele>
        <time>2016-09-22T07:58:09Z</time>
      </trkpt>
      <trkpt lat="45.99087" lon="4.4151">
        <ele>836</ele>
        <time>2016-09-22T07:58:10Z</time>
      </trkpt>
      <trkpt lat="45.9908" lon="4.41502">
        <ele>840</ele>
        <time>2016-09-22T07:58:18Z</time>
      </trkpt>
      <trkpt lat="45.99079" lon="4.41501">
        <ele>840</ele>
        <time>2016-09-22T07:58:19Z</time>
      </trkpt>
      <trkpt lat="45.99072" lon="4.41495">
        <ele>841</ele>
        <time>2016-09-22T07:58:26Z</time>
      </trkpt>
      <trkpt lat="45.99071" lon="4.41494">
        <ele>841</ele>
        <time>2016-09-22T07:58:27Z</time>
      </trkpt>
      <trkpt lat="45.99065" lon="4.41486">
        <ele>842</ele>
        <time>2016-09-22T07:58:34Z</time>
      </trkpt>
      <trkpt lat="45.99064" lon="4.41485">
        <ele>843</ele>
        <time>2016-09-22T07:58:35Z</time>
      </trkpt>
      <trkpt lat="45.99057" lon="4.41478">
        <ele>844</ele>
        <time>2016-09-22T07:58:42Z</time>
      </trkpt>
      <trkpt lat="45.99056" lon="4.41477">
        <ele>844</ele>
        <time>2016-09-22T07:58:43Z</time>
      </trkpt>
      <trkpt lat="45.99051" lon="4.41468">
        <ele>844</ele>
        <time>2016-09-22T07:58:50Z</time>
      </trkpt>
      <trkpt lat="45.9905" lon="4.41467">
        <ele>844</ele>
        <time>2016-09-22T07:58:51Z</time>
      </trkpt>
      <trkpt lat="45.99043" lon="4.4146">
        <ele>845</ele>
        <time>2016-09-22T07:58:59Z</time>
      </trkpt>
      <trkpt lat="45.99042" lon="4.41459">
        <ele>845</ele>
        <time>2016-09-22T07:59:00Z</time>
      </trkpt>
      <trkpt lat="45.99037" lon="4.4145">
        <ele>846</ele>
        <time>2016-09-22T07:59:07Z</time>
      </trkpt>
      <trkpt lat="45.99036" lon="4.41449">
        <ele>846</ele>
        <time>2016-09-22T07:59:08Z</time>
      </trkpt>
      <trkpt lat="45.99029" lon="4.41441">
        <ele>847</ele>
        <time>2016-09-22T07:59:15Z</time>
      </trkpt>
      <trkpt lat="45.99028" lon="4.4144">
        <ele>847</ele>
        <time>2016-09-22T07:59:16Z</time>
      </trkpt>
      <trkpt lat="45.99023" lon="4.4143">
        <ele>848</ele>
        <time>2016-09-22T07:59:23Z</time>
      </trkpt>
      <trkpt lat="45.99022" lon="4.41428">
        <ele>848</ele>
        <time>2016-09-22T07:59:24Z</time>
      </trkpt>
      <trkpt lat="45.99017" lon="4.41418">
        <ele>850</ele>
        <time>2016-09-22T07:59:31Z</time>
      </trkpt>
      <trkpt lat="45.99016" lon="4.41417">
        <ele>850</ele>
        <time>2016-09-22T07:59:32Z</time>
      </trkpt>
      <trkpt lat="45.9901" lon="4.41408">
        <ele>850</ele>
        <time>2016-09-22T07:59:39Z</time>
      </trkpt>
      <trkpt lat="45.99009" lon="4.41407">
        <ele>850</ele>
        <time>2016-09-22T07:59:40Z</time>
      </trkpt>
      <trkpt lat="45.99002" lon="4.41402">
        <ele>850</ele>
        <time>2016-09-22T07:59:47Z</time>
      </trkpt>
      <trkpt lat="45.99001" lon="4.414">
        <ele>849</ele>
        <time>2016-09-22T07:59:48Z</time>
      </trkpt>
      <trkpt lat="45.98994" lon="4.41393">
        <ele>857</ele>
        <time>2016-09-22T07:59:56Z</time>
      </trkpt>
      <trkpt lat="45.98993" lon="4.41392">
        <ele>857</ele>
        <time>2016-09-22T07:59:57Z</time>
      </trkpt>
      <trkpt lat="45.98987" lon="4.41385">
        <ele>858</ele>
        <time>2016-09-22T08:00:05Z</time>
      </trkpt>
      <trkpt lat="45.98986" lon="4.41384">
        <ele>858</ele>
        <time>2016-09-22T08:00:06Z</time>
      </trkpt>
      <trkpt lat="45.98978" lon="4.41383">
        <ele>858</ele>
        <time>2016-09-22T08:00:15Z</time>
      </trkpt>
      <trkpt lat="45.98977" lon="4.41382">
        <ele>858</ele>
        <time>2016-09-22T08:00:16Z</time>
      </trkpt>
      <trkpt lat="45.98969" lon="4.41374">
        <ele>859</ele>
        <time>2016-09-22T08:00:25Z</time>
      </trkpt>
      <trkpt lat="45.98969" lon="4.41374">
        <ele>859</ele>
        <time>2016-09-22T08:00:26Z</time>
      </trkpt>
      <trkpt lat="45.98961" lon="4.41367">
        <ele>859</ele>
        <time>2016-09-22T08:00:34Z</time>
      </trkpt>
      <trkpt lat="45.9896" lon="4.41366">
        <ele>859</ele>
        <time>2016-09-22T08:00:35Z</time>
      </trkpt>
      <trkpt lat="45.98953" lon="4.41362">
        <ele>860</ele>
        <time>2016-09-22T08:00:43Z</time>
      </trkpt>
      <trkpt lat="45.98952" lon="4.4136">
        <ele>860</ele>
        <time>2016-09-22T08:00:44Z</time>
      </trkpt>
      <trkpt lat="45.98946" lon="4.41351">
        <ele>860</ele>
        <time>2016-09-22T08:00:51Z</time>
      </trkpt>
      <trkpt lat="45.98946" lon="4.4135">
        <ele>860</ele>
        <time>2016-09-22T08:00:52Z</time>
      </trkpt>
      <trkpt lat="45.9894" lon="4.4134">
        <ele>861</ele>
        <time>2016-09-22T08:01:00Z</time>
      </trkpt>
      <trkpt lat="45.98939" lon="4.41339">
        <ele>861</ele>
        <time>2016-09-22T08:01:01Z</time>
      </trkpt>
      <trkpt lat="45.98934" lon="4.4133">
        <ele>862</ele>
        <time>2016-09-22T08:01:09Z</time>
      </trkpt>
      <trkpt lat="45.98933" lon="4.41329">
        <ele>862</ele>
        <time>2016-09-22T08:01:10Z</time>
      </trkpt>
      <trkpt lat="45.9893" lon="4.41318">
        <ele>862</ele>
        <time>2016-09-22T08:01:17Z</time>
      </trkpt>
      <trkpt lat="45.98929" lon="4.41316">
        <ele>862</ele>
        <time>2016-09-22T08:01:18Z</time>
      </trkpt>
      <trkpt lat="45.98927" lon="4.41305">
        <ele>862</ele>
        <time>2016-09-22T08:01:25Z</time>
      </trkpt>
      <trkpt lat="45.98927" lon="4.41304">
        <ele>862</ele>
        <time>2016-09-22T08:01:26Z</time>
      </trkpt>
      <trkpt lat="45.98924" lon="4.41292">
        <ele>862</ele>
        <time>2016-09-22T08:01:34Z</time>
      </trkpt>
      <trkpt lat="45.98924" lon="4.41291">
        <ele>862</ele>
        <time>2016-09-22T08:01:35Z</time>
      </trkpt>
      <trkpt lat="45.98919" lon="4.4128">
        <ele>863</ele>
        <time>2016-09-22T08:01:43Z</time>
      </trkpt>
      <trkpt lat="45.98919" lon="4.41279">
        <ele>863</ele>
        <time>2016-09-22T08:01:44Z</time>
      </trkpt>
      <trkpt lat="45.98918" lon="4.41267">
        <ele>864</ele>
        <time>2016-09-22T08:01:53Z</time>
      </trkpt>
      <trkpt lat="45.98917" lon="4.41266">
        <ele>864</ele>
        <time>2016-09-22T08:01:54Z</time>
      </trkpt>
      <trkpt lat="45.98915" lon="4.41253">
        <ele>868</ele>
        <time>2016-09-22T08:02:01Z</time>
      </trkpt>
      <trkpt lat="45.98915" lon="4.41252">
        <ele>868</ele>
        <time>2016-09-22T08:02:02Z</time>
      </trkpt>
      <trkpt lat="45.98912" lon="4.41241">
        <ele>868</ele>
        <time>2016-09-22T08:02:08Z</time>
      </trkpt>
      <trkpt lat="45.98911" lon="4.41239">
        <ele>868</ele>
        <time>2016-09-22T08:02:09Z</time>
      </trkpt>
      <trkpt lat="45.98908" lon="4.41229">
        <ele>868</ele>
        <time>2016-09-22T08:02:16Z</time>
      </trkpt>
      <trkpt lat="45.98907" lon="4.41227">
        <ele>868</ele>
        <time>2016-09-22T08:02:17Z</time>
      </trkpt>
      <trkpt lat="45.98903" lon="4.41217">
        <ele>868</ele>
        <time>2016-09-22T08:02:25Z</time>
      </trkpt>
      <trkpt lat="45.98902" lon="4.41216">
        <ele>868</ele>
        <time>2016-09-22T08:02:26Z</time>
      </trkpt>
      <trkpt lat="45.98899" lon="4.41205">
        <ele>868</ele>
        <time>2016-09-22T08:02:33Z</time>
      </trkpt>
      <trkpt lat="45.98898" lon="4.41203">
        <ele>867</ele>
        <time>2016-09-22T08:02:34Z</time>
      </trkpt>
      <trkpt lat="45.98894" lon="4.41193">
        <ele>867</ele>
        <time>2016-09-22T08:02:41Z</time>
      </trkpt>
      <trkpt lat="45.98893" lon="4.41192">
        <ele>867</ele>
        <time>2016-09-22T08:02:42Z</time>
      </trkpt>
      <trkpt lat="45.98888" lon="4.41181">
        <ele>867</ele>
        <time>2016-09-22T08:02:49Z</time>
      </trkpt>
      <trkpt lat="45.98887" lon="4.41179">
        <ele>867</ele>
        <time>2016-09-22T08:02:50Z</time>
      </trkpt>
      <trkpt lat="45.98882" lon="4.4117">
        <ele>867</ele>
        <time>2016-09-22T08:02:55Z</time>
      </trkpt>
      <trkpt lat="45.98881" lon="4.41168">
        <ele>867</ele>
        <time>2016-09-22T08:02:56Z</time>
      </trkpt>
      <trkpt lat="45.98879" lon="4.41156">
        <ele>867</ele>
        <time>2016-09-22T08:03:01Z</time>
      </trkpt>
      <trkpt lat="45.98879" lon="4.41155">
        <ele>867</ele>
        <time>2016-09-22T08:03:02Z</time>
      </trkpt>
      <trkpt lat="45.98876" lon="4.41143">
        <ele>867</ele>
        <time>2016-09-22T08:03:07Z</time>
      </trkpt>
      <trkpt lat="45.98876" lon="4.41141">
        <ele>867</ele>
        <time>2016-09-22T08:03:08Z</time>
      </trkpt>
      <trkpt lat="45.98873" lon="4.4113">
        <ele>867</ele>
        <time>2016-09-22T08:03:14Z</time>
      </trkpt>
      <trkpt lat="45.98873" lon="4.41128">
        <ele>867</ele>
        <time>2016-09-22T08:03:15Z</time>
      </trkpt>
      <trkpt lat="45.98867" lon="4.41119">
        <ele>867</ele>
        <time>2016-09-22T08:03:22Z</time>
      </trkpt>
      <trkpt lat="45.98865" lon="4.41118">
        <ele>867</ele>
        <time>2016-09-22T08:03:23Z</time>
      </trkpt>
      <trkpt lat="45.98859" lon="4.4111">
        <ele>867</ele>
        <time>2016-09-22T08:03:30Z</time>
      </trkpt>
      <trkpt lat="45.98858" lon="4.41108">
        <ele>867</ele>
        <time>2016-09-22T08:03:31Z</time>
      </trkpt>
      <trkpt lat="45.98851" lon="4.41101">
        <ele>868</ele>
        <time>2016-09-22T08:03:39Z</time>
      </trkpt>
      <trkpt lat="45.9885" lon="4.411">
        <ele>868</ele>
        <time>2016-09-22T08:03:40Z</time>
      </trkpt>
      <trkpt lat="45.98843" lon="4.41094">
        <ele>868</ele>
        <time>2016-09-22T08:03:46Z</time>
      </trkpt>
      <trkpt lat="45.98842" lon="4.41092">
        <ele>869</ele>
        <time>2016-09-22T08:03:47Z</time>
      </trkpt>
      <trkpt lat="45.98837" lon="4.41084">
        <ele>870</ele>
        <time>2016-09-22T08:03:53Z</time>
      </trkpt>
      <trkpt lat="45.98836" lon="4.41083">
        <ele>870</ele>
        <time>2016-09-22T08:03:54Z</time>
      </trkpt>
      <trkpt lat="45.9883" lon="4.41075">
        <ele>870</ele>
        <time>2016-09-22T08:04:00Z</time>
      </trkpt>
      <trkpt lat="45.98829" lon="4.41073">
        <ele>870</ele>
        <time>2016-09-22T08:04:01Z</time>
      </trkpt>
      <trkpt lat="45.98822" lon="4.41066">
        <ele>870</ele>
        <time>2016-09-22T08:04:08Z</time>
      </trkpt>
      <trkpt lat="45.9882" lon="4.41065">
        <ele>870</ele>
        <time>2016-09-22T08:04:09Z</time>
      </trkpt>
      <trkpt lat="45.98814" lon="4.41057">
        <ele>870</ele>
        <time>2016-09-22T08:04:15Z</time>
      </trkpt>
      <trkpt lat="45.98813" lon="4.41055">
        <ele>870</ele>
        <time>2016-09-22T08:04:16Z</time>
      </trkpt>
      <trkpt lat="45.98809" lon="4.41046">
        <ele>870</ele>
        <time>2016-09-22T08:04:21Z</time>
      </trkpt>
      <trkpt lat="45.98808" lon="4.41044">
        <ele>870</ele>
        <time>2016-09-22T08:04:22Z</time>
      </trkpt>
      <trkpt lat="45.98804" lon="4.41034">
        <ele>870</ele>
        <time>2016-09-22T08:04:29Z</time>
      </trkpt>
      <trkpt lat="45.98803" lon="4.41033">
        <ele>870</ele>
        <time>2016-09-22T08:04:30Z</time>
      </trkpt>
      <trkpt lat="45.98797" lon="4.41024">
        <ele>870</ele>
        <time>2016-09-22T08:04:36Z</time>
      </trkpt>
      <trkpt lat="45.98796" lon="4.41023">
        <ele>870</ele>
        <time>2016-09-22T08:04:37Z</time>
      </trkpt>
      <trkpt lat="45.9879" lon="4.41016">
        <ele>870</ele>
        <time>2016-09-22T08:04:43Z</time>
      </trkpt>
      <trkpt lat="45.98789" lon="4.41014">
        <ele>871</ele>
        <time>2016-09-22T08:04:44Z</time>
      </trkpt>
      <trkpt lat="45.98784" lon="4.41005">
        <ele>871</ele>
        <time>2016-09-22T08:04:50Z</time>
      </trkpt>
      <trkpt lat="45.98783" lon="4.41003">
        <ele>871</ele>
        <time>2016-09-22T08:04:51Z</time>
      </trkpt>
      <trkpt lat="45.98776" lon="4.40994">
        <ele>871</ele>
        <time>2016-09-22T08:04:58Z</time>
      </trkpt>
      <trkpt lat="45.98775" lon="4.40994">
        <ele>871</ele>
        <time>2016-09-22T08:04:59Z</time>
      </trkpt>
      <trkpt lat="45.98769" lon="4.40984">
        <ele>871</ele>
        <time>2016-09-22T08:05:07Z</time>
      </trkpt>
      <trkpt lat="45.98769" lon="4.40982">
        <ele>871</ele>
        <time>2016-09-22T08:05:08Z</time>
      </trkpt>
      <trkpt lat="45.98766" lon="4.40972">
        <ele>870</ele>
        <time>2016-09-22T08:05:15Z</time>
      </trkpt>
      <trkpt lat="45.98765" lon="4.4097">
        <ele>870</ele>
        <time>2016-09-22T08:05:16Z</time>
      </trkpt>
      <trkpt lat="45.98761" lon="4.40959">
        <ele>870</ele>
        <time>2016-09-22T08:05:24Z</time>
      </trkpt>
      <trkpt lat="45.98759" lon="4.40958">
        <ele>870</ele>
        <time>2016-09-22T08:05:25Z</time>
      </trkpt>
      <trkpt lat="45.98754" lon="4.40948">
        <ele>870</ele>
        <time>2016-09-22T08:05:34Z</time>
      </trkpt>
      <trkpt lat="45.98753" lon="4.40947">
        <ele>871</ele>
        <time>2016-09-22T08:05:35Z</time>
      </trkpt>
      <trkpt lat="45.98748" lon="4.40938">
        <ele>873</ele>
        <time>2016-09-22T08:05:41Z</time>
      </trkpt>
      <trkpt lat="45.98747" lon="4.40937">
        <ele>873</ele>
        <time>2016-09-22T08:05:42Z</time>
      </trkpt>
      <trkpt lat="45.98741" lon="4.4093">
        <ele>873</ele>
        <time>2016-09-22T08:05:46Z</time>
      </trkpt>
      <trkpt lat="45.9874" lon="4.40928">
        <ele>873</ele>
        <time>2016-09-22T08:05:47Z</time>
      </trkpt>
      <trkpt lat="45.98734" lon="4.40921">
        <ele>874</ele>
        <time>2016-09-22T08:05:52Z</time>
      </trkpt>
      <trkpt lat="45.98733" lon="4.4092">
        <ele>874</ele>
        <time>2016-09-22T08:05:53Z</time>
      </trkpt>
      <trkpt lat="45.98727" lon="4.4091">
        <ele>874</ele>
        <time>2016-09-22T08:05:59Z</time>
      </trkpt>
      <trkpt lat="45.98727" lon="4.40909">
        <ele>874</ele>
        <time>2016-09-22T08:06:00Z</time>
      </trkpt>
      <trkpt lat="45.98722" lon="4.40898">
        <ele>875</ele>
        <time>2016-09-22T08:06:07Z</time>
      </trkpt>
      <trkpt lat="45.98721" lon="4.40896">
        <ele>875</ele>
        <time>2016-09-22T08:06:08Z</time>
      </trkpt>
      <trkpt lat="45.98716" lon="4.40886">
        <ele>875</ele>
        <time>2016-09-22T08:06:14Z</time>
      </trkpt>
      <trkpt lat="45.98715" lon="4.40885">
        <ele>875</ele>
        <time>2016-09-22T08:06:15Z</time>
      </trkpt>
      <trkpt lat="45.98709" lon="4.40875">
        <ele>875</ele>
        <time>2016-09-22T08:06:21Z</time>
      </trkpt>
      <trkpt lat="45.98708" lon="4.40874">
        <ele>875</ele>
        <time>2016-09-22T08:06:22Z</time>
      </trkpt>
      <trkpt lat="45.98703" lon="4.40864">
        <ele>875</ele>
        <time>2016-09-22T08:06:29Z</time>
      </trkpt>
      <trkpt lat="45.98703" lon="4.40862">
        <ele>876</ele>
        <time>2016-09-22T08:06:30Z</time>
      </trkpt>
      <trkpt lat="45.98698" lon="4.40852">
        <ele>876</ele>
        <time>2016-09-22T08:06:36Z</time>
      </trkpt>
      <trkpt lat="45.98697" lon="4.40851">
        <ele>876</ele>
        <time>2016-09-22T08:06:37Z</time>
      </trkpt>
      <trkpt lat="45.98693" lon="4.40841">
        <ele>876</ele>
        <time>2016-09-22T08:06:44Z</time>
      </trkpt>
      <trkpt lat="45.98692" lon="4.40839">
        <ele>877</ele>
        <time>2016-09-22T08:06:45Z</time>
      </trkpt>
      <trkpt lat="45.98686" lon="4.40831">
        <ele>876</ele>
        <time>2016-09-22T08:06:51Z</time>
      </trkpt>
      <trkpt lat="45.98685" lon="4.40829">
        <ele>876</ele>
        <time>2016-09-22T08:06:52Z</time>
      </trkpt>
      <trkpt lat="45.9868" lon="4.40819">
        <ele>876</ele>
        <time>2016-09-22T08:06:58Z</time>
      </trkpt>
      <trkpt lat="45.98679" lon="4.40817">
        <ele>876</ele>
        <time>2016-09-22T08:06:59Z</time>
      </trkpt>
      <trkpt lat="45.98674" lon="4.40807">
        <ele>875</ele>
        <time>2016-09-22T08:07:05Z</time>
      </trkpt>
      <trkpt lat="45.98674" lon="4.40806">
        <ele>875</ele>
        <time>2016-09-22T08:07:06Z</time>
      </trkpt>
      <trkpt lat="45.98669" lon="4.40796">
        <ele>874</ele>
        <time>2016-09-22T08:07:13Z</time>
      </trkpt>
      <trkpt lat="45.98669" lon="4.40794">
        <ele>874</ele>
        <time>2016-09-22T08:07:14Z</time>
      </trkpt>
      <trkpt lat="45.98667" lon="4.40783">
        <ele>874</ele>
        <time>2016-09-22T08:07:20Z</time>
      </trkpt>
      <trkpt lat="45.98667" lon="4.40781">
        <ele>876</ele>
        <time>2016-09-22T08:07:21Z</time>
      </trkpt>
      <trkpt lat="45.98662" lon="4.4077">
        <ele>876</ele>
        <time>2016-09-22T08:07:28Z</time>
      </trkpt>
      <trkpt lat="45.98661" lon="4.40769">
        <ele>876</ele>
        <time>2016-09-22T08:07:29Z</time>
      </trkpt>
      <trkpt lat="45.98657" lon="4.40758">
        <ele>876</ele>
        <time>2016-09-22T08:07:35Z</time>
      </trkpt>
      <trkpt lat="45.98656" lon="4.40757">
        <ele>876</ele>
        <time>2016-09-22T08:07:36Z</time>
      </trkpt>
      <trkpt lat="45.98651" lon="4.40748">
        <ele>874</ele>
        <time>2016-09-22T08:07:42Z</time>
      </trkpt>
      <trkpt lat="45.9865" lon="4.40746">
        <ele>873</ele>
        <time>2016-09-22T08:07:43Z</time>
      </trkpt>
      <trkpt lat="45.98644" lon="4.40737">
        <ele>872</ele>
        <time>2016-09-22T08:07:52Z</time>
      </trkpt>
      <trkpt lat="45.98644" lon="4.40736">
        <ele>872</ele>
        <time>2016-09-22T08:07:53Z</time>
      </trkpt>
      <trkpt lat="45.98635" lon="4.40734">
        <ele>872</ele>
        <time>2016-09-22T08:08:02Z</time>
      </trkpt>
      <trkpt lat="45.98634" lon="4.40734">
        <ele>872</ele>
        <time>2016-09-22T08:08:03Z</time>
      </trkpt>
      <trkpt lat="45.98626" lon="4.40732">
        <ele>872</ele>
        <time>2016-09-22T08:08:10Z</time>
      </trkpt>
      <trkpt lat="45.98625" lon="4.40733">
        <ele>872</ele>
        <time>2016-09-22T08:08:11Z</time>
      </trkpt>
      <trkpt lat="45.98617" lon="4.40739">
        <ele>872</ele>
        <time>2016-09-22T08:08:20Z</time>
      </trkpt>
      <trkpt lat="45.98616" lon="4.40739">
        <ele>872</ele>
        <time>2016-09-22T08:08:21Z</time>
      </trkpt>
      <trkpt lat="45.98608" lon="4.40745">
        <ele>872</ele>
        <time>2016-09-22T08:08:27Z</time>
      </trkpt>
      <trkpt lat="45.98607" lon="4.40746">
        <ele>872</ele>
        <time>2016-09-22T08:08:28Z</time>
      </trkpt>
      <trkpt lat="45.98598" lon="4.40752">
        <ele>874</ele>
        <time>2016-09-22T08:08:34Z</time>
      </trkpt>
      <trkpt lat="45.98597" lon="4.40753">
        <ele>874</ele>
        <time>2016-09-22T08:08:35Z</time>
      </trkpt>
      <trkpt lat="45.98591" lon="4.40759">
        <ele>874</ele>
        <time>2016-09-22T08:08:42Z</time>
      </trkpt>
      <trkpt lat="45.98589" lon="4.4076">
        <ele>874</ele>
        <time>2016-09-22T08:08:43Z</time>
      </trkpt>
      <trkpt lat="45.98583" lon="4.40767">
        <ele>871</ele>
        <time>2016-09-22T08:08:50Z</time>
      </trkpt>
      <trkpt lat="45.98582" lon="4.40768">
        <ele>871</ele>
        <time>2016-09-22T08:08:51Z</time>
      </trkpt>
      <trkpt lat="45.98575" lon="4.40775">
        <ele>871</ele>
        <time>2016-09-22T08:08:57Z</time>
      </trkpt>
      <trkpt lat="45.98574" lon="4.40775">
        <ele>871</ele>
        <time>2016-09-22T08:08:58Z</time>
      </trkpt>
      <trkpt lat="45.98566" lon="4.40778">
        <ele>870</ele>
        <time>2016-09-22T08:09:04Z</time>
      </trkpt>
      <trkpt lat="45.98564" lon="4.40779">
        <ele>870</ele>
        <time>2016-09-22T08:09:05Z</time>
      </trkpt>
      <trkpt lat="45.98558" lon="4.40787">
        <ele>870</ele>
        <time>2016-09-22T08:09:13Z</time>
      </trkpt>
      <trkpt lat="45.98557" lon="4.40788">
        <ele>870</ele>
        <time>2016-09-22T08:09:14Z</time>
      </trkpt>
      <trkpt lat="45.98549" lon="4.40792">
        <ele>870</ele>
        <time>2016-09-22T08:09:24Z</time>
      </trkpt>
      <trkpt lat="45.98548" lon="4.40794">
        <ele>870</ele>
        <time>2016-09-22T08:09:25Z</time>
      </trkpt>
      <trkpt lat="45.98543" lon="4.40802">
        <ele>869</ele>
        <time>2016-09-22T08:09:30Z</time>
      </trkpt>
      <trkpt lat="45.98542" lon="4.40803">
        <ele>869</ele>
        <time>2016-09-22T08:09:31Z</time>
      </trkpt>
      <trkpt lat="45.98536" lon="4.40811">
        <ele>869</ele>
        <time>2016-09-22T08:09:38Z</time>
      </trkpt>
      <trkpt lat="45.98535" lon="4.40812">
        <ele>869</ele>
        <time>2016-09-22T08:09:39Z</time>
      </trkpt>
      <trkpt lat="45.98527" lon="4.40818">
        <ele>868</ele>
        <time>2016-09-22T08:09:48Z</time>
      </trkpt>
      <trkpt lat="45.98527" lon="4.40819">
        <ele>868</ele>
        <time>2016-09-22T08:09:49Z</time>
      </trkpt>
      <trkpt lat="45.9852" lon="4.40826">
        <ele>867</ele>
        <time>2016-09-22T08:09:58Z</time>
      </trkpt>
      <trkpt lat="45.98519" lon="4.40827">
        <ele>867</ele>
        <time>2016-09-22T08:09:59Z</time>
      </trkpt>
      <trkpt lat="45.98512" lon="4.40832">
        <ele>866</ele>
        <time>2016-09-22T08:10:07Z</time>
      </trkpt>
      <trkpt lat="45.98511" lon="4.40833">
        <ele>866</ele>
        <time>2016-09-22T08:10:08Z</time>
      </trkpt>
      <trkpt lat="45.98503" lon="4.40837">
        <ele>864</ele>
        <time>2016-09-22T08:10:16Z</time>
      </trkpt>
      <trkpt lat="45.98502" lon="4.40837">
        <ele>864</ele>
        <time>2016-09-22T08:10:17Z</time>
      </trkpt>
      <trkpt lat="45.98495" lon="4.4084">
        <ele>861</ele>
        <time>2016-09-22T08:10:27Z</time>
      </trkpt>
      <trkpt lat="45.98493" lon="4.40841">
        <ele>860</ele>
        <time>2016-09-22T08:10:28Z</time>
      </trkpt>
      <trkpt lat="45.98486" lon="4.40847">
        <ele>858</ele>
        <time>2016-09-22T08:10:34Z</time>
      </trkpt>
      <trkpt lat="45.98485" lon="4.40848">
        <ele>857</ele>
        <time>2016-09-22T08:10:35Z</time>
      </trkpt>
      <trkpt lat="45.98478" lon="4.40854">
        <ele>855</ele>
        <time>2016-09-22T08:10:47Z</time>
      </trkpt>
      <trkpt lat="45.98477" lon="4.40856">
        <ele>855</ele>
        <time>2016-09-22T08:10:48Z</time>
      </trkpt>
      <trkpt lat="45.9847" lon="4.40862">
        <ele>854</ele>
        <time>2016-09-22T08:10:56Z</time>
      </trkpt>
      <trkpt lat="45.98469" lon="4.40863">
        <ele>854</ele>
        <time>2016-09-22T08:10:57Z</time>
      </trkpt>
      <trkpt lat="45.98465" lon="4.40873">
        <ele>853</ele>
        <time>2016-09-22T08:11:05Z</time>
      </trkpt>
      <trkpt lat="45.98464" lon="4.40875">
        <ele>853</ele>
        <time>2016-09-22T08:11:06Z</time>
      </trkpt>
      <trkpt lat="45.98456" lon="4.40878">
        <ele>852</ele>
        <time>2016-09-22T08:11:16Z</time>
      </trkpt>
      <trkpt lat="45.98456" lon="4.40878">
        <ele>852</ele>
        <time>2016-09-22T08:11:17Z</time>
      </trkpt>
      <trkpt lat="45.98448" lon="4.40872">
        <ele>851</ele>
        <time>2016-09-22T08:11:26Z</time>
      </trkpt>
      <trkpt lat="45.98446" lon="4.40871">
        <ele>851</ele>
        <time>2016-09-22T08:11:27Z</time>
      </trkpt>
      <trkpt lat="45.98439" lon="4.40865">
        <ele>851</ele>
        <time>2016-09-22T08:11:35Z</time>
      </trkpt>
      <trkpt lat="45.98438" lon="4.40864">
        <ele>851</ele>
        <time>2016-09-22T08:11:36Z</time>
      </trkpt>
      <trkpt lat="45.98431" lon="4.40857">
        <ele>850</ele>
        <time>2016-09-22T08:11:49Z</time>
      </trkpt>
      <trkpt lat="45.9843" lon="4.40856">
        <ele>850</ele>
        <time>2016-09-22T08:11:50Z</time>
      </trkpt>
      <trkpt lat="45.98424" lon="4.40847">
        <ele>849</ele>
        <time>2016-09-22T08:11:57Z</time>
      </trkpt>
      <trkpt lat="45.98423" lon="4.40846">
        <ele>849</ele>
        <time>2016-09-22T08:11:58Z</time>
      </trkpt>
      <trkpt lat="45.98416" lon="4.40837">
        <ele>845</ele>
        <time>2016-09-22T08:12:07Z</time>
      </trkpt>
      <trkpt lat="45.98416" lon="4.40836">
        <ele>845</ele>
        <time>2016-09-22T08:12:08Z</time>
      </trkpt>
      <trkpt lat="45.98412" lon="4.40825">
        <ele>842</ele>
        <time>2016-09-22T08:12:16Z</time>
      </trkpt>
      <trkpt lat="45.98411" lon="4.40824">
        <ele>842</ele>
        <time>2016-09-22T08:12:17Z</time>
      </trkpt>
      <trkpt lat="45.98408" lon="4.40813">
        <ele>840</ele>
        <time>2016-09-22T08:12:24Z</time>
      </trkpt>
      <trkpt lat="45.98407" lon="4.40811">
        <ele>839</ele>
        <time>2016-09-22T08:12:25Z</time>
      </trkpt>
      <trkpt lat="45.98402" lon="4.40801">
        <ele>838</ele>
        <time>2016-09-22T08:12:32Z</time>
      </trkpt>
      <trkpt lat="45.98402" lon="4.40801">
        <ele>838</ele>
        <time>2016-09-22T08:12:33Z</time>
      </trkpt>
      <trkpt lat="45.98397" lon="4.4079">
        <ele>837</ele>
        <time>2016-09-22T08:12:46Z</time>
      </trkpt>
      <trkpt lat="45.98397" lon="4.40788">
        <ele>837</ele>
        <time>2016-09-22T08:12:47Z</time>
      </trkpt>
      <trkpt lat="45.98391" lon="4.4078">
        <ele>836</ele>
        <time>2016-09-22T08:12:53Z</time>
      </trkpt>
      <trkpt lat="45.9839" lon="4.40778">
        <ele>836</ele>
        <time>2016-09-22T08:12:54Z</time>
      </trkpt>
      <trkpt lat="45.98384" lon="4.40769">
        <ele>835</ele>
        <time>2016-09-22T08:13:01Z</time>
      </trkpt>
      <trkpt lat="45.98384" lon="4.40767">
        <ele>835</ele>
        <time>2016-09-22T08:13:02Z</time>
      </trkpt>
      <trkpt lat="45.98378" lon="4.4076">
        <ele>834</ele>
        <time>2016-09-22T08:13:11Z</time>
      </trkpt>
      <trkpt lat="45.98377" lon="4.40758">
        <ele>834</ele>
        <time>2016-09-22T08:13:12Z</time>
      </trkpt>
      <trkpt lat="45.98371" lon="4.4075">
        <ele>832</ele>
        <time>2016-09-22T08:13:16Z</time>
      </trkpt>
      <trkpt lat="45.98369" lon="4.40749">
        <ele>828</ele>
        <time>2016-09-22T08:13:17Z</time>
      </trkpt>
      <trkpt lat="45.98365" lon="4.40738">
        <ele>827</ele>
        <time>2016-09-22T08:13:23Z</time>
      </trkpt>
      <trkpt lat="45.98365" lon="4.40736">
        <ele>827</ele>
        <time>2016-09-22T08:13:24Z</time>
      </trkpt>
      <trkpt lat="45.98362" lon="4.40725">
        <ele>826</ele>
        <time>2016-09-22T08:13:30Z</time>
      </trkpt>
      <trkpt lat="45.98361" lon="4.40724">
        <ele>826</ele>
        <time>2016-09-22T08:13:31Z</time>
      </trkpt>
      <trkpt lat="45.98357" lon="4.40713">
        <ele>825</ele>
        <time>2016-09-22T08:13:38Z</time>
      </trkpt>
      <trkpt lat="45.98356" lon="4.40712">
        <ele>825</ele>
        <time>2016-09-22T08:13:39Z</time>
      </trkpt>
      <trkpt lat="45.9835" lon="4.40702">
        <ele>824</ele>
        <time>2016-09-22T08:13:49Z</time>
      </trkpt>
      <trkpt lat="45.9835" lon="4.40701">
        <ele>824</ele>
        <time>2016-09-22T08:13:50Z</time>
      </trkpt>
      <trkpt lat="45.98344" lon="4.40693">
        <ele>822</ele>
        <time>2016-09-22T08:13:57Z</time>
      </trkpt>
      <trkpt lat="45.98343" lon="4.40691">
        <ele>822</ele>
        <time>2016-09-22T08:13:58Z</time>
      </trkpt>
      <trkpt lat="45.98338" lon="4.40682">
        <ele>820</ele>
        <time>2016-09-22T08:14:05Z</time>
      </trkpt>
      <trkpt lat="45.98337" lon="4.40681">
        <ele>819</ele>
        <time>2016-09-22T08:14:06Z</time>
      </trkpt>
      <trkpt lat="45.98331" lon="4.40672">
        <ele>812</ele>
        <time>2016-09-22T08:14:14Z</time>
      </trkpt>
      <trkpt lat="45.98331" lon="4.40671">
        <ele>813</ele>
        <time>2016-09-22T08:14:15Z</time>
      </trkpt>
      <trkpt lat="45.98325" lon="4.40663">
        <ele>811</ele>
        <time>2016-09-22T08:14:24Z</time>
      </trkpt>
      <trkpt lat="45.98324" lon="4.40661">
        <ele>810</ele>
        <time>2016-09-22T08:14:25Z</time>
      </trkpt>
      <trkpt lat="45.98319" lon="4.40651">
        <ele>809</ele>
        <time>2016-09-22T08:14:40Z</time>
      </trkpt>
      <trkpt lat="45.98319" lon="4.4065">
        <ele>808</ele>
        <time>2016-09-22T08:14:41Z</time>
      </trkpt>
      <trkpt lat="45.98312" lon="4.40641">
        <ele>807</ele>
        <time>2016-09-22T08:14:49Z</time>
      </trkpt>
      <trkpt lat="45.98312" lon="4.4064">
        <ele>807</ele>
        <time>2016-09-22T08:14:50Z</time>
      </trkpt>
      <trkpt lat="45.98305" lon="4.40632">
        <ele>806</ele>
        <time>2016-09-22T08:15:03Z</time>
      </trkpt>
      <trkpt lat="45.98304" lon="4.40632">
        <ele>806</ele>
        <time>2016-09-22T08:15:04Z</time>
      </trkpt>
      <trkpt lat="45.98297" lon="4.40625">
        <ele>806</ele>
        <time>2016-09-22T08:15:10Z</time>
      </trkpt>
      <trkpt lat="45.98296" lon="4.40623">
        <ele>806</ele>
        <time>2016-09-22T08:15:11Z</time>
      </trkpt>
      <trkpt lat="45.9829" lon="4.40614">
        <ele>805</ele>
        <time>2016-09-22T08:15:18Z</time>
      </trkpt>
      <trkpt lat="45.9829" lon="4.40613">
        <ele>805</ele>
        <time>2016-09-22T08:15:19Z</time>
      </trkpt>
      <trkpt lat="45.98286" lon="4.40602">
        <ele>805</ele>
        <time>2016-09-22T08:15:32Z</time>
      </trkpt>
      <trkpt lat="45.98286" lon="4.406">
        <ele>804</ele>
        <time>2016-09-22T08:15:33Z</time>
      </trkpt>
      <trkpt lat="45.98285" lon="4.40589">
        <ele>804</ele>
        <time>2016-09-22T08:15:39Z</time>
      </trkpt>
      <trkpt lat="45.98284" lon="4.40587">
        <ele>804</ele>
        <time>2016-09-22T08:15:40Z</time>
      </trkpt>
      <trkpt lat="45.98279" lon="4.40577">
        <ele>802</ele>
        <time>2016-09-22T08:15:47Z</time>
      </trkpt>
      <trkpt lat="45.98279" lon="4.40576">
        <ele>802</ele>
        <time>2016-09-22T08:15:48Z</time>
      </trkpt>
      <trkpt lat="45.98277" lon="4.40564">
        <ele>802</ele>
        <time>2016-09-22T08:15:55Z</time>
      </trkpt>
      <trkpt lat="45.98276" lon="4.40562">
        <ele>801</ele>
        <time>2016-09-22T08:15:56Z</time>
      </trkpt>
      <trkpt lat="45.98273" lon="4.4055">
        <ele>801</ele>
        <time>2016-09-22T08:16:02Z</time>
      </trkpt>
      <trkpt lat="45.98273" lon="4.40548">
        <ele>801</ele>
        <time>2016-09-22T08:16:03Z</time>
      </trkpt>
      <trkpt lat="45.98273" lon="4.40535">
        <ele>801</ele>
        <time>2016-09-22T08:16:10Z</time>
      </trkpt>
      <trkpt lat="45.98272" lon="4.40534">
        <ele>801</ele>
        <time>2016-09-22T08:16:11Z</time>
      </trkpt>
      <trkpt lat="45.98272" lon="4.40522">
        <ele>800</ele>
        <time>2016-09-22T08:16:18Z</time>
      </trkpt>
      <trkpt lat="45.98271" lon="4.40521">
        <ele>800</ele>
        <time>2016-09-22T08:16:19Z</time>
      </trkpt>
      <trkpt lat="45.98269" lon="4.40509">
        <ele>799</ele>
        <time>2016-09-22T08:16:26Z</time>
      </trkpt>
      <trkpt lat="45.98269" lon="4.40507">
        <ele>799</ele>
        <time>2016-09-22T08:16:27Z</time>
      </trkpt>
      <trkpt lat="45.98266" lon="4.40495">
        <ele>798</ele>
        <time>2016-09-22T08:16:35Z</time>
      </trkpt>
      <trkpt lat="45.98266" lon="4.40494">
        <ele>798</ele>
        <time>2016-09-22T08:16:36Z</time>
      </trkpt>
      <trkpt lat="45.98262" lon="4.40483">
        <ele>798</ele>
        <time>2016-09-22T08:16:46Z</time>
      </trkpt>
      <trkpt lat="45.98262" lon="4.40482">
        <ele>798</ele>
        <time>2016-09-22T08:16:47Z</time>
      </trkpt>
      <trkpt lat="45.98257" lon="4.40471">
        <ele>798</ele>
        <time>2016-09-22T08:16:57Z</time>
      </trkpt>
      <trkpt lat="45.98256" lon="4.4047">
        <ele>798</ele>
        <time>2016-09-22T08:16:58Z</time>
      </trkpt>
      <trkpt lat="45.98251" lon="4.4046">
        <ele>798</ele>
        <time>2016-09-22T08:17:05Z</time>
      </trkpt>
      <trkpt lat="45.98251" lon="4.40458">
        <ele>798</ele>
        <time>2016-09-22T08:17:06Z</time>
      </trkpt>
      <trkpt lat="45.98248" lon="4.40446">
        <ele>788</ele>
        <time>2016-09-22T08:17:13Z</time>
      </trkpt>
      <trkpt lat="45.98247" lon="4.40444">
        <ele>788</ele>
        <time>2016-09-22T08:17:14Z</time>
      </trkpt>
      <trkpt lat="45.98244" lon="4.40433">
        <ele>789</ele>
        <time>2016-09-22T08:17:21Z</time>
      </trkpt>
      <trkpt lat="45.98245" lon="4.40431">
        <ele>789</ele>
        <time>2016-09-22T08:17:22Z</time>
      </trkpt>
      <trkpt lat="45.98243" lon="4.40421">
        <ele>790</ele>
        <time>2016-09-22T08:17:29Z</time>
      </trkpt>
      <trkpt lat="45.98243" lon="4.40419">
        <ele>790</ele>
        <time>2016-09-22T08:17:30Z</time>
      </trkpt>
      <trkpt lat="45.98241" lon="4.40406">
        <ele>788</ele>
        <time>2016-09-22T08:17:37Z</time>
      </trkpt>
      <trkpt lat="45.98241" lon="4.40405">
        <ele>787</ele>
        <time>2016-09-22T08:17:38Z</time>
      </trkpt>
      <trkpt lat="45.98236" lon="4.40396">
        <ele>786</ele>
        <time>2016-09-22T08:17:44Z</time>
      </trkpt>
      <trkpt lat="45.98236" lon="4.40394">
        <ele>786</ele>
        <time>2016-09-22T08:17:45Z</time>
      </trkpt>
      <trkpt lat="45.98232" lon="4.40383">
        <ele>785</ele>
        <time>2016-09-22T08:17:51Z</time>
      </trkpt>
      <trkpt lat="45.98232" lon="4.40381">
        <ele>784</ele>
        <time>2016-09-22T08:17:52Z</time>
      </trkpt>
      <trkpt lat="45.98227" lon="4.40372">
        <ele>784</ele>
        <time>2016-09-22T08:18:01Z</time>
      </trkpt>
      <trkpt lat="45.98225" lon="4.40371">
        <ele>784</ele>
        <time>2016-09-22T08:18:02Z</time>
      </trkpt>
      <trkpt lat="45.98221" lon="4.40361">
        <ele>783</ele>
        <time>2016-09-22T08:18:13Z</time>
      </trkpt>
      <trkpt lat="45.9822" lon="4.4036">
        <ele>783</ele>
        <time>2016-09-22T08:18:14Z</time>
      </trkpt>
      <trkpt lat="45.98216" lon="4.40349">
        <ele>783</ele>
        <time>2016-09-22T08:18:21Z</time>
      </trkpt>
      <trkpt lat="45.98216" lon="4.40347">
        <ele>783</ele>
        <time>2016-09-22T08:18:22Z</time>
      </trkpt>
      <trkpt lat="45.98212" lon="4.40337">
        <ele>782</ele>
        <time>2016-09-22T08:18:27Z</time>
      </trkpt>
      <trkpt lat="45.98211" lon="4.40335">
        <ele>782</ele>
        <time>2016-09-22T08:18:28Z</time>
      </trkpt>
      <trkpt lat="45.98206" lon="4.40326">
        <ele>779</ele>
        <time>2016-09-22T08:18:33Z</time>
      </trkpt>
      <trkpt lat="45.98206" lon="4.40324">
        <ele>779</ele>
        <time>2016-09-22T08:18:34Z</time>
      </trkpt>
      <trkpt lat="45.98202" lon="4.40314">
        <ele>778</ele>
        <time>2016-09-22T08:18:39Z</time>
      </trkpt>
      <trkpt lat="45.98201" lon="4.40313">
        <ele>778</ele>
        <time>2016-09-22T08:18:40Z</time>
      </trkpt>
      <trkpt lat="45.98196" lon="4.40303">
        <ele>777</ele>
        <time>2016-09-22T08:18:47Z</time>
      </trkpt>
      <trkpt lat="45.98196" lon="4.40301">
        <ele>777</ele>
        <time>2016-09-22T08:18:48Z</time>
      </trkpt>
      <trkpt lat="45.98191" lon="4.4029">
        <ele>777</ele>
        <time>2016-09-22T08:18:56Z</time>
      </trkpt>
      <trkpt lat="45.98191" lon="4.4029">
        <ele>777</ele>
        <time>2016-09-22T08:18:57Z</time>
      </trkpt>
      <trkpt lat="45.98185" lon="4.4028">
        <ele>776</ele>
        <time>2016-09-22T08:19:06Z</time>
      </trkpt>
      <trkpt lat="45.98185" lon="4.40279">
        <ele>775</ele>
        <time>2016-09-22T08:19:07Z</time>
      </trkpt>
      <trkpt lat="45.98178" lon="4.40271">
        <ele>774</ele>
        <time>2016-09-22T08:19:25Z</time>
      </trkpt>
      <trkpt lat="45.98177" lon="4.4027">
        <ele>774</ele>
        <time>2016-09-22T08:19:26Z</time>
      </trkpt>
      <trkpt lat="45.98171" lon="4.40262">
        <ele>772</ele>
        <time>2016-09-22T08:19:32Z</time>
      </trkpt>
      <trkpt lat="45.98169" lon="4.4026">
        <ele>772</ele>
        <time>2016-09-22T08:19:33Z</time>
      </trkpt>
      <trkpt lat="45.98163" lon="4.40252">
        <ele>768</ele>
        <time>2016-09-22T08:19:37Z</time>
      </trkpt>
      <trkpt lat="45.98162" lon="4.4025">
        <ele>768</ele>
        <time>2016-09-22T08:19:38Z</time>
      </trkpt>
      <trkpt lat="45.98156" lon="4.40242">
        <ele>764</ele>
        <time>2016-09-22T08:19:43Z</time>
      </trkpt>
      <trkpt lat="45.98155" lon="4.40241">
        <ele>764</ele>
        <time>2016-09-22T08:19:44Z</time>
      </trkpt>
      <trkpt lat="45.98149" lon="4.40232">
        <ele>762</ele>
        <time>2016-09-22T08:19:50Z</time>
      </trkpt>
      <trkpt lat="45.98148" lon="4.4023">
        <ele>761</ele>
        <time>2016-09-22T08:19:51Z</time>
      </trkpt>
      <trkpt lat="45.98144" lon="4.40221">
        <ele>760</ele>
        <time>2016-09-22T08:19:57Z</time>
      </trkpt>
      <trkpt lat="45.98143" lon="4.4022">
        <ele>760</ele>
        <time>2016-09-22T08:19:58Z</time>
      </trkpt>
      <trkpt lat="45.98137" lon="4.40211">
        <ele>759</ele>
        <time>2016-09-22T08:20:03Z</time>
      </trkpt>
      <trkpt lat="45.98136" lon="4.40208">
        <ele>759</ele>
        <time>2016-09-22T08:20:04Z</time>
      </trkpt>
      <trkpt lat="45.98131" lon="4.40198">
        <ele>758</ele>
        <time>2016-09-22T08:20:09Z</time>
      </trkpt>
      <trkpt lat="45.9813" lon="4.40196">
        <ele>758</ele>
        <time>2016-09-22T08:20:10Z</time>
      </trkpt>
      <trkpt lat="45.98126" lon="4.40187">
        <ele>757</ele>
        <time>2016-09-22T08:20:15Z</time>
      </trkpt>
      <trkpt lat="45.98125" lon="4.40185">
        <ele>757</ele>
        <time>2016-09-22T08:20:16Z</time>
      </trkpt>
      <trkpt lat="45.9812" lon="4.40176">
        <ele>756</ele>
        <time>2016-09-22T08:20:21Z</time>
      </trkpt>
      <trkpt lat="45.98119" lon="4.40174">
        <ele>756</ele>
        <time>2016-09-22T08:20:22Z</time>
      </trkpt>
      <trkpt lat="45.98115" lon="4.40164">
        <ele>752</ele>
        <time>2016-09-22T08:20:27Z</time>
      </trkpt>
      <trkpt lat="45.98114" lon="4.40163">
        <ele>751</ele>
        <time>2016-09-22T08:20:28Z</time>
      </trkpt>
      <trkpt lat="45.9811" lon="4.40153">
        <ele>751</ele>
        <time>2016-09-22T08:20:34Z</time>
      </trkpt>
      <trkpt lat="45.98109" lon="4.40151">
        <ele>751</ele>
        <time>2016-09-22T08:20:35Z</time>
      </trkpt>
      <trkpt lat="45.98103" lon="4.40143">
        <ele>750</ele>
        <time>2016-09-22T08:20:41Z</time>
      </trkpt>
      <trkpt lat="45.98103" lon="4.40141">
        <ele>750</ele>
        <time>2016-09-22T08:20:42Z</time>
      </trkpt>
      <trkpt lat="45.981" lon="4.40131">
        <ele>750</ele>
        <time>2016-09-22T08:20:48Z</time>
      </trkpt>
      <trkpt lat="45.98099" lon="4.40128">
        <ele>750</ele>
        <time>2016-09-22T08:20:49Z</time>
      </trkpt>
      <trkpt lat="45.98099" lon="4.40116">
        <ele>749</ele>
        <time>2016-09-22T08:20:56Z</time>
      </trkpt>
      <trkpt lat="45.98099" lon="4.40114">
        <ele>749</ele>
        <time>2016-09-22T08:20:57Z</time>
      </trkpt>
      <trkpt lat="45.98094" lon="4.40105">
        <ele>748</ele>
        <time>2016-09-22T08:21:03Z</time>
      </trkpt>
      <trkpt lat="45.98094" lon="4.40103">
        <ele>748</ele>
        <time>2016-09-22T08:21:04Z</time>
      </trkpt>
      <trkpt lat="45.98093" lon="4.40091">
        <ele>746</ele>
        <time>2016-09-22T08:21:11Z</time>
      </trkpt>
      <trkpt lat="45.98093" lon="4.40089">
        <ele>746</ele>
        <time>2016-09-22T08:21:12Z</time>
      </trkpt>
      <trkpt lat="45.98092" lon="4.40077">
        <ele>742</ele>
        <time>2016-09-22T08:21:19Z</time>
      </trkpt>
      <trkpt lat="45.98092" lon="4.40076">
        <ele>742</ele>
        <time>2016-09-22T08:21:20Z</time>
      </trkpt>
      <trkpt lat="45.98088" lon="4.40065">
        <ele>741</ele>
        <time>2016-09-22T08:21:28Z</time>
      </trkpt>
      <trkpt lat="45.98088" lon="4.40064">
        <ele>741</ele>
        <time>2016-09-22T08:21:29Z</time>
      </trkpt>
      <trkpt lat="45.9808" lon="4.4006">
        <ele>735</ele>
        <time>2016-09-22T08:21:42Z</time>
      </trkpt>
      <trkpt lat="45.98079" lon="4.4006">
        <ele>735</ele>
        <time>2016-09-22T08:21:43Z</time>
      </trkpt>
      <trkpt lat="45.98079" lon="4.40048">
        <ele>733</ele>
        <time>2016-09-22T08:22:01Z</time>
      </trkpt>
      <trkpt lat="45.98079" lon="4.40047">
        <ele>733</ele>
        <time>2016-09-22T08:22:02Z</time>
      </trkpt>
      <trkpt lat="45.98077" lon="4.40034">
        <ele>732</ele>
        <time>2016-09-22T08:22:12Z</time>
      </trkpt>
      <trkpt lat="45.98077" lon="4.40033">
        <ele>732</ele>
        <time>2016-09-22T08:22:13Z</time>
      </trkpt>
      <trkpt lat="45.98076" lon="4.40021">
        <ele>731</ele>
        <time>2016-09-22T08:22:20Z</time>
      </trkpt>
      <trkpt lat="45.98076" lon="4.4002">
        <ele>731</ele>
        <time>2016-09-22T08:22:21Z</time>
      </trkpt>
      <trkpt lat="45.98074" lon="4.40008">
        <ele>730</ele>
        <time>2016-09-22T08:22:28Z</time>
      </trkpt>
      <trkpt lat="45.98074" lon="4.40006">
        <ele>730</ele>
        <time>2016-09-22T08:22:29Z</time>
      </trkpt>
      <trkpt lat="45.98072" lon="4.39994">
        <ele>727</ele>
        <time>2016-09-22T08:22:37Z</time>
      </trkpt>
      <trkpt lat="45.98072" lon="4.39993">
        <ele>727</ele>
        <time>2016-09-22T08:22:38Z</time>
      </trkpt>
      <trkpt lat="45.98069" lon="4.39981">
        <ele>726</ele>
        <time>2016-09-22T08:22:45Z</time>
      </trkpt>
      <trkpt lat="45.98068" lon="4.39979">
        <ele>726</ele>
        <time>2016-09-22T08:22:46Z</time>
      </trkpt>
      <trkpt lat="45.98067" lon="4.39968">
        <ele>725</ele>
        <time>2016-09-22T08:22:53Z</time>
      </trkpt>
      <trkpt lat="45.98067" lon="4.39966">
        <ele>724</ele>
        <time>2016-09-22T08:22:54Z</time>
      </trkpt>
      <trkpt lat="45.98065" lon="4.39955">
        <ele>724</ele>
        <time>2016-09-22T08:23:01Z</time>
      </trkpt>
      <trkpt lat="45.98065" lon="4.39953">
        <ele>724</ele>
        <time>2016-09-22T08:23:02Z</time>
      </trkpt>
      <trkpt lat="45.98062" lon="4.39942">
        <ele>723</ele>
        <time>2016-09-22T08:23:09Z</time>
      </trkpt>
      <trkpt lat="45.98062" lon="4.39941">
        <ele>723</ele>
        <time>2016-09-22T08:23:10Z</time>
      </trkpt>
      <trkpt lat="45.98058" lon="4.39929">
        <ele>723</ele>
        <time>2016-09-22T08:23:17Z</time>
      </trkpt>
      <trkpt lat="45.98057" lon="4.39928">
        <ele>723</ele>
        <time>2016-09-22T08:23:18Z</time>
      </trkpt>
      <trkpt lat="45.98055" lon="4.39916">
        <ele>719</ele>
        <time>2016-09-22T08:23:28Z</time>
      </trkpt>
      <trkpt lat="45.98054" lon="4.39914">
        <ele>719</ele>
        <time>2016-09-22T08:23:29Z</time>
      </trkpt>
      <trkpt lat="45.98052" lon="4.39903">
        <ele>718</ele>
        <time>2016-09-22T08:23:36Z</time>
      </trkpt>
      <trkpt lat="45.98052" lon="4.39902">
        <ele>718</ele>
        <time>2016-09-22T08:23:37Z</time>
      </trkpt>
      <trkpt lat="45.98048" lon="4.39891">
        <ele>718</ele>
        <time>2016-09-22T08:23:46Z</time>
      </trkpt>
      <trkpt lat="45.98047" lon="4.3989">
        <ele>718</ele>
        <time>2016-09-22T08:23:47Z</time>
      </trkpt>
      <trkpt lat="45.98052" lon="4.399">
        <ele>718</ele>
        <time>2016-09-22T08:30:38Z</time>
      </trkpt>
      <trkpt lat="45.98052" lon="4.39901">
        <ele>718</ele>
        <time>2016-09-22T08:30:39Z</time>
      </trkpt>
      <trkpt lat="45.98053" lon="4.39914">
        <ele>719</ele>
        <time>2016-09-22T08:30:47Z</time>
      </trkpt>
      <trkpt lat="45.98053" lon="4.39916">
        <ele>719</ele>
        <time>2016-09-22T08:30:48Z</time>
      </trkpt>
      <trkpt lat="45.98055" lon="4.39927">
        <ele>723</ele>
        <time>2016-09-22T08:30:54Z</time>
      </trkpt>
      <trkpt lat="45.98055" lon="4.39929">
        <ele>723</ele>
        <time>2016-09-22T08:30:55Z</time>
      </trkpt>
      <trkpt lat="45.98056" lon="4.39941">
        <ele>723</ele>
        <time>2016-09-22T08:31:01Z</time>
      </trkpt>
      <trkpt lat="45.98057" lon="4.39944">
        <ele>723</ele>
        <time>2016-09-22T08:31:02Z</time>
      </trkpt>
      <trkpt lat="45.98059" lon="4.39954">
        <ele>724</ele>
        <time>2016-09-22T08:31:08Z</time>
      </trkpt>
      <trkpt lat="45.9806" lon="4.39956">
        <ele>724</ele>
        <time>2016-09-22T08:31:09Z</time>
      </trkpt>
      <trkpt lat="45.98063" lon="4.39967">
        <ele>724</ele>
        <time>2016-09-22T08:31:17Z</time>
      </trkpt>
      <trkpt lat="45.98064" lon="4.39969">
        <ele>725</ele>
        <time>2016-09-22T08:31:18Z</time>
      </trkpt>
      <trkpt lat="45.98067" lon="4.3998">
        <ele>726</ele>
        <time>2016-09-22T08:31:26Z</time>
      </trkpt>
      <trkpt lat="45.98067" lon="4.39982">
        <ele>726</ele>
        <time>2016-09-22T08:31:27Z</time>
      </trkpt>
      <trkpt lat="45.98071" lon="4.39992">
        <ele>727</ele>
        <time>2016-09-22T08:31:34Z</time>
      </trkpt>
      <trkpt lat="45.98071" lon="4.39994">
        <ele>727</ele>
        <time>2016-09-22T08:31:35Z</time>
      </trkpt>
      <trkpt lat="45.98073" lon="4.40005">
        <ele>730</ele>
        <time>2016-09-22T08:31:42Z</time>
      </trkpt>
      <trkpt lat="45.98073" lon="4.40007">
        <ele>730</ele>
        <time>2016-09-22T08:31:43Z</time>
      </trkpt>
      <trkpt lat="45.98077" lon="4.40018">
        <ele>731</ele>
        <time>2016-09-22T08:31:51Z</time>
      </trkpt>
      <trkpt lat="45.98077" lon="4.40019">
        <ele>731</ele>
        <time>2016-09-22T08:31:52Z</time>
      </trkpt>
      <trkpt lat="45.98078" lon="4.40031">
        <ele>732</ele>
        <time>2016-09-22T08:31:59Z</time>
      </trkpt>
      <trkpt lat="45.98077" lon="4.40033">
        <ele>732</ele>
        <time>2016-09-22T08:32:00Z</time>
      </trkpt>
      <trkpt lat="45.98079" lon="4.40045">
        <ele>733</ele>
        <time>2016-09-22T08:32:09Z</time>
      </trkpt>
      <trkpt lat="45.98078" lon="4.40046">
        <ele>733</ele>
        <time>2016-09-22T08:32:10Z</time>
      </trkpt>
      <trkpt lat="45.98083" lon="4.40058">
        <ele>735</ele>
        <time>2016-09-22T08:32:22Z</time>
      </trkpt>
      <trkpt lat="45.98084" lon="4.40058">
        <ele>740</ele>
        <time>2016-09-22T08:32:23Z</time>
      </trkpt>
      <trkpt lat="45.98091" lon="4.40052">
        <ele>740</ele>
        <time>2016-09-22T08:32:30Z</time>
      </trkpt>
      <trkpt lat="45.98092" lon="4.40051">
        <ele>740</ele>
        <time>2016-09-22T08:32:31Z</time>
      </trkpt>
      <trkpt lat="45.98099" lon="4.40043">
        <ele>739</ele>
        <time>2016-09-22T08:32:38Z</time>
      </trkpt>
      <trkpt lat="45.981" lon="4.40042">
        <ele>739</ele>
        <time>2016-09-22T08:32:39Z</time>
      </trkpt>
      <trkpt lat="45.98104" lon="4.40033">
        <ele>738</ele>
        <time>2016-09-22T08:32:46Z</time>
      </trkpt>
      <trkpt lat="45.98106" lon="4.40032">
        <ele>738</ele>
        <time>2016-09-22T08:32:47Z</time>
      </trkpt>
      <trkpt lat="45.98113" lon="4.40025">
        <ele>738</ele>
        <time>2016-09-22T08:32:54Z</time>
      </trkpt>
      <trkpt lat="45.98114" lon="4.40024">
        <ele>738</ele>
        <time>2016-09-22T08:32:55Z</time>
      </trkpt>
      <trkpt lat="45.98122" lon="4.4002">
        <ele>738</ele>
        <time>2016-09-22T08:33:02Z</time>
      </trkpt>
      <trkpt lat="45.98123" lon="4.40019">
        <ele>738</ele>
        <time>2016-09-22T08:33:03Z</time>
      </trkpt>
      <trkpt lat="45.9813" lon="4.40017">
        <ele>738</ele>
        <time>2016-09-22T08:33:09Z</time>
      </trkpt>
      <trkpt lat="45.98132" lon="4.40016">
        <ele>738</ele>
        <time>2016-09-22T08:33:10Z</time>
      </trkpt>
      <trkpt lat="45.98139" lon="4.40011">
        <ele>738</ele>
        <time>2016-09-22T08:33:16Z</time>
      </trkpt>
      <trkpt lat="45.9814" lon="4.4001">
        <ele>738</ele>
        <time>2016-09-22T08:33:17Z</time>
      </trkpt>
      <trkpt lat="45.98148" lon="4.40005">
        <ele>737</ele>
        <time>2016-09-22T08:33:23Z</time>
      </trkpt>
      <trkpt lat="45.98149" lon="4.40005">
        <ele>737</ele>
        <time>2016-09-22T08:33:24Z</time>
      </trkpt>
      <trkpt lat="45.98157" lon="4.40001">
        <ele>736</ele>
        <time>2016-09-22T08:33:30Z</time>
      </trkpt>
      <trkpt lat="45.98159" lon="4.4">
        <ele>736</ele>
        <time>2016-09-22T08:33:31Z</time>
      </trkpt>
      <trkpt lat="45.98166" lon="4.39998">
        <ele>734</ele>
        <time>2016-09-22T08:33:38Z</time>
      </trkpt>
      <trkpt lat="45.98167" lon="4.39997">
        <ele>734</ele>
        <time>2016-09-22T08:33:39Z</time>
      </trkpt>
      <trkpt lat="45.98175" lon="4.39991">
        <ele>733</ele>
        <time>2016-09-22T08:33:48Z</time>
      </trkpt>
      <trkpt lat="45.98175" lon="4.39991">
        <ele>732</ele>
        <time>2016-09-22T08:33:49Z</time>
      </trkpt>
      <trkpt lat="45.98184" lon="4.39992">
        <ele>732</ele>
        <time>2016-09-22T08:34:00Z</time>
      </trkpt>
      <trkpt lat="45.98185" lon="4.39992">
        <ele>732</ele>
        <time>2016-09-22T08:34:01Z</time>
      </trkpt>
      <trkpt lat="45.98194" lon="4.39995">
        <ele>732</ele>
        <time>2016-09-22T08:34:08Z</time>
      </trkpt>
      <trkpt lat="45.98195" lon="4.39996">
        <ele>732</ele>
        <time>2016-09-22T08:34:09Z</time>
      </trkpt>
      <trkpt lat="45.98202" lon="4.39999">
        <ele>732</ele>
        <time>2016-09-22T08:34:14Z</time>
      </trkpt>
      <trkpt lat="45.98204" lon="4.39999">
        <ele>732</ele>
        <time>2016-09-22T08:34:15Z</time>
      </trkpt>
      <trkpt lat="45.98212" lon="4.40004">
        <ele>743</ele>
        <time>2016-09-22T08:34:21Z</time>
      </trkpt>
      <trkpt lat="45.98213" lon="4.40005">
        <ele>743</ele>
        <time>2016-09-22T08:34:22Z</time>
      </trkpt>
      <trkpt lat="45.98221" lon="4.40011">
        <ele>743</ele>
        <time>2016-09-22T08:34:30Z</time>
      </trkpt>
      <trkpt lat="45.98222" lon="4.40011">
        <ele>743</ele>
        <time>2016-09-22T08:34:31Z</time>
      </trkpt>
      <trkpt lat="45.9823" lon="4.40013">
        <ele>743</ele>
        <time>2016-09-22T08:34:40Z</time>
      </trkpt>
      <trkpt lat="45.98231" lon="4.40013">
        <ele>743</ele>
        <time>2016-09-22T08:34:41Z</time>
      </trkpt>
      <trkpt lat="45.98239" lon="4.40013">
        <ele>743</ele>
        <time>2016-09-22T08:34:50Z</time>
      </trkpt>
      <trkpt lat="45.9824" lon="4.40013">
        <ele>743</ele>
        <time>2016-09-22T08:34:51Z</time>
      </trkpt>
      <trkpt lat="45.98249" lon="4.40011">
        <ele>742</ele>
        <time>2016-09-22T08:34:58Z</time>
      </trkpt>
      <trkpt lat="45.9825" lon="4.4001">
        <ele>745</ele>
        <time>2016-09-22T08:34:59Z</time>
      </trkpt>
      <trkpt lat="45.98259" lon="4.40008">
        <ele>746</ele>
        <time>2016-09-22T08:35:08Z</time>
      </trkpt>
      <trkpt lat="45.9826" lon="4.40009">
        <ele>746</ele>
        <time>2016-09-22T08:35:09Z</time>
      </trkpt>
      <trkpt lat="45.98269" lon="4.4001">
        <ele>748</ele>
        <time>2016-09-22T08:35:17Z</time>
      </trkpt>
      <trkpt lat="45.9827" lon="4.4001">
        <ele>748</ele>
        <time>2016-09-22T08:35:18Z</time>
      </trkpt>
      <trkpt lat="45.98278" lon="4.40011">
        <ele>750</ele>
        <time>2016-09-22T08:35:25Z</time>
      </trkpt>
      <trkpt lat="45.9828" lon="4.40011">
        <ele>750</ele>
        <time>2016-09-22T08:35:26Z</time>
      </trkpt>
      <trkpt lat="45.98288" lon="4.40011">
        <ele>751</ele>
        <time>2016-09-22T08:35:32Z</time>
      </trkpt>
      <trkpt lat="45.9829" lon="4.40011">
        <ele>751</ele>
        <time>2016-09-22T08:35:33Z</time>
      </trkpt>
      <trkpt lat="45.98298" lon="4.4001">
        <ele>752</ele>
        <time>2016-09-22T08:35:42Z</time>
      </trkpt>
      <trkpt lat="45.98299" lon="4.40009">
        <ele>752</ele>
        <time>2016-09-22T08:35:43Z</time>
      </trkpt>
      <trkpt lat="45.98307" lon="4.40007">
        <ele>752</ele>
        <time>2016-09-22T08:35:54Z</time>
      </trkpt>
      <trkpt lat="45.98308" lon="4.40007">
        <ele>752</ele>
        <time>2016-09-22T08:35:55Z</time>
      </trkpt>
      <trkpt lat="45.98316" lon="4.40003">
        <ele>752</ele>
        <time>2016-09-22T08:36:06Z</time>
      </trkpt>
      <trkpt lat="45.98317" lon="4.40003">
        <ele>752</ele>
        <time>2016-09-22T08:36:07Z</time>
      </trkpt>
      <trkpt lat="45.98324" lon="4.39999">
        <ele>745</ele>
        <time>2016-09-22T08:36:15Z</time>
      </trkpt>
      <trkpt lat="45.98326" lon="4.39999">
        <ele>745</ele>
        <time>2016-09-22T08:36:16Z</time>
      </trkpt>
      <trkpt lat="45.98334" lon="4.39994">
        <ele>748</ele>
        <time>2016-09-22T08:36:22Z</time>
      </trkpt>
      <trkpt lat="45.98335" lon="4.39993">
        <ele>748</ele>
        <time>2016-09-22T08:36:23Z</time>
      </trkpt>
      <trkpt lat="45.98343" lon="4.39992">
        <ele>747</ele>
        <time>2016-09-22T08:36:31Z</time>
      </trkpt>
      <trkpt lat="45.98344" lon="4.39992">
        <ele>746</ele>
        <time>2016-09-22T08:36:32Z</time>
      </trkpt>
      <trkpt lat="45.98352" lon="4.39987">
        <ele>745</ele>
        <time>2016-09-22T08:36:41Z</time>
      </trkpt>
      <trkpt lat="45.98353" lon="4.39987">
        <ele>745</ele>
        <time>2016-09-22T08:36:42Z</time>
      </trkpt>
      <trkpt lat="45.9836" lon="4.39986">
        <ele>745</ele>
        <time>2016-09-22T08:36:48Z</time>
      </trkpt>
      <trkpt lat="45.98362" lon="4.39985">
        <ele>745</ele>
        <time>2016-09-22T08:36:49Z</time>
      </trkpt>
      <trkpt lat="45.9837" lon="4.39985">
        <ele>745</ele>
        <time>2016-09-22T08:37:01Z</time>
      </trkpt>
      <trkpt lat="45.98372" lon="4.39985">
        <ele>745</ele>
        <time>2016-09-22T08:37:02Z</time>
      </trkpt>
      <trkpt lat="45.9838" lon="4.39985">
        <ele>746</ele>
        <time>2016-09-22T08:37:10Z</time>
      </trkpt>
      <trkpt lat="45.98381" lon="4.39985">
        <ele>746</ele>
        <time>2016-09-22T08:37:11Z</time>
      </trkpt>
      <trkpt lat="45.9839" lon="4.39982">
        <ele>747</ele>
        <time>2016-09-22T08:37:19Z</time>
      </trkpt>
      <trkpt lat="45.98391" lon="4.39982">
        <ele>747</ele>
        <time>2016-09-22T08:37:20Z</time>
      </trkpt>
      <trkpt lat="45.98399" lon="4.39982">
        <ele>748</ele>
        <time>2016-09-22T08:37:27Z</time>
      </trkpt>
      <trkpt lat="45.98401" lon="4.39982">
        <ele>748</ele>
        <time>2016-09-22T08:37:28Z</time>
      </trkpt>
      <trkpt lat="45.98409" lon="4.39982">
        <ele>749</ele>
        <time>2016-09-22T08:37:36Z</time>
      </trkpt>
      <trkpt lat="45.9841" lon="4.39982">
        <ele>749</ele>
        <time>2016-09-22T08:37:37Z</time>
      </trkpt>
      <trkpt lat="45.98418" lon="4.39983">
        <ele>754</ele>
        <time>2016-09-22T08:37:47Z</time>
      </trkpt>
      <trkpt lat="45.98419" lon="4.39983">
        <ele>754</ele>
        <time>2016-09-22T08:37:48Z</time>
      </trkpt>
      <trkpt lat="45.98427" lon="4.39983">
        <ele>753</ele>
        <time>2016-09-22T08:37:57Z</time>
      </trkpt>
      <trkpt lat="45.98428" lon="4.39983">
        <ele>753</ele>
        <time>2016-09-22T08:37:58Z</time>
      </trkpt>
      <trkpt lat="45.98437" lon="4.39984">
        <ele>753</ele>
        <time>2016-09-22T08:38:06Z</time>
      </trkpt>
      <trkpt lat="45.98438" lon="4.39985">
        <ele>753</ele>
        <time>2016-09-22T08:38:07Z</time>
      </trkpt>
      <trkpt lat="45.98446" lon="4.39986">
        <ele>753</ele>
        <time>2016-09-22T08:38:15Z</time>
      </trkpt>
      <trkpt lat="45.98447" lon="4.39986">
        <ele>753</ele>
        <time>2016-09-22T08:38:16Z</time>
      </trkpt>
      <trkpt lat="45.98456" lon="4.39988">
        <ele>753</ele>
        <time>2016-09-22T08:38:24Z</time>
      </trkpt>
      <trkpt lat="45.98457" lon="4.39987">
        <ele>753</ele>
        <time>2016-09-22T08:38:25Z</time>
      </trkpt>
      <trkpt lat="45.98464" lon="4.39988">
        <ele>754</ele>
        <time>2016-09-22T08:38:31Z</time>
      </trkpt>
      <trkpt lat="45.98466" lon="4.39988">
        <ele>754</ele>
        <time>2016-09-22T08:38:32Z</time>
      </trkpt>
      <trkpt lat="45.98474" lon="4.39987">
        <ele>755</ele>
        <time>2016-09-22T08:38:39Z</time>
      </trkpt>
      <trkpt lat="45.98475" lon="4.39988">
        <ele>755</ele>
        <time>2016-09-22T08:38:40Z</time>
      </trkpt>
      <trkpt lat="45.98484" lon="4.39987">
        <ele>756</ele>
        <time>2016-09-22T08:38:48Z</time>
      </trkpt>
      <trkpt lat="45.98485" lon="4.39987">
        <ele>756</ele>
        <time>2016-09-22T08:38:49Z</time>
      </trkpt>
      <trkpt lat="45.98493" lon="4.39988">
        <ele>758</ele>
        <time>2016-09-22T08:38:57Z</time>
      </trkpt>
      <trkpt lat="45.98495" lon="4.39988">
        <ele>758</ele>
        <time>2016-09-22T08:38:58Z</time>
      </trkpt>
      <trkpt lat="45.98503" lon="4.39989">
        <ele>760</ele>
        <time>2016-09-22T08:39:03Z</time>
      </trkpt>
      <trkpt lat="45.98505" lon="4.39989">
        <ele>760</ele>
        <time>2016-09-22T08:39:04Z</time>
      </trkpt>
      <trkpt lat="45.98513" lon="4.39989">
        <ele>759</ele>
        <time>2016-09-22T08:39:11Z</time>
      </trkpt>
      <trkpt lat="45.98514" lon="4.39989">
        <ele>759</ele>
        <time>2016-09-22T08:39:12Z</time>
      </trkpt>
      <trkpt lat="45.98522" lon="4.39991">
        <ele>758</ele>
        <time>2016-09-22T08:39:20Z</time>
      </trkpt>
      <trkpt lat="45.98524" lon="4.39992">
        <ele>758</ele>
        <time>2016-09-22T08:39:21Z</time>
      </trkpt>
      <trkpt lat="45.98531" lon="4.39995">
        <ele>757</ele>
        <time>2016-09-22T08:39:26Z</time>
      </trkpt>
      <trkpt lat="45.98532" lon="4.39996">
        <ele>757</ele>
        <time>2016-09-22T08:39:27Z</time>
      </trkpt>
      <trkpt lat="45.98541" lon="4.4">
        <ele>757</ele>
        <time>2016-09-22T08:39:36Z</time>
      </trkpt>
      <trkpt lat="45.98542" lon="4.40001">
        <ele>770</ele>
        <time>2016-09-22T08:39:37Z</time>
      </trkpt>
      <trkpt lat="45.98547" lon="4.40009">
        <ele>770</ele>
        <time>2016-09-22T08:39:44Z</time>
      </trkpt>
      <trkpt lat="45.98548" lon="4.4001">
        <ele>770</ele>
        <time>2016-09-22T08:39:45Z</time>
      </trkpt>
      <trkpt lat="45.98555" lon="4.40018">
        <ele>770</ele>
        <time>2016-09-22T08:39:53Z</time>
      </trkpt>
      <trkpt lat="45.98556" lon="4.40019">
        <ele>770</ele>
        <time>2016-09-22T08:39:54Z</time>
      </trkpt>
      <trkpt lat="45.98563" lon="4.40024">
        <ele>770</ele>
        <time>2016-09-22T08:40:02Z</time>
      </trkpt>
      <trkpt lat="45.98565" lon="4.40025">
        <ele>770</ele>
        <time>2016-09-22T08:40:03Z</time>
      </trkpt>
      <trkpt lat="45.98572" lon="4.40031">
        <ele>771</ele>
        <time>2016-09-22T08:40:09Z</time>
      </trkpt>
      <trkpt lat="45.98573" lon="4.40032">
        <ele>771</ele>
        <time>2016-09-22T08:40:10Z</time>
      </trkpt>
      <trkpt lat="45.9858" lon="4.40039">
        <ele>772</ele>
        <time>2016-09-22T08:40:17Z</time>
      </trkpt>
      <trkpt lat="45.98581" lon="4.40041">
        <ele>772</ele>
        <time>2016-09-22T08:40:18Z</time>
      </trkpt>
      <trkpt lat="45.98588" lon="4.40048">
        <ele>763</ele>
        <time>2016-09-22T08:40:24Z</time>
      </trkpt>
      <trkpt lat="45.98589" lon="4.40049">
        <ele>763</ele>
        <time>2016-09-22T08:40:25Z</time>
      </trkpt>
      <trkpt lat="45.98596" lon="4.40054">
        <ele>764</ele>
        <time>2016-09-22T08:40:32Z</time>
      </trkpt>
      <trkpt lat="45.98597" lon="4.40055">
        <ele>764</ele>
        <time>2016-09-22T08:40:33Z</time>
      </trkpt>
      <trkpt lat="45.98602" lon="4.40065">
        <ele>765</ele>
        <time>2016-09-22T08:40:42Z</time>
      </trkpt>
      <trkpt lat="45.98603" lon="4.40066">
        <ele>765</ele>
        <time>2016-09-22T08:40:43Z</time>
      </trkpt>
      <trkpt lat="45.9861" lon="4.40073">
        <ele>764</ele>
        <time>2016-09-22T08:40:50Z</time>
      </trkpt>
      <trkpt lat="45.9861" lon="4.40075">
        <ele>764</ele>
        <time>2016-09-22T08:40:51Z</time>
      </trkpt>
      <trkpt lat="45.98615" lon="4.40085">
        <ele>770</ele>
        <time>2016-09-22T08:40:57Z</time>
      </trkpt>
      <trkpt lat="45.98617" lon="4.40087">
        <ele>770</ele>
        <time>2016-09-22T08:40:58Z</time>
      </trkpt>
      <trkpt lat="45.98623" lon="4.40095">
        <ele>768</ele>
        <time>2016-09-22T08:41:02Z</time>
      </trkpt>
      <trkpt lat="45.98625" lon="4.40097">
        <ele>768</ele>
        <time>2016-09-22T08:41:03Z</time>
      </trkpt>
      <trkpt lat="45.98631" lon="4.40105">
        <ele>767</ele>
        <time>2016-09-22T08:41:10Z</time>
      </trkpt>
      <trkpt lat="45.98631" lon="4.40107">
        <ele>767</ele>
        <time>2016-09-22T08:41:11Z</time>
      </trkpt>
      <trkpt lat="45.98636" lon="4.40116">
        <ele>767</ele>
        <time>2016-09-22T08:41:16Z</time>
      </trkpt>
      <trkpt lat="45.98637" lon="4.40118">
        <ele>767</ele>
        <time>2016-09-22T08:41:17Z</time>
      </trkpt>
      <trkpt lat="45.98642" lon="4.40127">
        <ele>767</ele>
        <time>2016-09-22T08:41:22Z</time>
      </trkpt>
      <trkpt lat="45.98643" lon="4.40128">
        <ele>767</ele>
        <time>2016-09-22T08:41:23Z</time>
      </trkpt>
      <trkpt lat="45.98649" lon="4.40138">
        <ele>767</ele>
        <time>2016-09-22T08:41:30Z</time>
      </trkpt>
      <trkpt lat="45.9865" lon="4.40139">
        <ele>767</ele>
        <time>2016-09-22T08:41:31Z</time>
      </trkpt>
      <trkpt lat="45.98654" lon="4.40149">
        <ele>767</ele>
        <time>2016-09-22T08:41:37Z</time>
      </trkpt>
      <trkpt lat="45.98655" lon="4.4015">
        <ele>766</ele>
        <time>2016-09-22T08:41:38Z</time>
      </trkpt>
      <trkpt lat="45.9866" lon="4.4016">
        <ele>765</ele>
        <time>2016-09-22T08:41:44Z</time>
      </trkpt>
      <trkpt lat="45.9866" lon="4.40162">
        <ele>765</ele>
        <time>2016-09-22T08:41:45Z</time>
      </trkpt>
      <trkpt lat="45.98665" lon="4.40171">
        <ele>766</ele>
        <time>2016-09-22T08:41:51Z</time>
      </trkpt>
      <trkpt lat="45.98666" lon="4.40173">
        <ele>767</ele>
        <time>2016-09-22T08:41:52Z</time>
      </trkpt>
      <trkpt lat="45.98672" lon="4.40182">
        <ele>762</ele>
        <time>2016-09-22T08:41:59Z</time>
      </trkpt>
      <trkpt lat="45.98672" lon="4.40183">
        <ele>762</ele>
        <time>2016-09-22T08:42:00Z</time>
      </trkpt>
      <trkpt lat="45.98679" lon="4.40192">
        <ele>762</ele>
        <time>2016-09-22T08:42:08Z</time>
      </trkpt>
      <trkpt lat="45.98679" lon="4.40193">
        <ele>762</ele>
        <time>2016-09-22T08:42:09Z</time>
      </trkpt>
      <trkpt lat="45.98685" lon="4.40201">
        <ele>762</ele>
        <time>2016-09-22T08:42:17Z</time>
      </trkpt>
      <trkpt lat="45.98686" lon="4.40202">
        <ele>762</ele>
        <time>2016-09-22T08:42:18Z</time>
      </trkpt>
      <trkpt lat="45.9869" lon="4.40211">
        <ele>762</ele>
        <time>2016-09-22T08:42:24Z</time>
      </trkpt>
      <trkpt lat="45.98691" lon="4.40213">
        <ele>762</ele>
        <time>2016-09-22T08:42:25Z</time>
      </trkpt>
      <trkpt lat="45.98698" lon="4.40221">
        <ele>762</ele>
        <time>2016-09-22T08:42:32Z</time>
      </trkpt>
      <trkpt lat="45.98699" lon="4.40223">
        <ele>762</ele>
        <time>2016-09-22T08:42:33Z</time>
      </trkpt>
      <trkpt lat="45.98705" lon="4.4023">
        <ele>762</ele>
        <time>2016-09-22T08:42:40Z</time>
      </trkpt>
      <trkpt lat="45.98706" lon="4.40231">
        <ele>762</ele>
        <time>2016-09-22T08:42:41Z</time>
      </trkpt>
      <trkpt lat="45.98713" lon="4.40239">
        <ele>761</ele>
        <time>2016-09-22T08:42:48Z</time>
      </trkpt>
      <trkpt lat="45.98713" lon="4.4024">
        <ele>761</ele>
        <time>2016-09-22T08:42:49Z</time>
      </trkpt>
      <trkpt lat="45.9872" lon="4.40245">
        <ele>760</ele>
        <time>2016-09-22T08:42:58Z</time>
      </trkpt>
      <trkpt lat="45.98722" lon="4.40245">
        <ele>760</ele>
        <time>2016-09-22T08:42:59Z</time>
      </trkpt>
      <trkpt lat="45.98731" lon="4.40247">
        <ele>759</ele>
        <time>2016-09-22T08:43:04Z</time>
      </trkpt>
      <trkpt lat="45.98732" lon="4.40248">
        <ele>759</ele>
        <time>2016-09-22T08:43:05Z</time>
      </trkpt>
      <trkpt lat="45.98739" lon="4.4025">
        <ele>758</ele>
        <time>2016-09-22T08:43:11Z</time>
      </trkpt>
      <trkpt lat="45.98741" lon="4.4025">
        <ele>758</ele>
        <time>2016-09-22T08:43:12Z</time>
      </trkpt>
      <trkpt lat="45.98749" lon="4.40252">
        <ele>758</ele>
        <time>2016-09-22T08:43:18Z</time>
      </trkpt>
      <trkpt lat="45.9875" lon="4.40252">
        <ele>758</ele>
        <time>2016-09-22T08:43:19Z</time>
      </trkpt>
      <trkpt lat="45.98758" lon="4.40254">
        <ele>757</ele>
        <time>2016-09-22T08:43:26Z</time>
      </trkpt>
      <trkpt lat="45.98759" lon="4.40254">
        <ele>757</ele>
        <time>2016-09-22T08:43:27Z</time>
      </trkpt>
      <trkpt lat="45.98767" lon="4.40256">
        <ele>758</ele>
        <time>2016-09-22T08:43:34Z</time>
      </trkpt>
      <trkpt lat="45.98769" lon="4.40257">
        <ele>758</ele>
        <time>2016-09-22T08:43:35Z</time>
      </trkpt>
      <trkpt lat="45.98776" lon="4.40259">
        <ele>757</ele>
        <time>2016-09-22T08:43:41Z</time>
      </trkpt>
      <trkpt lat="45.98778" lon="4.4026">
        <ele>757</ele>
        <time>2016-09-22T08:43:42Z</time>
      </trkpt>
      <trkpt lat="45.98786" lon="4.40263">
        <ele>757</ele>
        <time>2016-09-22T08:43:49Z</time>
      </trkpt>
      <trkpt lat="45.98787" lon="4.40263">
        <ele>757</ele>
        <time>2016-09-22T08:43:50Z</time>
      </trkpt>
      <trkpt lat="45.98795" lon="4.40267">
        <ele>757</ele>
        <time>2016-09-22T08:43:57Z</time>
      </trkpt>
      <trkpt lat="45.98797" lon="4.40267">
        <ele>756</ele>
        <time>2016-09-22T08:43:58Z</time>
      </trkpt>
      <trkpt lat="45.98804" lon="4.40271">
        <ele>756</ele>
        <time>2016-09-22T08:44:04Z</time>
      </trkpt>
      <trkpt lat="45.98805" lon="4.40271">
        <ele>756</ele>
        <time>2016-09-22T08:44:05Z</time>
      </trkpt>
      <trkpt lat="45.98814" lon="4.40275">
        <ele>756</ele>
        <time>2016-09-22T08:44:12Z</time>
      </trkpt>
      <trkpt lat="45.98815" lon="4.40276">
        <ele>756</ele>
        <time>2016-09-22T08:44:13Z</time>
      </trkpt>
      <trkpt lat="45.98822" lon="4.4028">
        <ele>756</ele>
        <time>2016-09-22T08:44:19Z</time>
      </trkpt>
      <trkpt lat="45.98823" lon="4.40281">
        <ele>756</ele>
        <time>2016-09-22T08:44:20Z</time>
      </trkpt>
      <trkpt lat="45.9883" lon="4.40285">
        <ele>757</ele>
        <time>2016-09-22T08:44:26Z</time>
      </trkpt>
      <trkpt lat="45.98832" lon="4.40285">
        <ele>757</ele>
        <time>2016-09-22T08:44:27Z</time>
      </trkpt>
      <trkpt lat="45.9884" lon="4.40288">
        <ele>755</ele>
        <time>2016-09-22T08:44:33Z</time>
      </trkpt>
      <trkpt lat="45.98841" lon="4.40289">
        <ele>755</ele>
        <time>2016-09-22T08:44:34Z</time>
      </trkpt>
      <trkpt lat="45.98849" lon="4.40296">
        <ele>756</ele>
        <time>2016-09-22T08:44:41Z</time>
      </trkpt>
      <trkpt lat="45.9885" lon="4.40296">
        <ele>756</ele>
        <time>2016-09-22T08:44:42Z</time>
      </trkpt>
      <trkpt lat="45.98858" lon="4.403">
        <ele>756</ele>
        <time>2016-09-22T08:44:49Z</time>
      </trkpt>
      <trkpt lat="45.98859" lon="4.403">
        <ele>756</ele>
        <time>2016-09-22T08:44:50Z</time>
      </trkpt>
      <trkpt lat="45.98866" lon="4.40303">
        <ele>756</ele>
        <time>2016-09-22T08:44:55Z</time>
      </trkpt>
      <trkpt lat="45.98868" lon="4.40304">
        <ele>757</ele>
        <time>2016-09-22T08:44:56Z</time>
      </trkpt>
      <trkpt lat="45.98876" lon="4.40308">
        <ele>757</ele>
        <time>2016-09-22T08:45:02Z</time>
      </trkpt>
      <trkpt lat="45.98877" lon="4.40309">
        <ele>757</ele>
        <time>2016-09-22T08:45:03Z</time>
      </trkpt>
      <trkpt lat="45.98886" lon="4.40313">
        <ele>757</ele>
        <time>2016-09-22T08:45:09Z</time>
      </trkpt>
      <trkpt lat="45.98887" lon="4.40314">
        <ele>757</ele>
        <time>2016-09-22T08:45:10Z</time>
      </trkpt>
      <trkpt lat="45.98896" lon="4.40316">
        <ele>758</ele>
        <time>2016-09-22T08:45:16Z</time>
      </trkpt>
      <trkpt lat="45.98897" lon="4.40316">
        <ele>758</ele>
        <time>2016-09-22T08:45:17Z</time>
      </trkpt>
      <trkpt lat="45.98905" lon="4.40314">
        <ele>758</ele>
        <time>2016-09-22T08:45:24Z</time>
      </trkpt>
      <trkpt lat="45.98906" lon="4.40314">
        <ele>758</ele>
        <time>2016-09-22T08:45:25Z</time>
      </trkpt>
      <trkpt lat="45.98915" lon="4.40316">
        <ele>759</ele>
        <time>2016-09-22T08:45:32Z</time>
      </trkpt>
      <trkpt lat="45.98916" lon="4.40316">
        <ele>759</ele>
        <time>2016-09-22T08:45:33Z</time>
      </trkpt>
      <trkpt lat="45.98924" lon="4.40314">
        <ele>756</ele>
        <time>2016-09-22T08:45:39Z</time>
      </trkpt>
      <trkpt lat="45.98925" lon="4.40314">
        <ele>756</ele>
        <time>2016-09-22T08:45:40Z</time>
      </trkpt>
      <trkpt lat="45.98933" lon="4.4031">
        <ele>754</ele>
        <time>2016-09-22T08:45:47Z</time>
      </trkpt>
      <trkpt lat="45.98934" lon="4.40309">
        <ele>754</ele>
        <time>2016-09-22T08:45:48Z</time>
      </trkpt>
      <trkpt lat="45.98942" lon="4.40306">
        <ele>753</ele>
        <time>2016-09-22T08:45:56Z</time>
      </trkpt>
      <trkpt lat="45.98943" lon="4.40306">
        <ele>753</ele>
        <time>2016-09-22T08:45:57Z</time>
      </trkpt>
      <trkpt lat="45.98951" lon="4.40302">
        <ele>752</ele>
        <time>2016-09-22T08:46:04Z</time>
      </trkpt>
      <trkpt lat="45.98952" lon="4.40302">
        <ele>752</ele>
        <time>2016-09-22T08:46:05Z</time>
      </trkpt>
      <trkpt lat="45.9896" lon="4.40305">
        <ele>752</ele>
        <time>2016-09-22T08:46:14Z</time>
      </trkpt>
      <trkpt lat="45.98961" lon="4.40305">
        <ele>752</ele>
        <time>2016-09-22T08:46:15Z</time>
      </trkpt>
      <trkpt lat="45.98969" lon="4.40306">
        <ele>752</ele>
        <time>2016-09-22T08:46:21Z</time>
      </trkpt>
      <trkpt lat="45.98971" lon="4.40306">
        <ele>752</ele>
        <time>2016-09-22T08:46:22Z</time>
      </trkpt>
      <trkpt lat="45.98979" lon="4.40307">
        <ele>752</ele>
        <time>2016-09-22T08:46:28Z</time>
      </trkpt>
      <trkpt lat="45.98981" lon="4.40307">
        <ele>752</ele>
        <time>2016-09-22T08:46:29Z</time>
      </trkpt>
      <trkpt lat="45.98989" lon="4.40305">
        <ele>752</ele>
        <time>2016-09-22T08:46:36Z</time>
      </trkpt>
      <trkpt lat="45.9899" lon="4.40305">
        <ele>752</ele>
        <time>2016-09-22T08:46:37Z</time>
      </trkpt>
      <trkpt lat="45.98998" lon="4.40306">
        <ele>752</ele>
        <time>2016-09-22T08:46:44Z</time>
      </trkpt>
      <trkpt lat="45.98999" lon="4.40306">
        <ele>752</ele>
        <time>2016-09-22T08:46:45Z</time>
      </trkpt>
      <trkpt lat="45.99007" lon="4.40305">
        <ele>747</ele>
        <time>2016-09-22T08:46:51Z</time>
      </trkpt>
      <trkpt lat="45.99008" lon="4.40305">
        <ele>747</ele>
        <time>2016-09-22T08:46:52Z</time>
      </trkpt>
      <trkpt lat="45.99016" lon="4.40303">
        <ele>746</ele>
        <time>2016-09-22T08:46:58Z</time>
      </trkpt>
      <trkpt lat="45.99018" lon="4.40302">
        <ele>746</ele>
        <time>2016-09-22T08:46:59Z</time>
      </trkpt>
      <trkpt lat="45.99026" lon="4.40299">
        <ele>745</ele>
        <time>2016-09-22T08:47:05Z</time>
      </trkpt>
      <trkpt lat="45.99027" lon="4.40298">
        <ele>745</ele>
        <time>2016-09-22T08:47:06Z</time>
      </trkpt>
      <trkpt lat="45.99035" lon="4.40298">
        <ele>745</ele>
        <time>2016-09-22T08:47:12Z</time>
      </trkpt>
      <trkpt lat="45.99036" lon="4.40298">
        <ele>745</ele>
        <time>2016-09-22T08:47:13Z</time>
      </trkpt>
      <trkpt lat="45.99044" lon="4.40299">
        <ele>744</ele>
        <time>2016-09-22T08:47:20Z</time>
      </trkpt>
      <trkpt lat="45.99045" lon="4.40299">
        <ele>744</ele>
        <time>2016-09-22T08:47:21Z</time>
      </trkpt>
      <trkpt lat="45.99053" lon="4.403">
        <ele>744</ele>
        <time>2016-09-22T08:47:28Z</time>
      </trkpt>
      <trkpt lat="45.99055" lon="4.403">
        <ele>744</ele>
        <time>2016-09-22T08:47:29Z</time>
      </trkpt>
      <trkpt lat="45.99063" lon="4.403">
        <ele>743</ele>
        <time>2016-09-22T08:47:35Z</time>
      </trkpt>
      <trkpt lat="45.99064" lon="4.403">
        <ele>743</ele>
        <time>2016-09-22T08:47:36Z</time>
      </trkpt>
      <trkpt lat="45.99073" lon="4.403">
        <ele>743</ele>
        <time>2016-09-22T08:47:43Z</time>
      </trkpt>
      <trkpt lat="45.99074" lon="4.403">
        <ele>743</ele>
        <time>2016-09-22T08:47:44Z</time>
      </trkpt>
      <trkpt lat="45.99082" lon="4.40301">
        <ele>743</ele>
        <time>2016-09-22T08:47:50Z</time>
      </trkpt>
      <trkpt lat="45.99083" lon="4.40301">
        <ele>743</ele>
        <time>2016-09-22T08:47:51Z</time>
      </trkpt>
      <trkpt lat="45.99092" lon="4.403">
        <ele>734</ele>
        <time>2016-09-22T08:47:57Z</time>
      </trkpt>
      <trkpt lat="45.99093" lon="4.403">
        <ele>734</ele>
        <time>2016-09-22T08:47:58Z</time>
      </trkpt>
      <trkpt lat="45.99101" lon="4.40295">
        <ele>733</ele>
        <time>2016-09-22T08:48:05Z</time>
      </trkpt>
      <trkpt lat="45.99102" lon="4.40294">
        <ele>733</ele>
        <time>2016-09-22T08:48:06Z</time>
      </trkpt>
      <trkpt lat="45.99109" lon="4.40288">
        <ele>732</ele>
        <time>2016-09-22T08:48:13Z</time>
      </trkpt>
      <trkpt lat="45.9911" lon="4.40288">
        <ele>732</ele>
        <time>2016-09-22T08:48:14Z</time>
      </trkpt>
      <trkpt lat="45.99119" lon="4.40284">
        <ele>731</ele>
        <time>2016-09-22T08:48:21Z</time>
      </trkpt>
      <trkpt lat="45.9912" lon="4.40284">
        <ele>731</ele>
        <time>2016-09-22T08:48:22Z</time>
      </trkpt>
      <trkpt lat="45.99129" lon="4.40283">
        <ele>730</ele>
        <time>2016-09-22T08:48:28Z</time>
      </trkpt>
      <trkpt lat="45.9913" lon="4.40283">
        <ele>730</ele>
        <time>2016-09-22T08:48:29Z</time>
      </trkpt>
      <trkpt lat="45.99139" lon="4.40282">
        <ele>729</ele>
        <time>2016-09-22T08:48:36Z</time>
      </trkpt>
      <trkpt lat="45.9914" lon="4.40281">
        <ele>729</ele>
        <time>2016-09-22T08:48:37Z</time>
      </trkpt>
      <trkpt lat="45.99148" lon="4.40278">
        <ele>728</ele>
        <time>2016-09-22T08:48:45Z</time>
      </trkpt>
      <trkpt lat="45.99149" lon="4.40277">
        <ele>727</ele>
        <time>2016-09-22T08:48:46Z</time>
      </trkpt>
      <trkpt lat="45.99156" lon="4.40274">
        <ele>726</ele>
        <time>2016-09-22T08:48:56Z</time>
      </trkpt>
      <trkpt lat="45.99157" lon="4.40273">
        <ele>726</ele>
        <time>2016-09-22T08:48:57Z</time>
      </trkpt>
      <trkpt lat="45.99165" lon="4.40267">
        <ele>725</ele>
        <time>2016-09-22T08:49:14Z</time>
      </trkpt>
      <trkpt lat="45.99166" lon="4.40266">
        <ele>724</ele>
        <time>2016-09-22T08:49:15Z</time>
      </trkpt>
      <trkpt lat="45.9917" lon="4.40256">
        <ele>719</ele>
        <time>2016-09-22T08:49:22Z</time>
      </trkpt>
      <trkpt lat="45.9917" lon="4.40254">
        <ele>719</ele>
        <time>2016-09-22T08:49:23Z</time>
      </trkpt>
      <trkpt lat="45.99172" lon="4.40242">
        <ele>719</ele>
        <time>2016-09-22T08:49:31Z</time>
      </trkpt>
      <trkpt lat="45.99172" lon="4.40241">
        <ele>719</ele>
        <time>2016-09-22T08:49:32Z</time>
      </trkpt>
      <trkpt lat="45.99174" lon="4.40229">
        <ele>718</ele>
        <time>2016-09-22T08:49:39Z</time>
      </trkpt>
      <trkpt lat="45.99175" lon="4.40228">
        <ele>718</ele>
        <time>2016-09-22T08:49:40Z</time>
      </trkpt>
      <trkpt lat="45.99183" lon="4.40224">
        <ele>718</ele>
        <time>2016-09-22T08:50:03Z</time>
      </trkpt>
      <trkpt lat="45.99183" lon="4.40224">
        <ele>718</ele>
        <time>2016-09-22T08:50:04Z</time>
      </trkpt>
      <trkpt lat="45.99191" lon="4.4022">
        <ele>718</ele>
        <time>2016-09-22T08:52:21Z</time>
      </trkpt>
      <trkpt lat="45.99192" lon="4.40218">
        <ele>718</ele>
        <time>2016-09-22T08:52:22Z</time>
      </trkpt>
      <trkpt lat="45.99198" lon="4.4021">
        <ele>718</ele>
        <time>2016-09-22T08:52:29Z</time>
      </trkpt>
      <trkpt lat="45.99199" lon="4.40209">
        <ele>718</ele>
        <time>2016-09-22T08:52:30Z</time>
      </trkpt>
      <trkpt lat="45.99193" lon="4.40217">
        <ele>718</ele>
        <time>2016-09-22T08:53:58Z</time>
      </trkpt>
      <trkpt lat="45.99192" lon="4.40218">
        <ele>718</ele>
        <time>2016-09-22T08:53:59Z</time>
      </trkpt>
      <trkpt lat="45.99198" lon="4.40225">
        <ele>718</ele>
        <time>2016-09-22T08:54:36Z</time>
      </trkpt>
      <trkpt lat="45.99199" lon="4.40226">
        <ele>718</ele>
        <time>2016-09-22T08:54:37Z</time>
      </trkpt>
      <trkpt lat="45.99207" lon="4.40233">
        <ele>718</ele>
        <time>2016-09-22T08:54:45Z</time>
      </trkpt>
      <trkpt lat="45.99207" lon="4.40234">
        <ele>718</ele>
        <time>2016-09-22T08:54:46Z</time>
      </trkpt>
      <trkpt lat="45.99213" lon="4.40242">
        <ele>718</ele>
        <time>2016-09-22T08:55:23Z</time>
      </trkpt>
      <trkpt lat="45.99214" lon="4.40243">
        <ele>718</ele>
        <time>2016-09-22T08:55:24Z</time>
      </trkpt>
      <trkpt lat="45.99222" lon="4.40242">
        <ele>718</ele>
        <time>2016-09-22T08:55:31Z</time>
      </trkpt>
      <trkpt lat="45.99224" lon="4.40241">
        <ele>718</ele>
        <time>2016-09-22T08:55:32Z</time>
      </trkpt>
      <trkpt lat="45.99232" lon="4.4024">
        <ele>718</ele>
        <time>2016-09-22T08:55:37Z</time>
      </trkpt>
      <trkpt lat="45.99234" lon="4.4024">
        <ele>718</ele>
        <time>2016-09-22T08:55:38Z</time>
      </trkpt>
      <trkpt lat="45.99242" lon="4.40238">
        <ele>718</ele>
        <time>2016-09-22T08:55:44Z</time>
      </trkpt>
      <trkpt lat="45.99243" lon="4.40238">
        <ele>718</ele>
        <time>2016-09-22T08:55:45Z</time>
      </trkpt>
      <trkpt lat="45.99251" lon="4.40236">
        <ele>718</ele>
        <time>2016-09-22T08:55:52Z</time>
      </trkpt>
      <trkpt lat="45.99252" lon="4.40236">
        <ele>718</ele>
        <time>2016-09-22T08:55:53Z</time>
      </trkpt>
      <trkpt lat="45.9926" lon="4.40229">
        <ele>718</ele>
        <time>2016-09-22T08:56:01Z</time>
      </trkpt>
      <trkpt lat="45.9926" lon="4.40229">
        <ele>718</ele>
        <time>2016-09-22T08:56:02Z</time>
      </trkpt>
      <trkpt lat="45.99268" lon="4.40223">
        <ele>718</ele>
        <time>2016-09-22T08:56:12Z</time>
      </trkpt>
      <trkpt lat="45.99269" lon="4.40222">
        <ele>718</ele>
        <time>2016-09-22T08:56:13Z</time>
      </trkpt>
      <trkpt lat="45.99274" lon="4.40212">
        <ele>718</ele>
        <time>2016-09-22T08:56:20Z</time>
      </trkpt>
      <trkpt lat="45.99275" lon="4.40211">
        <ele>718</ele>
        <time>2016-09-22T08:56:21Z</time>
      </trkpt>
      <trkpt lat="45.99272" lon="4.40199">
        <ele>719</ele>
        <time>2016-09-22T08:56:29Z</time>
      </trkpt>
      <trkpt lat="45.99272" lon="4.40198">
        <ele>719</ele>
        <time>2016-09-22T08:56:30Z</time>
      </trkpt>
      <trkpt lat="45.99267" lon="4.40188">
        <ele>720</ele>
        <time>2016-09-22T08:56:38Z</time>
      </trkpt>
      <trkpt lat="45.99266" lon="4.40187">
        <ele>720</ele>
        <time>2016-09-22T08:56:39Z</time>
      </trkpt>
      <trkpt lat="45.99263" lon="4.40175">
        <ele>722</ele>
        <time>2016-09-22T08:56:47Z</time>
      </trkpt>
      <trkpt lat="45.99262" lon="4.40174">
        <ele>722</ele>
        <time>2016-09-22T08:56:48Z</time>
      </trkpt>
      <trkpt lat="45.99259" lon="4.40163">
        <ele>725</ele>
        <time>2016-09-22T08:56:55Z</time>
      </trkpt>
      <trkpt lat="45.99258" lon="4.40161">
        <ele>725</ele>
        <time>2016-09-22T08:56:56Z</time>
      </trkpt>
      <trkpt lat="45.99257" lon="4.40149">
        <ele>724</ele>
        <time>2016-09-22T08:57:04Z</time>
      </trkpt>
      <trkpt lat="45.99257" lon="4.40147">
        <ele>724</ele>
        <time>2016-09-22T08:57:05Z</time>
      </trkpt>
      <trkpt lat="45.99254" lon="4.40135">
        <ele>724</ele>
        <time>2016-09-22T08:57:12Z</time>
      </trkpt>
      <trkpt lat="45.99254" lon="4.40133">
        <ele>724</ele>
        <time>2016-09-22T08:57:13Z</time>
      </trkpt>
      <trkpt lat="45.99256" lon="4.40121">
        <ele>724</ele>
        <time>2016-09-22T08:57:20Z</time>
      </trkpt>
      <trkpt lat="45.99256" lon="4.4012">
        <ele>724</ele>
        <time>2016-09-22T08:57:21Z</time>
      </trkpt>
      <trkpt lat="45.99257" lon="4.40107">
        <ele>725</ele>
        <time>2016-09-22T08:57:30Z</time>
      </trkpt>
      <trkpt lat="45.99257" lon="4.40106">
        <ele>725</ele>
        <time>2016-09-22T08:57:31Z</time>
      </trkpt>
      <trkpt lat="45.99255" lon="4.40094">
        <ele>725</ele>
        <time>2016-09-22T08:57:38Z</time>
      </trkpt>
      <trkpt lat="45.99254" lon="4.40092">
        <ele>725</ele>
        <time>2016-09-22T08:57:39Z</time>
      </trkpt>
      <trkpt lat="45.99254" lon="4.40081">
        <ele>725</ele>
        <time>2016-09-22T08:57:45Z</time>
      </trkpt>
      <trkpt lat="45.99254" lon="4.40079">
        <ele>725</ele>
        <time>2016-09-22T08:57:46Z</time>
      </trkpt>
      <trkpt lat="45.99255" lon="4.40067">
        <ele>726</ele>
        <time>2016-09-22T08:57:52Z</time>
      </trkpt>
      <trkpt lat="45.99256" lon="4.40065">
        <ele>726</ele>
        <time>2016-09-22T08:57:53Z</time>
      </trkpt>
      <trkpt lat="45.9926" lon="4.40056">
        <ele>726</ele>
        <time>2016-09-22T08:57:58Z</time>
      </trkpt>
      <trkpt lat="45.99261" lon="4.40054">
        <ele>726</ele>
        <time>2016-09-22T08:57:59Z</time>
      </trkpt>
      <trkpt lat="45.99265" lon="4.40043">
        <ele>726</ele>
        <time>2016-09-22T08:58:06Z</time>
      </trkpt>
      <trkpt lat="45.99266" lon="4.40042">
        <ele>726</ele>
        <time>2016-09-22T08:58:07Z</time>
      </trkpt>
      <trkpt lat="45.99272" lon="4.40033">
        <ele>726</ele>
        <time>2016-09-22T08:58:15Z</time>
      </trkpt>
      <trkpt lat="45.99273" lon="4.40032">
        <ele>726</ele>
        <time>2016-09-22T08:58:16Z</time>
      </trkpt>
      <trkpt lat="45.99275" lon="4.40021">
        <ele>727</ele>
        <time>2016-09-22T08:58:23Z</time>
      </trkpt>
      <trkpt lat="45.99275" lon="4.4002">
        <ele>727</ele>
        <time>2016-09-22T08:58:24Z</time>
      </trkpt>
      <trkpt lat="45.99279" lon="4.40009">
        <ele>727</ele>
        <time>2016-09-22T08:58:31Z</time>
      </trkpt>
      <trkpt lat="45.99279" lon="4.40008">
        <ele>727</ele>
        <time>2016-09-22T08:58:32Z</time>
      </trkpt>
      <trkpt lat="45.99282" lon="4.39997">
        <ele>728</ele>
        <time>2016-09-22T08:58:39Z</time>
      </trkpt>
      <trkpt lat="45.99283" lon="4.39995">
        <ele>728</ele>
        <time>2016-09-22T08:58:40Z</time>
      </trkpt>
      <trkpt lat="45.99287" lon="4.39985">
        <ele>728</ele>
        <time>2016-09-22T08:58:48Z</time>
      </trkpt>
      <trkpt lat="45.99288" lon="4.39984">
        <ele>728</ele>
        <time>2016-09-22T08:58:49Z</time>
      </trkpt>
      <trkpt lat="45.99294" lon="4.39977">
        <ele>728</ele>
        <time>2016-09-22T08:58:57Z</time>
      </trkpt>
      <trkpt lat="45.99295" lon="4.39976">
        <ele>729</ele>
        <time>2016-09-22T08:58:58Z</time>
      </trkpt>
      <trkpt lat="45.99302" lon="4.3997">
        <ele>729</ele>
        <time>2016-09-22T08:59:06Z</time>
      </trkpt>
      <trkpt lat="45.99304" lon="4.39969">
        <ele>729</ele>
        <time>2016-09-22T08:59:07Z</time>
      </trkpt>
      <trkpt lat="45.99312" lon="4.39971">
        <ele>730</ele>
        <time>2016-09-22T08:59:13Z</time>
      </trkpt>
      <trkpt lat="45.99313" lon="4.39971">
        <ele>730</ele>
        <time>2016-09-22T08:59:14Z</time>
      </trkpt>
      <trkpt lat="45.99321" lon="4.39974">
        <ele>730</ele>
        <time>2016-09-22T08:59:21Z</time>
      </trkpt>
      <trkpt lat="45.99322" lon="4.39975">
        <ele>730</ele>
        <time>2016-09-22T08:59:22Z</time>
      </trkpt>
      <trkpt lat="45.9933" lon="4.39979">
        <ele>731</ele>
        <time>2016-09-22T08:59:30Z</time>
      </trkpt>
      <trkpt lat="45.99331" lon="4.3998">
        <ele>731</ele>
        <time>2016-09-22T08:59:31Z</time>
      </trkpt>
      <trkpt lat="45.99339" lon="4.3998">
        <ele>733</ele>
        <time>2016-09-22T08:59:39Z</time>
      </trkpt>
      <trkpt lat="45.9934" lon="4.3998">
        <ele>733</ele>
        <time>2016-09-22T08:59:40Z</time>
      </trkpt>
      <trkpt lat="45.99348" lon="4.39974">
        <ele>733</ele>
        <time>2016-09-22T08:59:46Z</time>
      </trkpt>
      <trkpt lat="45.99349" lon="4.39973">
        <ele>733</ele>
        <time>2016-09-22T08:59:47Z</time>
      </trkpt>
      <trkpt lat="45.99357" lon="4.39969">
        <ele>733</ele>
        <time>2016-09-22T08:59:54Z</time>
      </trkpt>
      <trkpt lat="45.99358" lon="4.39969">
        <ele>733</ele>
        <time>2016-09-22T08:59:55Z</time>
      </trkpt>
      <trkpt lat="45.99366" lon="4.39962">
        <ele>733</ele>
        <time>2016-09-22T09:00:03Z</time>
      </trkpt>
      <trkpt lat="45.99367" lon="4.39961">
        <ele>733</ele>
        <time>2016-09-22T09:00:04Z</time>
      </trkpt>
      <trkpt lat="45.99371" lon="4.39951">
        <ele>733</ele>
        <time>2016-09-22T09:00:13Z</time>
      </trkpt>
      <trkpt lat="45.99371" lon="4.3995">
        <ele>733</ele>
        <time>2016-09-22T09:00:14Z</time>
      </trkpt>
      <trkpt lat="45.99378" lon="4.39941">
        <ele>733</ele>
        <time>2016-09-22T09:00:22Z</time>
      </trkpt>
      <trkpt lat="45.99379" lon="4.3994">
        <ele>733</ele>
        <time>2016-09-22T09:00:23Z</time>
      </trkpt>
      <trkpt lat="45.99384" lon="4.39933">
        <ele>733</ele>
        <time>2016-09-22T09:00:28Z</time>
      </trkpt>
      <trkpt lat="45.99385" lon="4.39931">
        <ele>733</ele>
        <time>2016-09-22T09:00:29Z</time>
      </trkpt>
      <trkpt lat="45.99391" lon="4.39924">
        <ele>733</ele>
        <time>2016-09-22T09:00:34Z</time>
      </trkpt>
      <trkpt lat="45.99392" lon="4.39922">
        <ele>733</ele>
        <time>2016-09-22T09:00:35Z</time>
      </trkpt>
      <trkpt lat="45.99398" lon="4.39913">
        <ele>734</ele>
        <time>2016-09-22T09:00:41Z</time>
      </trkpt>
      <trkpt lat="45.99399" lon="4.39912">
        <ele>734</ele>
        <time>2016-09-22T09:00:42Z</time>
      </trkpt>
      <trkpt lat="45.99406" lon="4.39905">
        <ele>733</ele>
        <time>2016-09-22T09:00:48Z</time>
      </trkpt>
      <trkpt lat="45.99407" lon="4.39904">
        <ele>733</ele>
        <time>2016-09-22T09:00:49Z</time>
      </trkpt>
      <trkpt lat="45.99414" lon="4.39899">
        <ele>733</ele>
        <time>2016-09-22T09:00:54Z</time>
      </trkpt>
      <trkpt lat="45.99416" lon="4.39899">
        <ele>733</ele>
        <time>2016-09-22T09:00:55Z</time>
      </trkpt>
      <trkpt lat="45.99424" lon="4.39894">
        <ele>727</ele>
        <time>2016-09-22T09:01:00Z</time>
      </trkpt>
      <trkpt lat="45.99425" lon="4.39893">
        <ele>727</ele>
        <time>2016-09-22T09:01:01Z</time>
      </trkpt>
      <trkpt lat="45.99432" lon="4.39887">
        <ele>726</ele>
        <time>2016-09-22T09:01:07Z</time>
      </trkpt>
      <trkpt lat="45.99434" lon="4.39887">
        <ele>726</ele>
        <time>2016-09-22T09:01:08Z</time>
      </trkpt>
      <trkpt lat="45.99441" lon="4.39883">
        <ele>725</ele>
        <time>2016-09-22T09:01:14Z</time>
      </trkpt>
      <trkpt lat="45.99442" lon="4.39882">
        <ele>725</ele>
        <time>2016-09-22T09:01:15Z</time>
      </trkpt>
      <trkpt lat="45.9945" lon="4.39877">
        <ele>724</ele>
        <time>2016-09-22T09:01:22Z</time>
      </trkpt>
      <trkpt lat="45.99451" lon="4.39876">
        <ele>724</ele>
        <time>2016-09-22T09:01:23Z</time>
      </trkpt>
      <trkpt lat="45.99458" lon="4.3987">
        <ele>723</ele>
        <time>2016-09-22T09:01:30Z</time>
      </trkpt>
      <trkpt lat="45.99459" lon="4.39869">
        <ele>723</ele>
        <time>2016-09-22T09:01:31Z</time>
      </trkpt>
      <trkpt lat="45.99465" lon="4.3986">
        <ele>722</ele>
        <time>2016-09-22T09:01:38Z</time>
      </trkpt>
      <trkpt lat="45.99465" lon="4.39859">
        <ele>722</ele>
        <time>2016-09-22T09:01:39Z</time>
      </trkpt>
      <trkpt lat="45.99472" lon="4.39851">
        <ele>722</ele>
        <time>2016-09-22T09:01:48Z</time>
      </trkpt>
      <trkpt lat="45.99473" lon="4.3985">
        <ele>721</ele>
        <time>2016-09-22T09:01:49Z</time>
      </trkpt>
      <trkpt lat="45.99479" lon="4.3984">
        <ele>720</ele>
        <time>2016-09-22T09:01:59Z</time>
      </trkpt>
      <trkpt lat="45.9948" lon="4.3984">
        <ele>720</ele>
        <time>2016-09-22T09:02:00Z</time>
      </trkpt>
      <trkpt lat="45.99487" lon="4.39832">
        <ele>719</ele>
        <time>2016-09-22T09:02:08Z</time>
      </trkpt>
      <trkpt lat="45.99488" lon="4.39832">
        <ele>718</ele>
        <time>2016-09-22T09:02:09Z</time>
      </trkpt>
      <trkpt lat="45.99495" lon="4.39825">
        <ele>718</ele>
        <time>2016-09-22T09:02:16Z</time>
      </trkpt>
      <trkpt lat="45.99496" lon="4.39825">
        <ele>718</ele>
        <time>2016-09-22T09:02:17Z</time>
      </trkpt>
      <trkpt lat="45.99501" lon="4.39816">
        <ele>711</ele>
        <time>2016-09-22T09:02:24Z</time>
      </trkpt>
      <trkpt lat="45.99502" lon="4.39815">
        <ele>711</ele>
        <time>2016-09-22T09:02:25Z</time>
      </trkpt>
      <trkpt lat="45.99507" lon="4.39804">
        <ele>709</ele>
        <time>2016-09-22T09:02:33Z</time>
      </trkpt>
      <trkpt lat="45.99507" lon="4.39803">
        <ele>709</ele>
        <time>2016-09-22T09:02:34Z</time>
      </trkpt>
      <trkpt lat="45.99511" lon="4.39792">
        <ele>708</ele>
        <time>2016-09-22T09:02:42Z</time>
      </trkpt>
      <trkpt lat="45.99512" lon="4.3979">
        <ele>708</ele>
        <time>2016-09-22T09:02:43Z</time>
      </trkpt>
      <trkpt lat="45.99517" lon="4.39781">
        <ele>708</ele>
        <time>2016-09-22T09:02:50Z</time>
      </trkpt>
      <trkpt lat="45.99517" lon="4.39779">
        <ele>708</ele>
        <time>2016-09-22T09:02:51Z</time>
      </trkpt>
      <trkpt lat="45.99519" lon="4.39768">
        <ele>708</ele>
        <time>2016-09-22T09:02:57Z</time>
      </trkpt>
      <trkpt lat="45.99519" lon="4.39766">
        <ele>708</ele>
        <time>2016-09-22T09:02:58Z</time>
      </trkpt>
      <trkpt lat="45.9952" lon="4.39755">
        <ele>708</ele>
        <time>2016-09-22T09:03:04Z</time>
      </trkpt>
      <trkpt lat="45.9952" lon="4.39753">
        <ele>708</ele>
        <time>2016-09-22T09:03:05Z</time>
      </trkpt>
      <trkpt lat="45.9952" lon="4.3974">
        <ele>706</ele>
        <time>2016-09-22T09:03:11Z</time>
      </trkpt>
      <trkpt lat="45.9952" lon="4.39738">
        <ele>706</ele>
        <time>2016-09-22T09:03:12Z</time>
      </trkpt>
      <trkpt lat="45.99519" lon="4.39726">
        <ele>706</ele>
        <time>2016-09-22T09:03:19Z</time>
      </trkpt>
      <trkpt lat="45.99518" lon="4.39724">
        <ele>705</ele>
        <time>2016-09-22T09:03:20Z</time>
      </trkpt>
      <trkpt lat="45.99519" lon="4.39711">
        <ele>705</ele>
        <time>2016-09-22T09:03:28Z</time>
      </trkpt>
      <trkpt lat="45.99519" lon="4.3971">
        <ele>705</ele>
        <time>2016-09-22T09:03:29Z</time>
      </trkpt>
      <trkpt lat="45.99518" lon="4.39697">
        <ele>704</ele>
        <time>2016-09-22T09:03:38Z</time>
      </trkpt>
      <trkpt lat="45.99518" lon="4.39696">
        <ele>704</ele>
        <time>2016-09-22T09:03:39Z</time>
      </trkpt>
      <trkpt lat="45.99516" lon="4.39683">
        <ele>704</ele>
        <time>2016-09-22T09:03:48Z</time>
      </trkpt>
      <trkpt lat="45.99517" lon="4.39682">
        <ele>704</ele>
        <time>2016-09-22T09:03:49Z</time>
      </trkpt>
      <trkpt lat="45.99516" lon="4.3967">
        <ele>704</ele>
        <time>2016-09-22T09:03:57Z</time>
      </trkpt>
      <trkpt lat="45.99516" lon="4.39668">
        <ele>704</ele>
        <time>2016-09-22T09:03:58Z</time>
      </trkpt>
      <trkpt lat="45.99515" lon="4.39657">
        <ele>701</ele>
        <time>2016-09-22T09:04:04Z</time>
      </trkpt>
      <trkpt lat="45.99515" lon="4.39655">
        <ele>700</ele>
        <time>2016-09-22T09:04:05Z</time>
      </trkpt>
      <trkpt lat="45.99513" lon="4.39642">
        <ele>699</ele>
        <time>2016-09-22T09:04:11Z</time>
      </trkpt>
      <trkpt lat="45.99513" lon="4.3964">
        <ele>699</ele>
        <time>2016-09-22T09:04:12Z</time>
      </trkpt>
      <trkpt lat="45.99511" lon="4.39629">
        <ele>698</ele>
        <time>2016-09-22T09:04:18Z</time>
      </trkpt>
      <trkpt lat="45.99511" lon="4.39627">
        <ele>698</ele>
        <time>2016-09-22T09:04:19Z</time>
      </trkpt>
      <trkpt lat="45.99509" lon="4.39615">
        <ele>697</ele>
        <time>2016-09-22T09:04:25Z</time>
      </trkpt>
      <trkpt lat="45.99509" lon="4.39613">
        <ele>697</ele>
        <time>2016-09-22T09:04:26Z</time>
      </trkpt>
      <trkpt lat="45.99505" lon="4.39602">
        <ele>697</ele>
        <time>2016-09-22T09:04:33Z</time>
      </trkpt>
      <trkpt lat="45.99505" lon="4.396">
        <ele>697</ele>
        <time>2016-09-22T09:04:34Z</time>
      </trkpt>
      <trkpt lat="45.99502" lon="4.39588">
        <ele>697</ele>
        <time>2016-09-22T09:04:41Z</time>
      </trkpt>
      <trkpt lat="45.99502" lon="4.39587">
        <ele>698</ele>
        <time>2016-09-22T09:04:42Z</time>
      </trkpt>
      <trkpt lat="45.99502" lon="4.39574">
        <ele>694</ele>
        <time>2016-09-22T09:04:50Z</time>
      </trkpt>
      <trkpt lat="45.99501" lon="4.39572">
        <ele>693</ele>
        <time>2016-09-22T09:04:51Z</time>
      </trkpt>
      <trkpt lat="45.99498" lon="4.39561">
        <ele>700</ele>
        <time>2016-09-22T09:04:58Z</time>
      </trkpt>
      <trkpt lat="45.99498" lon="4.39559">
        <ele>700</ele>
        <time>2016-09-22T09:04:59Z</time>
      </trkpt>
      <trkpt lat="45.99495" lon="4.39548">
        <ele>699</ele>
        <time>2016-09-22T09:05:06Z</time>
      </trkpt>
      <trkpt lat="45.99495" lon="4.39546">
        <ele>699</ele>
        <time>2016-09-22T09:05:07Z</time>
      </trkpt>
      <trkpt lat="45.99493" lon="4.39534">
        <ele>698</ele>
        <time>2016-09-22T09:05:15Z</time>
      </trkpt>
      <trkpt lat="45.99493" lon="4.39532">
        <ele>697</ele>
        <time>2016-09-22T09:05:16Z</time>
      </trkpt>
      <trkpt lat="45.99491" lon="4.39522">
        <ele>696</ele>
        <time>2016-09-22T09:05:22Z</time>
      </trkpt>
      <trkpt lat="45.9949" lon="4.3952">
        <ele>695</ele>
        <time>2016-09-22T09:05:23Z</time>
      </trkpt>
      <trkpt lat="45.99489" lon="4.39507">
        <ele>693</ele>
        <time>2016-09-22T09:05:30Z</time>
      </trkpt>
      <trkpt lat="45.99489" lon="4.39506">
        <ele>692</ele>
        <time>2016-09-22T09:05:31Z</time>
      </trkpt>
      <trkpt lat="45.99489" lon="4.39494">
        <ele>687</ele>
        <time>2016-09-22T09:05:38Z</time>
      </trkpt>
      <trkpt lat="45.99488" lon="4.39492">
        <ele>687</ele>
        <time>2016-09-22T09:05:39Z</time>
      </trkpt>
      <trkpt lat="45.99487" lon="4.3948">
        <ele>688</ele>
        <time>2016-09-22T09:05:47Z</time>
      </trkpt>
      <trkpt lat="45.99487" lon="4.39479">
        <ele>688</ele>
        <time>2016-09-22T09:05:48Z</time>
      </trkpt>
      <trkpt lat="45.99484" lon="4.39468">
        <ele>687</ele>
        <time>2016-09-22T09:05:56Z</time>
      </trkpt>
      <trkpt lat="45.99483" lon="4.39466">
        <ele>687</ele>
        <time>2016-09-22T09:05:57Z</time>
      </trkpt>
      <trkpt lat="45.99481" lon="4.39454">
        <ele>686</ele>
        <time>2016-09-22T09:06:05Z</time>
      </trkpt>
      <trkpt lat="45.9948" lon="4.39453">
        <ele>686</ele>
        <time>2016-09-22T09:06:06Z</time>
      </trkpt>
      <trkpt lat="45.99478" lon="4.39441">
        <ele>685</ele>
        <time>2016-09-22T09:06:14Z</time>
      </trkpt>
      <trkpt lat="45.99477" lon="4.3944">
        <ele>685</ele>
        <time>2016-09-22T09:06:15Z</time>
      </trkpt>
      <trkpt lat="45.99473" lon="4.39428">
        <ele>684</ele>
        <time>2016-09-22T09:06:22Z</time>
      </trkpt>
      <trkpt lat="45.99473" lon="4.39426">
        <ele>684</ele>
        <time>2016-09-22T09:06:23Z</time>
      </trkpt>
      <trkpt lat="45.99472" lon="4.39414">
        <ele>676</ele>
        <time>2016-09-22T09:06:30Z</time>
      </trkpt>
      <trkpt lat="45.99472" lon="4.39413">
        <ele>676</ele>
        <time>2016-09-22T09:06:31Z</time>
      </trkpt>
      <trkpt lat="45.99471" lon="4.39401">
        <ele>676</ele>
        <time>2016-09-22T09:06:42Z</time>
      </trkpt>
      <trkpt lat="45.9947" lon="4.39398">
        <ele>675</ele>
        <time>2016-09-22T09:06:43Z</time>
      </trkpt>
      <trkpt lat="45.99467" lon="4.39389">
        <ele>675</ele>
        <time>2016-09-22T09:06:47Z</time>
      </trkpt>
      <trkpt lat="45.99466" lon="4.39387">
        <ele>675</ele>
        <time>2016-09-22T09:06:48Z</time>
      </trkpt>
      <trkpt lat="45.9946" lon="4.39378">
        <ele>675</ele>
        <time>2016-09-22T09:06:53Z</time>
      </trkpt>
      <trkpt lat="45.99458" lon="4.39377">
        <ele>675</ele>
        <time>2016-09-22T09:06:54Z</time>
      </trkpt>
      <trkpt lat="45.99452" lon="4.39369">
        <ele>675</ele>
        <time>2016-09-22T09:06:59Z</time>
      </trkpt>
      <trkpt lat="45.9945" lon="4.39368">
        <ele>675</ele>
        <time>2016-09-22T09:07:00Z</time>
      </trkpt>
      <trkpt lat="45.99444" lon="4.3936">
        <ele>676</ele>
        <time>2016-09-22T09:07:05Z</time>
      </trkpt>
      <trkpt lat="45.99443" lon="4.39359">
        <ele>676</ele>
        <time>2016-09-22T09:07:06Z</time>
      </trkpt>
      <trkpt lat="45.99436" lon="4.39352">
        <ele>676</ele>
        <time>2016-09-22T09:07:13Z</time>
      </trkpt>
      <trkpt lat="45.99435" lon="4.3935">
        <ele>676</ele>
        <time>2016-09-22T09:07:14Z</time>
      </trkpt>
      <trkpt lat="45.99431" lon="4.39342">
        <ele>676</ele>
        <time>2016-09-22T09:07:19Z</time>
      </trkpt>
      <trkpt lat="45.99429" lon="4.3934">
        <ele>676</ele>
        <time>2016-09-22T09:07:20Z</time>
      </trkpt>
      <trkpt lat="45.99423" lon="4.39334">
        <ele>677</ele>
        <time>2016-09-22T09:07:25Z</time>
      </trkpt>
      <trkpt lat="45.99421" lon="4.39333">
        <ele>675</ele>
        <time>2016-09-22T09:07:26Z</time>
      </trkpt>
      <trkpt lat="45.99415" lon="4.39326">
        <ele>674</ele>
        <time>2016-09-22T09:07:31Z</time>
      </trkpt>
      <trkpt lat="45.99414" lon="4.39325">
        <ele>674</ele>
        <time>2016-09-22T09:07:32Z</time>
      </trkpt>
      <trkpt lat="45.99407" lon="4.39319">
        <ele>672</ele>
        <time>2016-09-22T09:07:37Z</time>
      </trkpt>
      <trkpt lat="45.99406" lon="4.39318">
        <ele>671</ele>
        <time>2016-09-22T09:07:38Z</time>
      </trkpt>
      <trkpt lat="45.994" lon="4.39311">
        <ele>670</ele>
        <time>2016-09-22T09:07:45Z</time>
      </trkpt>
      <trkpt lat="45.99399" lon="4.3931">
        <ele>670</ele>
        <time>2016-09-22T09:07:46Z</time>
      </trkpt>
      <trkpt lat="45.99392" lon="4.39303">
        <ele>668</ele>
        <time>2016-09-22T09:07:54Z</time>
      </trkpt>
      <trkpt lat="45.99391" lon="4.39302">
        <ele>668</ele>
        <time>2016-09-22T09:07:55Z</time>
      </trkpt>
      <trkpt lat="45.9939" lon="4.3929">
        <ele>667</ele>
        <time>2016-09-22T09:09:48Z</time>
      </trkpt>
      <trkpt lat="45.99389" lon="4.39288">
        <ele>667</ele>
        <time>2016-09-22T09:09:49Z</time>
      </trkpt>
      <trkpt lat="45.99384" lon="4.39278">
        <ele>666</ele>
        <time>2016-09-22T09:09:57Z</time>
      </trkpt>
      <trkpt lat="45.99383" lon="4.39277">
        <ele>666</ele>
        <time>2016-09-22T09:09:58Z</time>
      </trkpt>
      <trkpt lat="45.99381" lon="4.39264">
        <ele>665</ele>
        <time>2016-09-22T09:10:06Z</time>
      </trkpt>
      <trkpt lat="45.99381" lon="4.39263">
        <ele>665</ele>
        <time>2016-09-22T09:10:07Z</time>
      </trkpt>
      <trkpt lat="45.99379" lon="4.39251">
        <ele>665</ele>
        <time>2016-09-22T09:10:14Z</time>
      </trkpt>
      <trkpt lat="45.99379" lon="4.39249">
        <ele>660</ele>
        <time>2016-09-22T09:10:15Z</time>
      </trkpt>
      <trkpt lat="45.99376" lon="4.39239">
        <ele>659</ele>
        <time>2016-09-22T09:10:21Z</time>
      </trkpt>
      <trkpt lat="45.99376" lon="4.39237">
        <ele>659</ele>
        <time>2016-09-22T09:10:22Z</time>
      </trkpt>
      <trkpt lat="45.99371" lon="4.39227">
        <ele>659</ele>
        <time>2016-09-22T09:10:29Z</time>
      </trkpt>
      <trkpt lat="45.99371" lon="4.39225">
        <ele>659</ele>
        <time>2016-09-22T09:10:30Z</time>
      </trkpt>
      <trkpt lat="45.99366" lon="4.39215">
        <ele>658</ele>
        <time>2016-09-22T09:10:37Z</time>
      </trkpt>
      <trkpt lat="45.99365" lon="4.39214">
        <ele>658</ele>
        <time>2016-09-22T09:10:38Z</time>
      </trkpt>
      <trkpt lat="45.9936" lon="4.39205">
        <ele>658</ele>
        <time>2016-09-22T09:10:45Z</time>
      </trkpt>
      <trkpt lat="45.99359" lon="4.39204">
        <ele>658</ele>
        <time>2016-09-22T09:10:46Z</time>
      </trkpt>
      <trkpt lat="45.99353" lon="4.39195">
        <ele>657</ele>
        <time>2016-09-22T09:10:54Z</time>
      </trkpt>
      <trkpt lat="45.99352" lon="4.39195">
        <ele>657</ele>
        <time>2016-09-22T09:10:55Z</time>
      </trkpt>
      <trkpt lat="45.99344" lon="4.39196">
        <ele>657</ele>
        <time>2016-09-22T09:11:02Z</time>
      </trkpt>
      <trkpt lat="45.99342" lon="4.39196">
        <ele>657</ele>
        <time>2016-09-22T09:11:03Z</time>
      </trkpt>
      <trkpt lat="45.99334" lon="4.39194">
        <ele>656</ele>
        <time>2016-09-22T09:11:10Z</time>
      </trkpt>
      <trkpt lat="45.99333" lon="4.39194">
        <ele>650</ele>
        <time>2016-09-22T09:11:11Z</time>
      </trkpt>
      <trkpt lat="45.99326" lon="4.39188">
        <ele>649</ele>
        <time>2016-09-22T09:11:20Z</time>
      </trkpt>
      <trkpt lat="45.99325" lon="4.39188">
        <ele>649</ele>
        <time>2016-09-22T09:11:21Z</time>
      </trkpt>
      <trkpt lat="45.99317" lon="4.39182">
        <ele>649</ele>
        <time>2016-09-22T09:11:29Z</time>
      </trkpt>
      <trkpt lat="45.99316" lon="4.39181">
        <ele>649</ele>
        <time>2016-09-22T09:11:30Z</time>
      </trkpt>
      <trkpt lat="45.99309" lon="4.39175">
        <ele>648</ele>
        <time>2016-09-22T09:11:36Z</time>
      </trkpt>
      <trkpt lat="45.99308" lon="4.39174">
        <ele>648</ele>
        <time>2016-09-22T09:11:37Z</time>
      </trkpt>
      <trkpt lat="45.99301" lon="4.39167">
        <ele>647</ele>
        <time>2016-09-22T09:11:44Z</time>
      </trkpt>
      <trkpt lat="45.993" lon="4.39166">
        <ele>644</ele>
        <time>2016-09-22T09:11:45Z</time>
      </trkpt>
      <trkpt lat="45.99292" lon="4.39162">
        <ele>642</ele>
        <time>2016-09-22T09:11:53Z</time>
      </trkpt>
      <trkpt lat="45.99291" lon="4.39162">
        <ele>642</ele>
        <time>2016-09-22T09:11:54Z</time>
      </trkpt>
      <trkpt lat="45.99283" lon="4.39163">
        <ele>641</ele>
        <time>2016-09-22T09:12:01Z</time>
      </trkpt>
      <trkpt lat="45.99282" lon="4.39163">
        <ele>641</ele>
        <time>2016-09-22T09:12:02Z</time>
      </trkpt>
      <trkpt lat="45.99273" lon="4.39161">
        <ele>640</ele>
        <time>2016-09-22T09:12:09Z</time>
      </trkpt>
      <trkpt lat="45.99272" lon="4.39161">
        <ele>640</ele>
        <time>2016-09-22T09:12:10Z</time>
      </trkpt>
      <trkpt lat="45.99264" lon="4.3916">
        <ele>639</ele>
        <time>2016-09-22T09:12:17Z</time>
      </trkpt>
      <trkpt lat="45.99262" lon="4.3916">
        <ele>638</ele>
        <time>2016-09-22T09:12:18Z</time>
      </trkpt>
      <trkpt lat="45.99254" lon="4.3916">
        <ele>637</ele>
        <time>2016-09-22T09:12:26Z</time>
      </trkpt>
      <trkpt lat="45.99253" lon="4.3916">
        <ele>637</ele>
        <time>2016-09-22T09:12:27Z</time>
      </trkpt>
      <trkpt lat="45.99245" lon="4.39154">
        <ele>631</ele>
        <time>2016-09-22T09:12:36Z</time>
      </trkpt>
      <trkpt lat="45.99245" lon="4.39153">
        <ele>630</ele>
        <time>2016-09-22T09:12:37Z</time>
      </trkpt>
      <trkpt lat="45.99247" lon="4.39142">
        <ele>628</ele>
        <time>2016-09-22T09:12:43Z</time>
      </trkpt>
      <trkpt lat="45.99248" lon="4.3914">
        <ele>628</ele>
        <time>2016-09-22T09:12:44Z</time>
      </trkpt>
      <trkpt lat="45.99248" lon="4.39127">
        <ele>627</ele>
        <time>2016-09-22T09:12:53Z</time>
      </trkpt>
      <trkpt lat="45.99247" lon="4.39125">
        <ele>627</ele>
        <time>2016-09-22T09:12:54Z</time>
      </trkpt>
      <trkpt lat="45.99246" lon="4.39114">
        <ele>627</ele>
        <time>2016-09-22T09:13:00Z</time>
      </trkpt>
      <trkpt lat="45.99245" lon="4.39112">
        <ele>627</ele>
        <time>2016-09-22T09:13:01Z</time>
      </trkpt>
      <trkpt lat="45.99245" lon="4.391">
        <ele>627</ele>
        <time>2016-09-22T09:13:19Z</time>
      </trkpt>
      <trkpt lat="45.99245" lon="4.39099">
        <ele>627</ele>
        <time>2016-09-22T09:13:20Z</time>
      </trkpt>
      <trkpt lat="45.99245" lon="4.39087">
        <ele>629</ele>
        <time>2016-09-22T09:13:33Z</time>
      </trkpt>
      <trkpt lat="45.99245" lon="4.39085">
        <ele>629</ele>
        <time>2016-09-22T09:13:34Z</time>
      </trkpt>
      <trkpt lat="45.9924" lon="4.39075">
        <ele>626</ele>
        <time>2016-09-22T09:13:40Z</time>
      </trkpt>
      <trkpt lat="45.99239" lon="4.39074">
        <ele>626</ele>
        <time>2016-09-22T09:13:41Z</time>
      </trkpt>
      <trkpt lat="45.99236" lon="4.39062">
        <ele>624</ele>
        <time>2016-09-22T09:13:48Z</time>
      </trkpt>
      <trkpt lat="45.99235" lon="4.39061">
        <ele>623</ele>
        <time>2016-09-22T09:13:49Z</time>
      </trkpt>
      <trkpt lat="45.99233" lon="4.39048">
        <ele>622</ele>
        <time>2016-09-22T09:14:48Z</time>
      </trkpt>
      <trkpt lat="45.99233" lon="4.39048">
        <ele>622</ele>
        <time>2016-09-22T09:14:49Z</time>
      </trkpt>
      <trkpt lat="45.99229" lon="4.39038">
        <ele>622</ele>
        <time>2016-09-22T09:15:01Z</time>
      </trkpt>
      <trkpt lat="45.99228" lon="4.39036">
        <ele>622</ele>
        <time>2016-09-22T09:15:02Z</time>
      </trkpt>
      <trkpt lat="45.99226" lon="4.39024">
        <ele>622</ele>
        <time>2016-09-22T09:15:08Z</time>
      </trkpt>
      <trkpt lat="45.99225" lon="4.39023">
        <ele>622</ele>
        <time>2016-09-22T09:15:09Z</time>
      </trkpt>
      <trkpt lat="45.99223" lon="4.3901">
        <ele>622</ele>
        <time>2016-09-22T09:15:16Z</time>
      </trkpt>
      <trkpt lat="45.99223" lon="4.39009">
        <ele>622</ele>
        <time>2016-09-22T09:15:17Z</time>
      </trkpt>
      <trkpt lat="45.9922" lon="4.38997">
        <ele>620</ele>
        <time>2016-09-22T09:15:23Z</time>
      </trkpt>
      <trkpt lat="45.9922" lon="4.38995">
        <ele>619</ele>
        <time>2016-09-22T09:15:24Z</time>
      </trkpt>
      <trkpt lat="45.99222" lon="4.38983">
        <ele>619</ele>
        <time>2016-09-22T09:15:31Z</time>
      </trkpt>
      <trkpt lat="45.99222" lon="4.38982">
        <ele>619</ele>
        <time>2016-09-22T09:15:32Z</time>
      </trkpt>
      <trkpt lat="45.99225" lon="4.38971">
        <ele>619</ele>
        <time>2016-09-22T09:15:38Z</time>
      </trkpt>
      <trkpt lat="45.99225" lon="4.38969">
        <ele>619</ele>
        <time>2016-09-22T09:15:39Z</time>
      </trkpt>
      <trkpt lat="45.99227" lon="4.38957">
        <ele>618</ele>
        <time>2016-09-22T09:15:45Z</time>
      </trkpt>
      <trkpt lat="45.99227" lon="4.38955">
        <ele>618</ele>
        <time>2016-09-22T09:15:46Z</time>
      </trkpt>
      <trkpt lat="45.99229" lon="4.38942">
        <ele>618</ele>
        <time>2016-09-22T09:15:52Z</time>
      </trkpt>
      <trkpt lat="45.99229" lon="4.3894">
        <ele>618</ele>
        <time>2016-09-22T09:15:53Z</time>
      </trkpt>
      <trkpt lat="45.9923" lon="4.38929">
        <ele>619</ele>
        <time>2016-09-22T09:15:59Z</time>
      </trkpt>
      <trkpt lat="45.9923" lon="4.38927">
        <ele>619</ele>
        <time>2016-09-22T09:16:00Z</time>
      </trkpt>
      <trkpt lat="45.99231" lon="4.38915">
        <ele>615</ele>
        <time>2016-09-22T09:16:06Z</time>
      </trkpt>
      <trkpt lat="45.99231" lon="4.38914">
        <ele>615</ele>
        <time>2016-09-22T09:16:07Z</time>
      </trkpt>
      <trkpt lat="45.99233" lon="4.38902">
        <ele>615</ele>
        <time>2016-09-22T09:16:13Z</time>
      </trkpt>
      <trkpt lat="45.99234" lon="4.389">
        <ele>614</ele>
        <time>2016-09-22T09:16:14Z</time>
      </trkpt>
      <trkpt lat="45.99234" lon="4.38887">
        <ele>613</ele>
        <time>2016-09-22T09:16:21Z</time>
      </trkpt>
      <trkpt lat="45.99234" lon="4.38885">
        <ele>612</ele>
        <time>2016-09-22T09:16:22Z</time>
      </trkpt>
      <trkpt lat="45.99234" lon="4.38873">
        <ele>611</ele>
        <time>2016-09-22T09:16:29Z</time>
      </trkpt>
      <trkpt lat="45.99235" lon="4.38872">
        <ele>611</ele>
        <time>2016-09-22T09:16:30Z</time>
      </trkpt>
      <trkpt lat="45.99236" lon="4.38859">
        <ele>610</ele>
        <time>2016-09-22T09:16:37Z</time>
      </trkpt>
      <trkpt lat="45.99237" lon="4.38858">
        <ele>610</ele>
        <time>2016-09-22T09:16:38Z</time>
      </trkpt>
      <trkpt lat="45.99239" lon="4.38847">
        <ele>610</ele>
        <time>2016-09-22T09:16:44Z</time>
      </trkpt>
      <trkpt lat="45.9924" lon="4.38844">
        <ele>610</ele>
        <time>2016-09-22T09:16:45Z</time>
      </trkpt>
      <trkpt lat="45.99242" lon="4.38834">
        <ele>610</ele>
        <time>2016-09-22T09:16:51Z</time>
      </trkpt>
      <trkpt lat="45.99242" lon="4.38832">
        <ele>608</ele>
        <time>2016-09-22T09:16:52Z</time>
      </trkpt>
      <trkpt lat="45.99245" lon="4.3882">
        <ele>606</ele>
        <time>2016-09-22T09:16:58Z</time>
      </trkpt>
      <trkpt lat="45.99246" lon="4.38819">
        <ele>606</ele>
        <time>2016-09-22T09:16:59Z</time>
      </trkpt>
      <trkpt lat="45.99248" lon="4.38807">
        <ele>603</ele>
        <time>2016-09-22T09:17:05Z</time>
      </trkpt>
      <trkpt lat="45.99249" lon="4.38805">
        <ele>603</ele>
        <time>2016-09-22T09:17:06Z</time>
      </trkpt>
      <trkpt lat="45.9925" lon="4.38794">
        <ele>608</ele>
        <time>2016-09-22T09:17:13Z</time>
      </trkpt>
      <trkpt lat="45.99251" lon="4.38792">
        <ele>608</ele>
        <time>2016-09-22T09:17:14Z</time>
      </trkpt>
      <trkpt lat="45.99254" lon="4.38782">
        <ele>607</ele>
        <time>2016-09-22T09:17:20Z</time>
      </trkpt>
      <trkpt lat="45.99255" lon="4.3878">
        <ele>607</ele>
        <time>2016-09-22T09:17:21Z</time>
      </trkpt>
      <trkpt lat="45.99258" lon="4.38769">
        <ele>605</ele>
        <time>2016-09-22T09:17:29Z</time>
      </trkpt>
      <trkpt lat="45.99258" lon="4.38767">
        <ele>605</ele>
        <time>2016-09-22T09:17:30Z</time>
      </trkpt>
      <trkpt lat="45.9926" lon="4.38756">
        <ele>603</ele>
        <time>2016-09-22T09:17:37Z</time>
      </trkpt>
      <trkpt lat="45.9926" lon="4.38754">
        <ele>603</ele>
        <time>2016-09-22T09:17:38Z</time>
      </trkpt>
      <trkpt lat="45.99262" lon="4.38742">
        <ele>598</ele>
        <time>2016-09-22T09:17:45Z</time>
      </trkpt>
      <trkpt lat="45.99262" lon="4.38741">
        <ele>598</ele>
        <time>2016-09-22T09:17:46Z</time>
      </trkpt>
      <trkpt lat="45.99261" lon="4.38729">
        <ele>598</ele>
        <time>2016-09-22T09:17:52Z</time>
      </trkpt>
      <trkpt lat="45.99261" lon="4.38727">
        <ele>597</ele>
        <time>2016-09-22T09:17:53Z</time>
      </trkpt>
      <trkpt lat="45.99263" lon="4.38716">
        <ele>597</ele>
        <time>2016-09-22T09:17:58Z</time>
      </trkpt>
      <trkpt lat="45.99263" lon="4.38714">
        <ele>596</ele>
        <time>2016-09-22T09:17:59Z</time>
      </trkpt>
      <trkpt lat="45.99263" lon="4.38703">
        <ele>595</ele>
        <time>2016-09-22T09:18:04Z</time>
      </trkpt>
      <trkpt lat="45.99263" lon="4.38701">
        <ele>595</ele>
        <time>2016-09-22T09:18:05Z</time>
      </trkpt>
      <trkpt lat="45.99264" lon="4.38688">
        <ele>594</ele>
        <time>2016-09-22T09:18:12Z</time>
      </trkpt>
      <trkpt lat="45.99264" lon="4.38686">
        <ele>594</ele>
        <time>2016-09-22T09:18:13Z</time>
      </trkpt>
      <trkpt lat="45.99264" lon="4.38674">
        <ele>592</ele>
        <time>2016-09-22T09:18:21Z</time>
      </trkpt>
      <trkpt lat="45.99264" lon="4.38672">
        <ele>592</ele>
        <time>2016-09-22T09:18:22Z</time>
      </trkpt>
      <trkpt lat="45.99264" lon="4.38659">
        <ele>588</ele>
        <time>2016-09-22T09:18:30Z</time>
      </trkpt>
      <trkpt lat="45.99264" lon="4.38658">
        <ele>588</ele>
        <time>2016-09-22T09:18:31Z</time>
      </trkpt>
      <trkpt lat="45.99264" lon="4.38646">
        <ele>587</ele>
        <time>2016-09-22T09:18:38Z</time>
      </trkpt>
      <trkpt lat="45.99263" lon="4.38645">
        <ele>587</ele>
        <time>2016-09-22T09:18:39Z</time>
      </trkpt>
      <trkpt lat="45.99262" lon="4.38634">
        <ele>587</ele>
        <time>2016-09-22T09:18:45Z</time>
      </trkpt>
      <trkpt lat="45.99262" lon="4.38632">
        <ele>586</ele>
        <time>2016-09-22T09:18:46Z</time>
      </trkpt>
      <trkpt lat="45.99261" lon="4.3862">
        <ele>586</ele>
        <time>2016-09-22T09:18:52Z</time>
      </trkpt>
      <trkpt lat="45.99261" lon="4.38618">
        <ele>586</ele>
        <time>2016-09-22T09:18:53Z</time>
      </trkpt>
      <trkpt lat="45.9926" lon="4.38606">
        <ele>585</ele>
        <time>2016-09-22T09:18:59Z</time>
      </trkpt>
      <trkpt lat="45.9926" lon="4.38604">
        <ele>584</ele>
        <time>2016-09-22T09:19:00Z</time>
      </trkpt>
      <trkpt lat="45.99259" lon="4.38593">
        <ele>583</ele>
        <time>2016-09-22T09:19:06Z</time>
      </trkpt>
      <trkpt lat="45.99259" lon="4.38591">
        <ele>583</ele>
        <time>2016-09-22T09:19:07Z</time>
      </trkpt>
      <trkpt lat="45.99257" lon="4.38579">
        <ele>580</ele>
        <time>2016-09-22T09:19:13Z</time>
      </trkpt>
      <trkpt lat="45.99257" lon="4.38577">
        <ele>580</ele>
        <time>2016-09-22T09:19:14Z</time>
      </trkpt>
      <trkpt lat="45.99256" lon="4.38565">
        <ele>579</ele>
        <time>2016-09-22T09:19:21Z</time>
      </trkpt>
      <trkpt lat="45.99256" lon="4.38563">
        <ele>579</ele>
        <time>2016-09-22T09:19:22Z</time>
      </trkpt>
      <trkpt lat="45.99254" lon="4.38551">
        <ele>578</ele>
        <time>2016-09-22T09:19:29Z</time>
      </trkpt>
      <trkpt lat="45.99254" lon="4.38549">
        <ele>578</ele>
        <time>2016-09-22T09:19:30Z</time>
      </trkpt>
      <trkpt lat="45.99253" lon="4.38538">
        <ele>577</ele>
        <time>2016-09-22T09:19:36Z</time>
      </trkpt>
      <trkpt lat="45.99253" lon="4.38536">
        <ele>577</ele>
        <time>2016-09-22T09:19:37Z</time>
      </trkpt>
      <trkpt lat="45.99253" lon="4.38523">
        <ele>576</ele>
        <time>2016-09-22T09:19:44Z</time>
      </trkpt>
      <trkpt lat="45.99253" lon="4.38522">
        <ele>576</ele>
        <time>2016-09-22T09:19:45Z</time>
      </trkpt>
      <trkpt lat="45.99252" lon="4.3851">
        <ele>575</ele>
        <time>2016-09-22T09:19:52Z</time>
      </trkpt>
      <trkpt lat="45.99252" lon="4.38508">
        <ele>575</ele>
        <time>2016-09-22T09:19:53Z</time>
      </trkpt>
      <trkpt lat="45.99252" lon="4.38497">
        <ele>573</ele>
        <time>2016-09-22T09:19:59Z</time>
      </trkpt>
      <trkpt lat="45.99252" lon="4.38495">
        <ele>573</ele>
        <time>2016-09-22T09:20:00Z</time>
      </trkpt>
      <trkpt lat="45.99252" lon="4.38483">
        <ele>571</ele>
        <time>2016-09-22T09:20:07Z</time>
      </trkpt>
      <trkpt lat="45.99252" lon="4.38481">
        <ele>570</ele>
        <time>2016-09-22T09:20:08Z</time>
      </trkpt>
      <trkpt lat="45.99252" lon="4.38469">
        <ele>569</ele>
        <time>2016-09-22T09:20:15Z</time>
      </trkpt>
      <trkpt lat="45.99251" lon="4.38467">
        <ele>569</ele>
        <time>2016-09-22T09:20:16Z</time>
      </trkpt>
      <trkpt lat="45.9925" lon="4.38456">
        <ele>568</ele>
        <time>2016-09-22T09:20:22Z</time>
      </trkpt>
      <trkpt lat="45.99249" lon="4.38455">
        <ele>568</ele>
        <time>2016-09-22T09:20:23Z</time>
      </trkpt>
      <trkpt lat="45.99248" lon="4.38444">
        <ele>568</ele>
        <time>2016-09-22T09:20:29Z</time>
      </trkpt>
      <trkpt lat="45.99247" lon="4.38442">
        <ele>567</ele>
        <time>2016-09-22T09:20:30Z</time>
      </trkpt>
      <trkpt lat="45.99245" lon="4.38431">
        <ele>567</ele>
        <time>2016-09-22T09:20:36Z</time>
      </trkpt>
      <trkpt lat="45.99244" lon="4.38429">
        <ele>567</ele>
        <time>2016-09-22T09:20:37Z</time>
      </trkpt>
      <trkpt lat="45.99242" lon="4.38417">
        <ele>566</ele>
        <time>2016-09-22T09:20:44Z</time>
      </trkpt>
      <trkpt lat="45.99241" lon="4.38415">
        <ele>565</ele>
        <time>2016-09-22T09:20:45Z</time>
      </trkpt>
      <trkpt lat="45.9924" lon="4.38403">
        <ele>564</ele>
        <time>2016-09-22T09:20:52Z</time>
      </trkpt>
      <trkpt lat="45.99239" lon="4.38401">
        <ele>563</ele>
        <time>2016-09-22T09:20:53Z</time>
      </trkpt>
      <trkpt lat="45.99237" lon="4.3839">
        <ele>562</ele>
        <time>2016-09-22T09:20:59Z</time>
      </trkpt>
      <trkpt lat="45.99237" lon="4.38388">
        <ele>562</ele>
        <time>2016-09-22T09:21:00Z</time>
      </trkpt>
      <trkpt lat="45.99235" lon="4.38377">
        <ele>562</ele>
        <time>2016-09-22T09:21:06Z</time>
      </trkpt>
      <trkpt lat="45.99234" lon="4.38375">
        <ele>561</ele>
        <time>2016-09-22T09:21:07Z</time>
      </trkpt>
      <trkpt lat="45.99231" lon="4.38363">
        <ele>561</ele>
        <time>2016-09-22T09:21:14Z</time>
      </trkpt>
      <trkpt lat="45.99231" lon="4.38361">
        <ele>560</ele>
        <time>2016-09-22T09:21:15Z</time>
      </trkpt>
      <trkpt lat="45.99229" lon="4.38349">
        <ele>560</ele>
        <time>2016-09-22T09:21:22Z</time>
      </trkpt>
      <trkpt lat="45.99228" lon="4.38348">
        <ele>560</ele>
        <time>2016-09-22T09:21:23Z</time>
      </trkpt>
      <trkpt lat="45.99225" lon="4.38337">
        <ele>559</ele>
        <time>2016-09-22T09:21:29Z</time>
      </trkpt>
      <trkpt lat="45.99224" lon="4.38335">
        <ele>559</ele>
        <time>2016-09-22T09:21:30Z</time>
      </trkpt>
      <trkpt lat="45.99222" lon="4.38323">
        <ele>558</ele>
        <time>2016-09-22T09:21:37Z</time>
      </trkpt>
      <trkpt lat="45.99221" lon="4.38322">
        <ele>558</ele>
        <time>2016-09-22T09:21:38Z</time>
      </trkpt>
      <trkpt lat="45.99216" lon="4.38312">
        <ele>558</ele>
        <time>2016-09-22T09:21:45Z</time>
      </trkpt>
      <trkpt lat="45.99215" lon="4.38311">
        <ele>558</ele>
        <time>2016-09-22T09:21:46Z</time>
      </trkpt>
      <trkpt lat="45.99217" lon="4.38299">
        <ele>558</ele>
        <time>2016-09-22T09:22:10Z</time>
      </trkpt>
      <trkpt lat="45.99218" lon="4.38298">
        <ele>558</ele>
        <time>2016-09-22T09:22:11Z</time>
      </trkpt>
      <trkpt lat="45.99223" lon="4.38288">
        <ele>558</ele>
        <time>2016-09-22T09:22:18Z</time>
      </trkpt>
      <trkpt lat="45.99223" lon="4.38286">
        <ele>558</ele>
        <time>2016-09-22T09:22:19Z</time>
      </trkpt>
      <trkpt lat="45.99228" lon="4.38275">
        <ele>558</ele>
        <time>2016-09-22T09:22:26Z</time>
      </trkpt>
      <trkpt lat="45.99228" lon="4.38274">
        <ele>559</ele>
        <time>2016-09-22T09:22:27Z</time>
      </trkpt>
      <trkpt lat="45.99234" lon="4.38264">
        <ele>559</ele>
        <time>2016-09-22T09:22:34Z</time>
      </trkpt>
      <trkpt lat="45.99235" lon="4.38263">
        <ele>559</ele>
        <time>2016-09-22T09:22:35Z</time>
      </trkpt>
      <trkpt lat="45.9924" lon="4.38253">
        <ele>559</ele>
        <time>2016-09-22T09:22:41Z</time>
      </trkpt>
      <trkpt lat="45.99241" lon="4.38251">
        <ele>559</ele>
        <time>2016-09-22T09:22:42Z</time>
      </trkpt>
      <trkpt lat="45.99245" lon="4.38241">
        <ele>560</ele>
        <time>2016-09-22T09:22:48Z</time>
      </trkpt>
      <trkpt lat="45.99246" lon="4.3824">
        <ele>560</ele>
        <time>2016-09-22T09:22:49Z</time>
      </trkpt>
      <trkpt lat="45.99251" lon="4.38231">
        <ele>557</ele>
        <time>2016-09-22T09:22:55Z</time>
      </trkpt>
      <trkpt lat="45.99251" lon="4.3823">
        <ele>557</ele>
        <time>2016-09-22T09:22:56Z</time>
      </trkpt>
      <trkpt lat="45.99257" lon="4.38221">
        <ele>556</ele>
        <time>2016-09-22T09:23:03Z</time>
      </trkpt>
      <trkpt lat="45.99258" lon="4.3822">
        <ele>556</ele>
        <time>2016-09-22T09:23:04Z</time>
      </trkpt>
      <trkpt lat="45.99263" lon="4.38212">
        <ele>556</ele>
        <time>2016-09-22T09:23:10Z</time>
      </trkpt>
      <trkpt lat="45.99264" lon="4.3821">
        <ele>556</ele>
        <time>2016-09-22T09:23:11Z</time>
      </trkpt>
      <trkpt lat="45.99268" lon="4.38199">
        <ele>556</ele>
        <time>2016-09-22T09:23:18Z</time>
      </trkpt>
      <trkpt lat="45.99269" lon="4.38198">
        <ele>556</ele>
        <time>2016-09-22T09:23:19Z</time>
      </trkpt>
      <trkpt lat="45.99273" lon="4.38187">
        <ele>556</ele>
        <time>2016-09-22T09:23:26Z</time>
      </trkpt>
      <trkpt lat="45.99274" lon="4.38186">
        <ele>556</ele>
        <time>2016-09-22T09:23:27Z</time>
      </trkpt>
      <trkpt lat="45.99279" lon="4.38177">
        <ele>556</ele>
        <time>2016-09-22T09:23:33Z</time>
      </trkpt>
      <trkpt lat="45.9928" lon="4.38175">
        <ele>556</ele>
        <time>2016-09-22T09:23:34Z</time>
      </trkpt>
      <trkpt lat="45.99285" lon="4.38166">
        <ele>554</ele>
        <time>2016-09-22T09:23:40Z</time>
      </trkpt>
      <trkpt lat="45.99285" lon="4.38164">
        <ele>554</ele>
        <time>2016-09-22T09:23:41Z</time>
      </trkpt>
      <trkpt lat="45.99291" lon="4.38154">
        <ele>553</ele>
        <time>2016-09-22T09:23:47Z</time>
      </trkpt>
      <trkpt lat="45.99292" lon="4.38153">
        <ele>553</ele>
        <time>2016-09-22T09:23:48Z</time>
      </trkpt>
      <trkpt lat="45.99296" lon="4.38143">
        <ele>553</ele>
        <time>2016-09-22T09:23:54Z</time>
      </trkpt>
      <trkpt lat="45.99296" lon="4.38141">
        <ele>553</ele>
        <time>2016-09-22T09:23:55Z</time>
      </trkpt>
      <trkpt lat="45.99301" lon="4.38131">
        <ele>552</ele>
        <time>2016-09-22T09:24:01Z</time>
      </trkpt>
      <trkpt lat="45.99302" lon="4.38129">
        <ele>552</ele>
        <time>2016-09-22T09:24:02Z</time>
      </trkpt>
      <trkpt lat="45.99306" lon="4.38119">
        <ele>552</ele>
        <time>2016-09-22T09:24:08Z</time>
      </trkpt>
      <trkpt lat="45.99307" lon="4.38117">
        <ele>551</ele>
        <time>2016-09-22T09:24:09Z</time>
      </trkpt>
      <trkpt lat="45.99311" lon="4.38106">
        <ele>551</ele>
        <time>2016-09-22T09:24:16Z</time>
      </trkpt>
      <trkpt lat="45.99312" lon="4.38105">
        <ele>551</ele>
        <time>2016-09-22T09:24:17Z</time>
      </trkpt>
      <trkpt lat="45.99316" lon="4.38095">
        <ele>550</ele>
        <time>2016-09-22T09:24:23Z</time>
      </trkpt>
      <trkpt lat="45.99317" lon="4.38093">
        <ele>550</ele>
        <time>2016-09-22T09:24:24Z</time>
      </trkpt>
      <trkpt lat="45.99322" lon="4.38084">
        <ele>549</ele>
        <time>2016-09-22T09:24:30Z</time>
      </trkpt>
      <trkpt lat="45.99323" lon="4.38083">
        <ele>547</ele>
        <time>2016-09-22T09:24:31Z</time>
      </trkpt>
      <trkpt lat="45.99329" lon="4.38075">
        <ele>547</ele>
        <time>2016-09-22T09:24:37Z</time>
      </trkpt>
      <trkpt lat="45.9933" lon="4.38073">
        <ele>547</ele>
        <time>2016-09-22T09:24:38Z</time>
      </trkpt>
      <trkpt lat="45.99336" lon="4.38064">
        <ele>544</ele>
        <time>2016-09-22T09:24:45Z</time>
      </trkpt>
      <trkpt lat="45.99337" lon="4.38063">
        <ele>544</ele>
        <time>2016-09-22T09:24:46Z</time>
      </trkpt>
      <trkpt lat="45.99342" lon="4.38054">
        <ele>544</ele>
        <time>2016-09-22T09:24:53Z</time>
      </trkpt>
      <trkpt lat="45.99342" lon="4.38053">
        <ele>544</ele>
        <time>2016-09-22T09:24:54Z</time>
      </trkpt>
      <trkpt lat="45.99349" lon="4.38046">
        <ele>543</ele>
        <time>2016-09-22T09:25:01Z</time>
      </trkpt>
      <trkpt lat="45.9935" lon="4.38045">
        <ele>543</ele>
        <time>2016-09-22T09:25:02Z</time>
      </trkpt>
      <trkpt lat="45.99356" lon="4.3804">
        <ele>543</ele>
        <time>2016-09-22T09:25:08Z</time>
      </trkpt>
      <trkpt lat="45.99358" lon="4.38039">
        <ele>543</ele>
        <time>2016-09-22T09:25:09Z</time>
      </trkpt>
      <trkpt lat="45.99365" lon="4.38034">
        <ele>543</ele>
        <time>2016-09-22T09:25:15Z</time>
      </trkpt>
      <trkpt lat="45.99367" lon="4.38034">
        <ele>543</ele>
        <time>2016-09-22T09:25:16Z</time>
      </trkpt>
      <trkpt lat="45.99375" lon="4.3803">
        <ele>542</ele>
        <time>2016-09-22T09:25:22Z</time>
      </trkpt>
      <trkpt lat="45.99376" lon="4.38029">
        <ele>542</ele>
        <time>2016-09-22T09:25:23Z</time>
      </trkpt>
      <trkpt lat="45.99383" lon="4.38022">
        <ele>542</ele>
        <time>2016-09-22T09:25:29Z</time>
      </trkpt>
      <trkpt lat="45.99384" lon="4.38021">
        <ele>542</ele>
        <time>2016-09-22T09:25:30Z</time>
      </trkpt>
      <trkpt lat="45.9939" lon="4.38014">
        <ele>542</ele>
        <time>2016-09-22T09:25:36Z</time>
      </trkpt>
      <trkpt lat="45.99391" lon="4.38013">
        <ele>542</ele>
        <time>2016-09-22T09:25:37Z</time>
      </trkpt>
      <trkpt lat="45.99397" lon="4.38005">
        <ele>541</ele>
        <time>2016-09-22T09:25:46Z</time>
      </trkpt>
      <trkpt lat="45.99398" lon="4.38004">
        <ele>541</ele>
        <time>2016-09-22T09:25:47Z</time>
      </trkpt>
      <trkpt lat="45.99403" lon="4.37995">
        <ele>539</ele>
        <time>2016-09-22T09:25:57Z</time>
      </trkpt>
      <trkpt lat="45.99404" lon="4.37993">
        <ele>539</ele>
        <time>2016-09-22T09:25:58Z</time>
      </trkpt>
      <trkpt lat="45.99409" lon="4.37983">
        <ele>539</ele>
        <time>2016-09-22T09:26:06Z</time>
      </trkpt>
      <trkpt lat="45.9941" lon="4.37981">
        <ele>539</ele>
        <time>2016-09-22T09:26:07Z</time>
      </trkpt>
      <trkpt lat="45.99414" lon="4.3797">
        <ele>539</ele>
        <time>2016-09-22T09:26:12Z</time>
      </trkpt>
      <trkpt lat="45.99415" lon="4.37968">
        <ele>539</ele>
        <time>2016-09-22T09:26:13Z</time>
      </trkpt>
      <trkpt lat="45.99419" lon="4.37957">
        <ele>537</ele>
        <time>2016-09-22T09:26:19Z</time>
      </trkpt>
      <trkpt lat="45.9942" lon="4.37955">
        <ele>537</ele>
        <time>2016-09-22T09:26:20Z</time>
      </trkpt>
      <trkpt lat="45.99424" lon="4.37945">
        <ele>536</ele>
        <time>2016-09-22T09:26:26Z</time>
      </trkpt>
      <trkpt lat="45.99425" lon="4.37943">
        <ele>536</ele>
        <time>2016-09-22T09:26:27Z</time>
      </trkpt>
      <trkpt lat="45.99427" lon="4.37932">
        <ele>536</ele>
        <time>2016-09-22T09:26:32Z</time>
      </trkpt>
      <trkpt lat="45.99428" lon="4.3793">
        <ele>536</ele>
        <time>2016-09-22T09:26:33Z</time>
      </trkpt>
      <trkpt lat="45.99431" lon="4.3792">
        <ele>536</ele>
        <time>2016-09-22T09:26:38Z</time>
      </trkpt>
      <trkpt lat="45.99432" lon="4.37918">
        <ele>536</ele>
        <time>2016-09-22T09:26:39Z</time>
      </trkpt>
      <trkpt lat="45.99436" lon="4.37908">
        <ele>533</ele>
        <time>2016-09-22T09:26:44Z</time>
      </trkpt>
      <trkpt lat="45.99437" lon="4.37906">
        <ele>533</ele>
        <time>2016-09-22T09:26:45Z</time>
      </trkpt>
      <trkpt lat="45.99442" lon="4.37896">
        <ele>532</ele>
        <time>2016-09-22T09:26:50Z</time>
      </trkpt>
      <trkpt lat="45.99442" lon="4.37894">
        <ele>532</ele>
        <time>2016-09-22T09:26:51Z</time>
      </trkpt>
      <trkpt lat="45.99447" lon="4.37885">
        <ele>532</ele>
        <time>2016-09-22T09:26:56Z</time>
      </trkpt>
      <trkpt lat="45.99447" lon="4.37883">
        <ele>531</ele>
        <time>2016-09-22T09:26:57Z</time>
      </trkpt>
      <trkpt lat="45.99451" lon="4.37873">
        <ele>531</ele>
        <time>2016-09-22T09:27:03Z</time>
      </trkpt>
      <trkpt lat="45.99451" lon="4.37871">
        <ele>531</ele>
        <time>2016-09-22T09:27:04Z</time>
      </trkpt>
      <trkpt lat="45.99454" lon="4.37859">
        <ele>530</ele>
        <time>2016-09-22T09:27:11Z</time>
      </trkpt>
      <trkpt lat="45.99454" lon="4.37857">
        <ele>530</ele>
        <time>2016-09-22T09:27:12Z</time>
      </trkpt>
      <trkpt lat="45.99458" lon="4.37845">
        <ele>530</ele>
        <time>2016-09-22T09:27:20Z</time>
      </trkpt>
      <trkpt lat="45.99458" lon="4.37845">
        <ele>530</ele>
        <time>2016-09-22T09:27:21Z</time>
      </trkpt>
      <trkpt lat="45.99457" lon="4.37834">
        <ele>529</ele>
        <time>2016-09-22T09:29:19Z</time>
      </trkpt>
      <trkpt lat="45.99457" lon="4.37832">
        <ele>526</ele>
        <time>2016-09-22T09:29:20Z</time>
      </trkpt>
      <trkpt lat="45.9946" lon="4.3782">
        <ele>525</ele>
        <time>2016-09-22T09:29:27Z</time>
      </trkpt>
      <trkpt lat="45.99461" lon="4.37819">
        <ele>525</ele>
        <time>2016-09-22T09:29:28Z</time>
      </trkpt>
      <trkpt lat="45.99463" lon="4.37807">
        <ele>525</ele>
        <time>2016-09-22T09:29:35Z</time>
      </trkpt>
      <trkpt lat="45.99463" lon="4.37805">
        <ele>525</ele>
        <time>2016-09-22T09:29:36Z</time>
      </trkpt>
      <trkpt lat="45.99466" lon="4.37793">
        <ele>525</ele>
        <time>2016-09-22T09:29:43Z</time>
      </trkpt>
      <trkpt lat="45.99466" lon="4.37792">
        <ele>525</ele>
        <time>2016-09-22T09:29:44Z</time>
      </trkpt>
      <trkpt lat="45.99468" lon="4.3778">
        <ele>524</ele>
        <time>2016-09-22T09:29:58Z</time>
      </trkpt>
      <trkpt lat="45.99469" lon="4.37779">
        <ele>524</ele>
        <time>2016-09-22T09:29:59Z</time>
      </trkpt>
      <trkpt lat="45.99472" lon="4.37768">
        <ele>524</ele>
        <time>2016-09-22T09:30:06Z</time>
      </trkpt>
      <trkpt lat="45.99472" lon="4.37766">
        <ele>524</ele>
        <time>2016-09-22T09:30:07Z</time>
      </trkpt>
      <trkpt lat="45.99475" lon="4.37756">
        <ele>523</ele>
        <time>2016-09-22T09:30:14Z</time>
      </trkpt>
      <trkpt lat="45.99475" lon="4.37754">
        <ele>523</ele>
        <time>2016-09-22T09:30:15Z</time>
      </trkpt>
      <trkpt lat="45.99476" lon="4.37742">
        <ele>521</ele>
        <time>2016-09-22T09:30:23Z</time>
      </trkpt>
      <trkpt lat="45.99477" lon="4.3774">
        <ele>521</ele>
        <time>2016-09-22T09:30:24Z</time>
      </trkpt>
      <trkpt lat="45.99484" lon="4.37732">
        <ele>521</ele>
        <time>2016-09-22T09:30:31Z</time>
      </trkpt>
      <trkpt lat="45.99484" lon="4.37731">
        <ele>521</ele>
        <time>2016-09-22T09:30:32Z</time>
      </trkpt>
      <trkpt lat="45.99486" lon="4.37719">
        <ele>521</ele>
        <time>2016-09-22T09:30:38Z</time>
      </trkpt>
      <trkpt lat="45.99487" lon="4.37718">
        <ele>521</ele>
        <time>2016-09-22T09:30:39Z</time>
      </trkpt>
      <trkpt lat="45.99488" lon="4.37705">
        <ele>521</ele>
        <time>2016-09-22T09:30:45Z</time>
      </trkpt>
      <trkpt lat="45.99488" lon="4.37703">
        <ele>521</ele>
        <time>2016-09-22T09:30:46Z</time>
      </trkpt>
      <trkpt lat="45.9949" lon="4.37692">
        <ele>520</ele>
        <time>2016-09-22T09:30:52Z</time>
      </trkpt>
      <trkpt lat="45.9949" lon="4.3769">
        <ele>520</ele>
        <time>2016-09-22T09:30:53Z</time>
      </trkpt>
      <trkpt lat="45.9949" lon="4.37677">
        <ele>520</ele>
        <time>2016-09-22T09:31:00Z</time>
      </trkpt>
      <trkpt lat="45.99489" lon="4.37676">
        <ele>520</ele>
        <time>2016-09-22T09:31:01Z</time>
      </trkpt>
      <trkpt lat="45.99487" lon="4.37664">
        <ele>519</ele>
        <time>2016-09-22T09:31:08Z</time>
      </trkpt>
      <trkpt lat="45.99487" lon="4.37662">
        <ele>519</ele>
        <time>2016-09-22T09:31:09Z</time>
      </trkpt>
      <trkpt lat="45.99481" lon="4.37654">
        <ele>520</ele>
        <time>2016-09-22T09:31:15Z</time>
      </trkpt>
      <trkpt lat="45.9948" lon="4.37653">
        <ele>520</ele>
        <time>2016-09-22T09:31:16Z</time>
      </trkpt>
      <trkpt lat="45.99474" lon="4.37646">
        <ele>520</ele>
        <time>2016-09-22T09:31:21Z</time>
      </trkpt>
      <trkpt lat="45.99473" lon="4.37645">
        <ele>520</ele>
        <time>2016-09-22T09:31:22Z</time>
      </trkpt>
      <trkpt lat="45.99467" lon="4.37635">
        <ele>520</ele>
        <time>2016-09-22T09:31:28Z</time>
      </trkpt>
      <trkpt lat="45.99467" lon="4.37634">
        <ele>520</ele>
        <time>2016-09-22T09:31:29Z</time>
      </trkpt>
      <trkpt lat="45.99465" lon="4.37622">
        <ele>520</ele>
        <time>2016-09-22T09:31:36Z</time>
      </trkpt>
      <trkpt lat="45.99465" lon="4.37621">
        <ele>520</ele>
        <time>2016-09-22T09:31:37Z</time>
      </trkpt>
      <trkpt lat="45.99466" lon="4.37609">
        <ele>520</ele>
        <time>2016-09-22T09:31:44Z</time>
      </trkpt>
      <trkpt lat="45.99466" lon="4.37607">
        <ele>520</ele>
        <time>2016-09-22T09:31:45Z</time>
      </trkpt>
      <trkpt lat="45.99467" lon="4.37596">
        <ele>520</ele>
        <time>2016-09-22T09:31:51Z</time>
      </trkpt>
      <trkpt lat="45.99468" lon="4.37595">
        <ele>520</ele>
        <time>2016-09-22T09:31:52Z</time>
      </trkpt>
      <trkpt lat="45.9947" lon="4.37583">
        <ele>521</ele>
        <time>2016-09-22T09:31:58Z</time>
      </trkpt>
      <trkpt lat="45.99471" lon="4.37581">
        <ele>521</ele>
        <time>2016-09-22T09:31:59Z</time>
      </trkpt>
      <trkpt lat="45.99474" lon="4.37571">
        <ele>521</ele>
        <time>2016-09-22T09:32:05Z</time>
      </trkpt>
      <trkpt lat="45.99475" lon="4.37569">
        <ele>521</ele>
        <time>2016-09-22T09:32:06Z</time>
      </trkpt>
      <trkpt lat="45.9948" lon="4.37559">
        <ele>521</ele>
        <time>2016-09-22T09:32:12Z</time>
      </trkpt>
      <trkpt lat="45.99481" lon="4.37558">
        <ele>521</ele>
        <time>2016-09-22T09:32:13Z</time>
      </trkpt>
      <trkpt lat="45.99487" lon="4.3755">
        <ele>521</ele>
        <time>2016-09-22T09:32:19Z</time>
      </trkpt>
      <trkpt lat="45.99488" lon="4.37549">
        <ele>521</ele>
        <time>2016-09-22T09:32:20Z</time>
      </trkpt>
      <trkpt lat="45.99494" lon="4.37539">
        <ele>521</ele>
        <time>2016-09-22T09:32:34Z</time>
      </trkpt>
      <trkpt lat="45.99494" lon="4.37538">
        <ele>521</ele>
        <time>2016-09-22T09:32:35Z</time>
      </trkpt>
      <trkpt lat="45.995" lon="4.3753">
        <ele>521</ele>
        <time>2016-09-22T09:32:45Z</time>
      </trkpt>
      <trkpt lat="45.99501" lon="4.37529">
        <ele>521</ele>
        <time>2016-09-22T09:32:46Z</time>
      </trkpt>
      <trkpt lat="45.99507" lon="4.3752">
        <ele>521</ele>
        <time>2016-09-22T09:32:53Z</time>
      </trkpt>
      <trkpt lat="45.99508" lon="4.37519">
        <ele>521</ele>
        <time>2016-09-22T09:32:54Z</time>
      </trkpt>
      <trkpt lat="45.99515" lon="4.3751">
        <ele>521</ele>
        <time>2016-09-22T09:33:00Z</time>
      </trkpt>
      <trkpt lat="45.99516" lon="4.37509">
        <ele>521</ele>
        <time>2016-09-22T09:33:01Z</time>
      </trkpt>
      <trkpt lat="45.99524" lon="4.37504">
        <ele>521</ele>
        <time>2016-09-22T09:33:08Z</time>
      </trkpt>
      <trkpt lat="45.99525" lon="4.37503">
        <ele>521</ele>
        <time>2016-09-22T09:33:09Z</time>
      </trkpt>
      <trkpt lat="45.99534" lon="4.37505">
        <ele>521</ele>
        <time>2016-09-22T09:33:15Z</time>
      </trkpt>
      <trkpt lat="45.99535" lon="4.37505">
        <ele>521</ele>
        <time>2016-09-22T09:33:16Z</time>
      </trkpt>
      <trkpt lat="45.99543" lon="4.37509">
        <ele>521</ele>
        <time>2016-09-22T09:33:23Z</time>
      </trkpt>
      <trkpt lat="45.99545" lon="4.37509">
        <ele>521</ele>
        <time>2016-09-22T09:33:24Z</time>
      </trkpt>
      <trkpt lat="45.99553" lon="4.3751">
        <ele>521</ele>
        <time>2016-09-22T09:33:30Z</time>
      </trkpt>
      <trkpt lat="45.99554" lon="4.37511">
        <ele>521</ele>
        <time>2016-09-22T09:33:31Z</time>
      </trkpt>
      <trkpt lat="45.99562" lon="4.37513">
        <ele>521</ele>
        <time>2016-09-22T09:33:37Z</time>
      </trkpt>
      <trkpt lat="45.99563" lon="4.37514">
        <ele>521</ele>
        <time>2016-09-22T09:33:38Z</time>
      </trkpt>
      <trkpt lat="45.99571" lon="4.37516">
        <ele>521</ele>
        <time>2016-09-22T09:33:44Z</time>
      </trkpt>
      <trkpt lat="45.99572" lon="4.37516">
        <ele>521</ele>
        <time>2016-09-22T09:33:45Z</time>
      </trkpt>
      <trkpt lat="45.9958" lon="4.37517">
        <ele>521</ele>
        <time>2016-09-22T09:33:50Z</time>
      </trkpt>
      <trkpt lat="45.99581" lon="4.37517">
        <ele>521</ele>
        <time>2016-09-22T09:33:51Z</time>
      </trkpt>
      <trkpt lat="45.9959" lon="4.37518">
        <ele>521</ele>
        <time>2016-09-22T09:33:57Z</time>
      </trkpt>
      <trkpt lat="45.99591" lon="4.37518">
        <ele>521</ele>
        <time>2016-09-22T09:33:58Z</time>
      </trkpt>
      <trkpt lat="45.99599" lon="4.37519">
        <ele>521</ele>
        <time>2016-09-22T09:34:04Z</time>
      </trkpt>
      <trkpt lat="45.996" lon="4.37519">
        <ele>520</ele>
        <time>2016-09-22T09:34:05Z</time>
      </trkpt>
      <trkpt lat="45.99609" lon="4.37522">
        <ele>520</ele>
        <time>2016-09-22T09:34:11Z</time>
      </trkpt>
      <trkpt lat="45.9961" lon="4.37523">
        <ele>520</ele>
        <time>2016-09-22T09:34:12Z</time>
      </trkpt>
      <trkpt lat="45.99618" lon="4.37527">
        <ele>520</ele>
        <time>2016-09-22T09:34:18Z</time>
      </trkpt>
      <trkpt lat="45.99619" lon="4.37528">
        <ele>520</ele>
        <time>2016-09-22T09:34:19Z</time>
      </trkpt>
      <trkpt lat="45.99627" lon="4.37532">
        <ele>520</ele>
        <time>2016-09-22T09:34:25Z</time>
      </trkpt>
      <trkpt lat="45.99629" lon="4.37532">
        <ele>520</ele>
        <time>2016-09-22T09:34:26Z</time>
      </trkpt>
      <trkpt lat="45.99637" lon="4.37535">
        <ele>519</ele>
        <time>2016-09-22T09:34:32Z</time>
      </trkpt>
      <trkpt lat="45.99639" lon="4.37535">
        <ele>519</ele>
        <time>2016-09-22T09:34:33Z</time>
      </trkpt>
      <trkpt lat="45.99647" lon="4.37536">
        <ele>519</ele>
        <time>2016-09-22T09:34:39Z</time>
      </trkpt>
      <trkpt lat="45.99648" lon="4.37536">
        <ele>519</ele>
        <time>2016-09-22T09:34:40Z</time>
      </trkpt>
      <trkpt lat="45.99656" lon="4.37538">
        <ele>519</ele>
        <time>2016-09-22T09:34:46Z</time>
      </trkpt>
      <trkpt lat="45.99657" lon="4.37539">
        <ele>519</ele>
        <time>2016-09-22T09:34:47Z</time>
      </trkpt>
      <trkpt lat="45.99665" lon="4.37539">
        <ele>519</ele>
        <time>2016-09-22T09:34:54Z</time>
      </trkpt>
      <trkpt lat="45.99667" lon="4.37539">
        <ele>519</ele>
        <time>2016-09-22T09:34:55Z</time>
      </trkpt>
      <trkpt lat="45.99675" lon="4.3754">
        <ele>520</ele>
        <time>2016-09-22T09:35:01Z</time>
      </trkpt>
      <trkpt lat="45.99676" lon="4.37541">
        <ele>520</ele>
        <time>2016-09-22T09:35:02Z</time>
      </trkpt>
      <trkpt lat="45.99685" lon="4.37542">
        <ele>520</ele>
        <time>2016-09-22T09:35:08Z</time>
      </trkpt>
      <trkpt lat="45.99686" lon="4.37542">
        <ele>520</ele>
        <time>2016-09-22T09:35:09Z</time>
      </trkpt>
      <trkpt lat="45.99694" lon="4.37543">
        <ele>520</ele>
        <time>2016-09-22T09:35:15Z</time>
      </trkpt>
      <trkpt lat="45.99695" lon="4.37543">
        <ele>520</ele>
        <time>2016-09-22T09:35:16Z</time>
      </trkpt>
      <trkpt lat="45.99704" lon="4.37544">
        <ele>520</ele>
        <time>2016-09-22T09:35:23Z</time>
      </trkpt>
      <trkpt lat="45.99705" lon="4.37545">
        <ele>520</ele>
        <time>2016-09-22T09:35:24Z</time>
      </trkpt>
      <trkpt lat="45.99714" lon="4.37545">
        <ele>520</ele>
        <time>2016-09-22T09:35:31Z</time>
      </trkpt>
      <trkpt lat="45.99715" lon="4.37546">
        <ele>519</ele>
        <time>2016-09-22T09:35:32Z</time>
      </trkpt>
      <trkpt lat="45.99723" lon="4.37549">
        <ele>519</ele>
        <time>2016-09-22T09:35:38Z</time>
      </trkpt>
      <trkpt lat="45.99725" lon="4.37549">
        <ele>519</ele>
        <time>2016-09-22T09:35:39Z</time>
      </trkpt>
      <trkpt lat="45.99733" lon="4.37552">
        <ele>519</ele>
        <time>2016-09-22T09:35:45Z</time>
      </trkpt>
      <trkpt lat="45.99735" lon="4.37552">
        <ele>519</ele>
        <time>2016-09-22T09:35:46Z</time>
      </trkpt>
      <trkpt lat="45.99743" lon="4.37556">
        <ele>518</ele>
        <time>2016-09-22T09:35:52Z</time>
      </trkpt>
      <trkpt lat="45.99744" lon="4.37557">
        <ele>518</ele>
        <time>2016-09-22T09:35:53Z</time>
      </trkpt>
      <trkpt lat="45.99752" lon="4.37561">
        <ele>516</ele>
        <time>2016-09-22T09:35:59Z</time>
      </trkpt>
      <trkpt lat="45.99753" lon="4.37562">
        <ele>516</ele>
        <time>2016-09-22T09:36:00Z</time>
      </trkpt>
      <trkpt lat="45.99761" lon="4.37563">
        <ele>516</ele>
        <time>2016-09-22T09:36:06Z</time>
      </trkpt>
      <trkpt lat="45.99762" lon="4.37564">
        <ele>516</ele>
        <time>2016-09-22T09:36:07Z</time>
      </trkpt>
      <trkpt lat="45.9977" lon="4.37566">
        <ele>516</ele>
        <time>2016-09-22T09:36:12Z</time>
      </trkpt>
      <trkpt lat="45.99771" lon="4.37566">
        <ele>516</ele>
        <time>2016-09-22T09:36:13Z</time>
      </trkpt>
      <trkpt lat="45.99779" lon="4.37568">
        <ele>516</ele>
        <time>2016-09-22T09:36:18Z</time>
      </trkpt>
      <trkpt lat="45.9978" lon="4.37568">
        <ele>516</ele>
        <time>2016-09-22T09:36:19Z</time>
      </trkpt>
      <trkpt lat="45.99787" lon="4.37572">
        <ele>515</ele>
        <time>2016-09-22T09:36:24Z</time>
      </trkpt>
      <trkpt lat="45.99789" lon="4.37573">
        <ele>515</ele>
        <time>2016-09-22T09:36:25Z</time>
      </trkpt>
      <trkpt lat="45.99796" lon="4.37578">
        <ele>515</ele>
        <time>2016-09-22T09:36:31Z</time>
      </trkpt>
      <trkpt lat="45.99798" lon="4.37578">
        <ele>515</ele>
        <time>2016-09-22T09:36:32Z</time>
      </trkpt>
      <trkpt lat="45.99806" lon="4.37582">
        <ele>514</ele>
        <time>2016-09-22T09:36:38Z</time>
      </trkpt>
      <trkpt lat="45.99807" lon="4.37582">
        <ele>514</ele>
        <time>2016-09-22T09:36:39Z</time>
      </trkpt>
      <trkpt lat="45.99814" lon="4.37586">
        <ele>508</ele>
        <time>2016-09-22T09:36:45Z</time>
      </trkpt>
      <trkpt lat="45.99816" lon="4.37586">
        <ele>508</ele>
        <time>2016-09-22T09:36:46Z</time>
      </trkpt>
      <trkpt lat="45.99824" lon="4.37587">
        <ele>509</ele>
        <time>2016-09-22T09:36:53Z</time>
      </trkpt>
      <trkpt lat="45.99826" lon="4.37587">
        <ele>509</ele>
        <time>2016-09-22T09:36:54Z</time>
      </trkpt>
      <trkpt lat="45.99833" lon="4.37583">
        <ele>510</ele>
        <time>2016-09-22T09:37:00Z</time>
      </trkpt>
      <trkpt lat="45.99835" lon="4.37582">
        <ele>509</ele>
        <time>2016-09-22T09:37:01Z</time>
      </trkpt>
      <trkpt lat="45.99842" lon="4.37576">
        <ele>507</ele>
        <time>2016-09-22T09:37:07Z</time>
      </trkpt>
      <trkpt lat="45.99844" lon="4.37575">
        <ele>506</ele>
        <time>2016-09-22T09:37:08Z</time>
      </trkpt>
      <trkpt lat="45.99851" lon="4.37569">
        <ele>505</ele>
        <time>2016-09-22T09:37:14Z</time>
      </trkpt>
      <trkpt lat="45.99852" lon="4.37568">
        <ele>505</ele>
        <time>2016-09-22T09:37:15Z</time>
      </trkpt>
      <trkpt lat="45.99859" lon="4.37563">
        <ele>503</ele>
        <time>2016-09-22T09:37:20Z</time>
      </trkpt>
      <trkpt lat="45.9986" lon="4.37562">
        <ele>503</ele>
        <time>2016-09-22T09:37:21Z</time>
      </trkpt>
      <trkpt lat="45.99866" lon="4.37554">
        <ele>502</ele>
        <time>2016-09-22T09:37:27Z</time>
      </trkpt>
      <trkpt lat="45.99867" lon="4.37552">
        <ele>502</ele>
        <time>2016-09-22T09:37:28Z</time>
      </trkpt>
      <trkpt lat="45.99871" lon="4.37543">
        <ele>502</ele>
        <time>2016-09-22T09:37:34Z</time>
      </trkpt>
      <trkpt lat="45.99872" lon="4.37542">
        <ele>502</ele>
        <time>2016-09-22T09:37:35Z</time>
      </trkpt>
      <trkpt lat="45.99878" lon="4.37532">
        <ele>501</ele>
        <time>2016-09-22T09:37:41Z</time>
      </trkpt>
      <trkpt lat="45.99878" lon="4.3753">
        <ele>501</ele>
        <time>2016-09-22T09:37:42Z</time>
      </trkpt>
      <trkpt lat="45.99884" lon="4.37521">
        <ele>501</ele>
        <time>2016-09-22T09:37:48Z</time>
      </trkpt>
      <trkpt lat="45.99885" lon="4.3752">
        <ele>501</ele>
        <time>2016-09-22T09:37:49Z</time>
      </trkpt>
      <trkpt lat="45.99891" lon="4.37511">
        <ele>499</ele>
        <time>2016-09-22T09:37:55Z</time>
      </trkpt>
      <trkpt lat="45.99892" lon="4.3751">
        <ele>499</ele>
        <time>2016-09-22T09:37:56Z</time>
      </trkpt>
      <trkpt lat="45.99898" lon="4.37503">
        <ele>498</ele>
        <time>2016-09-22T09:38:02Z</time>
      </trkpt>
      <trkpt lat="45.999" lon="4.37502">
        <ele>498</ele>
        <time>2016-09-22T09:38:03Z</time>
      </trkpt>
      <trkpt lat="45.99907" lon="4.37496">
        <ele>497</ele>
        <time>2016-09-22T09:38:11Z</time>
      </trkpt>
      <trkpt lat="45.99908" lon="4.37496">
        <ele>497</ele>
        <time>2016-09-22T09:38:12Z</time>
      </trkpt>
      <trkpt lat="45.99915" lon="4.37489">
        <ele>497</ele>
        <time>2016-09-22T09:38:21Z</time>
      </trkpt>
      <trkpt lat="45.99916" lon="4.37489">
        <ele>497</ele>
        <time>2016-09-22T09:38:22Z</time>
      </trkpt>
      <trkpt lat="45.99924" lon="4.37486">
        <ele>491</ele>
        <time>2016-09-22T09:38:29Z</time>
      </trkpt>
      <trkpt lat="45.99926" lon="4.37485">
        <ele>491</ele>
        <time>2016-09-22T09:38:30Z</time>
      </trkpt>
      <trkpt lat="45.99933" lon="4.3748">
        <ele>491</ele>
        <time>2016-09-22T09:38:36Z</time>
      </trkpt>
      <trkpt lat="45.99934" lon="4.37479">
        <ele>491</ele>
        <time>2016-09-22T09:38:37Z</time>
      </trkpt>
      <trkpt lat="45.99941" lon="4.37474">
        <ele>490</ele>
        <time>2016-09-22T09:38:42Z</time>
      </trkpt>
      <trkpt lat="45.99942" lon="4.37472">
        <ele>490</ele>
        <time>2016-09-22T09:38:43Z</time>
      </trkpt>
      <trkpt lat="45.99949" lon="4.37465">
        <ele>490</ele>
        <time>2016-09-22T09:38:49Z</time>
      </trkpt>
      <trkpt lat="45.99951" lon="4.37464">
        <ele>490</ele>
        <time>2016-09-22T09:38:50Z</time>
      </trkpt>
      <trkpt lat="45.99958" lon="4.37458">
        <ele>490</ele>
        <time>2016-09-22T09:38:56Z</time>
      </trkpt>
      <trkpt lat="45.99959" lon="4.37457">
        <ele>490</ele>
        <time>2016-09-22T09:38:57Z</time>
      </trkpt>
      <trkpt lat="45.99965" lon="4.37448">
        <ele>490</ele>
        <time>2016-09-22T09:39:03Z</time>
      </trkpt>
      <trkpt lat="45.99966" lon="4.37447">
        <ele>490</ele>
        <time>2016-09-22T09:39:04Z</time>
      </trkpt>
      <trkpt lat="45.99973" lon="4.3744">
        <ele>491</ele>
        <time>2016-09-22T09:39:10Z</time>
      </trkpt>
      <trkpt lat="45.99974" lon="4.37439">
        <ele>491</ele>
        <time>2016-09-22T09:39:11Z</time>
      </trkpt>
      <trkpt lat="45.99982" lon="4.37433">
        <ele>491</ele>
        <time>2016-09-22T09:39:18Z</time>
      </trkpt>
      <trkpt lat="45.99983" lon="4.37432">
        <ele>491</ele>
        <time>2016-09-22T09:39:19Z</time>
      </trkpt>
      <trkpt lat="45.9999" lon="4.37424">
        <ele>492</ele>
        <time>2016-09-22T09:39:26Z</time>
      </trkpt>
      <trkpt lat="45.99991" lon="4.37423">
        <ele>492</ele>
        <time>2016-09-22T09:39:27Z</time>
      </trkpt>
      <trkpt lat="45.99999" lon="4.37421">
        <ele>492</ele>
        <time>2016-09-22T09:39:33Z</time>
      </trkpt>
      <trkpt lat="46" lon="4.3742">
        <ele>492</ele>
        <time>2016-09-22T09:39:34Z</time>
      </trkpt>
      <trkpt lat="46.00009" lon="4.37417">
        <ele>489</ele>
        <time>2016-09-22T09:39:41Z</time>
      </trkpt>
      <trkpt lat="46.0001" lon="4.37417">
        <ele>488</ele>
        <time>2016-09-22T09:39:42Z</time>
      </trkpt>
      <trkpt lat="46.00018" lon="4.37415">
        <ele>492</ele>
        <time>2016-09-22T09:39:48Z</time>
      </trkpt>
      <trkpt lat="46.00019" lon="4.37415">
        <ele>492</ele>
        <time>2016-09-22T09:39:49Z</time>
      </trkpt>
      <trkpt lat="46.00027" lon="4.37408">
        <ele>492</ele>
        <time>2016-09-22T09:39:55Z</time>
      </trkpt>
      <trkpt lat="46.00028" lon="4.37407">
        <ele>491</ele>
        <time>2016-09-22T09:39:56Z</time>
      </trkpt>
      <trkpt lat="46.00035" lon="4.37401">
        <ele>491</ele>
        <time>2016-09-22T09:40:02Z</time>
      </trkpt>
      <trkpt lat="46.00036" lon="4.37401">
        <ele>491</ele>
        <time>2016-09-22T09:40:03Z</time>
      </trkpt>
      <trkpt lat="46.00044" lon="4.37399">
        <ele>490</ele>
        <time>2016-09-22T09:40:09Z</time>
      </trkpt>
      <trkpt lat="46.00046" lon="4.37399">
        <ele>490</ele>
        <time>2016-09-22T09:40:10Z</time>
      </trkpt>
      <trkpt lat="46.00054" lon="4.37402">
        <ele>489</ele>
        <time>2016-09-22T09:40:16Z</time>
      </trkpt>
      <trkpt lat="46.00055" lon="4.37402">
        <ele>488</ele>
        <time>2016-09-22T09:40:17Z</time>
      </trkpt>
      <trkpt lat="46.00064" lon="4.37403">
        <ele>487</ele>
        <time>2016-09-22T09:40:23Z</time>
      </trkpt>
      <trkpt lat="46.00065" lon="4.37403">
        <ele>487</ele>
        <time>2016-09-22T09:40:24Z</time>
      </trkpt>
      <trkpt lat="46.00072" lon="4.37407">
        <ele>484</ele>
        <time>2016-09-22T09:40:31Z</time>
      </trkpt>
      <trkpt lat="46.00073" lon="4.37408">
        <ele>484</ele>
        <time>2016-09-22T09:40:32Z</time>
      </trkpt>
      <trkpt lat="46.00081" lon="4.3741">
        <ele>481</ele>
        <time>2016-09-22T09:40:39Z</time>
      </trkpt>
      <trkpt lat="46.00082" lon="4.37411">
        <ele>481</ele>
        <time>2016-09-22T09:40:40Z</time>
      </trkpt>
      <trkpt lat="46.0009" lon="4.37412">
        <ele>480</ele>
        <time>2016-09-22T09:40:51Z</time>
      </trkpt>
      <trkpt lat="46.00091" lon="4.37412">
        <ele>480</ele>
        <time>2016-09-22T09:40:52Z</time>
      </trkpt>
      <trkpt lat="46.00099" lon="4.37413">
        <ele>481</ele>
        <time>2016-09-22T09:40:58Z</time>
      </trkpt>
      <trkpt lat="46.001" lon="4.37413">
        <ele>481</ele>
        <time>2016-09-22T09:40:59Z</time>
      </trkpt>
      <trkpt lat="46.00108" lon="4.37414">
        <ele>481</ele>
        <time>2016-09-22T09:41:05Z</time>
      </trkpt>
      <trkpt lat="46.00109" lon="4.37414">
        <ele>481</ele>
        <time>2016-09-22T09:41:06Z</time>
      </trkpt>
      <trkpt lat="46.00118" lon="4.37412">
        <ele>482</ele>
        <time>2016-09-22T09:41:13Z</time>
      </trkpt>
      <trkpt lat="46.00118" lon="4.37411">
        <ele>482</ele>
        <time>2016-09-22T09:41:14Z</time>
      </trkpt>
      <trkpt lat="46.00127" lon="4.3741">
        <ele>482</ele>
        <time>2016-09-22T09:41:21Z</time>
      </trkpt>
      <trkpt lat="46.00128" lon="4.37409">
        <ele>482</ele>
        <time>2016-09-22T09:41:22Z</time>
      </trkpt>
      <trkpt lat="46.00135" lon="4.37404">
        <ele>482</ele>
        <time>2016-09-22T09:41:28Z</time>
      </trkpt>
      <trkpt lat="46.00136" lon="4.37402">
        <ele>482</ele>
        <time>2016-09-22T09:41:29Z</time>
      </trkpt>
      <trkpt lat="46.00141" lon="4.37392">
        <ele>482</ele>
        <time>2016-09-22T09:41:35Z</time>
      </trkpt>
      <trkpt lat="46.00142" lon="4.37391">
        <ele>482</ele>
        <time>2016-09-22T09:41:36Z</time>
      </trkpt>
      <trkpt lat="46.00147" lon="4.37382">
        <ele>483</ele>
        <time>2016-09-22T09:41:41Z</time>
      </trkpt>
      <trkpt lat="46.00148" lon="4.37381">
        <ele>483</ele>
        <time>2016-09-22T09:41:42Z</time>
      </trkpt>
      <trkpt lat="46.00154" lon="4.37372">
        <ele>484</ele>
        <time>2016-09-22T09:41:48Z</time>
      </trkpt>
      <trkpt lat="46.00155" lon="4.37371">
        <ele>484</ele>
        <time>2016-09-22T09:41:49Z</time>
      </trkpt>
      <trkpt lat="46.00162" lon="4.37363">
        <ele>485</ele>
        <time>2016-09-22T09:41:56Z</time>
      </trkpt>
      <trkpt lat="46.00163" lon="4.37362">
        <ele>485</ele>
        <time>2016-09-22T09:41:57Z</time>
      </trkpt>
      <trkpt lat="46.0017" lon="4.37356">
        <ele>485</ele>
        <time>2016-09-22T09:42:03Z</time>
      </trkpt>
      <trkpt lat="46.00171" lon="4.37355">
        <ele>485</ele>
        <time>2016-09-22T09:42:04Z</time>
      </trkpt>
      <trkpt lat="46.00178" lon="4.37351">
        <ele>485</ele>
        <time>2016-09-22T09:42:09Z</time>
      </trkpt>
      <trkpt lat="46.0018" lon="4.3735">
        <ele>485</ele>
        <time>2016-09-22T09:42:10Z</time>
      </trkpt>
      <trkpt lat="46.00187" lon="4.37344">
        <ele>485</ele>
        <time>2016-09-22T09:42:16Z</time>
      </trkpt>
      <trkpt lat="46.00188" lon="4.37342">
        <ele>485</ele>
        <time>2016-09-22T09:42:17Z</time>
      </trkpt>
      <trkpt lat="46.00195" lon="4.3734">
        <ele>485</ele>
        <time>2016-09-22T09:42:23Z</time>
      </trkpt>
      <trkpt lat="46.00197" lon="4.3734">
        <ele>485</ele>
        <time>2016-09-22T09:42:24Z</time>
      </trkpt>
      <trkpt lat="46.00205" lon="4.37343">
        <ele>484</ele>
        <time>2016-09-22T09:42:31Z</time>
      </trkpt>
      <trkpt lat="46.00206" lon="4.37343">
        <ele>484</ele>
        <time>2016-09-22T09:42:32Z</time>
      </trkpt>
      <trkpt lat="46.00215" lon="4.37343">
        <ele>484</ele>
        <time>2016-09-22T09:42:39Z</time>
      </trkpt>
      <trkpt lat="46.00216" lon="4.37343">
        <ele>484</ele>
        <time>2016-09-22T09:42:40Z</time>
      </trkpt>
      <trkpt lat="46.00224" lon="4.37337">
        <ele>484</ele>
        <time>2016-09-22T09:42:46Z</time>
      </trkpt>
      <trkpt lat="46.00225" lon="4.37335">
        <ele>484</ele>
        <time>2016-09-22T09:42:47Z</time>
      </trkpt>
      <trkpt lat="46.00233" lon="4.37331">
        <ele>489</ele>
        <time>2016-09-22T09:42:53Z</time>
      </trkpt>
      <trkpt lat="46.00234" lon="4.3733">
        <ele>489</ele>
        <time>2016-09-22T09:42:54Z</time>
      </trkpt>
      <trkpt lat="46.00242" lon="4.37327">
        <ele>488</ele>
        <time>2016-09-22T09:43:00Z</time>
      </trkpt>
      <trkpt lat="46.00244" lon="4.37326">
        <ele>488</ele>
        <time>2016-09-22T09:43:01Z</time>
      </trkpt>
      <trkpt lat="46.00251" lon="4.37323">
        <ele>484</ele>
        <time>2016-09-22T09:43:07Z</time>
      </trkpt>
      <trkpt lat="46.00253" lon="4.37322">
        <ele>484</ele>
        <time>2016-09-22T09:43:08Z</time>
      </trkpt>
      <trkpt lat="46.0026" lon="4.37317">
        <ele>483</ele>
        <time>2016-09-22T09:43:14Z</time>
      </trkpt>
      <trkpt lat="46.00261" lon="4.37316">
        <ele>483</ele>
        <time>2016-09-22T09:43:15Z</time>
      </trkpt>
      <trkpt lat="46.00267" lon="4.37307">
        <ele>482</ele>
        <time>2016-09-22T09:43:21Z</time>
      </trkpt>
      <trkpt lat="46.00268" lon="4.37305">
        <ele>482</ele>
        <time>2016-09-22T09:43:22Z</time>
      </trkpt>
      <trkpt lat="46.00273" lon="4.37297">
        <ele>482</ele>
        <time>2016-09-22T09:43:29Z</time>
      </trkpt>
      <trkpt lat="46.00274" lon="4.37295">
        <ele>482</ele>
        <time>2016-09-22T09:43:30Z</time>
      </trkpt>
      <trkpt lat="46.00277" lon="4.37284">
        <ele>482</ele>
        <time>2016-09-22T09:43:40Z</time>
      </trkpt>
      <trkpt lat="46.00278" lon="4.37283">
        <ele>482</ele>
        <time>2016-09-22T09:43:41Z</time>
      </trkpt>
      <trkpt lat="46.00282" lon="4.37273">
        <ele>482</ele>
        <time>2016-09-22T09:43:48Z</time>
      </trkpt>
      <trkpt lat="46.00282" lon="4.37272">
        <ele>482</ele>
        <time>2016-09-22T09:43:49Z</time>
      </trkpt>
      <trkpt lat="46.00284" lon="4.37259">
        <ele>482</ele>
        <time>2016-09-22T09:43:57Z</time>
      </trkpt>
      <trkpt lat="46.00284" lon="4.37258">
        <ele>482</ele>
        <time>2016-09-22T09:43:58Z</time>
      </trkpt>
      <trkpt lat="46.00285" lon="4.37246">
        <ele>485</ele>
        <time>2016-09-22T09:44:05Z</time>
      </trkpt>
      <trkpt lat="46.00285" lon="4.37245">
        <ele>485</ele>
        <time>2016-09-22T09:44:06Z</time>
      </trkpt>
      <trkpt lat="46.00287" lon="4.37234">
        <ele>484</ele>
        <time>2016-09-22T09:44:12Z</time>
      </trkpt>
      <trkpt lat="46.00288" lon="4.37232">
        <ele>484</ele>
        <time>2016-09-22T09:44:13Z</time>
      </trkpt>
      <trkpt lat="46.00289" lon="4.37221">
        <ele>484</ele>
        <time>2016-09-22T09:44:18Z</time>
      </trkpt>
      <trkpt lat="46.0029" lon="4.37219">
        <ele>484</ele>
        <time>2016-09-22T09:44:19Z</time>
      </trkpt>
      <trkpt lat="46.00294" lon="4.37208">
        <ele>483</ele>
        <time>2016-09-22T09:44:26Z</time>
      </trkpt>
      <trkpt lat="46.00294" lon="4.37207">
        <ele>483</ele>
        <time>2016-09-22T09:44:27Z</time>
      </trkpt>
      <trkpt lat="46.00298" lon="4.37196">
        <ele>483</ele>
        <time>2016-09-22T09:45:07Z</time>
      </trkpt>
      <trkpt lat="46.00298" lon="4.37194">
        <ele>483</ele>
        <time>2016-09-22T09:45:08Z</time>
      </trkpt>
      <trkpt lat="46.00299" lon="4.37182">
        <ele>483</ele>
        <time>2016-09-22T09:45:15Z</time>
      </trkpt>
      <trkpt lat="46.00299" lon="4.37181">
        <ele>483</ele>
        <time>2016-09-22T09:45:16Z</time>
      </trkpt>
      <trkpt lat="46.00298" lon="4.37169">
        <ele>483</ele>
        <time>2016-09-22T09:45:29Z</time>
      </trkpt>
      <trkpt lat="46.00298" lon="4.37167">
        <ele>483</ele>
        <time>2016-09-22T09:45:30Z</time>
      </trkpt>
      <trkpt lat="46.00298" lon="4.37154">
        <ele>481</ele>
        <time>2016-09-22T09:46:39Z</time>
      </trkpt>
      <trkpt lat="46.00299" lon="4.37153">
        <ele>481</ele>
        <time>2016-09-22T09:46:40Z</time>
      </trkpt>
      <trkpt lat="46.003" lon="4.37141">
        <ele>480</ele>
        <time>2016-09-22T09:46:47Z</time>
      </trkpt>
      <trkpt lat="46.003" lon="4.3714">
        <ele>480</ele>
        <time>2016-09-22T09:46:48Z</time>
      </trkpt>
      <trkpt lat="46.003" lon="4.37128">
        <ele>480</ele>
        <time>2016-09-22T09:46:58Z</time>
      </trkpt>
      <trkpt lat="46.003" lon="4.37126">
        <ele>480</ele>
        <time>2016-09-22T09:46:59Z</time>
      </trkpt>
      <trkpt lat="46.00299" lon="4.37114">
        <ele>479</ele>
        <time>2016-09-22T09:47:07Z</time>
      </trkpt>
      <trkpt lat="46.00299" lon="4.37112">
        <ele>479</ele>
        <time>2016-09-22T09:47:08Z</time>
      </trkpt>
      <trkpt lat="46.00302" lon="4.37103">
        <ele>478</ele>
        <time>2016-09-22T09:47:14Z</time>
      </trkpt>
      <trkpt lat="46.00303" lon="4.371">
        <ele>477</ele>
        <time>2016-09-22T09:47:15Z</time>
      </trkpt>
      <trkpt lat="46.00304" lon="4.37088">
        <ele>476</ele>
        <time>2016-09-22T09:47:20Z</time>
      </trkpt>
      <trkpt lat="46.00304" lon="4.37086">
        <ele>476</ele>
        <time>2016-09-22T09:47:21Z</time>
      </trkpt>
      <trkpt lat="46.00302" lon="4.37074">
        <ele>470</ele>
        <time>2016-09-22T09:47:27Z</time>
      </trkpt>
      <trkpt lat="46.00302" lon="4.37072">
        <ele>470</ele>
        <time>2016-09-22T09:47:28Z</time>
      </trkpt>
      <trkpt lat="46.00301" lon="4.3706">
        <ele>470</ele>
        <time>2016-09-22T09:47:36Z</time>
      </trkpt>
      <trkpt lat="46.00301" lon="4.37058">
        <ele>470</ele>
        <time>2016-09-22T09:47:37Z</time>
      </trkpt>
      <trkpt lat="46.003" lon="4.37045">
        <ele>470</ele>
        <time>2016-09-22T09:47:45Z</time>
      </trkpt>
      <trkpt lat="46.00301" lon="4.37043">
        <ele>470</ele>
        <time>2016-09-22T09:47:46Z</time>
      </trkpt>
      <trkpt lat="46.00304" lon="4.37032">
        <ele>468</ele>
        <time>2016-09-22T09:47:53Z</time>
      </trkpt>
      <trkpt lat="46.00304" lon="4.3703">
        <ele>468</ele>
        <time>2016-09-22T09:47:54Z</time>
      </trkpt>
      <trkpt lat="46.00306" lon="4.37018">
        <ele>466</ele>
        <time>2016-09-22T09:48:00Z</time>
      </trkpt>
      <trkpt lat="46.00306" lon="4.37016">
        <ele>466</ele>
        <time>2016-09-22T09:48:01Z</time>
      </trkpt>
      <trkpt lat="46.00307" lon="4.37005">
        <ele>464</ele>
        <time>2016-09-22T09:48:07Z</time>
      </trkpt>
      <trkpt lat="46.00308" lon="4.37003">
        <ele>464</ele>
        <time>2016-09-22T09:48:08Z</time>
      </trkpt>
      <trkpt lat="46.00312" lon="4.36993">
        <ele>459</ele>
        <time>2016-09-22T09:48:20Z</time>
      </trkpt>
      <trkpt lat="46.00313" lon="4.36992">
        <ele>458</ele>
        <time>2016-09-22T09:48:21Z</time>
      </trkpt>
      <trkpt lat="46.00318" lon="4.36982">
        <ele>458</ele>
        <time>2016-09-22T09:48:29Z</time>
      </trkpt>
      <trkpt lat="46.00319" lon="4.3698">
        <ele>458</ele>
        <time>2016-09-22T09:48:30Z</time>
      </trkpt>
      <trkpt lat="46.00322" lon="4.36969">
        <ele>459</ele>
        <time>2016-09-22T09:48:36Z</time>
      </trkpt>
      <trkpt lat="46.00323" lon="4.36968">
        <ele>459</ele>
        <time>2016-09-22T09:48:37Z</time>
      </trkpt>
      <trkpt lat="46.00329" lon="4.36959">
        <ele>459</ele>
        <time>2016-09-22T09:48:44Z</time>
      </trkpt>
      <trkpt lat="46.0033" lon="4.36958">
        <ele>459</ele>
        <time>2016-09-22T09:48:45Z</time>
      </trkpt>
      <trkpt lat="46.00337" lon="4.36952">
        <ele>448</ele>
        <time>2016-09-22T09:48:52Z</time>
      </trkpt>
      <trkpt lat="46.00338" lon="4.36951">
        <ele>448</ele>
        <time>2016-09-22T09:48:53Z</time>
      </trkpt>
      <trkpt lat="46.00344" lon="4.36942">
        <ele>448</ele>
        <time>2016-09-22T09:49:00Z</time>
      </trkpt>
      <trkpt lat="46.00344" lon="4.3694">
        <ele>448</ele>
        <time>2016-09-22T09:49:01Z</time>
      </trkpt>
      <trkpt lat="46.0035" lon="4.36931">
        <ele>448</ele>
        <time>2016-09-22T09:49:09Z</time>
      </trkpt>
      <trkpt lat="46.00351" lon="4.3693">
        <ele>448</ele>
        <time>2016-09-22T09:49:10Z</time>
      </trkpt>
      <trkpt lat="46.00354" lon="4.36918">
        <ele>448</ele>
        <time>2016-09-22T09:49:24Z</time>
      </trkpt>
      <trkpt lat="46.00354" lon="4.36918">
        <ele>448</ele>
        <time>2016-09-22T09:49:25Z</time>
      </trkpt>
      <trkpt lat="46.00359" lon="4.36907">
        <ele>448</ele>
        <time>2016-09-22T09:50:30Z</time>
      </trkpt>
      <trkpt lat="46.00359" lon="4.36906">
        <ele>448</ele>
        <time>2016-09-22T09:50:31Z</time>
      </trkpt>
      <trkpt lat="46.00359" lon="4.36893">
        <ele>448</ele>
        <time>2016-09-22T09:53:04Z</time>
      </trkpt>
      <trkpt lat="46.00359" lon="4.36892">
        <ele>448</ele>
        <time>2016-09-22T09:53:05Z</time>
      </trkpt>
      <trkpt lat="46.00363" lon="4.36881">
        <ele>448</ele>
        <time>2016-09-22T09:53:12Z</time>
      </trkpt>
      <trkpt lat="46.00364" lon="4.3688">
        <ele>448</ele>
        <time>2016-09-22T09:53:13Z</time>
      </trkpt>
      <trkpt lat="46.00369" lon="4.3687">
        <ele>448</ele>
        <time>2016-09-22T09:53:20Z</time>
      </trkpt>
      <trkpt lat="46.0037" lon="4.36869">
        <ele>448</ele>
        <time>2016-09-22T09:53:21Z</time>
      </trkpt>
      <trkpt lat="46.00374" lon="4.36858">
        <ele>447</ele>
        <time>2016-09-22T09:53:28Z</time>
      </trkpt>
      <trkpt lat="46.00374" lon="4.36857">
        <ele>447</ele>
        <time>2016-09-22T09:53:29Z</time>
      </trkpt>
      <trkpt lat="46.00375" lon="4.36845">
        <ele>447</ele>
        <time>2016-09-22T09:53:36Z</time>
      </trkpt>
      <trkpt lat="46.00375" lon="4.36843">
        <ele>447</ele>
        <time>2016-09-22T09:53:37Z</time>
      </trkpt>
      <trkpt lat="46.0038" lon="4.36832">
        <ele>448</ele>
        <time>2016-09-22T09:53:44Z</time>
      </trkpt>
      <trkpt lat="46.00381" lon="4.3683">
        <ele>448</ele>
        <time>2016-09-22T09:53:45Z</time>
      </trkpt>
      <trkpt lat="46.00385" lon="4.3682">
        <ele>448</ele>
        <time>2016-09-22T09:53:51Z</time>
      </trkpt>
      <trkpt lat="46.00385" lon="4.36818">
        <ele>448</ele>
        <time>2016-09-22T09:53:52Z</time>
      </trkpt>
      <trkpt lat="46.0039" lon="4.36808">
        <ele>448</ele>
        <time>2016-09-22T09:53:59Z</time>
      </trkpt>
      <trkpt lat="46.00391" lon="4.36807">
        <ele>448</ele>
        <time>2016-09-22T09:54:00Z</time>
      </trkpt>
      <trkpt lat="46.00395" lon="4.36798">
        <ele>448</ele>
        <time>2016-09-22T09:54:06Z</time>
      </trkpt>
      <trkpt lat="46.00396" lon="4.36796">
        <ele>448</ele>
        <time>2016-09-22T09:54:07Z</time>
      </trkpt>
      <trkpt lat="46.00402" lon="4.36789">
        <ele>448</ele>
        <time>2016-09-22T09:54:12Z</time>
      </trkpt>
      <trkpt lat="46.00403" lon="4.36787">
        <ele>448</ele>
        <time>2016-09-22T09:54:13Z</time>
      </trkpt>
      <trkpt lat="46.00408" lon="4.36779">
        <ele>447</ele>
        <time>2016-09-22T09:54:18Z</time>
      </trkpt>
      <trkpt lat="46.00409" lon="4.36777">
        <ele>447</ele>
        <time>2016-09-22T09:54:19Z</time>
      </trkpt>
      <trkpt lat="46.00414" lon="4.36769">
        <ele>447</ele>
        <time>2016-09-22T09:54:24Z</time>
      </trkpt>
      <trkpt lat="46.00415" lon="4.36767">
        <ele>447</ele>
        <time>2016-09-22T09:54:25Z</time>
      </trkpt>
      <trkpt lat="46.00419" lon="4.36758">
        <ele>445</ele>
        <time>2016-09-22T09:54:30Z</time>
      </trkpt>
      <trkpt lat="46.0042" lon="4.36756">
        <ele>445</ele>
        <time>2016-09-22T09:54:31Z</time>
      </trkpt>
      <trkpt lat="46.00424" lon="4.36746">
        <ele>444</ele>
        <time>2016-09-22T09:54:37Z</time>
      </trkpt>
      <trkpt lat="46.00425" lon="4.36744">
        <ele>444</ele>
        <time>2016-09-22T09:54:38Z</time>
      </trkpt>
      <trkpt lat="46.00429" lon="4.36734">
        <ele>444</ele>
        <time>2016-09-22T09:54:45Z</time>
      </trkpt>
      <trkpt lat="46.00429" lon="4.36732">
        <ele>444</ele>
        <time>2016-09-22T09:54:46Z</time>
      </trkpt>
      <trkpt lat="46.00433" lon="4.36721">
        <ele>444</ele>
        <time>2016-09-22T09:54:53Z</time>
      </trkpt>
      <trkpt lat="46.00434" lon="4.3672">
        <ele>444</ele>
        <time>2016-09-22T09:54:54Z</time>
      </trkpt>
      <trkpt lat="46.00438" lon="4.36709">
        <ele>444</ele>
        <time>2016-09-22T09:55:02Z</time>
      </trkpt>
      <trkpt lat="46.00439" lon="4.36708">
        <ele>444</ele>
        <time>2016-09-22T09:55:03Z</time>
      </trkpt>
      <trkpt lat="46.00444" lon="4.36699">
        <ele>444</ele>
        <time>2016-09-22T09:55:09Z</time>
      </trkpt>
      <trkpt lat="46.00445" lon="4.36698">
        <ele>444</ele>
        <time>2016-09-22T09:55:10Z</time>
      </trkpt>
      <trkpt lat="46.00452" lon="4.36689">
        <ele>444</ele>
        <time>2016-09-22T09:55:16Z</time>
      </trkpt>
      <trkpt lat="46.00453" lon="4.36688">
        <ele>444</ele>
        <time>2016-09-22T09:55:17Z</time>
      </trkpt>
      <trkpt lat="46.00459" lon="4.3668">
        <ele>443</ele>
        <time>2016-09-22T09:55:23Z</time>
      </trkpt>
      <trkpt lat="46.00461" lon="4.36679">
        <ele>443</ele>
        <time>2016-09-22T09:55:24Z</time>
      </trkpt>
      <trkpt lat="46.00466" lon="4.36671">
        <ele>443</ele>
        <time>2016-09-22T09:55:30Z</time>
      </trkpt>
      <trkpt lat="46.00467" lon="4.36669">
        <ele>443</ele>
        <time>2016-09-22T09:55:31Z</time>
      </trkpt>
      <trkpt lat="46.00473" lon="4.36663">
        <ele>443</ele>
        <time>2016-09-22T09:55:37Z</time>
      </trkpt>
      <trkpt lat="46.00475" lon="4.36662">
        <ele>443</ele>
        <time>2016-09-22T09:55:38Z</time>
      </trkpt>
      <trkpt lat="46.00481" lon="4.36654">
        <ele>443</ele>
        <time>2016-09-22T09:55:44Z</time>
      </trkpt>
      <trkpt lat="46.00482" lon="4.36652">
        <ele>443</ele>
        <time>2016-09-22T09:55:45Z</time>
      </trkpt>
      <trkpt lat="46.00489" lon="4.36645">
        <ele>443</ele>
        <time>2016-09-22T09:55:52Z</time>
      </trkpt>
      <trkpt lat="46.0049" lon="4.36644">
        <ele>443</ele>
        <time>2016-09-22T09:55:53Z</time>
      </trkpt>
      <trkpt lat="46.00497" lon="4.36636">
        <ele>443</ele>
        <time>2016-09-22T09:55:59Z</time>
      </trkpt>
      <trkpt lat="46.00498" lon="4.36635">
        <ele>443</ele>
        <time>2016-09-22T09:56:00Z</time>
      </trkpt>
      <trkpt lat="46.00503" lon="4.36626">
        <ele>441</ele>
        <time>2016-09-22T09:56:07Z</time>
      </trkpt>
      <trkpt lat="46.00504" lon="4.36625">
        <ele>441</ele>
        <time>2016-09-22T09:56:08Z</time>
      </trkpt>
      <trkpt lat="46.00503" lon="4.36613">
        <ele>441</ele>
        <time>2016-09-22T09:56:15Z</time>
      </trkpt>
      <trkpt lat="46.00502" lon="4.36611">
        <ele>441</ele>
        <time>2016-09-22T09:56:16Z</time>
      </trkpt>
      <trkpt lat="46.00497" lon="4.36602">
        <ele>444</ele>
        <time>2016-09-22T09:56:23Z</time>
      </trkpt>
      <trkpt lat="46.00496" lon="4.366">
        <ele>444</ele>
        <time>2016-09-22T09:56:24Z</time>
      </trkpt>
      <trkpt lat="46.0049" lon="4.36591">
        <ele>444</ele>
        <time>2016-09-22T09:56:31Z</time>
      </trkpt>
      <trkpt lat="46.00489" lon="4.3659">
        <ele>444</ele>
        <time>2016-09-22T09:56:32Z</time>
      </trkpt>
      <trkpt lat="46.00484" lon="4.36582">
        <ele>443</ele>
        <time>2016-09-22T09:56:48Z</time>
      </trkpt>
      <trkpt lat="46.00482" lon="4.36581">
        <ele>443</ele>
        <time>2016-09-22T09:56:49Z</time>
      </trkpt>
      <trkpt lat="46.00476" lon="4.36573">
        <ele>443</ele>
        <time>2016-09-22T09:56:55Z</time>
      </trkpt>
      <trkpt lat="46.00475" lon="4.36572">
        <ele>443</ele>
        <time>2016-09-22T09:56:56Z</time>
      </trkpt>
      <trkpt lat="46.0047" lon="4.36562">
        <ele>444</ele>
        <time>2016-09-22T09:57:02Z</time>
      </trkpt>
      <trkpt lat="46.00469" lon="4.36561">
        <ele>444</ele>
        <time>2016-09-22T09:57:03Z</time>
      </trkpt>
      <trkpt lat="46.00464" lon="4.36551">
        <ele>444</ele>
        <time>2016-09-22T09:57:10Z</time>
      </trkpt>
      <trkpt lat="46.00463" lon="4.3655">
        <ele>444</ele>
        <time>2016-09-22T09:57:11Z</time>
      </trkpt>
      <trkpt lat="46.00457" lon="4.36541">
        <ele>444</ele>
        <time>2016-09-22T09:57:18Z</time>
      </trkpt>
      <trkpt lat="46.00456" lon="4.3654">
        <ele>444</ele>
        <time>2016-09-22T09:57:19Z</time>
      </trkpt>
      <trkpt lat="46.0045" lon="4.36532">
        <ele>444</ele>
        <time>2016-09-22T09:57:26Z</time>
      </trkpt>
      <trkpt lat="46.00449" lon="4.36531">
        <ele>444</ele>
        <time>2016-09-22T09:57:27Z</time>
      </trkpt>
      <trkpt lat="46.00443" lon="4.36524">
        <ele>444</ele>
        <time>2016-09-22T09:57:33Z</time>
      </trkpt>
      <trkpt lat="46.00442" lon="4.36523">
        <ele>444</ele>
        <time>2016-09-22T09:57:34Z</time>
      </trkpt>
      <trkpt lat="46.00434" lon="4.36518">
        <ele>444</ele>
        <time>2016-09-22T09:57:42Z</time>
      </trkpt>
      <trkpt lat="46.00433" lon="4.36518">
        <ele>444</ele>
        <time>2016-09-22T09:57:43Z</time>
      </trkpt>
      <trkpt lat="46.00425" lon="4.36513">
        <ele>444</ele>
        <time>2016-09-22T09:57:51Z</time>
      </trkpt>
      <trkpt lat="46.00424" lon="4.36512">
        <ele>444</ele>
        <time>2016-09-22T09:57:52Z</time>
      </trkpt>
      <trkpt lat="46.00416" lon="4.36509">
        <ele>446</ele>
        <time>2016-09-22T09:57:58Z</time>
      </trkpt>
      <trkpt lat="46.00415" lon="4.36508">
        <ele>446</ele>
        <time>2016-09-22T09:57:59Z</time>
      </trkpt>
      <trkpt lat="46.00407" lon="4.36504">
        <ele>447</ele>
        <time>2016-09-22T09:58:05Z</time>
      </trkpt>
      <trkpt lat="46.00406" lon="4.36503">
        <ele>447</ele>
        <time>2016-09-22T09:58:06Z</time>
      </trkpt>
      <trkpt lat="46.00399" lon="4.36498">
        <ele>445</ele>
        <time>2016-09-22T09:58:12Z</time>
      </trkpt>
      <trkpt lat="46.00397" lon="4.36497">
        <ele>445</ele>
        <time>2016-09-22T09:58:13Z</time>
      </trkpt>
      <trkpt lat="46.00389" lon="4.36494">
        <ele>445</ele>
        <time>2016-09-22T09:58:19Z</time>
      </trkpt>
      <trkpt lat="46.00388" lon="4.36493">
        <ele>445</ele>
        <time>2016-09-22T09:58:20Z</time>
      </trkpt>
      <trkpt lat="46.0038" lon="4.36488">
        <ele>446</ele>
        <time>2016-09-22T09:58:26Z</time>
      </trkpt>
      <trkpt lat="46.00379" lon="4.36487">
        <ele>446</ele>
        <time>2016-09-22T09:58:27Z</time>
      </trkpt>
      <trkpt lat="46.00371" lon="4.3648">
        <ele>446</ele>
        <time>2016-09-22T09:58:34Z</time>
      </trkpt>
      <trkpt lat="46.0037" lon="4.36479">
        <ele>446</ele>
        <time>2016-09-22T09:58:35Z</time>
      </trkpt>
      <trkpt lat="46.00363" lon="4.36474">
        <ele>446</ele>
        <time>2016-09-22T09:58:55Z</time>
      </trkpt>
      <trkpt lat="46.00362" lon="4.36472">
        <ele>446</ele>
        <time>2016-09-22T09:58:56Z</time>
      </trkpt>
      <trkpt lat="46.00358" lon="4.36462">
        <ele>445</ele>
        <time>2016-09-22T09:59:02Z</time>
      </trkpt>
      <trkpt lat="46.00357" lon="4.3646">
        <ele>445</ele>
        <time>2016-09-22T09:59:03Z</time>
      </trkpt>
      <trkpt lat="46.00355" lon="4.36449">
        <ele>445</ele>
        <time>2016-09-22T09:59:09Z</time>
      </trkpt>
      <trkpt lat="46.00355" lon="4.36447">
        <ele>445</ele>
        <time>2016-09-22T09:59:10Z</time>
      </trkpt>
      <trkpt lat="46.00351" lon="4.36436">
        <ele>444</ele>
        <time>2016-09-22T09:59:16Z</time>
      </trkpt>
      <trkpt lat="46.00351" lon="4.36434">
        <ele>444</ele>
        <time>2016-09-22T09:59:17Z</time>
      </trkpt>
      <trkpt lat="46.00347" lon="4.36424">
        <ele>444</ele>
        <time>2016-09-22T09:59:23Z</time>
      </trkpt>
      <trkpt lat="46.00346" lon="4.36423">
        <ele>444</ele>
        <time>2016-09-22T09:59:24Z</time>
      </trkpt>
      <trkpt lat="46.00344" lon="4.36411">
        <ele>442</ele>
        <time>2016-09-22T09:59:31Z</time>
      </trkpt>
      <trkpt lat="46.00344" lon="4.36409">
        <ele>442</ele>
        <time>2016-09-22T09:59:32Z</time>
      </trkpt>
      <trkpt lat="46.0034" lon="4.36398">
        <ele>441</ele>
        <time>2016-09-22T09:59:40Z</time>
      </trkpt>
      <trkpt lat="46.00339" lon="4.36397">
        <ele>441</ele>
        <time>2016-09-22T09:59:41Z</time>
      </trkpt>
      <trkpt lat="46.00337" lon="4.36385">
        <ele>441</ele>
        <time>2016-09-22T09:59:48Z</time>
      </trkpt>
      <trkpt lat="46.00338" lon="4.36384">
        <ele>441</ele>
        <time>2016-09-22T09:59:49Z</time>
      </trkpt>
      <trkpt lat="46.00341" lon="4.36372">
        <ele>440</ele>
        <time>2016-09-22T09:59:56Z</time>
      </trkpt>
      <trkpt lat="46.00341" lon="4.36371">
        <ele>440</ele>
        <time>2016-09-22T09:59:57Z</time>
      </trkpt>
      <trkpt lat="46.00344" lon="4.36359">
        <ele>440</ele>
        <time>2016-09-22T10:00:03Z</time>
      </trkpt>
      <trkpt lat="46.00345" lon="4.36358">
        <ele>440</ele>
        <time>2016-09-22T10:00:04Z</time>
      </trkpt>
      <trkpt lat="46.00349" lon="4.36347">
        <ele>440</ele>
        <time>2016-09-22T10:00:10Z</time>
      </trkpt>
      <trkpt lat="46.00349" lon="4.36345">
        <ele>440</ele>
        <time>2016-09-22T10:00:11Z</time>
      </trkpt>
      <trkpt lat="46.0035" lon="4.36332">
        <ele>438</ele>
        <time>2016-09-22T10:00:17Z</time>
      </trkpt>
      <trkpt lat="46.0035" lon="4.3633">
        <ele>438</ele>
        <time>2016-09-22T10:00:18Z</time>
      </trkpt>
      <trkpt lat="46.00353" lon="4.36319">
        <ele>438</ele>
        <time>2016-09-22T10:00:24Z</time>
      </trkpt>
      <trkpt lat="46.00353" lon="4.36317">
        <ele>438</ele>
        <time>2016-09-22T10:00:25Z</time>
      </trkpt>
      <trkpt lat="46.00356" lon="4.36306">
        <ele>437</ele>
        <time>2016-09-22T10:00:31Z</time>
      </trkpt>
      <trkpt lat="46.00356" lon="4.36305">
        <ele>437</ele>
        <time>2016-09-22T10:00:32Z</time>
      </trkpt>
      <trkpt lat="46.00359" lon="4.36294">
        <ele>437</ele>
        <time>2016-09-22T10:00:38Z</time>
      </trkpt>
      <trkpt lat="46.0036" lon="4.36292">
        <ele>437</ele>
        <time>2016-09-22T10:00:39Z</time>
      </trkpt>
      <trkpt lat="46.00362" lon="4.36281">
        <ele>437</ele>
        <time>2016-09-22T10:00:45Z</time>
      </trkpt>
      <trkpt lat="46.00363" lon="4.36279">
        <ele>437</ele>
        <time>2016-09-22T10:00:46Z</time>
      </trkpt>
      <trkpt lat="46.00365" lon="4.36269">
        <ele>436</ele>
        <time>2016-09-22T10:00:52Z</time>
      </trkpt>
      <trkpt lat="46.00366" lon="4.36267">
        <ele>436</ele>
        <time>2016-09-22T10:00:53Z</time>
      </trkpt>
      <trkpt lat="46.00368" lon="4.36254">
        <ele>436</ele>
        <time>2016-09-22T10:00:59Z</time>
      </trkpt>
      <trkpt lat="46.00368" lon="4.36252">
        <ele>436</ele>
        <time>2016-09-22T10:01:00Z</time>
      </trkpt>
      <trkpt lat="46.0037" lon="4.36241">
        <ele>435</ele>
        <time>2016-09-22T10:01:06Z</time>
      </trkpt>
      <trkpt lat="46.0037" lon="4.36239">
        <ele>435</ele>
        <time>2016-09-22T10:01:07Z</time>
      </trkpt>
      <trkpt lat="46.00372" lon="4.36227">
        <ele>435</ele>
        <time>2016-09-22T10:01:14Z</time>
      </trkpt>
      <trkpt lat="46.00373" lon="4.36225">
        <ele>435</ele>
        <time>2016-09-22T10:01:15Z</time>
      </trkpt>
      <trkpt lat="46.00376" lon="4.36213">
        <ele>436</ele>
        <time>2016-09-22T10:01:22Z</time>
      </trkpt>
      <trkpt lat="46.00376" lon="4.36211">
        <ele>436</ele>
        <time>2016-09-22T10:01:23Z</time>
      </trkpt>
      <trkpt lat="46.00378" lon="4.362">
        <ele>436</ele>
        <time>2016-09-22T10:01:29Z</time>
      </trkpt>
      <trkpt lat="46.00379" lon="4.36198">
        <ele>436</ele>
        <time>2016-09-22T10:01:30Z</time>
      </trkpt>
      <trkpt lat="46.00382" lon="4.36187">
        <ele>436</ele>
        <time>2016-09-22T10:01:36Z</time>
      </trkpt>
      <trkpt lat="46.00382" lon="4.36185">
        <ele>436</ele>
        <time>2016-09-22T10:01:37Z</time>
      </trkpt>
      <trkpt lat="46.00385" lon="4.36174">
        <ele>436</ele>
        <time>2016-09-22T10:01:43Z</time>
      </trkpt>
      <trkpt lat="46.00386" lon="4.36172">
        <ele>437</ele>
        <time>2016-09-22T10:01:44Z</time>
      </trkpt>
      <trkpt lat="46.00389" lon="4.36162">
        <ele>437</ele>
        <time>2016-09-22T10:01:50Z</time>
      </trkpt>
      <trkpt lat="46.00389" lon="4.3616">
        <ele>438</ele>
        <time>2016-09-22T10:01:51Z</time>
      </trkpt>
      <trkpt lat="46.00392" lon="4.3615">
        <ele>438</ele>
        <time>2016-09-22T10:01:57Z</time>
      </trkpt>
      <trkpt lat="46.00392" lon="4.36148">
        <ele>438</ele>
        <time>2016-09-22T10:01:58Z</time>
      </trkpt>
      <trkpt lat="46.00394" lon="4.36136">
        <ele>438</ele>
        <time>2016-09-22T10:02:07Z</time>
      </trkpt>
      <trkpt lat="46.00394" lon="4.36135">
        <ele>438</ele>
        <time>2016-09-22T10:02:08Z</time>
      </trkpt>
      <trkpt lat="46.00398" lon="4.36124">
        <ele>438</ele>
        <time>2016-09-22T10:02:18Z</time>
      </trkpt>
      <trkpt lat="46.00399" lon="4.36123">
        <ele>438</ele>
        <time>2016-09-22T10:02:19Z</time>
      </trkpt>
      <trkpt lat="46.00408" lon="4.36126">
        <ele>438</ele>
        <time>2016-09-22T10:02:45Z</time>
      </trkpt>
      <trkpt lat="46.00409" lon="4.36126">
        <ele>438</ele>
        <time>2016-09-22T10:02:46Z</time>
      </trkpt>
      <trkpt lat="46.00417" lon="4.36131">
        <ele>444</ele>
        <time>2016-09-22T10:02:54Z</time>
      </trkpt>
      <trkpt lat="46.00418" lon="4.36131">
        <ele>444</ele>
        <time>2016-09-22T10:02:55Z</time>
      </trkpt>
      <trkpt lat="46.00426" lon="4.36136">
        <ele>444</ele>
        <time>2016-09-22T10:03:03Z</time>
      </trkpt>
      <trkpt lat="46.00427" lon="4.36137">
        <ele>444</ele>
        <time>2016-09-22T10:03:04Z</time>
      </trkpt>
      <trkpt lat="46.00435" lon="4.36143">
        <ele>444</ele>
        <time>2016-09-22T10:03:11Z</time>
      </trkpt>
      <trkpt lat="46.00436" lon="4.36144">
        <ele>444</ele>
        <time>2016-09-22T10:03:12Z</time>
      </trkpt>
      <trkpt lat="46.00443" lon="4.3615">
        <ele>444</ele>
        <time>2016-09-22T10:03:18Z</time>
      </trkpt>
      <trkpt lat="46.00444" lon="4.36151">
        <ele>444</ele>
        <time>2016-09-22T10:03:19Z</time>
      </trkpt>
      <trkpt lat="46.00452" lon="4.36157">
        <ele>445</ele>
        <time>2016-09-22T10:03:25Z</time>
      </trkpt>
      <trkpt lat="46.00453" lon="4.36157">
        <ele>445</ele>
        <time>2016-09-22T10:03:26Z</time>
      </trkpt>
      <trkpt lat="46.0046" lon="4.36163">
        <ele>445</ele>
        <time>2016-09-22T10:03:32Z</time>
      </trkpt>
      <trkpt lat="46.00461" lon="4.36163">
        <ele>446</ele>
        <time>2016-09-22T10:03:33Z</time>
      </trkpt>
      <trkpt lat="46.0047" lon="4.36166">
        <ele>446</ele>
        <time>2016-09-22T10:03:40Z</time>
      </trkpt>
      <trkpt lat="46.00471" lon="4.36166">
        <ele>446</ele>
        <time>2016-09-22T10:03:41Z</time>
      </trkpt>
      <trkpt lat="46.00478" lon="4.36168">
        <ele>445</ele>
        <time>2016-09-22T10:03:47Z</time>
      </trkpt>
      <trkpt lat="46.0048" lon="4.36168">
        <ele>445</ele>
        <time>2016-09-22T10:03:48Z</time>
      </trkpt>
      <trkpt lat="46.00487" lon="4.36172">
        <ele>446</ele>
        <time>2016-09-22T10:03:54Z</time>
      </trkpt>
      <trkpt lat="46.00488" lon="4.36172">
        <ele>446</ele>
        <time>2016-09-22T10:03:55Z</time>
      </trkpt>
      <trkpt lat="46.00495" lon="4.36177">
        <ele>446</ele>
        <time>2016-09-22T10:04:02Z</time>
      </trkpt>
      <trkpt lat="46.00496" lon="4.36177">
        <ele>446</ele>
        <time>2016-09-22T10:04:03Z</time>
      </trkpt>
      <trkpt lat="46.00504" lon="4.36183">
        <ele>447</ele>
        <time>2016-09-22T10:04:10Z</time>
      </trkpt>
      <trkpt lat="46.00505" lon="4.36183">
        <ele>447</ele>
        <time>2016-09-22T10:04:11Z</time>
      </trkpt>
      <trkpt lat="46.00512" lon="4.36188">
        <ele>447</ele>
        <time>2016-09-22T10:04:17Z</time>
      </trkpt>
      <trkpt lat="46.00513" lon="4.36189">
        <ele>446</ele>
        <time>2016-09-22T10:04:18Z</time>
      </trkpt>
      <trkpt lat="46.00521" lon="4.36195">
        <ele>446</ele>
        <time>2016-09-22T10:04:24Z</time>
      </trkpt>
      <trkpt lat="46.00522" lon="4.36196">
        <ele>446</ele>
        <time>2016-09-22T10:04:25Z</time>
      </trkpt>
      <trkpt lat="46.00529" lon="4.362">
        <ele>446</ele>
        <time>2016-09-22T10:04:31Z</time>
      </trkpt>
      <trkpt lat="46.00531" lon="4.36201">
        <ele>446</ele>
        <time>2016-09-22T10:04:32Z</time>
      </trkpt>
      <trkpt lat="46.00538" lon="4.36206">
        <ele>446</ele>
        <time>2016-09-22T10:04:38Z</time>
      </trkpt>
      <trkpt lat="46.00539" lon="4.36207">
        <ele>446</ele>
        <time>2016-09-22T10:04:39Z</time>
      </trkpt>
      <trkpt lat="46.00547" lon="4.36211">
        <ele>445</ele>
        <time>2016-09-22T10:04:46Z</time>
      </trkpt>
      <trkpt lat="46.00549" lon="4.36212">
        <ele>445</ele>
        <time>2016-09-22T10:04:47Z</time>
      </trkpt>
      <trkpt lat="46.00556" lon="4.36216">
        <ele>445</ele>
        <time>2016-09-22T10:04:54Z</time>
      </trkpt>
      <trkpt lat="46.00557" lon="4.36217">
        <ele>445</ele>
        <time>2016-09-22T10:04:55Z</time>
      </trkpt>
      <trkpt lat="46.00566" lon="4.36219">
        <ele>445</ele>
        <time>2016-09-22T10:05:02Z</time>
      </trkpt>
      <trkpt lat="46.00567" lon="4.36219">
        <ele>445</ele>
        <time>2016-09-22T10:05:03Z</time>
      </trkpt>
      <trkpt lat="46.00575" lon="4.36221">
        <ele>445</ele>
        <time>2016-09-22T10:05:09Z</time>
      </trkpt>
      <trkpt lat="46.00576" lon="4.36221">
        <ele>445</ele>
        <time>2016-09-22T10:05:10Z</time>
      </trkpt>
      <trkpt lat="46.00585" lon="4.36224">
        <ele>447</ele>
        <time>2016-09-22T10:05:16Z</time>
      </trkpt>
      <trkpt lat="46.00586" lon="4.36224">
        <ele>447</ele>
        <time>2016-09-22T10:05:17Z</time>
      </trkpt>
      <trkpt lat="46.00594" lon="4.36226">
        <ele>447</ele>
        <time>2016-09-22T10:05:23Z</time>
      </trkpt>
      <trkpt lat="46.00595" lon="4.36227">
        <ele>447</ele>
        <time>2016-09-22T10:05:24Z</time>
      </trkpt>
      <trkpt lat="46.00603" lon="4.36231">
        <ele>447</ele>
        <time>2016-09-22T10:05:31Z</time>
      </trkpt>
      <trkpt lat="46.00604" lon="4.36231">
        <ele>447</ele>
        <time>2016-09-22T10:05:32Z</time>
      </trkpt>
      <trkpt lat="46.00612" lon="4.36233">
        <ele>447</ele>
        <time>2016-09-22T10:05:38Z</time>
      </trkpt>
      <trkpt lat="46.00613" lon="4.36234">
        <ele>447</ele>
        <time>2016-09-22T10:05:39Z</time>
      </trkpt>
      <trkpt lat="46.00622" lon="4.36235">
        <ele>447</ele>
        <time>2016-09-22T10:05:45Z</time>
      </trkpt>
      <trkpt lat="46.00624" lon="4.36236">
        <ele>447</ele>
        <time>2016-09-22T10:05:46Z</time>
      </trkpt>
      <trkpt lat="46.00631" lon="4.36239">
        <ele>447</ele>
        <time>2016-09-22T10:05:52Z</time>
      </trkpt>
      <trkpt lat="46.00633" lon="4.36239">
        <ele>447</ele>
        <time>2016-09-22T10:05:53Z</time>
      </trkpt>
      <trkpt lat="46.0064" lon="4.36244">
        <ele>447</ele>
        <time>2016-09-22T10:05:59Z</time>
      </trkpt>
      <trkpt lat="46.00641" lon="4.36245">
        <ele>447</ele>
        <time>2016-09-22T10:06:00Z</time>
      </trkpt>
      <trkpt lat="46.00648" lon="4.3625">
        <ele>447</ele>
        <time>2016-09-22T10:06:06Z</time>
      </trkpt>
      <trkpt lat="46.00649" lon="4.3625">
        <ele>445</ele>
        <time>2016-09-22T10:06:07Z</time>
      </trkpt>
      <trkpt lat="46.00657" lon="4.36254">
        <ele>445</ele>
        <time>2016-09-22T10:06:13Z</time>
      </trkpt>
      <trkpt lat="46.00658" lon="4.36254">
        <ele>445</ele>
        <time>2016-09-22T10:06:14Z</time>
      </trkpt>
      <trkpt lat="46.00666" lon="4.36258">
        <ele>446</ele>
        <time>2016-09-22T10:06:20Z</time>
      </trkpt>
      <trkpt lat="46.00667" lon="4.36259">
        <ele>447</ele>
        <time>2016-09-22T10:06:21Z</time>
      </trkpt>
      <trkpt lat="46.00675" lon="4.36263">
        <ele>446</ele>
        <time>2016-09-22T10:06:28Z</time>
      </trkpt>
      <trkpt lat="46.00676" lon="4.36264">
        <ele>446</ele>
        <time>2016-09-22T10:06:29Z</time>
      </trkpt>
      <trkpt lat="46.00683" lon="4.36269">
        <ele>446</ele>
        <time>2016-09-22T10:06:35Z</time>
      </trkpt>
      <trkpt lat="46.00684" lon="4.3627">
        <ele>446</ele>
        <time>2016-09-22T10:06:36Z</time>
      </trkpt>
      <trkpt lat="46.00691" lon="4.36277">
        <ele>446</ele>
        <time>2016-09-22T10:06:44Z</time>
      </trkpt>
      <trkpt lat="46.00692" lon="4.36278">
        <ele>446</ele>
        <time>2016-09-22T10:06:45Z</time>
      </trkpt>
      <trkpt lat="46.00699" lon="4.36283">
        <ele>446</ele>
        <time>2016-09-22T10:06:51Z</time>
      </trkpt>
      <trkpt lat="46.007" lon="4.36284">
        <ele>446</ele>
        <time>2016-09-22T10:06:52Z</time>
      </trkpt>
      <trkpt lat="46.00707" lon="4.36291">
        <ele>446</ele>
        <time>2016-09-22T10:06:58Z</time>
      </trkpt>
      <trkpt lat="46.00708" lon="4.36293">
        <ele>446</ele>
        <time>2016-09-22T10:06:59Z</time>
      </trkpt>
      <trkpt lat="46.00712" lon="4.36301">
        <ele>446</ele>
        <time>2016-09-22T10:07:04Z</time>
      </trkpt>
      <trkpt lat="46.00713" lon="4.36303">
        <ele>446</ele>
        <time>2016-09-22T10:07:05Z</time>
      </trkpt>
      <trkpt lat="46.00718" lon="4.36313">
        <ele>446</ele>
        <time>2016-09-22T10:07:11Z</time>
      </trkpt>
      <trkpt lat="46.00718" lon="4.36315">
        <ele>446</ele>
        <time>2016-09-22T10:07:12Z</time>
      </trkpt>
      <trkpt lat="46.00723" lon="4.36325">
        <ele>446</ele>
        <time>2016-09-22T10:07:18Z</time>
      </trkpt>
      <trkpt lat="46.00724" lon="4.36326">
        <ele>446</ele>
        <time>2016-09-22T10:07:19Z</time>
      </trkpt>
      <trkpt lat="46.00731" lon="4.36335">
        <ele>445</ele>
        <time>2016-09-22T10:07:27Z</time>
      </trkpt>
      <trkpt lat="46.00731" lon="4.36336">
        <ele>445</ele>
        <time>2016-09-22T10:07:28Z</time>
      </trkpt>
      <trkpt lat="46.00735" lon="4.36346">
        <ele>445</ele>
        <time>2016-09-22T10:07:33Z</time>
      </trkpt>
      <trkpt lat="46.00736" lon="4.36348">
        <ele>445</ele>
        <time>2016-09-22T10:07:34Z</time>
      </trkpt>
      <trkpt lat="46.0074" lon="4.36358">
        <ele>445</ele>
        <time>2016-09-22T10:07:40Z</time>
      </trkpt>
      <trkpt lat="46.00741" lon="4.36359">
        <ele>445</ele>
        <time>2016-09-22T10:07:41Z</time>
      </trkpt>
      <trkpt lat="46.00745" lon="4.36369">
        <ele>445</ele>
        <time>2016-09-22T10:07:47Z</time>
      </trkpt>
      <trkpt lat="46.00746" lon="4.36371">
        <ele>445</ele>
        <time>2016-09-22T10:07:48Z</time>
      </trkpt>
      <trkpt lat="46.0075" lon="4.3638">
        <ele>444</ele>
        <time>2016-09-22T10:07:54Z</time>
      </trkpt>
      <trkpt lat="46.0075" lon="4.36382">
        <ele>450</ele>
        <time>2016-09-22T10:07:55Z</time>
      </trkpt>
      <trkpt lat="46.00754" lon="4.36393">
        <ele>450</ele>
        <time>2016-09-22T10:08:03Z</time>
      </trkpt>
      <trkpt lat="46.00754" lon="4.36395">
        <ele>450</ele>
        <time>2016-09-22T10:08:04Z</time>
      </trkpt>
      <trkpt lat="46.00757" lon="4.36405">
        <ele>449</ele>
        <time>2016-09-22T10:08:11Z</time>
      </trkpt>
      <trkpt lat="46.00758" lon="4.36407">
        <ele>448</ele>
        <time>2016-09-22T10:08:12Z</time>
      </trkpt>
      <trkpt lat="46.0076" lon="4.36419">
        <ele>448</ele>
        <time>2016-09-22T10:08:19Z</time>
      </trkpt>
      <trkpt lat="46.0076" lon="4.36421">
        <ele>448</ele>
        <time>2016-09-22T10:08:20Z</time>
      </trkpt>
      <trkpt lat="46.00761" lon="4.36433">
        <ele>450</ele>
        <time>2016-09-22T10:08:28Z</time>
      </trkpt>
      <trkpt lat="46.00761" lon="4.36435">
        <ele>450</ele>
        <time>2016-09-22T10:08:29Z</time>
      </trkpt>
      <trkpt lat="46.00763" lon="4.36446">
        <ele>451</ele>
        <time>2016-09-22T10:08:36Z</time>
      </trkpt>
      <trkpt lat="46.00763" lon="4.36448">
        <ele>451</ele>
        <time>2016-09-22T10:08:37Z</time>
      </trkpt>
      <trkpt lat="46.00765" lon="4.3646">
        <ele>451</ele>
        <time>2016-09-22T10:08:44Z</time>
      </trkpt>
      <trkpt lat="46.00765" lon="4.36462">
        <ele>451</ele>
        <time>2016-09-22T10:08:45Z</time>
      </trkpt>
      <trkpt lat="46.00767" lon="4.36474">
        <ele>451</ele>
        <time>2016-09-22T10:08:51Z</time>
      </trkpt>
      <trkpt lat="46.00767" lon="4.36476">
        <ele>451</ele>
        <time>2016-09-22T10:08:52Z</time>
      </trkpt>
      <trkpt lat="46.00768" lon="4.36487">
        <ele>451</ele>
        <time>2016-09-22T10:08:59Z</time>
      </trkpt>
      <trkpt lat="46.00767" lon="4.36489">
        <ele>451</ele>
        <time>2016-09-22T10:09:00Z</time>
      </trkpt>
      <trkpt lat="46.0077" lon="4.365">
        <ele>450</ele>
        <time>2016-09-22T10:09:08Z</time>
      </trkpt>
      <trkpt lat="46.0077" lon="4.36502">
        <ele>450</ele>
        <time>2016-09-22T10:09:09Z</time>
      </trkpt>
      <trkpt lat="46.00772" lon="4.36512">
        <ele>451</ele>
        <time>2016-09-22T10:09:15Z</time>
      </trkpt>
      <trkpt lat="46.00773" lon="4.36514">
        <ele>451</ele>
        <time>2016-09-22T10:09:16Z</time>
      </trkpt>
      <trkpt lat="46.00776" lon="4.36526">
        <ele>451</ele>
        <time>2016-09-22T10:09:23Z</time>
      </trkpt>
      <trkpt lat="46.00776" lon="4.36528">
        <ele>451</ele>
        <time>2016-09-22T10:09:24Z</time>
      </trkpt>
      <trkpt lat="46.00778" lon="4.36539">
        <ele>451</ele>
        <time>2016-09-22T10:09:30Z</time>
      </trkpt>
      <trkpt lat="46.00778" lon="4.3654">
        <ele>451</ele>
        <time>2016-09-22T10:09:31Z</time>
      </trkpt>
      <trkpt lat="46.0078" lon="4.36552">
        <ele>451</ele>
        <time>2016-09-22T10:09:37Z</time>
      </trkpt>
      <trkpt lat="46.0078" lon="4.36555">
        <ele>451</ele>
        <time>2016-09-22T10:09:38Z</time>
      </trkpt>
      <trkpt lat="46.00782" lon="4.36567">
        <ele>450</ele>
        <time>2016-09-22T10:09:44Z</time>
      </trkpt>
      <trkpt lat="46.00782" lon="4.36569">
        <ele>450</ele>
        <time>2016-09-22T10:09:45Z</time>
      </trkpt>
      <trkpt lat="46.00783" lon="4.36581">
        <ele>450</ele>
        <time>2016-09-22T10:09:50Z</time>
      </trkpt>
      <trkpt lat="46.00783" lon="4.36584">
        <ele>448</ele>
        <time>2016-09-22T10:09:51Z</time>
      </trkpt>
      <trkpt lat="46.00784" lon="4.36596">
        <ele>448</ele>
        <time>2016-09-22T10:09:56Z</time>
      </trkpt>
      <trkpt lat="46.00784" lon="4.36598">
        <ele>448</ele>
        <time>2016-09-22T10:09:57Z</time>
      </trkpt>
      <trkpt lat="46.00784" lon="4.36609">
        <ele>448</ele>
        <time>2016-09-22T10:10:02Z</time>
      </trkpt>
      <trkpt lat="46.00784" lon="4.36611">
        <ele>448</ele>
        <time>2016-09-22T10:10:03Z</time>
      </trkpt>
      <trkpt lat="46.00787" lon="4.36623">
        <ele>448</ele>
        <time>2016-09-22T10:10:09Z</time>
      </trkpt>
      <trkpt lat="46.00788" lon="4.36625">
        <ele>448</ele>
        <time>2016-09-22T10:10:10Z</time>
      </trkpt>
      <trkpt lat="46.00787" lon="4.36638">
        <ele>447</ele>
        <time>2016-09-22T10:10:19Z</time>
      </trkpt>
      <trkpt lat="46.00787" lon="4.36639">
        <ele>447</ele>
        <time>2016-09-22T10:10:20Z</time>
      </trkpt>
      <trkpt lat="46.00789" lon="4.36652">
        <ele>447</ele>
        <time>2016-09-22T10:10:26Z</time>
      </trkpt>
      <trkpt lat="46.00789" lon="4.36654">
        <ele>447</ele>
        <time>2016-09-22T10:10:27Z</time>
      </trkpt>
      <trkpt lat="46.0079" lon="4.36665">
        <ele>447</ele>
        <time>2016-09-22T10:10:33Z</time>
      </trkpt>
      <trkpt lat="46.00791" lon="4.36667">
        <ele>447</ele>
        <time>2016-09-22T10:10:34Z</time>
      </trkpt>
      <trkpt lat="46.00792" lon="4.36679">
        <ele>446</ele>
        <time>2016-09-22T10:10:41Z</time>
      </trkpt>
      <trkpt lat="46.00792" lon="4.36681">
        <ele>446</ele>
        <time>2016-09-22T10:10:42Z</time>
      </trkpt>
      <trkpt lat="46.00794" lon="4.36692">
        <ele>446</ele>
        <time>2016-09-22T10:10:47Z</time>
      </trkpt>
      <trkpt lat="46.00795" lon="4.36693">
        <ele>446</ele>
        <time>2016-09-22T10:10:48Z</time>
      </trkpt>
      <trkpt lat="46.00794" lon="4.36706">
        <ele>446</ele>
        <time>2016-09-22T10:10:54Z</time>
      </trkpt>
      <trkpt lat="46.00794" lon="4.36709">
        <ele>446</ele>
        <time>2016-09-22T10:10:55Z</time>
      </trkpt>
      <trkpt lat="46.00795" lon="4.3672">
        <ele>446</ele>
        <time>2016-09-22T10:11:00Z</time>
      </trkpt>
      <trkpt lat="46.00795" lon="4.36724">
        <ele>446</ele>
        <time>2016-09-22T10:11:01Z</time>
      </trkpt>
      <trkpt lat="46.00794" lon="4.36736">
        <ele>446</ele>
        <time>2016-09-22T10:11:06Z</time>
      </trkpt>
      <trkpt lat="46.00794" lon="4.36739">
        <ele>446</ele>
        <time>2016-09-22T10:11:07Z</time>
      </trkpt>
      <trkpt lat="46.00794" lon="4.36751">
        <ele>446</ele>
        <time>2016-09-22T10:11:12Z</time>
      </trkpt>
      <trkpt lat="46.00793" lon="4.36753">
        <ele>446</ele>
        <time>2016-09-22T10:11:13Z</time>
      </trkpt>
      <trkpt lat="46.00791" lon="4.36764">
        <ele>446</ele>
        <time>2016-09-22T10:11:18Z</time>
      </trkpt>
      <trkpt lat="46.0079" lon="4.36765">
        <ele>446</ele>
        <time>2016-09-22T10:11:19Z</time>
      </trkpt>
      <trkpt lat="46.00787" lon="4.36776">
        <ele>446</ele>
        <time>2016-09-22T10:11:25Z</time>
      </trkpt>
      <trkpt lat="46.00786" lon="4.36778">
        <ele>446</ele>
        <time>2016-09-22T10:11:26Z</time>
      </trkpt>
      <trkpt lat="46.00779" lon="4.36785">
        <ele>446</ele>
        <time>2016-09-22T10:11:32Z</time>
      </trkpt>
      <trkpt lat="46.00778" lon="4.36786">
        <ele>446</ele>
        <time>2016-09-22T10:11:33Z</time>
      </trkpt>
      <trkpt lat="46.00773" lon="4.36795">
        <ele>446</ele>
        <time>2016-09-22T10:11:39Z</time>
      </trkpt>
      <trkpt lat="46.00772" lon="4.36796">
        <ele>446</ele>
        <time>2016-09-22T10:11:40Z</time>
      </trkpt>
      <trkpt lat="46.00768" lon="4.36807">
        <ele>446</ele>
        <time>2016-09-22T10:11:46Z</time>
      </trkpt>
      <trkpt lat="46.00768" lon="4.36809">
        <ele>446</ele>
        <time>2016-09-22T10:11:47Z</time>
      </trkpt>
      <trkpt lat="46.00763" lon="4.3682">
        <ele>446</ele>
        <time>2016-09-22T10:11:53Z</time>
      </trkpt>
      <trkpt lat="46.00762" lon="4.36822">
        <ele>446</ele>
        <time>2016-09-22T10:11:54Z</time>
      </trkpt>
      <trkpt lat="46.00758" lon="4.36832">
        <ele>445</ele>
        <time>2016-09-22T10:12:00Z</time>
      </trkpt>
      <trkpt lat="46.00758" lon="4.36834">
        <ele>446</ele>
        <time>2016-09-22T10:12:01Z</time>
      </trkpt>
      <trkpt lat="46.00756" lon="4.36845">
        <ele>446</ele>
        <time>2016-09-22T10:12:07Z</time>
      </trkpt>
      <trkpt lat="46.00756" lon="4.36847">
        <ele>446</ele>
        <time>2016-09-22T10:12:08Z</time>
      </trkpt>
      <trkpt lat="46.00753" lon="4.36859">
        <ele>446</ele>
        <time>2016-09-22T10:12:15Z</time>
      </trkpt>
      <trkpt lat="46.00753" lon="4.36861">
        <ele>446</ele>
        <time>2016-09-22T10:12:16Z</time>
      </trkpt>
      <trkpt lat="46.00753" lon="4.36872">
        <ele>446</ele>
        <time>2016-09-22T10:12:22Z</time>
      </trkpt>
      <trkpt lat="46.00753" lon="4.36874">
        <ele>446</ele>
        <time>2016-09-22T10:12:23Z</time>
      </trkpt>
      <trkpt lat="46.00758" lon="4.36885">
        <ele>446</ele>
        <time>2016-09-22T10:12:29Z</time>
      </trkpt>
      <trkpt lat="46.00758" lon="4.36886">
        <ele>446</ele>
        <time>2016-09-22T10:12:30Z</time>
      </trkpt>
      <trkpt lat="46.00764" lon="4.36895">
        <ele>446</ele>
        <time>2016-09-22T10:12:36Z</time>
      </trkpt>
      <trkpt lat="46.00764" lon="4.36896">
        <ele>446</ele>
        <time>2016-09-22T10:12:37Z</time>
      </trkpt>
      <trkpt lat="46.0077" lon="4.36905">
        <ele>446</ele>
        <time>2016-09-22T10:12:43Z</time>
      </trkpt>
      <trkpt lat="46.00771" lon="4.36907">
        <ele>446</ele>
        <time>2016-09-22T10:12:44Z</time>
      </trkpt>
      <trkpt lat="46.00776" lon="4.36916">
        <ele>446</ele>
        <time>2016-09-22T10:12:49Z</time>
      </trkpt>
      <trkpt lat="46.00777" lon="4.36917">
        <ele>445</ele>
        <time>2016-09-22T10:12:50Z</time>
      </trkpt>
      <trkpt lat="46.00783" lon="4.36926">
        <ele>445</ele>
        <time>2016-09-22T10:12:56Z</time>
      </trkpt>
      <trkpt lat="46.00784" lon="4.36927">
        <ele>445</ele>
        <time>2016-09-22T10:12:57Z</time>
      </trkpt>
      <trkpt lat="46.00789" lon="4.36937">
        <ele>445</ele>
        <time>2016-09-22T10:13:03Z</time>
      </trkpt>
      <trkpt lat="46.0079" lon="4.36938">
        <ele>445</ele>
        <time>2016-09-22T10:13:04Z</time>
      </trkpt>
      <trkpt lat="46.00797" lon="4.36946">
        <ele>444</ele>
        <time>2016-09-22T10:13:11Z</time>
      </trkpt>
      <trkpt lat="46.00798" lon="4.36947">
        <ele>444</ele>
        <time>2016-09-22T10:13:12Z</time>
      </trkpt>
      <trkpt lat="46.00804" lon="4.36954">
        <ele>444</ele>
        <time>2016-09-22T10:13:18Z</time>
      </trkpt>
      <trkpt lat="46.00805" lon="4.36956">
        <ele>444</ele>
        <time>2016-09-22T10:13:19Z</time>
      </trkpt>
      <trkpt lat="46.00812" lon="4.36963">
        <ele>444</ele>
        <time>2016-09-22T10:13:25Z</time>
      </trkpt>
      <trkpt lat="46.00813" lon="4.36964">
        <ele>444</ele>
        <time>2016-09-22T10:13:26Z</time>
      </trkpt>
      <trkpt lat="46.0082" lon="4.36969">
        <ele>444</ele>
        <time>2016-09-22T10:13:32Z</time>
      </trkpt>
      <trkpt lat="46.00821" lon="4.3697">
        <ele>444</ele>
        <time>2016-09-22T10:13:33Z</time>
      </trkpt>
      <trkpt lat="46.00826" lon="4.36978">
        <ele>444</ele>
        <time>2016-09-22T10:13:38Z</time>
      </trkpt>
      <trkpt lat="46.00827" lon="4.3698">
        <ele>444</ele>
        <time>2016-09-22T10:13:39Z</time>
      </trkpt>
      <trkpt lat="46.00831" lon="4.3699">
        <ele>444</ele>
        <time>2016-09-22T10:13:45Z</time>
      </trkpt>
      <trkpt lat="46.00832" lon="4.36992">
        <ele>444</ele>
        <time>2016-09-22T10:13:46Z</time>
      </trkpt>
      <trkpt lat="46.00836" lon="4.37002">
        <ele>445</ele>
        <time>2016-09-22T10:13:52Z</time>
      </trkpt>
      <trkpt lat="46.00836" lon="4.37004">
        <ele>445</ele>
        <time>2016-09-22T10:13:53Z</time>
      </trkpt>
      <trkpt lat="46.00839" lon="4.37016">
        <ele>446</ele>
        <time>2016-09-22T10:13:58Z</time>
      </trkpt>
      <trkpt lat="46.00839" lon="4.37018">
        <ele>446</ele>
        <time>2016-09-22T10:13:59Z</time>
      </trkpt>
      <trkpt lat="46.00839" lon="4.37031">
        <ele>447</ele>
        <time>2016-09-22T10:14:05Z</time>
      </trkpt>
      <trkpt lat="46.00838" lon="4.37033">
        <ele>447</ele>
        <time>2016-09-22T10:14:06Z</time>
      </trkpt>
      <trkpt lat="46.00834" lon="4.37044">
        <ele>447</ele>
        <time>2016-09-22T10:14:12Z</time>
      </trkpt>
      <trkpt lat="46.00834" lon="4.37046">
        <ele>447</ele>
        <time>2016-09-22T10:14:13Z</time>
      </trkpt>
      <trkpt lat="46.00829" lon="4.37054">
        <ele>443</ele>
        <time>2016-09-22T10:14:19Z</time>
      </trkpt>
      <trkpt lat="46.00828" lon="4.37056">
        <ele>443</ele>
        <time>2016-09-22T10:14:20Z</time>
      </trkpt>
      <trkpt lat="46.00823" lon="4.37065">
        <ele>443</ele>
        <time>2016-09-22T10:14:26Z</time>
      </trkpt>
      <trkpt lat="46.00822" lon="4.37066">
        <ele>443</ele>
        <time>2016-09-22T10:14:27Z</time>
      </trkpt>
      <trkpt lat="46.00817" lon="4.37076">
        <ele>443</ele>
        <time>2016-09-22T10:14:33Z</time>
      </trkpt>
      <trkpt lat="46.00816" lon="4.37078">
        <ele>443</ele>
        <time>2016-09-22T10:14:34Z</time>
      </trkpt>
      <trkpt lat="46.00811" lon="4.37088">
        <ele>443</ele>
        <time>2016-09-22T10:14:40Z</time>
      </trkpt>
      <trkpt lat="46.0081" lon="4.3709">
        <ele>443</ele>
        <time>2016-09-22T10:14:41Z</time>
      </trkpt>
      <trkpt lat="46.00806" lon="4.371">
        <ele>442</ele>
        <time>2016-09-22T10:14:47Z</time>
      </trkpt>
      <trkpt lat="46.00805" lon="4.37101">
        <ele>442</ele>
        <time>2016-09-22T10:14:48Z</time>
      </trkpt>
      <trkpt lat="46.00802" lon="4.37112">
        <ele>442</ele>
        <time>2016-09-22T10:14:54Z</time>
      </trkpt>
      <trkpt lat="46.00802" lon="4.37113">
        <ele>442</ele>
        <time>2016-09-22T10:14:55Z</time>
      </trkpt>
      <trkpt lat="46.00798" lon="4.37124">
        <ele>442</ele>
        <time>2016-09-22T10:15:02Z</time>
      </trkpt>
      <trkpt lat="46.00798" lon="4.37126">
        <ele>442</ele>
        <time>2016-09-22T10:15:03Z</time>
      </trkpt>
      <trkpt lat="46.008" lon="4.37137">
        <ele>442</ele>
        <time>2016-09-22T10:15:10Z</time>
      </trkpt>
      <trkpt lat="46.008" lon="4.37138">
        <ele>442</ele>
        <time>2016-09-22T10:15:11Z</time>
      </trkpt>
      <trkpt lat="46.00804" lon="4.37149">
        <ele>443</ele>
        <time>2016-09-22T10:15:18Z</time>
      </trkpt>
      <trkpt lat="46.00805" lon="4.3715">
        <ele>443</ele>
        <time>2016-09-22T10:15:19Z</time>
      </trkpt>
      <trkpt lat="46.00811" lon="4.37159">
        <ele>443</ele>
        <time>2016-09-22T10:15:26Z</time>
      </trkpt>
      <trkpt lat="46.00812" lon="4.37161">
        <ele>443</ele>
        <time>2016-09-22T10:15:27Z</time>
      </trkpt>
      <trkpt lat="46.00817" lon="4.3717">
        <ele>443</ele>
        <time>2016-09-22T10:15:34Z</time>
      </trkpt>
      <trkpt lat="46.00818" lon="4.37172">
        <ele>443</ele>
        <time>2016-09-22T10:15:35Z</time>
      </trkpt>
      <trkpt lat="46.00823" lon="4.37181">
        <ele>443</ele>
        <time>2016-09-22T10:15:41Z</time>
      </trkpt>
      <trkpt lat="46.00823" lon="4.37183">
        <ele>443</ele>
        <time>2016-09-22T10:15:42Z</time>
      </trkpt>
      <trkpt lat="46.0083" lon="4.37191">
        <ele>443</ele>
        <time>2016-09-22T10:15:49Z</time>
      </trkpt>
      <trkpt lat="46.00831" lon="4.37193">
        <ele>442</ele>
        <time>2016-09-22T10:15:50Z</time>
      </trkpt>
      <trkpt lat="46.00838" lon="4.37199">
        <ele>446</ele>
        <time>2016-09-22T10:15:56Z</time>
      </trkpt>
      <trkpt lat="46.0084" lon="4.372">
        <ele>446</ele>
        <time>2016-09-22T10:15:57Z</time>
      </trkpt>
      <trkpt lat="46.00848" lon="4.37205">
        <ele>446</ele>
        <time>2016-09-22T10:16:04Z</time>
      </trkpt>
      <trkpt lat="46.00849" lon="4.37206">
        <ele>446</ele>
        <time>2016-09-22T10:16:05Z</time>
      </trkpt>
      <trkpt lat="46.00857" lon="4.37211">
        <ele>446</ele>
        <time>2016-09-22T10:16:11Z</time>
      </trkpt>
      <trkpt lat="46.00858" lon="4.37212">
        <ele>446</ele>
        <time>2016-09-22T10:16:12Z</time>
      </trkpt>
      <trkpt lat="46.00865" lon="4.37218">
        <ele>446</ele>
        <time>2016-09-22T10:16:18Z</time>
      </trkpt>
      <trkpt lat="46.00866" lon="4.37219">
        <ele>446</ele>
        <time>2016-09-22T10:16:19Z</time>
      </trkpt>
      <trkpt lat="46.00872" lon="4.37227">
        <ele>447</ele>
        <time>2016-09-22T10:16:25Z</time>
      </trkpt>
      <trkpt lat="46.00873" lon="4.37229">
        <ele>447</ele>
        <time>2016-09-22T10:16:26Z</time>
      </trkpt>
      <trkpt lat="46.00878" lon="4.37238">
        <ele>447</ele>
        <time>2016-09-22T10:16:32Z</time>
      </trkpt>
      <trkpt lat="46.00879" lon="4.3724">
        <ele>447</ele>
        <time>2016-09-22T10:16:33Z</time>
      </trkpt>
      <trkpt lat="46.00884" lon="4.37249">
        <ele>447</ele>
        <time>2016-09-22T10:16:39Z</time>
      </trkpt>
      <trkpt lat="46.00884" lon="4.37251">
        <ele>444</ele>
        <time>2016-09-22T10:16:40Z</time>
      </trkpt>
      <trkpt lat="46.00888" lon="4.37262">
        <ele>445</ele>
        <time>2016-09-22T10:16:46Z</time>
      </trkpt>
      <trkpt lat="46.00889" lon="4.37264">
        <ele>444</ele>
        <time>2016-09-22T10:16:47Z</time>
      </trkpt>
      <trkpt lat="46.00892" lon="4.37275">
        <ele>444</ele>
        <time>2016-09-22T10:16:53Z</time>
      </trkpt>
      <trkpt lat="46.00892" lon="4.37277">
        <ele>444</ele>
        <time>2016-09-22T10:16:54Z</time>
      </trkpt>
      <trkpt lat="46.00895" lon="4.37289">
        <ele>444</ele>
        <time>2016-09-22T10:17:00Z</time>
      </trkpt>
      <trkpt lat="46.00895" lon="4.37291">
        <ele>444</ele>
        <time>2016-09-22T10:17:01Z</time>
      </trkpt>
      <trkpt lat="46.00896" lon="4.37303">
        <ele>443</ele>
        <time>2016-09-22T10:17:07Z</time>
      </trkpt>
      <trkpt lat="46.00897" lon="4.37304">
        <ele>443</ele>
        <time>2016-09-22T10:17:08Z</time>
      </trkpt>
      <trkpt lat="46.00898" lon="4.37315">
        <ele>443</ele>
        <time>2016-09-22T10:17:14Z</time>
      </trkpt>
      <trkpt lat="46.00898" lon="4.37317">
        <ele>443</ele>
        <time>2016-09-22T10:17:15Z</time>
      </trkpt>
      <trkpt lat="46.00899" lon="4.3733">
        <ele>443</ele>
        <time>2016-09-22T10:17:21Z</time>
      </trkpt>
      <trkpt lat="46.009" lon="4.37332">
        <ele>443</ele>
        <time>2016-09-22T10:17:22Z</time>
      </trkpt>
      <trkpt lat="46.00901" lon="4.37344">
        <ele>442</ele>
        <time>2016-09-22T10:17:28Z</time>
      </trkpt>
      <trkpt lat="46.00901" lon="4.37346">
        <ele>442</ele>
        <time>2016-09-22T10:17:29Z</time>
      </trkpt>
      <trkpt lat="46.00903" lon="4.37359">
        <ele>442</ele>
        <time>2016-09-22T10:17:35Z</time>
      </trkpt>
      <trkpt lat="46.00903" lon="4.37361">
        <ele>442</ele>
        <time>2016-09-22T10:17:36Z</time>
      </trkpt>
      <trkpt lat="46.00906" lon="4.37372">
        <ele>442</ele>
        <time>2016-09-22T10:17:42Z</time>
      </trkpt>
      <trkpt lat="46.00907" lon="4.37374">
        <ele>442</ele>
        <time>2016-09-22T10:17:43Z</time>
      </trkpt>
      <trkpt lat="46.00911" lon="4.37384">
        <ele>442</ele>
        <time>2016-09-22T10:17:49Z</time>
      </trkpt>
      <trkpt lat="46.00911" lon="4.37386">
        <ele>442</ele>
        <time>2016-09-22T10:17:50Z</time>
      </trkpt>
      <trkpt lat="46.00916" lon="4.37396">
        <ele>442</ele>
        <time>2016-09-22T10:17:57Z</time>
      </trkpt>
      <trkpt lat="46.00917" lon="4.37397">
        <ele>445</ele>
        <time>2016-09-22T10:17:58Z</time>
      </trkpt>
      <trkpt lat="46.00923" lon="4.37405">
        <ele>444</ele>
        <time>2016-09-22T10:18:04Z</time>
      </trkpt>
      <trkpt lat="46.00924" lon="4.37406">
        <ele>444</ele>
        <time>2016-09-22T10:18:05Z</time>
      </trkpt>
      <trkpt lat="46.00931" lon="4.37412">
        <ele>445</ele>
        <time>2016-09-22T10:18:12Z</time>
      </trkpt>
      <trkpt lat="46.00932" lon="4.37413">
        <ele>445</ele>
        <time>2016-09-22T10:18:13Z</time>
      </trkpt>
      <trkpt lat="46.00939" lon="4.37419">
        <ele>444</ele>
        <time>2016-09-22T10:18:19Z</time>
      </trkpt>
      <trkpt lat="46.0094" lon="4.3742">
        <ele>444</ele>
        <time>2016-09-22T10:18:20Z</time>
      </trkpt>
      <trkpt lat="46.00945" lon="4.37428">
        <ele>444</ele>
        <time>2016-09-22T10:18:27Z</time>
      </trkpt>
      <trkpt lat="46.00946" lon="4.3743">
        <ele>444</ele>
        <time>2016-09-22T10:18:28Z</time>
      </trkpt>
      <trkpt lat="46.00952" lon="4.37439">
        <ele>444</ele>
        <time>2016-09-22T10:18:35Z</time>
      </trkpt>
      <trkpt lat="46.00953" lon="4.3744">
        <ele>444</ele>
        <time>2016-09-22T10:18:36Z</time>
      </trkpt>
      <trkpt lat="46.00958" lon="4.37449">
        <ele>444</ele>
        <time>2016-09-22T10:18:42Z</time>
      </trkpt>
      <trkpt lat="46.00959" lon="4.3745">
        <ele>444</ele>
        <time>2016-09-22T10:18:43Z</time>
      </trkpt>
      <trkpt lat="46.00964" lon="4.37458">
        <ele>444</ele>
        <time>2016-09-22T10:18:48Z</time>
      </trkpt>
      <trkpt lat="46.00965" lon="4.3746">
        <ele>444</ele>
        <time>2016-09-22T10:18:49Z</time>
      </trkpt>
      <trkpt lat="46.0097" lon="4.3747">
        <ele>444</ele>
        <time>2016-09-22T10:18:55Z</time>
      </trkpt>
      <trkpt lat="46.0097" lon="4.37472">
        <ele>444</ele>
        <time>2016-09-22T10:18:56Z</time>
      </trkpt>
      <trkpt lat="46.00974" lon="4.37482">
        <ele>444</ele>
        <time>2016-09-22T10:19:02Z</time>
      </trkpt>
      <trkpt lat="46.00975" lon="4.37483">
        <ele>444</ele>
        <time>2016-09-22T10:19:03Z</time>
      </trkpt>
      <trkpt lat="46.0098" lon="4.37494">
        <ele>444</ele>
        <time>2016-09-22T10:19:11Z</time>
      </trkpt>
      <trkpt lat="46.00981" lon="4.37495">
        <ele>444</ele>
        <time>2016-09-22T10:19:12Z</time>
      </trkpt>
      <trkpt lat="46.00986" lon="4.37505">
        <ele>443</ele>
        <time>2016-09-22T10:19:19Z</time>
      </trkpt>
      <trkpt lat="46.00987" lon="4.37506">
        <ele>443</ele>
        <time>2016-09-22T10:19:20Z</time>
      </trkpt>
      <trkpt lat="46.00991" lon="4.37516">
        <ele>443</ele>
        <time>2016-09-22T10:19:26Z</time>
      </trkpt>
      <trkpt lat="46.00992" lon="4.37518">
        <ele>443</ele>
        <time>2016-09-22T10:19:27Z</time>
      </trkpt>
      <trkpt lat="46.00996" lon="4.37528">
        <ele>443</ele>
        <time>2016-09-22T10:19:33Z</time>
      </trkpt>
      <trkpt lat="46.00997" lon="4.3753">
        <ele>443</ele>
        <time>2016-09-22T10:19:34Z</time>
      </trkpt>
      <trkpt lat="46.01003" lon="4.37539">
        <ele>447</ele>
        <time>2016-09-22T10:19:40Z</time>
      </trkpt>
      <trkpt lat="46.01004" lon="4.3754">
        <ele>447</ele>
        <time>2016-09-22T10:19:41Z</time>
      </trkpt>
      <trkpt lat="46.01009" lon="4.37549">
        <ele>446</ele>
        <time>2016-09-22T10:19:47Z</time>
      </trkpt>
      <trkpt lat="46.0101" lon="4.37551">
        <ele>446</ele>
        <time>2016-09-22T10:19:48Z</time>
      </trkpt>
      <trkpt lat="46.01014" lon="4.3756">
        <ele>446</ele>
        <time>2016-09-22T10:19:54Z</time>
      </trkpt>
      <trkpt lat="46.01015" lon="4.37562">
        <ele>446</ele>
        <time>2016-09-22T10:19:55Z</time>
      </trkpt>
      <trkpt lat="46.01018" lon="4.37573">
        <ele>446</ele>
        <time>2016-09-22T10:20:02Z</time>
      </trkpt>
      <trkpt lat="46.01018" lon="4.37574">
        <ele>446</ele>
        <time>2016-09-22T10:20:03Z</time>
      </trkpt>
      <trkpt lat="46.01021" lon="4.37585">
        <ele>444</ele>
        <time>2016-09-22T10:20:13Z</time>
      </trkpt>
      <trkpt lat="46.01021" lon="4.37586">
        <ele>444</ele>
        <time>2016-09-22T10:20:14Z</time>
      </trkpt>
      <trkpt lat="46.01026" lon="4.37596">
        <ele>444</ele>
        <time>2016-09-22T10:20:23Z</time>
      </trkpt>
      <trkpt lat="46.01027" lon="4.37598">
        <ele>444</ele>
        <time>2016-09-22T10:20:24Z</time>
      </trkpt>
      <trkpt lat="46.01034" lon="4.37605">
        <ele>445</ele>
        <time>2016-09-22T10:20:32Z</time>
      </trkpt>
      <trkpt lat="46.01034" lon="4.37606">
        <ele>445</ele>
        <time>2016-09-22T10:20:33Z</time>
      </trkpt>
      <trkpt lat="46.01039" lon="4.37616">
        <ele>445</ele>
        <time>2016-09-22T10:20:42Z</time>
      </trkpt>
      <trkpt lat="46.01039" lon="4.37617">
        <ele>445</ele>
        <time>2016-09-22T10:20:43Z</time>
      </trkpt>
      <trkpt lat="46.01046" lon="4.37624">
        <ele>445</ele>
        <time>2016-09-22T10:20:51Z</time>
      </trkpt>
      <trkpt lat="46.01046" lon="4.37626">
        <ele>445</ele>
        <time>2016-09-22T10:20:52Z</time>
      </trkpt>
      <trkpt lat="46.01051" lon="4.37634">
        <ele>445</ele>
        <time>2016-09-22T10:20:59Z</time>
      </trkpt>
      <trkpt lat="46.01052" lon="4.37636">
        <ele>445</ele>
        <time>2016-09-22T10:21:00Z</time>
      </trkpt>
      <trkpt lat="46.01058" lon="4.37644">
        <ele>445</ele>
        <time>2016-09-22T10:21:09Z</time>
      </trkpt>
      <trkpt lat="46.01059" lon="4.37645">
        <ele>445</ele>
        <time>2016-09-22T10:21:10Z</time>
      </trkpt>
      <trkpt lat="46.01064" lon="4.37655">
        <ele>445</ele>
        <time>2016-09-22T10:21:51Z</time>
      </trkpt>
      <trkpt lat="46.01065" lon="4.37655">
        <ele>445</ele>
        <time>2016-09-22T10:21:52Z</time>
      </trkpt>
      <trkpt lat="46.01072" lon="4.37663">
        <ele>445</ele>
        <time>2016-09-22T10:23:42Z</time>
      </trkpt>
      <trkpt lat="46.01072" lon="4.37663">
        <ele>446</ele>
        <time>2016-09-22T10:23:43Z</time>
      </trkpt>
      <trkpt lat="46.01078" lon="4.37673">
        <ele>445</ele>
        <time>2016-09-22T10:23:56Z</time>
      </trkpt>
      <trkpt lat="46.01078" lon="4.37674">
        <ele>445</ele>
        <time>2016-09-22T10:23:57Z</time>
      </trkpt>
      <trkpt lat="46.01086" lon="4.3768">
        <ele>446</ele>
        <time>2016-09-22T10:24:08Z</time>
      </trkpt>
      <trkpt lat="46.01086" lon="4.37681">
        <ele>446</ele>
        <time>2016-09-22T10:24:09Z</time>
      </trkpt>
      <trkpt lat="46.01093" lon="4.37689">
        <ele>446</ele>
        <time>2016-09-22T10:24:18Z</time>
      </trkpt>
      <trkpt lat="46.01093" lon="4.3769">
        <ele>446</ele>
        <time>2016-09-22T10:24:19Z</time>
      </trkpt>
      <trkpt lat="46.01097" lon="4.37702">
        <ele>445</ele>
        <time>2016-09-22T10:24:30Z</time>
      </trkpt>
      <trkpt lat="46.01097" lon="4.37703">
        <ele>445</ele>
        <time>2016-09-22T10:24:31Z</time>
      </trkpt>
      <trkpt lat="46.01098" lon="4.37714">
        <ele>445</ele>
        <time>2016-09-22T10:24:40Z</time>
      </trkpt>
      <trkpt lat="46.01098" lon="4.37716">
        <ele>445</ele>
        <time>2016-09-22T10:24:41Z</time>
      </trkpt>
      <trkpt lat="46.01104" lon="4.37723">
        <ele>445</ele>
        <time>2016-09-22T10:24:48Z</time>
      </trkpt>
      <trkpt lat="46.01105" lon="4.37724">
        <ele>445</ele>
        <time>2016-09-22T10:24:49Z</time>
      </trkpt>
      <trkpt lat="46.01113" lon="4.3773">
        <ele>445</ele>
        <time>2016-09-22T10:24:56Z</time>
      </trkpt>
      <trkpt lat="46.01114" lon="4.37731">
        <ele>445</ele>
        <time>2016-09-22T10:24:57Z</time>
      </trkpt>
      <trkpt lat="46.0112" lon="4.37738">
        <ele>445</ele>
        <time>2016-09-22T10:25:04Z</time>
      </trkpt>
      <trkpt lat="46.01121" lon="4.37739">
        <ele>445</ele>
        <time>2016-09-22T10:25:05Z</time>
      </trkpt>
      <trkpt lat="46.01128" lon="4.37746">
        <ele>445</ele>
        <time>2016-09-22T10:25:13Z</time>
      </trkpt>
      <trkpt lat="46.01129" lon="4.37747">
        <ele>445</ele>
        <time>2016-09-22T10:25:14Z</time>
      </trkpt>
      <trkpt lat="46.01136" lon="4.37754">
        <ele>443</ele>
        <time>2016-09-22T10:25:22Z</time>
      </trkpt>
      <trkpt lat="46.01137" lon="4.37755">
        <ele>443</ele>
        <time>2016-09-22T10:25:23Z</time>
      </trkpt>
      <trkpt lat="46.01142" lon="4.37765">
        <ele>443</ele>
        <time>2016-09-22T10:25:32Z</time>
      </trkpt>
      <trkpt lat="46.01142" lon="4.37766">
        <ele>443</ele>
        <time>2016-09-22T10:25:33Z</time>
      </trkpt>
      <trkpt lat="46.01149" lon="4.37774">
        <ele>443</ele>
        <time>2016-09-22T10:25:42Z</time>
      </trkpt>
      <trkpt lat="46.01149" lon="4.37775">
        <ele>443</ele>
        <time>2016-09-22T10:25:43Z</time>
      </trkpt>
      <trkpt lat="46.01158" lon="4.37779">
        <ele>443</ele>
        <time>2016-09-22T10:25:53Z</time>
      </trkpt>
      <trkpt lat="46.01159" lon="4.3778">
        <ele>443</ele>
        <time>2016-09-22T10:25:54Z</time>
      </trkpt>
      <trkpt lat="46.01167" lon="4.3778">
        <ele>445</ele>
        <time>2016-09-22T11:03:03Z</time>
      </trkpt>
      <trkpt lat="46.01168" lon="4.3778">
        <ele>445</ele>
        <time>2016-09-22T11:03:04Z</time>
      </trkpt>
      <trkpt lat="46.0116" lon="4.37783">
        <ele>443</ele>
        <time>2016-09-22T11:03:24Z</time>
      </trkpt>
      <trkpt lat="46.01159" lon="4.37783">
        <ele>443</ele>
        <time>2016-09-22T11:03:25Z</time>
      </trkpt>
      <trkpt lat="46.01154" lon="4.37793">
        <ele>443</ele>
        <time>2016-09-22T11:04:01Z</time>
      </trkpt>
      <trkpt lat="46.01154" lon="4.37794">
        <ele>443</ele>
        <time>2016-09-22T11:04:02Z</time>
      </trkpt>
      <trkpt lat="46.01145" lon="4.37798">
        <ele>443</ele>
        <time>2016-09-22T11:04:11Z</time>
      </trkpt>
      <trkpt lat="46.01145" lon="4.37798">
        <ele>443</ele>
        <time>2016-09-22T11:04:12Z</time>
      </trkpt>
      <trkpt lat="46.01139" lon="4.37807">
        <ele>443</ele>
        <time>2016-09-22T11:04:22Z</time>
      </trkpt>
      <trkpt lat="46.01138" lon="4.37809">
        <ele>443</ele>
        <time>2016-09-22T11:04:23Z</time>
      </trkpt>
      <trkpt lat="46.01132" lon="4.37817">
        <ele>443</ele>
        <time>2016-09-22T11:04:31Z</time>
      </trkpt>
      <trkpt lat="46.0113" lon="4.37817">
        <ele>443</ele>
        <time>2016-09-22T11:04:32Z</time>
      </trkpt>
      <trkpt lat="46.01125" lon="4.37825">
        <ele>442</ele>
        <time>2016-09-22T11:04:38Z</time>
      </trkpt>
      <trkpt lat="46.01124" lon="4.37826">
        <ele>442</ele>
        <time>2016-09-22T11:04:39Z</time>
      </trkpt>
      <trkpt lat="46.01116" lon="4.37831">
        <ele>442</ele>
        <time>2016-09-22T11:04:46Z</time>
      </trkpt>
      <trkpt lat="46.01116" lon="4.37832">
        <ele>442</ele>
        <time>2016-09-22T11:04:47Z</time>
      </trkpt>
      <trkpt lat="46.01107" lon="4.37835">
        <ele>442</ele>
        <time>2016-09-22T11:04:55Z</time>
      </trkpt>
      <trkpt lat="46.01107" lon="4.37836">
        <ele>442</ele>
        <time>2016-09-22T11:04:56Z</time>
      </trkpt>
      <trkpt lat="46.01099" lon="4.37838">
        <ele>441</ele>
        <time>2016-09-22T11:05:05Z</time>
      </trkpt>
      <trkpt lat="46.01098" lon="4.37838">
        <ele>441</ele>
        <time>2016-09-22T11:05:06Z</time>
      </trkpt>
      <trkpt lat="46.01089" lon="4.37835">
        <ele>441</ele>
        <time>2016-09-22T11:05:13Z</time>
      </trkpt>
      <trkpt lat="46.01088" lon="4.37835">
        <ele>441</ele>
        <time>2016-09-22T11:05:14Z</time>
      </trkpt>
      <trkpt lat="46.01079" lon="4.37832">
        <ele>441</ele>
        <time>2016-09-22T11:05:22Z</time>
      </trkpt>
      <trkpt lat="46.01078" lon="4.37831">
        <ele>441</ele>
        <time>2016-09-22T11:05:23Z</time>
      </trkpt>
      <trkpt lat="46.0107" lon="4.37835">
        <ele>441</ele>
        <time>2016-09-22T11:05:30Z</time>
      </trkpt>
      <trkpt lat="46.01068" lon="4.37836">
        <ele>441</ele>
        <time>2016-09-22T11:05:31Z</time>
      </trkpt>
      <trkpt lat="46.0106" lon="4.3784">
        <ele>441</ele>
        <time>2016-09-22T11:05:39Z</time>
      </trkpt>
      <trkpt lat="46.01059" lon="4.37841">
        <ele>441</ele>
        <time>2016-09-22T11:05:40Z</time>
      </trkpt>
      <trkpt lat="46.01052" lon="4.37848">
        <ele>441</ele>
        <time>2016-09-22T11:05:48Z</time>
      </trkpt>
      <trkpt lat="46.01052" lon="4.3785">
        <ele>441</ele>
        <time>2016-09-22T11:05:49Z</time>
      </trkpt>
      <trkpt lat="46.01047" lon="4.3786">
        <ele>441</ele>
        <time>2016-09-22T11:05:57Z</time>
      </trkpt>
      <trkpt lat="46.01046" lon="4.37861">
        <ele>441</ele>
        <time>2016-09-22T11:05:58Z</time>
      </trkpt>
      <trkpt lat="46.01051" lon="4.37871">
        <ele>441</ele>
        <time>2016-09-22T11:06:06Z</time>
      </trkpt>
      <trkpt lat="46.01052" lon="4.37872">
        <ele>441</ele>
        <time>2016-09-22T11:06:07Z</time>
      </trkpt>
      <trkpt lat="46.01055" lon="4.37883">
        <ele>441</ele>
        <time>2016-09-22T11:06:26Z</time>
      </trkpt>
      <trkpt lat="46.01054" lon="4.37884">
        <ele>441</ele>
        <time>2016-09-22T11:06:27Z</time>
      </trkpt>
      <trkpt lat="46.01046" lon="4.37889">
        <ele>441</ele>
        <time>2016-09-22T11:06:33Z</time>
      </trkpt>
      <trkpt lat="46.01045" lon="4.37889">
        <ele>441</ele>
        <time>2016-09-22T11:06:34Z</time>
      </trkpt>
      <trkpt lat="46.01038" lon="4.37895">
        <ele>441</ele>
        <time>2016-09-22T11:06:40Z</time>
      </trkpt>
      <trkpt lat="46.01036" lon="4.37896">
        <ele>441</ele>
        <time>2016-09-22T11:06:41Z</time>
      </trkpt>
      <trkpt lat="46.01028" lon="4.37901">
        <ele>441</ele>
        <time>2016-09-22T11:06:48Z</time>
      </trkpt>
      <trkpt lat="46.01027" lon="4.37901">
        <ele>441</ele>
        <time>2016-09-22T11:06:49Z</time>
      </trkpt>
      <trkpt lat="46.0102" lon="4.37906">
        <ele>441</ele>
        <time>2016-09-22T11:06:55Z</time>
      </trkpt>
      <trkpt lat="46.01019" lon="4.37907">
        <ele>441</ele>
        <time>2016-09-22T11:06:56Z</time>
      </trkpt>
      <trkpt lat="46.0101" lon="4.37909">
        <ele>442</ele>
        <time>2016-09-22T11:07:04Z</time>
      </trkpt>
      <trkpt lat="46.01009" lon="4.37908">
        <ele>442</ele>
        <time>2016-09-22T11:07:05Z</time>
      </trkpt>
      <trkpt lat="46.01001" lon="4.37911">
        <ele>442</ele>
        <time>2016-09-22T11:07:13Z</time>
      </trkpt>
      <trkpt lat="46.01" lon="4.37912">
        <ele>442</ele>
        <time>2016-09-22T11:07:14Z</time>
      </trkpt>
      <trkpt lat="46.00994" lon="4.37919">
        <ele>445</ele>
        <time>2016-09-22T11:07:20Z</time>
      </trkpt>
      <trkpt lat="46.00993" lon="4.3792">
        <ele>445</ele>
        <time>2016-09-22T11:07:21Z</time>
      </trkpt>
      <trkpt lat="46.00987" lon="4.3793">
        <ele>449</ele>
        <time>2016-09-22T11:07:29Z</time>
      </trkpt>
      <trkpt lat="46.00986" lon="4.37931">
        <ele>449</ele>
        <time>2016-09-22T11:07:30Z</time>
      </trkpt>
      <trkpt lat="46.0098" lon="4.37939">
        <ele>451</ele>
        <time>2016-09-22T11:07:37Z</time>
      </trkpt>
      <trkpt lat="46.00979" lon="4.3794">
        <ele>451</ele>
        <time>2016-09-22T11:07:38Z</time>
      </trkpt>
      <trkpt lat="46.00971" lon="4.37944">
        <ele>453</ele>
        <time>2016-09-22T11:07:46Z</time>
      </trkpt>
      <trkpt lat="46.0097" lon="4.37944">
        <ele>453</ele>
        <time>2016-09-22T11:07:47Z</time>
      </trkpt>
      <trkpt lat="46.00962" lon="4.37941">
        <ele>454</ele>
        <time>2016-09-22T11:07:54Z</time>
      </trkpt>
      <trkpt lat="46.00961" lon="4.3794">
        <ele>454</ele>
        <time>2016-09-22T11:07:55Z</time>
      </trkpt>
      <trkpt lat="46.00956" lon="4.37931">
        <ele>454</ele>
        <time>2016-09-22T11:08:04Z</time>
      </trkpt>
      <trkpt lat="46.00955" lon="4.3793">
        <ele>454</ele>
        <time>2016-09-22T11:08:05Z</time>
      </trkpt>
      <trkpt lat="46.00949" lon="4.3792">
        <ele>454</ele>
        <time>2016-09-22T11:08:13Z</time>
      </trkpt>
      <trkpt lat="46.00949" lon="4.37919">
        <ele>454</ele>
        <time>2016-09-22T11:08:14Z</time>
      </trkpt>
      <trkpt lat="46.00943" lon="4.37909">
        <ele>450</ele>
        <time>2016-09-22T11:08:22Z</time>
      </trkpt>
      <trkpt lat="46.00942" lon="4.37908">
        <ele>450</ele>
        <time>2016-09-22T11:08:23Z</time>
      </trkpt>
      <trkpt lat="46.00935" lon="4.37903">
        <ele>451</ele>
        <time>2016-09-22T11:08:29Z</time>
      </trkpt>
      <trkpt lat="46.00934" lon="4.37902">
        <ele>451</ele>
        <time>2016-09-22T11:08:30Z</time>
      </trkpt>
      <trkpt lat="46.00929" lon="4.37892">
        <ele>450</ele>
        <time>2016-09-22T11:08:38Z</time>
      </trkpt>
      <trkpt lat="46.00928" lon="4.37891">
        <ele>450</ele>
        <time>2016-09-22T11:08:39Z</time>
      </trkpt>
      <trkpt lat="46.00922" lon="4.37882">
        <ele>449</ele>
        <time>2016-09-22T11:08:47Z</time>
      </trkpt>
      <trkpt lat="46.00922" lon="4.37881">
        <ele>449</ele>
        <time>2016-09-22T11:08:48Z</time>
      </trkpt>
      <trkpt lat="46.00917" lon="4.37871">
        <ele>448</ele>
        <time>2016-09-22T11:08:56Z</time>
      </trkpt>
      <trkpt lat="46.00916" lon="4.3787">
        <ele>460</ele>
        <time>2016-09-22T11:08:57Z</time>
      </trkpt>
      <trkpt lat="46.0091" lon="4.37863">
        <ele>460</ele>
        <time>2016-09-22T11:09:03Z</time>
      </trkpt>
      <trkpt lat="46.00909" lon="4.37862">
        <ele>460</ele>
        <time>2016-09-22T11:09:04Z</time>
      </trkpt>
      <trkpt lat="46.00903" lon="4.37854">
        <ele>459</ele>
        <time>2016-09-22T11:09:11Z</time>
      </trkpt>
      <trkpt lat="46.00903" lon="4.37853">
        <ele>458</ele>
        <time>2016-09-22T11:09:12Z</time>
      </trkpt>
      <trkpt lat="46.00897" lon="4.37843">
        <ele>458</ele>
        <time>2016-09-22T11:09:20Z</time>
      </trkpt>
      <trkpt lat="46.00896" lon="4.37842">
        <ele>458</ele>
        <time>2016-09-22T11:09:21Z</time>
      </trkpt>
      <trkpt lat="46.00894" lon="4.3783">
        <ele>452</ele>
        <time>2016-09-22T11:09:29Z</time>
      </trkpt>
      <trkpt lat="46.00894" lon="4.37829">
        <ele>452</ele>
        <time>2016-09-22T11:09:30Z</time>
      </trkpt>
      <trkpt lat="46.00889" lon="4.37818">
        <ele>453</ele>
        <time>2016-09-22T11:09:38Z</time>
      </trkpt>
      <trkpt lat="46.00888" lon="4.37817">
        <ele>454</ele>
        <time>2016-09-22T11:09:39Z</time>
      </trkpt>
      <trkpt lat="46.00881" lon="4.37809">
        <ele>455</ele>
        <time>2016-09-22T11:09:49Z</time>
      </trkpt>
      <trkpt lat="46.00881" lon="4.37808">
        <ele>455</ele>
        <time>2016-09-22T11:09:50Z</time>
      </trkpt>
      <trkpt lat="46.00872" lon="4.37809">
        <ele>457</ele>
        <time>2016-09-22T11:10:02Z</time>
      </trkpt>
      <trkpt lat="46.00871" lon="4.37809">
        <ele>457</ele>
        <time>2016-09-22T11:10:03Z</time>
      </trkpt>
      <trkpt lat="46.00869" lon="4.3782">
        <ele>458</ele>
        <time>2016-09-22T11:10:26Z</time>
      </trkpt>
      <trkpt lat="46.00869" lon="4.37821">
        <ele>458</ele>
        <time>2016-09-22T11:10:27Z</time>
      </trkpt>
      <trkpt lat="46.00869" lon="4.37834">
        <ele>466</ele>
        <time>2016-09-22T11:10:42Z</time>
      </trkpt>
      <trkpt lat="46.0087" lon="4.37834">
        <ele>466</ele>
        <time>2016-09-22T11:10:43Z</time>
      </trkpt>
      <trkpt lat="46.00869" lon="4.37846">
        <ele>467</ele>
        <time>2016-09-22T11:10:56Z</time>
      </trkpt>
      <trkpt lat="46.00869" lon="4.37848">
        <ele>467</ele>
        <time>2016-09-22T11:10:57Z</time>
      </trkpt>
      <trkpt lat="46.00867" lon="4.3786">
        <ele>468</ele>
        <time>2016-09-22T11:11:10Z</time>
      </trkpt>
      <trkpt lat="46.00867" lon="4.37861">
        <ele>468</ele>
        <time>2016-09-22T11:11:11Z</time>
      </trkpt>
      <trkpt lat="46.00865" lon="4.37873">
        <ele>469</ele>
        <time>2016-09-22T11:11:23Z</time>
      </trkpt>
      <trkpt lat="46.00865" lon="4.37874">
        <ele>469</ele>
        <time>2016-09-22T11:11:24Z</time>
      </trkpt>
      <trkpt lat="46.00864" lon="4.37887">
        <ele>470</ele>
        <time>2016-09-22T11:11:38Z</time>
      </trkpt>
      <trkpt lat="46.00865" lon="4.37888">
        <ele>471</ele>
        <time>2016-09-22T11:11:39Z</time>
      </trkpt>
      <trkpt lat="46.00863" lon="4.379">
        <ele>472</ele>
        <time>2016-09-22T11:11:53Z</time>
      </trkpt>
      <trkpt lat="46.00863" lon="4.37901">
        <ele>473</ele>
        <time>2016-09-22T11:11:54Z</time>
      </trkpt>
      <trkpt lat="46.00861" lon="4.37913">
        <ele>475</ele>
        <time>2016-09-22T11:12:08Z</time>
      </trkpt>
      <trkpt lat="46.00861" lon="4.37913">
        <ele>475</ele>
        <time>2016-09-22T11:12:09Z</time>
      </trkpt>
      <trkpt lat="46.00861" lon="4.37925">
        <ele>482</ele>
        <time>2016-09-22T11:12:18Z</time>
      </trkpt>
      <trkpt lat="46.00861" lon="4.37926">
        <ele>482</ele>
        <time>2016-09-22T11:12:19Z</time>
      </trkpt>
      <trkpt lat="46.00862" lon="4.37938">
        <ele>481</ele>
        <time>2016-09-22T11:12:27Z</time>
      </trkpt>
      <trkpt lat="46.00862" lon="4.3794">
        <ele>481</ele>
        <time>2016-09-22T11:12:28Z</time>
      </trkpt>
      <trkpt lat="46.00862" lon="4.37952">
        <ele>481</ele>
        <time>2016-09-22T11:12:38Z</time>
      </trkpt>
      <trkpt lat="46.00863" lon="4.37953">
        <ele>482</ele>
        <time>2016-09-22T11:12:39Z</time>
      </trkpt>
      <trkpt lat="46.00865" lon="4.37965">
        <ele>482</ele>
        <time>2016-09-22T11:12:48Z</time>
      </trkpt>
      <trkpt lat="46.00865" lon="4.37966">
        <ele>482</ele>
        <time>2016-09-22T11:12:49Z</time>
      </trkpt>
      <trkpt lat="46.00868" lon="4.37977">
        <ele>482</ele>
        <time>2016-09-22T11:12:57Z</time>
      </trkpt>
      <trkpt lat="46.00868" lon="4.37979">
        <ele>482</ele>
        <time>2016-09-22T11:12:58Z</time>
      </trkpt>
      <trkpt lat="46.00869" lon="4.3799">
        <ele>483</ele>
        <time>2016-09-22T11:13:07Z</time>
      </trkpt>
      <trkpt lat="46.00868" lon="4.37992">
        <ele>483</ele>
        <time>2016-09-22T11:13:08Z</time>
      </trkpt>
      <trkpt lat="46.00872" lon="4.38002">
        <ele>487</ele>
        <time>2016-09-22T11:13:14Z</time>
      </trkpt>
      <trkpt lat="46.00873" lon="4.38004">
        <ele>487</ele>
        <time>2016-09-22T11:13:15Z</time>
      </trkpt>
      <trkpt lat="46.00876" lon="4.38016">
        <ele>486</ele>
        <time>2016-09-22T11:13:22Z</time>
      </trkpt>
      <trkpt lat="46.00876" lon="4.38017">
        <ele>486</ele>
        <time>2016-09-22T11:13:23Z</time>
      </trkpt>
      <trkpt lat="46.00881" lon="4.38027">
        <ele>486</ele>
        <time>2016-09-22T11:13:34Z</time>
      </trkpt>
      <trkpt lat="46.00882" lon="4.38028">
        <ele>486</ele>
        <time>2016-09-22T11:13:35Z</time>
      </trkpt>
      <trkpt lat="46.00886" lon="4.38037">
        <ele>485</ele>
        <time>2016-09-22T11:13:44Z</time>
      </trkpt>
      <trkpt lat="46.00886" lon="4.38039">
        <ele>485</ele>
        <time>2016-09-22T11:13:45Z</time>
      </trkpt>
      <trkpt lat="46.0089" lon="4.3805">
        <ele>485</ele>
        <time>2016-09-22T11:13:53Z</time>
      </trkpt>
      <trkpt lat="46.0089" lon="4.38052">
        <ele>485</ele>
        <time>2016-09-22T11:13:54Z</time>
      </trkpt>
      <trkpt lat="46.00894" lon="4.38062">
        <ele>484</ele>
        <time>2016-09-22T11:14:01Z</time>
      </trkpt>
      <trkpt lat="46.00894" lon="4.38064">
        <ele>484</ele>
        <time>2016-09-22T11:14:02Z</time>
      </trkpt>
      <trkpt lat="46.00897" lon="4.38075">
        <ele>483</ele>
        <time>2016-09-22T11:14:09Z</time>
      </trkpt>
      <trkpt lat="46.00897" lon="4.38077">
        <ele>483</ele>
        <time>2016-09-22T11:14:10Z</time>
      </trkpt>
      <trkpt lat="46.009" lon="4.38089">
        <ele>484</ele>
        <time>2016-09-22T11:14:17Z</time>
      </trkpt>
      <trkpt lat="46.009" lon="4.3809">
        <ele>484</ele>
        <time>2016-09-22T11:14:18Z</time>
      </trkpt>
      <trkpt lat="46.00897" lon="4.38101">
        <ele>486</ele>
        <time>2016-09-22T11:14:33Z</time>
      </trkpt>
      <trkpt lat="46.00897" lon="4.38103">
        <ele>487</ele>
        <time>2016-09-22T11:14:34Z</time>
      </trkpt>
      <trkpt lat="46.00889" lon="4.38107">
        <ele>488</ele>
        <time>2016-09-22T11:14:48Z</time>
      </trkpt>
      <trkpt lat="46.00888" lon="4.38107">
        <ele>488</ele>
        <time>2016-09-22T11:14:49Z</time>
      </trkpt>
      <trkpt lat="46.0088" lon="4.38106">
        <ele>490</ele>
        <time>2016-09-22T11:15:13Z</time>
      </trkpt>
      <trkpt lat="46.00879" lon="4.38105">
        <ele>490</ele>
        <time>2016-09-22T11:15:14Z</time>
      </trkpt>
      <trkpt lat="46.00871" lon="4.38102">
        <ele>491</ele>
        <time>2016-09-22T11:15:20Z</time>
      </trkpt>
      <trkpt lat="46.0087" lon="4.38101">
        <ele>492</ele>
        <time>2016-09-22T11:15:21Z</time>
      </trkpt>
      <trkpt lat="46.00861" lon="4.38097">
        <ele>494</ele>
        <time>2016-09-22T11:15:32Z</time>
      </trkpt>
      <trkpt lat="46.00861" lon="4.38096">
        <ele>494</ele>
        <time>2016-09-22T11:15:33Z</time>
      </trkpt>
      <trkpt lat="46.00854" lon="4.38092">
        <ele>496</ele>
        <time>2016-09-22T11:15:50Z</time>
      </trkpt>
      <trkpt lat="46.00852" lon="4.38091">
        <ele>496</ele>
        <time>2016-09-22T11:15:51Z</time>
      </trkpt>
      <trkpt lat="46.00844" lon="4.38086">
        <ele>499</ele>
        <time>2016-09-22T11:15:57Z</time>
      </trkpt>
      <trkpt lat="46.00843" lon="4.38085">
        <ele>499</ele>
        <time>2016-09-22T11:15:58Z</time>
      </trkpt>
      <trkpt lat="46.00834" lon="4.3808">
        <ele>501</ele>
        <time>2016-09-22T11:16:06Z</time>
      </trkpt>
      <trkpt lat="46.00833" lon="4.3808">
        <ele>504</ele>
        <time>2016-09-22T11:16:07Z</time>
      </trkpt>
      <trkpt lat="46.00827" lon="4.38071">
        <ele>506</ele>
        <time>2016-09-22T11:16:20Z</time>
      </trkpt>
      <trkpt lat="46.00827" lon="4.38071">
        <ele>506</ele>
        <time>2016-09-22T11:16:21Z</time>
      </trkpt>
      <trkpt lat="46.00819" lon="4.38065">
        <ele>508</ele>
        <time>2016-09-22T11:16:42Z</time>
      </trkpt>
      <trkpt lat="46.00819" lon="4.38064">
        <ele>508</ele>
        <time>2016-09-22T11:16:43Z</time>
      </trkpt>
      <trkpt lat="46.00813" lon="4.38056">
        <ele>509</ele>
        <time>2016-09-22T11:16:50Z</time>
      </trkpt>
      <trkpt lat="46.00812" lon="4.38055">
        <ele>509</ele>
        <time>2016-09-22T11:16:51Z</time>
      </trkpt>
      <trkpt lat="46.00807" lon="4.38045">
        <ele>510</ele>
        <time>2016-09-22T11:17:01Z</time>
      </trkpt>
      <trkpt lat="46.00806" lon="4.38044">
        <ele>510</ele>
        <time>2016-09-22T11:17:02Z</time>
      </trkpt>
      <trkpt lat="46.008" lon="4.38036">
        <ele>510</ele>
        <time>2016-09-22T11:17:10Z</time>
      </trkpt>
      <trkpt lat="46.008" lon="4.38035">
        <ele>510</ele>
        <time>2016-09-22T11:17:11Z</time>
      </trkpt>
      <trkpt lat="46.00795" lon="4.38024">
        <ele>511</ele>
        <time>2016-09-22T11:17:21Z</time>
      </trkpt>
      <trkpt lat="46.00795" lon="4.38023">
        <ele>511</ele>
        <time>2016-09-22T11:17:22Z</time>
      </trkpt>
      <trkpt lat="46.00792" lon="4.38012">
        <ele>511</ele>
        <time>2016-09-22T11:17:32Z</time>
      </trkpt>
      <trkpt lat="46.00792" lon="4.38011">
        <ele>511</ele>
        <time>2016-09-22T11:17:33Z</time>
      </trkpt>
      <trkpt lat="46.00787" lon="4.38">
        <ele>509</ele>
        <time>2016-09-22T11:17:43Z</time>
      </trkpt>
      <trkpt lat="46.00787" lon="4.37999">
        <ele>509</ele>
        <time>2016-09-22T11:17:44Z</time>
      </trkpt>
      <trkpt lat="46.00785" lon="4.37987">
        <ele>509</ele>
        <time>2016-09-22T11:17:55Z</time>
      </trkpt>
      <trkpt lat="46.00784" lon="4.37986">
        <ele>509</ele>
        <time>2016-09-22T11:17:56Z</time>
      </trkpt>
      <trkpt lat="46.00777" lon="4.37978">
        <ele>510</ele>
        <time>2016-09-22T11:18:06Z</time>
      </trkpt>
      <trkpt lat="46.00777" lon="4.37978">
        <ele>510</ele>
        <time>2016-09-22T11:18:07Z</time>
      </trkpt>
      <trkpt lat="46.00769" lon="4.37971">
        <ele>510</ele>
        <time>2016-09-22T11:18:17Z</time>
      </trkpt>
      <trkpt lat="46.00769" lon="4.37971">
        <ele>510</ele>
        <time>2016-09-22T11:18:18Z</time>
      </trkpt>
      <trkpt lat="46.00761" lon="4.37966">
        <ele>510</ele>
        <time>2016-09-22T11:18:27Z</time>
      </trkpt>
      <trkpt lat="46.0076" lon="4.37965">
        <ele>510</ele>
        <time>2016-09-22T11:18:28Z</time>
      </trkpt>
      <trkpt lat="46.00751" lon="4.37961">
        <ele>511</ele>
        <time>2016-09-22T11:18:37Z</time>
      </trkpt>
      <trkpt lat="46.0075" lon="4.3796">
        <ele>511</ele>
        <time>2016-09-22T11:18:38Z</time>
      </trkpt>
      <trkpt lat="46.00742" lon="4.37956">
        <ele>521</ele>
        <time>2016-09-22T11:18:47Z</time>
      </trkpt>
      <trkpt lat="46.00742" lon="4.37955">
        <ele>521</ele>
        <time>2016-09-22T11:18:48Z</time>
      </trkpt>
      <trkpt lat="46.00733" lon="4.37958">
        <ele>521</ele>
        <time>2016-09-22T11:19:11Z</time>
      </trkpt>
      <trkpt lat="46.00733" lon="4.37958">
        <ele>521</ele>
        <time>2016-09-22T11:19:12Z</time>
      </trkpt>
      <trkpt lat="46.00726" lon="4.37966">
        <ele>522</ele>
        <time>2016-09-22T11:19:27Z</time>
      </trkpt>
      <trkpt lat="46.00725" lon="4.37967">
        <ele>522</ele>
        <time>2016-09-22T11:19:28Z</time>
      </trkpt>
      <trkpt lat="46.00719" lon="4.37976">
        <ele>523</ele>
        <time>2016-09-22T11:19:38Z</time>
      </trkpt>
      <trkpt lat="46.00719" lon="4.37977">
        <ele>523</ele>
        <time>2016-09-22T11:19:39Z</time>
      </trkpt>
      <trkpt lat="46.00715" lon="4.37988">
        <ele>523</ele>
        <time>2016-09-22T11:19:53Z</time>
      </trkpt>
      <trkpt lat="46.00715" lon="4.37989">
        <ele>523</ele>
        <time>2016-09-22T11:19:54Z</time>
      </trkpt>
      <trkpt lat="46.00712" lon="4.38">
        <ele>524</ele>
        <time>2016-09-22T11:20:04Z</time>
      </trkpt>
      <trkpt lat="46.00712" lon="4.38001">
        <ele>526</ele>
        <time>2016-09-22T11:20:05Z</time>
      </trkpt>
      <trkpt lat="46.0071" lon="4.38014">
        <ele>527</ele>
        <time>2016-09-22T11:20:15Z</time>
      </trkpt>
      <trkpt lat="46.0071" lon="4.38015">
        <ele>527</ele>
        <time>2016-09-22T11:20:16Z</time>
      </trkpt>
      <trkpt lat="46.00708" lon="4.38026">
        <ele>527</ele>
        <time>2016-09-22T11:20:25Z</time>
      </trkpt>
      <trkpt lat="46.00708" lon="4.38027">
        <ele>527</ele>
        <time>2016-09-22T11:20:26Z</time>
      </trkpt>
      <trkpt lat="46.00708" lon="4.3804">
        <ele>527</ele>
        <time>2016-09-22T11:20:35Z</time>
      </trkpt>
      <trkpt lat="46.00708" lon="4.38041">
        <ele>527</ele>
        <time>2016-09-22T11:20:36Z</time>
      </trkpt>
      <trkpt lat="46.0071" lon="4.38052">
        <ele>527</ele>
        <time>2016-09-22T11:20:45Z</time>
      </trkpt>
      <trkpt lat="46.0071" lon="4.38054">
        <ele>527</ele>
        <time>2016-09-22T11:20:46Z</time>
      </trkpt>
      <trkpt lat="46.00712" lon="4.38065">
        <ele>527</ele>
        <time>2016-09-22T11:20:54Z</time>
      </trkpt>
      <trkpt lat="46.00712" lon="4.38067">
        <ele>527</ele>
        <time>2016-09-22T11:20:55Z</time>
      </trkpt>
      <trkpt lat="46.00711" lon="4.38079">
        <ele>527</ele>
        <time>2016-09-22T11:21:01Z</time>
      </trkpt>
      <trkpt lat="46.00711" lon="4.38081">
        <ele>527</ele>
        <time>2016-09-22T11:21:02Z</time>
      </trkpt>
      <trkpt lat="46.00711" lon="4.38092">
        <ele>527</ele>
        <time>2016-09-22T11:21:08Z</time>
      </trkpt>
      <trkpt lat="46.00711" lon="4.38094">
        <ele>527</ele>
        <time>2016-09-22T11:21:09Z</time>
      </trkpt>
      <trkpt lat="46.00708" lon="4.38106">
        <ele>527</ele>
        <time>2016-09-22T11:21:17Z</time>
      </trkpt>
      <trkpt lat="46.00708" lon="4.38108">
        <ele>527</ele>
        <time>2016-09-22T11:21:18Z</time>
      </trkpt>
      <trkpt lat="46.00706" lon="4.3812">
        <ele>527</ele>
        <time>2016-09-22T11:21:24Z</time>
      </trkpt>
      <trkpt lat="46.00705" lon="4.38122">
        <ele>526</ele>
        <time>2016-09-22T11:21:25Z</time>
      </trkpt>
      <trkpt lat="46.00705" lon="4.38134">
        <ele>526</ele>
        <time>2016-09-22T11:21:31Z</time>
      </trkpt>
      <trkpt lat="46.00705" lon="4.38136">
        <ele>526</ele>
        <time>2016-09-22T11:21:32Z</time>
      </trkpt>
      <trkpt lat="46.00704" lon="4.38147">
        <ele>526</ele>
        <time>2016-09-22T11:21:39Z</time>
      </trkpt>
      <trkpt lat="46.00704" lon="4.38149">
        <ele>526</ele>
        <time>2016-09-22T11:21:40Z</time>
      </trkpt>
      <trkpt lat="46.00699" lon="4.38158">
        <ele>527</ele>
        <time>2016-09-22T11:21:46Z</time>
      </trkpt>
      <trkpt lat="46.00699" lon="4.3816">
        <ele>527</ele>
        <time>2016-09-22T11:21:47Z</time>
      </trkpt>
      <trkpt lat="46.00695" lon="4.3817">
        <ele>522</ele>
        <time>2016-09-22T11:21:53Z</time>
      </trkpt>
      <trkpt lat="46.00695" lon="4.38172">
        <ele>522</ele>
        <time>2016-09-22T11:21:54Z</time>
      </trkpt>
      <trkpt lat="46.00691" lon="4.38183">
        <ele>522</ele>
        <time>2016-09-22T11:22:00Z</time>
      </trkpt>
      <trkpt lat="46.00691" lon="4.38184">
        <ele>522</ele>
        <time>2016-09-22T11:22:01Z</time>
      </trkpt>
      <trkpt lat="46.00686" lon="4.38195">
        <ele>521</ele>
        <time>2016-09-22T11:22:08Z</time>
      </trkpt>
      <trkpt lat="46.00685" lon="4.38197">
        <ele>521</ele>
        <time>2016-09-22T11:22:09Z</time>
      </trkpt>
      <trkpt lat="46.00681" lon="4.38208">
        <ele>520</ele>
        <time>2016-09-22T11:22:17Z</time>
      </trkpt>
      <trkpt lat="46.00681" lon="4.38209">
        <ele>520</ele>
        <time>2016-09-22T11:22:18Z</time>
      </trkpt>
      <trkpt lat="46.00675" lon="4.38217">
        <ele>520</ele>
        <time>2016-09-22T11:22:24Z</time>
      </trkpt>
      <trkpt lat="46.00674" lon="4.38218">
        <ele>520</ele>
        <time>2016-09-22T11:22:25Z</time>
      </trkpt>
      <trkpt lat="46.0067" lon="4.3823">
        <ele>519</ele>
        <time>2016-09-22T11:22:31Z</time>
      </trkpt>
      <trkpt lat="46.00669" lon="4.38231">
        <ele>519</ele>
        <time>2016-09-22T11:22:32Z</time>
      </trkpt>
      <trkpt lat="46.00664" lon="4.38241">
        <ele>518</ele>
        <time>2016-09-22T11:22:40Z</time>
      </trkpt>
      <trkpt lat="46.00665" lon="4.38243">
        <ele>518</ele>
        <time>2016-09-22T11:22:41Z</time>
      </trkpt>
      <trkpt lat="46.00665" lon="4.38254">
        <ele>517</ele>
        <time>2016-09-22T11:22:48Z</time>
      </trkpt>
      <trkpt lat="46.00664" lon="4.38256">
        <ele>517</ele>
        <time>2016-09-22T11:22:49Z</time>
      </trkpt>
      <trkpt lat="46.00667" lon="4.38268">
        <ele>516</ele>
        <time>2016-09-22T11:22:57Z</time>
      </trkpt>
      <trkpt lat="46.00667" lon="4.38269">
        <ele>516</ele>
        <time>2016-09-22T11:22:58Z</time>
      </trkpt>
      <trkpt lat="46.00668" lon="4.38281">
        <ele>516</ele>
        <time>2016-09-22T11:23:05Z</time>
      </trkpt>
      <trkpt lat="46.00668" lon="4.38282">
        <ele>516</ele>
        <time>2016-09-22T11:23:06Z</time>
      </trkpt>
      <trkpt lat="46.00673" lon="4.38293">
        <ele>516</ele>
        <time>2016-09-22T11:23:14Z</time>
      </trkpt>
      <trkpt lat="46.00673" lon="4.38294">
        <ele>516</ele>
        <time>2016-09-22T11:23:15Z</time>
      </trkpt>
      <trkpt lat="46.00677" lon="4.38305">
        <ele>516</ele>
        <time>2016-09-22T11:23:25Z</time>
      </trkpt>
      <trkpt lat="46.00677" lon="4.38307">
        <ele>516</ele>
        <time>2016-09-22T11:23:26Z</time>
      </trkpt>
      <trkpt lat="46.00681" lon="4.38318">
        <ele>516</ele>
        <time>2016-09-22T11:26:36Z</time>
      </trkpt>
      <trkpt lat="46.00681" lon="4.38319">
        <ele>516</ele>
        <time>2016-09-22T11:26:37Z</time>
      </trkpt>
      <trkpt lat="46.00687" lon="4.38328">
        <ele>516</ele>
        <time>2016-09-22T11:26:45Z</time>
      </trkpt>
      <trkpt lat="46.00687" lon="4.38329">
        <ele>516</ele>
        <time>2016-09-22T11:26:46Z</time>
      </trkpt>
      <trkpt lat="46.00693" lon="4.38337">
        <ele>518</ele>
        <time>2016-09-22T11:26:53Z</time>
      </trkpt>
      <trkpt lat="46.00694" lon="4.38338">
        <ele>518</ele>
        <time>2016-09-22T11:26:54Z</time>
      </trkpt>
      <trkpt lat="46.007" lon="4.38346">
        <ele>518</ele>
        <time>2016-09-22T11:27:01Z</time>
      </trkpt>
      <trkpt lat="46.00701" lon="4.38347">
        <ele>518</ele>
        <time>2016-09-22T11:27:02Z</time>
      </trkpt>
      <trkpt lat="46.00707" lon="4.38356">
        <ele>518</ele>
        <time>2016-09-22T11:27:10Z</time>
      </trkpt>
      <trkpt lat="46.00707" lon="4.38357">
        <ele>518</ele>
        <time>2016-09-22T11:27:11Z</time>
      </trkpt>
      <trkpt lat="46.00713" lon="4.38367">
        <ele>518</ele>
        <time>2016-09-22T11:27:20Z</time>
      </trkpt>
      <trkpt lat="46.00714" lon="4.38368">
        <ele>519</ele>
        <time>2016-09-22T11:27:21Z</time>
      </trkpt>
      <trkpt lat="46.00719" lon="4.38378">
        <ele>519</ele>
        <time>2016-09-22T11:27:31Z</time>
      </trkpt>
      <trkpt lat="46.00719" lon="4.38379">
        <ele>519</ele>
        <time>2016-09-22T11:27:32Z</time>
      </trkpt>
      <trkpt lat="46.00726" lon="4.38387">
        <ele>519</ele>
        <time>2016-09-22T11:27:41Z</time>
      </trkpt>
      <trkpt lat="46.00727" lon="4.38388">
        <ele>519</ele>
        <time>2016-09-22T11:27:42Z</time>
      </trkpt>
      <trkpt lat="46.00731" lon="4.38398">
        <ele>520</ele>
        <time>2016-09-22T11:29:13Z</time>
      </trkpt>
      <trkpt lat="46.00732" lon="4.38399">
        <ele>520</ele>
        <time>2016-09-22T11:29:14Z</time>
      </trkpt>
      <trkpt lat="46.00737" lon="4.38408">
        <ele>521</ele>
        <time>2016-09-22T11:29:24Z</time>
      </trkpt>
      <trkpt lat="46.00738" lon="4.38409">
        <ele>521</ele>
        <time>2016-09-22T11:29:25Z</time>
      </trkpt>
      <trkpt lat="46.00743" lon="4.38419">
        <ele>523</ele>
        <time>2016-09-22T11:29:33Z</time>
      </trkpt>
      <trkpt lat="46.00744" lon="4.3842">
        <ele>523</ele>
        <time>2016-09-22T11:29:34Z</time>
      </trkpt>
      <trkpt lat="46.00749" lon="4.38428">
        <ele>523</ele>
        <time>2016-09-22T11:29:40Z</time>
      </trkpt>
      <trkpt lat="46.0075" lon="4.38429">
        <ele>522</ele>
        <time>2016-09-22T11:29:41Z</time>
      </trkpt>
      <trkpt lat="46.00754" lon="4.3844">
        <ele>522</ele>
        <time>2016-09-22T11:29:48Z</time>
      </trkpt>
      <trkpt lat="46.00755" lon="4.38441">
        <ele>522</ele>
        <time>2016-09-22T11:29:49Z</time>
      </trkpt>
      <trkpt lat="46.00761" lon="4.38451">
        <ele>521</ele>
        <time>2016-09-22T11:29:57Z</time>
      </trkpt>
      <trkpt lat="46.00761" lon="4.38452">
        <ele>521</ele>
        <time>2016-09-22T11:29:58Z</time>
      </trkpt>
      <trkpt lat="46.00765" lon="4.38462">
        <ele>521</ele>
        <time>2016-09-22T11:30:05Z</time>
      </trkpt>
      <trkpt lat="46.00766" lon="4.38463">
        <ele>521</ele>
        <time>2016-09-22T11:30:06Z</time>
      </trkpt>
      <trkpt lat="46.00774" lon="4.38468">
        <ele>521</ele>
        <time>2016-09-22T11:30:12Z</time>
      </trkpt>
      <trkpt lat="46.00775" lon="4.38468">
        <ele>521</ele>
        <time>2016-09-22T11:30:13Z</time>
      </trkpt>
      <trkpt lat="46.00782" lon="4.38474">
        <ele>521</ele>
        <time>2016-09-22T11:30:21Z</time>
      </trkpt>
      <trkpt lat="46.00783" lon="4.38474">
        <ele>521</ele>
        <time>2016-09-22T11:30:22Z</time>
      </trkpt>
      <trkpt lat="46.00791" lon="4.38477">
        <ele>521</ele>
        <time>2016-09-22T11:30:29Z</time>
      </trkpt>
      <trkpt lat="46.00792" lon="4.38477">
        <ele>521</ele>
        <time>2016-09-22T11:30:30Z</time>
      </trkpt>
      <trkpt lat="46.008" lon="4.3848">
        <ele>521</ele>
        <time>2016-09-22T11:30:37Z</time>
      </trkpt>
      <trkpt lat="46.00801" lon="4.3848">
        <ele>520</ele>
        <time>2016-09-22T11:30:38Z</time>
      </trkpt>
      <trkpt lat="46.00809" lon="4.38483">
        <ele>520</ele>
        <time>2016-09-22T11:30:45Z</time>
      </trkpt>
      <trkpt lat="46.0081" lon="4.38484">
        <ele>520</ele>
        <time>2016-09-22T11:30:46Z</time>
      </trkpt>
      <trkpt lat="46.00815" lon="4.38493">
        <ele>520</ele>
        <time>2016-09-22T11:30:53Z</time>
      </trkpt>
      <trkpt lat="46.00815" lon="4.38495">
        <ele>520</ele>
        <time>2016-09-22T11:30:54Z</time>
      </trkpt>
      <trkpt lat="46.0081" lon="4.38505">
        <ele>519</ele>
        <time>2016-09-22T11:31:02Z</time>
      </trkpt>
      <trkpt lat="46.0081" lon="4.38506">
        <ele>519</ele>
        <time>2016-09-22T11:31:03Z</time>
      </trkpt>
      <trkpt lat="46.00804" lon="4.38515">
        <ele>519</ele>
        <time>2016-09-22T11:31:26Z</time>
      </trkpt>
      <trkpt lat="46.00803" lon="4.38516">
        <ele>519</ele>
        <time>2016-09-22T11:31:27Z</time>
      </trkpt>
      <trkpt lat="46.00797" lon="4.38524">
        <ele>519</ele>
        <time>2016-09-22T11:31:37Z</time>
      </trkpt>
      <trkpt lat="46.00796" lon="4.38525">
        <ele>519</ele>
        <time>2016-09-22T11:31:38Z</time>
      </trkpt>
      <trkpt lat="46.00789" lon="4.38533">
        <ele>519</ele>
        <time>2016-09-22T11:31:46Z</time>
      </trkpt>
      <trkpt lat="46.00788" lon="4.38534">
        <ele>519</ele>
        <time>2016-09-22T11:31:47Z</time>
      </trkpt>
      <trkpt lat="46.00781" lon="4.38541">
        <ele>519</ele>
        <time>2016-09-22T11:31:54Z</time>
      </trkpt>
      <trkpt lat="46.0078" lon="4.38542">
        <ele>519</ele>
        <time>2016-09-22T11:31:55Z</time>
      </trkpt>
      <trkpt lat="46.00774" lon="4.3855">
        <ele>519</ele>
        <time>2016-09-22T11:32:02Z</time>
      </trkpt>
      <trkpt lat="46.00773" lon="4.38552">
        <ele>519</ele>
        <time>2016-09-22T11:32:03Z</time>
      </trkpt>
      <trkpt lat="46.00769" lon="4.38562">
        <ele>519</ele>
        <time>2016-09-22T11:32:10Z</time>
      </trkpt>
      <trkpt lat="46.00768" lon="4.38563">
        <ele>519</ele>
        <time>2016-09-22T11:32:11Z</time>
      </trkpt>
      <trkpt lat="46.00765" lon="4.38575">
        <ele>519</ele>
        <time>2016-09-22T11:32:19Z</time>
      </trkpt>
      <trkpt lat="46.00765" lon="4.38576">
        <ele>519</ele>
        <time>2016-09-22T11:32:20Z</time>
      </trkpt>
      <trkpt lat="46.00766" lon="4.38588">
        <ele>518</ele>
        <time>2016-09-22T11:32:29Z</time>
      </trkpt>
      <trkpt lat="46.00767" lon="4.38589">
        <ele>518</ele>
        <time>2016-09-22T11:32:30Z</time>
      </trkpt>
      <trkpt lat="46.00771" lon="4.38599">
        <ele>517</ele>
        <time>2016-09-22T11:32:39Z</time>
      </trkpt>
      <trkpt lat="46.00772" lon="4.38601">
        <ele>517</ele>
        <time>2016-09-22T11:32:40Z</time>
      </trkpt>
      <trkpt lat="46.00776" lon="4.38612">
        <ele>516</ele>
        <time>2016-09-22T11:32:49Z</time>
      </trkpt>
      <trkpt lat="46.00776" lon="4.38614">
        <ele>516</ele>
        <time>2016-09-22T11:32:50Z</time>
      </trkpt>
      <trkpt lat="46.0078" lon="4.38626">
        <ele>516</ele>
        <time>2016-09-22T11:32:57Z</time>
      </trkpt>
      <trkpt lat="46.0078" lon="4.38628">
        <ele>516</ele>
        <time>2016-09-22T11:32:58Z</time>
      </trkpt>
      <trkpt lat="46.00782" lon="4.3864">
        <ele>516</ele>
        <time>2016-09-22T11:33:05Z</time>
      </trkpt>
      <trkpt lat="46.00782" lon="4.38641">
        <ele>516</ele>
        <time>2016-09-22T11:33:06Z</time>
      </trkpt>
      <trkpt lat="46.00786" lon="4.38653">
        <ele>515</ele>
        <time>2016-09-22T11:33:14Z</time>
      </trkpt>
      <trkpt lat="46.00786" lon="4.38655">
        <ele>515</ele>
        <time>2016-09-22T11:33:15Z</time>
      </trkpt>
      <trkpt lat="46.00786" lon="4.38666">
        <ele>516</ele>
        <time>2016-09-22T11:33:21Z</time>
      </trkpt>
      <trkpt lat="46.00785" lon="4.38668">
        <ele>519</ele>
        <time>2016-09-22T11:33:22Z</time>
      </trkpt>
      <trkpt lat="46.00786" lon="4.3868">
        <ele>519</ele>
        <time>2016-09-22T11:33:29Z</time>
      </trkpt>
      <trkpt lat="46.00787" lon="4.38681">
        <ele>519</ele>
        <time>2016-09-22T11:33:30Z</time>
      </trkpt>
      <trkpt lat="46.00792" lon="4.3869">
        <ele>519</ele>
        <time>2016-09-22T11:33:36Z</time>
      </trkpt>
      <trkpt lat="46.00793" lon="4.38691">
        <ele>519</ele>
        <time>2016-09-22T11:33:37Z</time>
      </trkpt>
      <trkpt lat="46.008" lon="4.38695">
        <ele>518</ele>
        <time>2016-09-22T11:33:42Z</time>
      </trkpt>
      <trkpt lat="46.00801" lon="4.38696">
        <ele>518</ele>
        <time>2016-09-22T11:33:43Z</time>
      </trkpt>
      <trkpt lat="46.0081" lon="4.38698">
        <ele>517</ele>
        <time>2016-09-22T11:33:52Z</time>
      </trkpt>
      <trkpt lat="46.00811" lon="4.38697">
        <ele>517</ele>
        <time>2016-09-22T11:33:53Z</time>
      </trkpt>
      <trkpt lat="46.00819" lon="4.38697">
        <ele>516</ele>
        <time>2016-09-22T11:34:02Z</time>
      </trkpt>
      <trkpt lat="46.0082" lon="4.38697">
        <ele>516</ele>
        <time>2016-09-22T11:34:03Z</time>
      </trkpt>
      <trkpt lat="46.00828" lon="4.38696">
        <ele>515</ele>
        <time>2016-09-22T11:34:13Z</time>
      </trkpt>
      <trkpt lat="46.00829" lon="4.38696">
        <ele>515</ele>
        <time>2016-09-22T11:34:14Z</time>
      </trkpt>
      <trkpt lat="46.00838" lon="4.38698">
        <ele>509</ele>
        <time>2016-09-22T11:34:25Z</time>
      </trkpt>
      <trkpt lat="46.00839" lon="4.38698">
        <ele>509</ele>
        <time>2016-09-22T11:34:26Z</time>
      </trkpt>
      <trkpt lat="46.00847" lon="4.387">
        <ele>509</ele>
        <time>2016-09-22T11:34:33Z</time>
      </trkpt>
      <trkpt lat="46.00848" lon="4.387">
        <ele>509</ele>
        <time>2016-09-22T11:34:34Z</time>
      </trkpt>
      <trkpt lat="46.00856" lon="4.38703">
        <ele>510</ele>
        <time>2016-09-22T11:34:42Z</time>
      </trkpt>
      <trkpt lat="46.00858" lon="4.38704">
        <ele>510</ele>
        <time>2016-09-22T11:34:43Z</time>
      </trkpt>
      <trkpt lat="46.00866" lon="4.38705">
        <ele>509</ele>
        <time>2016-09-22T11:34:50Z</time>
      </trkpt>
      <trkpt lat="46.00867" lon="4.38705">
        <ele>510</ele>
        <time>2016-09-22T11:34:51Z</time>
      </trkpt>
      <trkpt lat="46.00874" lon="4.3871">
        <ele>510</ele>
        <time>2016-09-22T11:34:57Z</time>
      </trkpt>
      <trkpt lat="46.00876" lon="4.3871">
        <ele>510</ele>
        <time>2016-09-22T11:34:58Z</time>
      </trkpt>
      <trkpt lat="46.00884" lon="4.38712">
        <ele>510</ele>
        <time>2016-09-22T11:35:03Z</time>
      </trkpt>
      <trkpt lat="46.00886" lon="4.38712">
        <ele>509</ele>
        <time>2016-09-22T11:35:04Z</time>
      </trkpt>
      <trkpt lat="46.00894" lon="4.38712">
        <ele>509</ele>
        <time>2016-09-22T11:35:10Z</time>
      </trkpt>
      <trkpt lat="46.00896" lon="4.38713">
        <ele>509</ele>
        <time>2016-09-22T11:35:11Z</time>
      </trkpt>
      <trkpt lat="46.00904" lon="4.38716">
        <ele>510</ele>
        <time>2016-09-22T11:35:18Z</time>
      </trkpt>
      <trkpt lat="46.00905" lon="4.38717">
        <ele>510</ele>
        <time>2016-09-22T11:35:19Z</time>
      </trkpt>
      <trkpt lat="46.00913" lon="4.38717">
        <ele>510</ele>
        <time>2016-09-22T11:35:26Z</time>
      </trkpt>
      <trkpt lat="46.00914" lon="4.38717">
        <ele>510</ele>
        <time>2016-09-22T11:35:27Z</time>
      </trkpt>
      <trkpt lat="46.00923" lon="4.38713">
        <ele>506</ele>
        <time>2016-09-22T11:35:35Z</time>
      </trkpt>
      <trkpt lat="46.00924" lon="4.38713">
        <ele>506</ele>
        <time>2016-09-22T11:35:36Z</time>
      </trkpt>
      <trkpt lat="46.00933" lon="4.38711">
        <ele>505</ele>
        <time>2016-09-22T11:35:43Z</time>
      </trkpt>
      <trkpt lat="46.00933" lon="4.38711">
        <ele>505</ele>
        <time>2016-09-22T11:35:44Z</time>
      </trkpt>
      <trkpt lat="46.00942" lon="4.38715">
        <ele>505</ele>
        <time>2016-09-22T11:35:51Z</time>
      </trkpt>
      <trkpt lat="46.00943" lon="4.38715">
        <ele>505</ele>
        <time>2016-09-22T11:35:52Z</time>
      </trkpt>
      <trkpt lat="46.0095" lon="4.38718">
        <ele>505</ele>
        <time>2016-09-22T11:35:58Z</time>
      </trkpt>
      <trkpt lat="46.00952" lon="4.38719">
        <ele>505</ele>
        <time>2016-09-22T11:35:59Z</time>
      </trkpt>
      <trkpt lat="46.00959" lon="4.38723">
        <ele>505</ele>
        <time>2016-09-22T11:36:05Z</time>
      </trkpt>
      <trkpt lat="46.0096" lon="4.38724">
        <ele>505</ele>
        <time>2016-09-22T11:36:06Z</time>
      </trkpt>
      <trkpt lat="46.00968" lon="4.38725">
        <ele>505</ele>
        <time>2016-09-22T11:36:12Z</time>
      </trkpt>
      <trkpt lat="46.00969" lon="4.38726">
        <ele>505</ele>
        <time>2016-09-22T11:36:13Z</time>
      </trkpt>
      <trkpt lat="46.00978" lon="4.38728">
        <ele>506</ele>
        <time>2016-09-22T11:36:20Z</time>
      </trkpt>
      <trkpt lat="46.00979" lon="4.38728">
        <ele>506</ele>
        <time>2016-09-22T11:36:21Z</time>
      </trkpt>
      <trkpt lat="46.00988" lon="4.38728">
        <ele>506</ele>
        <time>2016-09-22T11:36:28Z</time>
      </trkpt>
      <trkpt lat="46.00989" lon="4.38727">
        <ele>506</ele>
        <time>2016-09-22T11:36:29Z</time>
      </trkpt>
      <trkpt lat="46.00998" lon="4.38729">
        <ele>506</ele>
        <time>2016-09-22T11:36:37Z</time>
      </trkpt>
      <trkpt lat="46.00999" lon="4.38729">
        <ele>506</ele>
        <time>2016-09-22T11:36:38Z</time>
      </trkpt>
      <trkpt lat="46.01006" lon="4.38734">
        <ele>503</ele>
        <time>2016-09-22T11:36:44Z</time>
      </trkpt>
      <trkpt lat="46.01007" lon="4.38734">
        <ele>503</ele>
        <time>2016-09-22T11:36:45Z</time>
      </trkpt>
      <trkpt lat="46.01015" lon="4.38738">
        <ele>502</ele>
        <time>2016-09-22T11:36:51Z</time>
      </trkpt>
      <trkpt lat="46.01017" lon="4.38738">
        <ele>502</ele>
        <time>2016-09-22T11:36:52Z</time>
      </trkpt>
      <trkpt lat="46.01025" lon="4.38744">
        <ele>501</ele>
        <time>2016-09-22T11:36:58Z</time>
      </trkpt>
      <trkpt lat="46.01026" lon="4.38745">
        <ele>501</ele>
        <time>2016-09-22T11:36:59Z</time>
      </trkpt>
      <trkpt lat="46.01033" lon="4.38751">
        <ele>509</ele>
        <time>2016-09-22T11:37:05Z</time>
      </trkpt>
      <trkpt lat="46.01034" lon="4.38752">
        <ele>508</ele>
        <time>2016-09-22T11:37:06Z</time>
      </trkpt>
      <trkpt lat="46.01041" lon="4.38759">
        <ele>508</ele>
        <time>2016-09-22T11:37:12Z</time>
      </trkpt>
      <trkpt lat="46.01042" lon="4.3876">
        <ele>508</ele>
        <time>2016-09-22T11:37:13Z</time>
      </trkpt>
      <trkpt lat="46.0105" lon="4.38767">
        <ele>507</ele>
        <time>2016-09-22T11:37:20Z</time>
      </trkpt>
      <trkpt lat="46.01051" lon="4.38768">
        <ele>507</ele>
        <time>2016-09-22T11:37:21Z</time>
      </trkpt>
      <trkpt lat="46.01056" lon="4.38776">
        <ele>507</ele>
        <time>2016-09-22T11:37:27Z</time>
      </trkpt>
      <trkpt lat="46.01057" lon="4.38778">
        <ele>507</ele>
        <time>2016-09-22T11:37:28Z</time>
      </trkpt>
      <trkpt lat="46.01062" lon="4.38786">
        <ele>508</ele>
        <time>2016-09-22T11:37:33Z</time>
      </trkpt>
      <trkpt lat="46.01063" lon="4.38788">
        <ele>508</ele>
        <time>2016-09-22T11:37:34Z</time>
      </trkpt>
      <trkpt lat="46.01066" lon="4.38799">
        <ele>508</ele>
        <time>2016-09-22T11:37:39Z</time>
      </trkpt>
      <trkpt lat="46.01067" lon="4.388">
        <ele>508</ele>
        <time>2016-09-22T11:37:40Z</time>
      </trkpt>
      <trkpt lat="46.0107" lon="4.38811">
        <ele>508</ele>
        <time>2016-09-22T11:37:46Z</time>
      </trkpt>
      <trkpt lat="46.0107" lon="4.38813">
        <ele>508</ele>
        <time>2016-09-22T11:37:47Z</time>
      </trkpt>
      <trkpt lat="46.01074" lon="4.38823">
        <ele>507</ele>
        <time>2016-09-22T11:37:52Z</time>
      </trkpt>
      <trkpt lat="46.01074" lon="4.38824">
        <ele>507</ele>
        <time>2016-09-22T11:37:53Z</time>
      </trkpt>
      <trkpt lat="46.01079" lon="4.38835">
        <ele>508</ele>
        <time>2016-09-22T11:38:00Z</time>
      </trkpt>
      <trkpt lat="46.0108" lon="4.38836">
        <ele>508</ele>
        <time>2016-09-22T11:38:01Z</time>
      </trkpt>
      <trkpt lat="46.01087" lon="4.38844">
        <ele>505</ele>
        <time>2016-09-22T11:38:07Z</time>
      </trkpt>
      <trkpt lat="46.01088" lon="4.38845">
        <ele>505</ele>
        <time>2016-09-22T11:38:08Z</time>
      </trkpt>
      <trkpt lat="46.01094" lon="4.38853">
        <ele>505</ele>
        <time>2016-09-22T11:38:16Z</time>
      </trkpt>
      <trkpt lat="46.01094" lon="4.38855">
        <ele>505</ele>
        <time>2016-09-22T11:38:17Z</time>
      </trkpt>
      <trkpt lat="46.01098" lon="4.38865">
        <ele>506</ele>
        <time>2016-09-22T11:38:24Z</time>
      </trkpt>
      <trkpt lat="46.01098" lon="4.38866">
        <ele>506</ele>
        <time>2016-09-22T11:38:25Z</time>
      </trkpt>
      <trkpt lat="46.011" lon="4.38877">
        <ele>506</ele>
        <time>2016-09-22T11:38:32Z</time>
      </trkpt>
      <trkpt lat="46.01101" lon="4.38879">
        <ele>507</ele>
        <time>2016-09-22T11:38:33Z</time>
      </trkpt>
      <trkpt lat="46.01104" lon="4.3889">
        <ele>507</ele>
        <time>2016-09-22T11:38:39Z</time>
      </trkpt>
      <trkpt lat="46.01105" lon="4.38892">
        <ele>508</ele>
        <time>2016-09-22T11:38:40Z</time>
      </trkpt>
      <trkpt lat="46.01108" lon="4.38903">
        <ele>508</ele>
        <time>2016-09-22T11:38:45Z</time>
      </trkpt>
      <trkpt lat="46.01108" lon="4.38905">
        <ele>508</ele>
        <time>2016-09-22T11:38:46Z</time>
      </trkpt>
      <trkpt lat="46.0111" lon="4.38916">
        <ele>509</ele>
        <time>2016-09-22T11:38:52Z</time>
      </trkpt>
      <trkpt lat="46.0111" lon="4.38918">
        <ele>512</ele>
        <time>2016-09-22T11:38:53Z</time>
      </trkpt>
      <trkpt lat="46.01113" lon="4.38929">
        <ele>512</ele>
        <time>2016-09-22T11:39:00Z</time>
      </trkpt>
      <trkpt lat="46.01114" lon="4.38931">
        <ele>512</ele>
        <time>2016-09-22T11:39:01Z</time>
      </trkpt>
      <trkpt lat="46.01118" lon="4.38941">
        <ele>511</ele>
        <time>2016-09-22T11:39:08Z</time>
      </trkpt>
      <trkpt lat="46.01119" lon="4.38942">
        <ele>511</ele>
        <time>2016-09-22T11:39:09Z</time>
      </trkpt>
      <trkpt lat="46.01118" lon="4.38954">
        <ele>511</ele>
        <time>2016-09-22T11:39:16Z</time>
      </trkpt>
      <trkpt lat="46.01118" lon="4.38955">
        <ele>512</ele>
        <time>2016-09-22T11:39:17Z</time>
      </trkpt>
      <trkpt lat="46.0112" lon="4.38967">
        <ele>512</ele>
        <time>2016-09-22T11:39:24Z</time>
      </trkpt>
      <trkpt lat="46.0112" lon="4.38969">
        <ele>512</ele>
        <time>2016-09-22T11:39:25Z</time>
      </trkpt>
      <trkpt lat="46.01123" lon="4.3898">
        <ele>512</ele>
        <time>2016-09-22T11:39:32Z</time>
      </trkpt>
      <trkpt lat="46.01123" lon="4.38982">
        <ele>512</ele>
        <time>2016-09-22T11:39:33Z</time>
      </trkpt>
      <trkpt lat="46.01123" lon="4.38994">
        <ele>512</ele>
        <time>2016-09-22T11:39:40Z</time>
      </trkpt>
      <trkpt lat="46.01124" lon="4.38996">
        <ele>512</ele>
        <time>2016-09-22T11:39:41Z</time>
      </trkpt>
      <trkpt lat="46.01127" lon="4.39008">
        <ele>515</ele>
        <time>2016-09-22T11:39:48Z</time>
      </trkpt>
      <trkpt lat="46.01127" lon="4.39009">
        <ele>515</ele>
        <time>2016-09-22T11:39:49Z</time>
      </trkpt>
      <trkpt lat="46.01128" lon="4.39022">
        <ele>515</ele>
        <time>2016-09-22T11:39:56Z</time>
      </trkpt>
      <trkpt lat="46.01128" lon="4.39024">
        <ele>515</ele>
        <time>2016-09-22T11:39:57Z</time>
      </trkpt>
      <trkpt lat="46.01129" lon="4.39036">
        <ele>515</ele>
        <time>2016-09-22T11:40:05Z</time>
      </trkpt>
      <trkpt lat="46.0113" lon="4.39037">
        <ele>515</ele>
        <time>2016-09-22T11:40:06Z</time>
      </trkpt>
      <trkpt lat="46.01132" lon="4.39048">
        <ele>516</ele>
        <time>2016-09-22T11:40:14Z</time>
      </trkpt>
      <trkpt lat="46.01131" lon="4.3905">
        <ele>516</ele>
        <time>2016-09-22T11:40:15Z</time>
      </trkpt>
      <trkpt lat="46.01131" lon="4.39063">
        <ele>516</ele>
        <time>2016-09-22T11:40:23Z</time>
      </trkpt>
      <trkpt lat="46.01132" lon="4.39064">
        <ele>516</ele>
        <time>2016-09-22T11:40:24Z</time>
      </trkpt>
      <trkpt lat="46.01132" lon="4.39076">
        <ele>516</ele>
        <time>2016-09-22T11:40:32Z</time>
      </trkpt>
      <trkpt lat="46.01132" lon="4.39077">
        <ele>516</ele>
        <time>2016-09-22T11:40:33Z</time>
      </trkpt>
      <trkpt lat="46.01133" lon="4.3909">
        <ele>520</ele>
        <time>2016-09-22T11:40:41Z</time>
      </trkpt>
      <trkpt lat="46.01134" lon="4.39091">
        <ele>520</ele>
        <time>2016-09-22T11:40:42Z</time>
      </trkpt>
      <trkpt lat="46.01142" lon="4.39092">
        <ele>520</ele>
        <time>2016-09-22T11:41:11Z</time>
      </trkpt>
      <trkpt lat="46.01143" lon="4.39091">
        <ele>519</ele>
        <time>2016-09-22T11:41:12Z</time>
      </trkpt>
      <trkpt lat="46.01149" lon="4.39083">
        <ele>515</ele>
        <time>2016-09-22T11:41:18Z</time>
      </trkpt>
      <trkpt lat="46.0115" lon="4.39082">
        <ele>515</ele>
        <time>2016-09-22T11:41:19Z</time>
      </trkpt>
      <trkpt lat="46.01158" lon="4.39078">
        <ele>515</ele>
        <time>2016-09-22T11:41:25Z</time>
      </trkpt>
      <trkpt lat="46.01159" lon="4.39077">
        <ele>515</ele>
        <time>2016-09-22T11:41:26Z</time>
      </trkpt>
      <trkpt lat="46.01166" lon="4.39072">
        <ele>514</ele>
        <time>2016-09-22T11:41:33Z</time>
      </trkpt>
      <trkpt lat="46.01168" lon="4.39071">
        <ele>514</ele>
        <time>2016-09-22T11:41:34Z</time>
      </trkpt>
      <trkpt lat="46.01176" lon="4.39068">
        <ele>514</ele>
        <time>2016-09-22T11:41:41Z</time>
      </trkpt>
      <trkpt lat="46.01177" lon="4.39068">
        <ele>514</ele>
        <time>2016-09-22T11:41:42Z</time>
      </trkpt>
      <trkpt lat="46.01186" lon="4.39066">
        <ele>515</ele>
        <time>2016-09-22T11:41:49Z</time>
      </trkpt>
      <trkpt lat="46.01187" lon="4.39065">
        <ele>515</ele>
        <time>2016-09-22T11:41:50Z</time>
      </trkpt>
      <trkpt lat="46.01195" lon="4.3906">
        <ele>515</ele>
        <time>2016-09-22T11:41:57Z</time>
      </trkpt>
      <trkpt lat="46.01196" lon="4.3906">
        <ele>515</ele>
        <time>2016-09-22T11:41:58Z</time>
      </trkpt>
      <trkpt lat="46.01202" lon="4.39069">
        <ele>516</ele>
        <time>2016-09-22T11:42:07Z</time>
      </trkpt>
      <trkpt lat="46.01201" lon="4.39071">
        <ele>516</ele>
        <time>2016-09-22T11:42:08Z</time>
      </trkpt>
      <trkpt lat="46.01198" lon="4.39082">
        <ele>516</ele>
        <time>2016-09-22T11:42:18Z</time>
      </trkpt>
      <trkpt lat="46.01198" lon="4.39083">
        <ele>516</ele>
        <time>2016-09-22T11:42:19Z</time>
      </trkpt>
      <trkpt lat="46.01195" lon="4.39094">
        <ele>522</ele>
        <time>2016-09-22T11:42:27Z</time>
      </trkpt>
      <trkpt lat="46.01195" lon="4.39096">
        <ele>522</ele>
        <time>2016-09-22T11:42:28Z</time>
      </trkpt>
      <trkpt lat="46.01193" lon="4.39108">
        <ele>523</ele>
        <time>2016-09-22T11:42:38Z</time>
      </trkpt>
      <trkpt lat="46.01192" lon="4.39109">
        <ele>523</ele>
        <time>2016-09-22T11:42:39Z</time>
      </trkpt>
      <trkpt lat="46.01191" lon="4.39121">
        <ele>524</ele>
        <time>2016-09-22T11:42:47Z</time>
      </trkpt>
      <trkpt lat="46.01191" lon="4.39122">
        <ele>524</ele>
        <time>2016-09-22T11:42:48Z</time>
      </trkpt>
      <trkpt lat="46.01188" lon="4.39134">
        <ele>525</ele>
        <time>2016-09-22T11:42:58Z</time>
      </trkpt>
      <trkpt lat="46.01187" lon="4.39135">
        <ele>525</ele>
        <time>2016-09-22T11:42:59Z</time>
      </trkpt>
      <trkpt lat="46.01182" lon="4.39145">
        <ele>525</ele>
        <time>2016-09-22T11:43:07Z</time>
      </trkpt>
      <trkpt lat="46.01181" lon="4.39146">
        <ele>525</ele>
        <time>2016-09-22T11:43:08Z</time>
      </trkpt>
      <trkpt lat="46.01176" lon="4.39155">
        <ele>526</ele>
        <time>2016-09-22T11:43:16Z</time>
      </trkpt>
      <trkpt lat="46.01175" lon="4.39156">
        <ele>526</ele>
        <time>2016-09-22T11:43:17Z</time>
      </trkpt>
      <trkpt lat="46.01168" lon="4.39161">
        <ele>527</ele>
        <time>2016-09-22T11:43:26Z</time>
      </trkpt>
      <trkpt lat="46.01167" lon="4.39161">
        <ele>526</ele>
        <time>2016-09-22T11:43:27Z</time>
      </trkpt>
      <trkpt lat="46.01159" lon="4.39168">
        <ele>529</ele>
        <time>2016-09-22T11:43:35Z</time>
      </trkpt>
      <trkpt lat="46.01158" lon="4.39168">
        <ele>529</ele>
        <time>2016-09-22T11:43:36Z</time>
      </trkpt>
      <trkpt lat="46.01152" lon="4.39176">
        <ele>530</ele>
        <time>2016-09-22T11:43:44Z</time>
      </trkpt>
      <trkpt lat="46.0115" lon="4.39177">
        <ele>530</ele>
        <time>2016-09-22T11:43:45Z</time>
      </trkpt>
      <trkpt lat="46.01144" lon="4.39184">
        <ele>531</ele>
        <time>2016-09-22T11:43:52Z</time>
      </trkpt>
      <trkpt lat="46.01143" lon="4.39186">
        <ele>532</ele>
        <time>2016-09-22T11:43:53Z</time>
      </trkpt>
      <trkpt lat="46.01136" lon="4.39194">
        <ele>532</ele>
        <time>2016-09-22T11:44:01Z</time>
      </trkpt>
      <trkpt lat="46.01135" lon="4.39194">
        <ele>532</ele>
        <time>2016-09-22T11:44:02Z</time>
      </trkpt>
      <trkpt lat="46.01129" lon="4.39202">
        <ele>533</ele>
        <time>2016-09-22T11:44:10Z</time>
      </trkpt>
      <trkpt lat="46.01128" lon="4.39204">
        <ele>533</ele>
        <time>2016-09-22T11:44:11Z</time>
      </trkpt>
      <trkpt lat="46.01122" lon="4.39211">
        <ele>533</ele>
        <time>2016-09-22T11:44:18Z</time>
      </trkpt>
      <trkpt lat="46.01121" lon="4.39212">
        <ele>533</ele>
        <time>2016-09-22T11:44:19Z</time>
      </trkpt>
      <trkpt lat="46.01113" lon="4.39218">
        <ele>533</ele>
        <time>2016-09-22T11:44:26Z</time>
      </trkpt>
      <trkpt lat="46.01112" lon="4.39219">
        <ele>533</ele>
        <time>2016-09-22T11:44:27Z</time>
      </trkpt>
      <trkpt lat="46.01107" lon="4.39228">
        <ele>534</ele>
        <time>2016-09-22T11:44:34Z</time>
      </trkpt>
      <trkpt lat="46.01106" lon="4.39229">
        <ele>534</ele>
        <time>2016-09-22T11:44:35Z</time>
      </trkpt>
      <trkpt lat="46.011" lon="4.39236">
        <ele>534</ele>
        <time>2016-09-22T11:44:41Z</time>
      </trkpt>
      <trkpt lat="46.01099" lon="4.39237">
        <ele>533</ele>
        <time>2016-09-22T11:44:42Z</time>
      </trkpt>
      <trkpt lat="46.01091" lon="4.39239">
        <ele>533</ele>
        <time>2016-09-22T11:44:49Z</time>
      </trkpt>
      <trkpt lat="46.0109" lon="4.39239">
        <ele>533</ele>
        <time>2016-09-22T11:44:50Z</time>
      </trkpt>
      <trkpt lat="46.01082" lon="4.39233">
        <ele>536</ele>
        <time>2016-09-22T11:44:56Z</time>
      </trkpt>
      <trkpt lat="46.01082" lon="4.39231">
        <ele>536</ele>
        <time>2016-09-22T11:44:57Z</time>
      </trkpt>
      <trkpt lat="46.01076" lon="4.39222">
        <ele>537</ele>
        <time>2016-09-22T11:45:04Z</time>
      </trkpt>
      <trkpt lat="46.01075" lon="4.39221">
        <ele>537</ele>
        <time>2016-09-22T11:45:05Z</time>
      </trkpt>
      <trkpt lat="46.01069" lon="4.39212">
        <ele>537</ele>
        <time>2016-09-22T11:45:12Z</time>
      </trkpt>
      <trkpt lat="46.01068" lon="4.39211">
        <ele>537</ele>
        <time>2016-09-22T11:45:13Z</time>
      </trkpt>
      <trkpt lat="46.0106" lon="4.39204">
        <ele>538</ele>
        <time>2016-09-22T11:45:20Z</time>
      </trkpt>
      <trkpt lat="46.01059" lon="4.39203">
        <ele>538</ele>
        <time>2016-09-22T11:45:21Z</time>
      </trkpt>
      <trkpt lat="46.01053" lon="4.39195">
        <ele>538</ele>
        <time>2016-09-22T11:45:28Z</time>
      </trkpt>
      <trkpt lat="46.01052" lon="4.39195">
        <ele>538</ele>
        <time>2016-09-22T11:45:29Z</time>
      </trkpt>
      <trkpt lat="46.01045" lon="4.39187">
        <ele>539</ele>
        <time>2016-09-22T11:45:39Z</time>
      </trkpt>
      <trkpt lat="46.01044" lon="4.39186">
        <ele>539</ele>
        <time>2016-09-22T11:45:40Z</time>
      </trkpt>
      <trkpt lat="46.01037" lon="4.39178">
        <ele>540</ele>
        <time>2016-09-22T11:45:49Z</time>
      </trkpt>
      <trkpt lat="46.01037" lon="4.39177">
        <ele>540</ele>
        <time>2016-09-22T11:45:50Z</time>
      </trkpt>
      <trkpt lat="46.0103" lon="4.39169">
        <ele>541</ele>
        <time>2016-09-22T11:46:00Z</time>
      </trkpt>
      <trkpt lat="46.01029" lon="4.39168">
        <ele>541</ele>
        <time>2016-09-22T11:46:01Z</time>
      </trkpt>
      <trkpt lat="46.01023" lon="4.3916">
        <ele>541</ele>
        <time>2016-09-22T11:46:09Z</time>
      </trkpt>
      <trkpt lat="46.01022" lon="4.39159">
        <ele>541</ele>
        <time>2016-09-22T11:46:10Z</time>
      </trkpt>
      <trkpt lat="46.01018" lon="4.39148">
        <ele>541</ele>
        <time>2016-09-22T11:46:19Z</time>
      </trkpt>
      <trkpt lat="46.01018" lon="4.39147">
        <ele>541</ele>
        <time>2016-09-22T11:46:20Z</time>
      </trkpt>
      <trkpt lat="46.01017" lon="4.39135">
        <ele>540</ele>
        <time>2016-09-22T11:46:29Z</time>
      </trkpt>
      <trkpt lat="46.01016" lon="4.39133">
        <ele>540</ele>
        <time>2016-09-22T11:46:30Z</time>
      </trkpt>
      <trkpt lat="46.01018" lon="4.39122">
        <ele>540</ele>
        <time>2016-09-22T11:46:40Z</time>
      </trkpt>
      <trkpt lat="46.01018" lon="4.3912">
        <ele>540</ele>
        <time>2016-09-22T11:46:41Z</time>
      </trkpt>
      <trkpt lat="46.01022" lon="4.39109">
        <ele>540</ele>
        <time>2016-09-22T11:46:50Z</time>
      </trkpt>
      <trkpt lat="46.01022" lon="4.39107">
        <ele>540</ele>
        <time>2016-09-22T11:46:51Z</time>
      </trkpt>
      <trkpt lat="46.01022" lon="4.39096">
        <ele>540</ele>
        <time>2016-09-22T11:46:58Z</time>
      </trkpt>
      <trkpt lat="46.01022" lon="4.39093">
        <ele>541</ele>
        <time>2016-09-22T11:46:59Z</time>
      </trkpt>
      <trkpt lat="46.01021" lon="4.39081">
        <ele>540</ele>
        <time>2016-09-22T11:47:06Z</time>
      </trkpt>
      <trkpt lat="46.0102" lon="4.39079">
        <ele>540</ele>
        <time>2016-09-22T11:47:07Z</time>
      </trkpt>
      <trkpt lat="46.01019" lon="4.39068">
        <ele>540</ele>
        <time>2016-09-22T11:47:14Z</time>
      </trkpt>
      <trkpt lat="46.01019" lon="4.39066">
        <ele>540</ele>
        <time>2016-09-22T11:47:15Z</time>
      </trkpt>
      <trkpt lat="46.01018" lon="4.39054">
        <ele>538</ele>
        <time>2016-09-22T11:47:23Z</time>
      </trkpt>
      <trkpt lat="46.01018" lon="4.39053">
        <ele>538</ele>
        <time>2016-09-22T11:47:24Z</time>
      </trkpt>
      <trkpt lat="46.01015" lon="4.39041">
        <ele>538</ele>
        <time>2016-09-22T11:47:33Z</time>
      </trkpt>
      <trkpt lat="46.01014" lon="4.3904">
        <ele>538</ele>
        <time>2016-09-22T11:47:34Z</time>
      </trkpt>
      <trkpt lat="46.01013" lon="4.39028">
        <ele>539</ele>
        <time>2016-09-22T11:47:41Z</time>
      </trkpt>
      <trkpt lat="46.01013" lon="4.39025">
        <ele>539</ele>
        <time>2016-09-22T11:47:42Z</time>
      </trkpt>
      <trkpt lat="46.0101" lon="4.39014">
        <ele>541</ele>
        <time>2016-09-22T11:47:49Z</time>
      </trkpt>
      <trkpt lat="46.01009" lon="4.39012">
        <ele>541</ele>
        <time>2016-09-22T11:47:50Z</time>
      </trkpt>
      <trkpt lat="46.01005" lon="4.39">
        <ele>544</ele>
        <time>2016-09-22T11:47:57Z</time>
      </trkpt>
      <trkpt lat="46.01005" lon="4.38999">
        <ele>543</ele>
        <time>2016-09-22T11:47:58Z</time>
      </trkpt>
      <trkpt lat="46.01003" lon="4.38988">
        <ele>540</ele>
        <time>2016-09-22T11:48:05Z</time>
      </trkpt>
      <trkpt lat="46.01003" lon="4.38986">
        <ele>540</ele>
        <time>2016-09-22T11:48:06Z</time>
      </trkpt>
      <trkpt lat="46.00997" lon="4.38977">
        <ele>549</ele>
        <time>2016-09-22T11:48:12Z</time>
      </trkpt>
      <trkpt lat="46.00997" lon="4.38975">
        <ele>549</ele>
        <time>2016-09-22T11:48:13Z</time>
      </trkpt>
      <trkpt lat="46.00992" lon="4.38965">
        <ele>550</ele>
        <time>2016-09-22T11:48:19Z</time>
      </trkpt>
      <trkpt lat="46.00991" lon="4.38963">
        <ele>550</ele>
        <time>2016-09-22T11:48:20Z</time>
      </trkpt>
      <trkpt lat="46.00985" lon="4.38955">
        <ele>550</ele>
        <time>2016-09-22T11:48:26Z</time>
      </trkpt>
      <trkpt lat="46.00984" lon="4.38953">
        <ele>550</ele>
        <time>2016-09-22T11:48:27Z</time>
      </trkpt>
      <trkpt lat="46.00978" lon="4.38945">
        <ele>550</ele>
        <time>2016-09-22T11:48:34Z</time>
      </trkpt>
      <trkpt lat="46.00977" lon="4.38944">
        <ele>550</ele>
        <time>2016-09-22T11:48:35Z</time>
      </trkpt>
      <trkpt lat="46.00972" lon="4.38935">
        <ele>550</ele>
        <time>2016-09-22T11:48:42Z</time>
      </trkpt>
      <trkpt lat="46.0097" lon="4.38934">
        <ele>550</ele>
        <time>2016-09-22T11:48:43Z</time>
      </trkpt>
      <trkpt lat="46.00964" lon="4.38927">
        <ele>550</ele>
        <time>2016-09-22T11:48:51Z</time>
      </trkpt>
      <trkpt lat="46.00963" lon="4.38925">
        <ele>550</ele>
        <time>2016-09-22T11:48:52Z</time>
      </trkpt>
      <trkpt lat="46.00955" lon="4.38921">
        <ele>551</ele>
        <time>2016-09-22T11:49:00Z</time>
      </trkpt>
      <trkpt lat="46.00954" lon="4.3892">
        <ele>551</ele>
        <time>2016-09-22T11:49:01Z</time>
      </trkpt>
      <trkpt lat="46.00946" lon="4.38914">
        <ele>545</ele>
        <time>2016-09-22T11:49:08Z</time>
      </trkpt>
      <trkpt lat="46.00945" lon="4.38913">
        <ele>545</ele>
        <time>2016-09-22T11:49:09Z</time>
      </trkpt>
      <trkpt lat="46.00938" lon="4.38907">
        <ele>546</ele>
        <time>2016-09-22T11:49:16Z</time>
      </trkpt>
      <trkpt lat="46.00937" lon="4.38906">
        <ele>546</ele>
        <time>2016-09-22T11:49:17Z</time>
      </trkpt>
      <trkpt lat="46.00929" lon="4.38902">
        <ele>547</ele>
        <time>2016-09-22T11:49:24Z</time>
      </trkpt>
      <trkpt lat="46.00928" lon="4.38901">
        <ele>547</ele>
        <time>2016-09-22T11:49:25Z</time>
      </trkpt>
      <trkpt lat="46.0092" lon="4.38895">
        <ele>546</ele>
        <time>2016-09-22T11:49:32Z</time>
      </trkpt>
      <trkpt lat="46.00919" lon="4.38895">
        <ele>546</ele>
        <time>2016-09-22T11:49:33Z</time>
      </trkpt>
      <trkpt lat="46.00911" lon="4.38891">
        <ele>550</ele>
        <time>2016-09-22T11:49:40Z</time>
      </trkpt>
      <trkpt lat="46.0091" lon="4.38891">
        <ele>550</ele>
        <time>2016-09-22T11:49:41Z</time>
      </trkpt>
      <trkpt lat="46.00902" lon="4.38888">
        <ele>549</ele>
        <time>2016-09-22T11:49:48Z</time>
      </trkpt>
      <trkpt lat="46.00901" lon="4.38887">
        <ele>549</ele>
        <time>2016-09-22T11:49:49Z</time>
      </trkpt>
      <trkpt lat="46.00892" lon="4.38883">
        <ele>549</ele>
        <time>2016-09-22T11:49:57Z</time>
      </trkpt>
      <trkpt lat="46.00891" lon="4.38883">
        <ele>549</ele>
        <time>2016-09-22T11:49:58Z</time>
      </trkpt>
      <trkpt lat="46.00882" lon="4.38883">
        <ele>549</ele>
        <time>2016-09-22T11:50:04Z</time>
      </trkpt>
      <trkpt lat="46.00881" lon="4.38883">
        <ele>549</ele>
        <time>2016-09-22T11:50:05Z</time>
      </trkpt>
      <trkpt lat="46.00873" lon="4.38881">
        <ele>550</ele>
        <time>2016-09-22T11:50:11Z</time>
      </trkpt>
      <trkpt lat="46.00871" lon="4.3888">
        <ele>550</ele>
        <time>2016-09-22T11:50:12Z</time>
      </trkpt>
      <trkpt lat="46.00863" lon="4.38882">
        <ele>550</ele>
        <time>2016-09-22T11:50:17Z</time>
      </trkpt>
      <trkpt lat="46.00861" lon="4.38882">
        <ele>550</ele>
        <time>2016-09-22T11:50:18Z</time>
      </trkpt>
      <trkpt lat="46.00854" lon="4.38878">
        <ele>550</ele>
        <time>2016-09-22T11:50:25Z</time>
      </trkpt>
      <trkpt lat="46.00853" lon="4.38877">
        <ele>550</ele>
        <time>2016-09-22T11:50:26Z</time>
      </trkpt>
      <trkpt lat="46.00845" lon="4.38873">
        <ele>550</ele>
        <time>2016-09-22T11:50:38Z</time>
      </trkpt>
      <trkpt lat="46.00844" lon="4.38873">
        <ele>550</ele>
        <time>2016-09-22T11:50:39Z</time>
      </trkpt>
      <trkpt lat="46.00835" lon="4.38875">
        <ele>550</ele>
        <time>2016-09-22T11:50:46Z</time>
      </trkpt>
      <trkpt lat="46.00834" lon="4.38875">
        <ele>550</ele>
        <time>2016-09-22T11:50:47Z</time>
      </trkpt>
      <trkpt lat="46.00826" lon="4.38877">
        <ele>555</ele>
        <time>2016-09-22T11:50:52Z</time>
      </trkpt>
      <trkpt lat="46.00825" lon="4.38876">
        <ele>555</ele>
        <time>2016-09-22T11:50:53Z</time>
      </trkpt>
      <trkpt lat="46.00816" lon="4.38879">
        <ele>555</ele>
        <time>2016-09-22T11:51:16Z</time>
      </trkpt>
      <trkpt lat="46.00816" lon="4.38878">
        <ele>555</ele>
        <time>2016-09-22T11:51:17Z</time>
      </trkpt>
      <trkpt lat="46.00808" lon="4.38878">
        <ele>555</ele>
        <time>2016-09-22T11:53:44Z</time>
      </trkpt>
      <trkpt lat="46.00806" lon="4.38878">
        <ele>555</ele>
        <time>2016-09-22T11:53:45Z</time>
      </trkpt>
      <trkpt lat="46.00798" lon="4.38879">
        <ele>556</ele>
        <time>2016-09-22T11:53:51Z</time>
      </trkpt>
      <trkpt lat="46.00796" lon="4.38878">
        <ele>556</ele>
        <time>2016-09-22T11:53:52Z</time>
      </trkpt>
      <trkpt lat="46.00789" lon="4.38876">
        <ele>556</ele>
        <time>2016-09-22T11:53:57Z</time>
      </trkpt>
      <trkpt lat="46.00787" lon="4.38876">
        <ele>556</ele>
        <time>2016-09-22T11:53:58Z</time>
      </trkpt>
      <trkpt lat="46.00779" lon="4.38874">
        <ele>556</ele>
        <time>2016-09-22T11:54:04Z</time>
      </trkpt>
      <trkpt lat="46.00777" lon="4.38873">
        <ele>556</ele>
        <time>2016-09-22T11:54:05Z</time>
      </trkpt>
      <trkpt lat="46.00769" lon="4.3887">
        <ele>556</ele>
        <time>2016-09-22T11:54:12Z</time>
      </trkpt>
      <trkpt lat="46.00768" lon="4.3887">
        <ele>556</ele>
        <time>2016-09-22T11:54:13Z</time>
      </trkpt>
      <trkpt lat="46.00759" lon="4.38869">
        <ele>556</ele>
        <time>2016-09-22T11:54:20Z</time>
      </trkpt>
      <trkpt lat="46.00758" lon="4.38868">
        <ele>556</ele>
        <time>2016-09-22T11:54:21Z</time>
      </trkpt>
      <trkpt lat="46.0075" lon="4.38865">
        <ele>557</ele>
        <time>2016-09-22T11:54:29Z</time>
      </trkpt>
      <trkpt lat="46.00749" lon="4.38865">
        <ele>557</ele>
        <time>2016-09-22T11:54:30Z</time>
      </trkpt>
      <trkpt lat="46.0074" lon="4.38868">
        <ele>557</ele>
        <time>2016-09-22T11:54:37Z</time>
      </trkpt>
      <trkpt lat="46.00739" lon="4.38868">
        <ele>557</ele>
        <time>2016-09-22T11:54:38Z</time>
      </trkpt>
      <trkpt lat="46.00731" lon="4.38866">
        <ele>557</ele>
        <time>2016-09-22T11:54:44Z</time>
      </trkpt>
      <trkpt lat="46.00729" lon="4.38865">
        <ele>557</ele>
        <time>2016-09-22T11:54:45Z</time>
      </trkpt>
      <trkpt lat="46.00721" lon="4.38861">
        <ele>557</ele>
        <time>2016-09-22T11:54:52Z</time>
      </trkpt>
      <trkpt lat="46.0072" lon="4.38861">
        <ele>557</ele>
        <time>2016-09-22T11:54:53Z</time>
      </trkpt>
      <trkpt lat="46.00711" lon="4.38863">
        <ele>557</ele>
        <time>2016-09-22T11:55:00Z</time>
      </trkpt>
      <trkpt lat="46.00709" lon="4.38863">
        <ele>557</ele>
        <time>2016-09-22T11:55:01Z</time>
      </trkpt>
      <trkpt lat="46.00701" lon="4.38864">
        <ele>557</ele>
        <time>2016-09-22T11:55:08Z</time>
      </trkpt>
      <trkpt lat="46.007" lon="4.38863">
        <ele>557</ele>
        <time>2016-09-22T11:55:09Z</time>
      </trkpt>
      <trkpt lat="46.00692" lon="4.38861">
        <ele>557</ele>
        <time>2016-09-22T11:55:16Z</time>
      </trkpt>
      <trkpt lat="46.00691" lon="4.38861">
        <ele>557</ele>
        <time>2016-09-22T11:55:17Z</time>
      </trkpt>
      <trkpt lat="46.00683" lon="4.38861">
        <ele>557</ele>
        <time>2016-09-22T11:55:23Z</time>
      </trkpt>
      <trkpt lat="46.00682" lon="4.38861">
        <ele>557</ele>
        <time>2016-09-22T11:55:24Z</time>
      </trkpt>
      <trkpt lat="46.00674" lon="4.38862">
        <ele>557</ele>
        <time>2016-09-22T11:55:30Z</time>
      </trkpt>
      <trkpt lat="46.00673" lon="4.38862">
        <ele>557</ele>
        <time>2016-09-22T11:55:31Z</time>
      </trkpt>
      <trkpt lat="46.00664" lon="4.38862">
        <ele>556</ele>
        <time>2016-09-22T11:55:37Z</time>
      </trkpt>
      <trkpt lat="46.00663" lon="4.38861">
        <ele>556</ele>
        <time>2016-09-22T11:55:38Z</time>
      </trkpt>
      <trkpt lat="46.00655" lon="4.38859">
        <ele>556</ele>
        <time>2016-09-22T11:55:45Z</time>
      </trkpt>
      <trkpt lat="46.00654" lon="4.38859">
        <ele>556</ele>
        <time>2016-09-22T11:55:46Z</time>
      </trkpt>
      <trkpt lat="46.00649" lon="4.3887">
        <ele>557</ele>
        <time>2016-09-22T11:56:14Z</time>
      </trkpt>
      <trkpt lat="46.0065" lon="4.38871">
        <ele>557</ele>
        <time>2016-09-22T11:56:15Z</time>
      </trkpt>
      <trkpt lat="46.00653" lon="4.38882">
        <ele>557</ele>
        <time>2016-09-22T11:56:24Z</time>
      </trkpt>
      <trkpt lat="46.00654" lon="4.38883">
        <ele>557</ele>
        <time>2016-09-22T11:56:25Z</time>
      </trkpt>
      <trkpt lat="46.00657" lon="4.38894">
        <ele>558</ele>
        <time>2016-09-22T11:56:35Z</time>
      </trkpt>
      <trkpt lat="46.00657" lon="4.38895">
        <ele>558</ele>
        <time>2016-09-22T11:56:36Z</time>
      </trkpt>
      <trkpt lat="46.00662" lon="4.38905">
        <ele>559</ele>
        <time>2016-09-22T11:56:46Z</time>
      </trkpt>
      <trkpt lat="46.00663" lon="4.38906">
        <ele>559</ele>
        <time>2016-09-22T11:56:47Z</time>
      </trkpt>
      <trkpt lat="46.00669" lon="4.38914">
        <ele>561</ele>
        <time>2016-09-22T11:56:55Z</time>
      </trkpt>
      <trkpt lat="46.00669" lon="4.38915">
        <ele>561</ele>
        <time>2016-09-22T11:56:56Z</time>
      </trkpt>
      <trkpt lat="46.00674" lon="4.38925">
        <ele>563</ele>
        <time>2016-09-22T11:57:08Z</time>
      </trkpt>
      <trkpt lat="46.00674" lon="4.38926">
        <ele>563</ele>
        <time>2016-09-22T11:57:09Z</time>
      </trkpt>
      <trkpt lat="46.0068" lon="4.38936">
        <ele>564</ele>
        <time>2016-09-22T11:57:17Z</time>
      </trkpt>
      <trkpt lat="46.0068" lon="4.38937">
        <ele>564</ele>
        <time>2016-09-22T11:57:18Z</time>
      </trkpt>
      <trkpt lat="46.00686" lon="4.38947">
        <ele>565</ele>
        <time>2016-09-22T11:57:26Z</time>
      </trkpt>
      <trkpt lat="46.00686" lon="4.38948">
        <ele>565</ele>
        <time>2016-09-22T11:57:27Z</time>
      </trkpt>
      <trkpt lat="46.00691" lon="4.38958">
        <ele>566</ele>
        <time>2016-09-22T11:57:36Z</time>
      </trkpt>
      <trkpt lat="46.00692" lon="4.38959">
        <ele>566</ele>
        <time>2016-09-22T11:57:37Z</time>
      </trkpt>
      <trkpt lat="46.00698" lon="4.38968">
        <ele>566</ele>
        <time>2016-09-22T11:57:45Z</time>
      </trkpt>
      <trkpt lat="46.00698" lon="4.38969">
        <ele>566</ele>
        <time>2016-09-22T11:57:46Z</time>
      </trkpt>
      <trkpt lat="46.00703" lon="4.38978">
        <ele>567</ele>
        <time>2016-09-22T11:57:53Z</time>
      </trkpt>
      <trkpt lat="46.00704" lon="4.38979">
        <ele>567</ele>
        <time>2016-09-22T11:57:54Z</time>
      </trkpt>
      <trkpt lat="46.0071" lon="4.38987">
        <ele>567</ele>
        <time>2016-09-22T11:58:00Z</time>
      </trkpt>
      <trkpt lat="46.0071" lon="4.38989">
        <ele>567</ele>
        <time>2016-09-22T11:58:01Z</time>
      </trkpt>
      <trkpt lat="46.00715" lon="4.38999">
        <ele>568</ele>
        <time>2016-09-22T11:58:08Z</time>
      </trkpt>
      <trkpt lat="46.00716" lon="4.39">
        <ele>568</ele>
        <time>2016-09-22T11:58:09Z</time>
      </trkpt>
      <trkpt lat="46.00721" lon="4.39009">
        <ele>571</ele>
        <time>2016-09-22T11:58:17Z</time>
      </trkpt>
      <trkpt lat="46.00722" lon="4.39011">
        <ele>571</ele>
        <time>2016-09-22T11:58:18Z</time>
      </trkpt>
      <trkpt lat="46.00726" lon="4.39021">
        <ele>571</ele>
        <time>2016-09-22T11:58:26Z</time>
      </trkpt>
      <trkpt lat="46.00727" lon="4.39022">
        <ele>572</ele>
        <time>2016-09-22T11:58:27Z</time>
      </trkpt>
      <trkpt lat="46.00732" lon="4.39032">
        <ele>572</ele>
        <time>2016-09-22T11:58:34Z</time>
      </trkpt>
      <trkpt lat="46.00733" lon="4.39033">
        <ele>572</ele>
        <time>2016-09-22T11:58:35Z</time>
      </trkpt>
      <trkpt lat="46.00735" lon="4.39044">
        <ele>572</ele>
        <time>2016-09-22T11:58:42Z</time>
      </trkpt>
      <trkpt lat="46.00735" lon="4.39046">
        <ele>572</ele>
        <time>2016-09-22T11:58:43Z</time>
      </trkpt>
      <trkpt lat="46.00739" lon="4.39056">
        <ele>573</ele>
        <time>2016-09-22T11:58:51Z</time>
      </trkpt>
      <trkpt lat="46.0074" lon="4.39057">
        <ele>573</ele>
        <time>2016-09-22T11:58:52Z</time>
      </trkpt>
      <trkpt lat="46.00745" lon="4.39067">
        <ele>574</ele>
        <time>2016-09-22T11:58:59Z</time>
      </trkpt>
      <trkpt lat="46.00746" lon="4.39068">
        <ele>575</ele>
        <time>2016-09-22T11:59:00Z</time>
      </trkpt>
      <trkpt lat="46.00751" lon="4.39079">
        <ele>579</ele>
        <time>2016-09-22T11:59:08Z</time>
      </trkpt>
      <trkpt lat="46.00751" lon="4.39081">
        <ele>578</ele>
        <time>2016-09-22T11:59:09Z</time>
      </trkpt>
      <trkpt lat="46.00755" lon="4.39092">
        <ele>580</ele>
        <time>2016-09-22T11:59:18Z</time>
      </trkpt>
      <trkpt lat="46.00755" lon="4.39093">
        <ele>580</ele>
        <time>2016-09-22T11:59:19Z</time>
      </trkpt>
      <trkpt lat="46.00761" lon="4.39101">
        <ele>581</ele>
        <time>2016-09-22T11:59:26Z</time>
      </trkpt>
      <trkpt lat="46.00762" lon="4.39102">
        <ele>581</ele>
        <time>2016-09-22T11:59:27Z</time>
      </trkpt>
      <trkpt lat="46.00767" lon="4.39112">
        <ele>582</ele>
        <time>2016-09-22T11:59:35Z</time>
      </trkpt>
      <trkpt lat="46.00767" lon="4.39114">
        <ele>582</ele>
        <time>2016-09-22T11:59:36Z</time>
      </trkpt>
      <trkpt lat="46.00771" lon="4.39124">
        <ele>582</ele>
        <time>2016-09-22T11:59:43Z</time>
      </trkpt>
      <trkpt lat="46.00772" lon="4.39125">
        <ele>582</ele>
        <time>2016-09-22T11:59:44Z</time>
      </trkpt>
      <trkpt lat="46.00776" lon="4.39135">
        <ele>583</ele>
        <time>2016-09-22T11:59:51Z</time>
      </trkpt>
      <trkpt lat="46.00776" lon="4.39136">
        <ele>583</ele>
        <time>2016-09-22T11:59:52Z</time>
      </trkpt>
      <trkpt lat="46.00778" lon="4.39148">
        <ele>582</ele>
        <time>2016-09-22T12:00:01Z</time>
      </trkpt>
      <trkpt lat="46.00779" lon="4.39149">
        <ele>582</ele>
        <time>2016-09-22T12:00:02Z</time>
      </trkpt>
      <trkpt lat="46.00783" lon="4.39159">
        <ele>583</ele>
        <time>2016-09-22T12:00:09Z</time>
      </trkpt>
      <trkpt lat="46.00784" lon="4.3916">
        <ele>583</ele>
        <time>2016-09-22T12:00:10Z</time>
      </trkpt>
      <trkpt lat="46.00791" lon="4.39169">
        <ele>584</ele>
        <time>2016-09-22T12:00:19Z</time>
      </trkpt>
      <trkpt lat="46.00791" lon="4.3917">
        <ele>584</ele>
        <time>2016-09-22T12:00:20Z</time>
      </trkpt>
      <trkpt lat="46.00794" lon="4.39182">
        <ele>584</ele>
        <time>2016-09-22T12:00:27Z</time>
      </trkpt>
      <trkpt lat="46.00794" lon="4.39183">
        <ele>585</ele>
        <time>2016-09-22T12:00:28Z</time>
      </trkpt>
      <trkpt lat="46.00796" lon="4.39195">
        <ele>585</ele>
        <time>2016-09-22T12:00:35Z</time>
      </trkpt>
      <trkpt lat="46.00797" lon="4.39197">
        <ele>585</ele>
        <time>2016-09-22T12:00:36Z</time>
      </trkpt>
      <trkpt lat="46.00801" lon="4.39209">
        <ele>585</ele>
        <time>2016-09-22T12:00:43Z</time>
      </trkpt>
      <trkpt lat="46.00801" lon="4.3921">
        <ele>585</ele>
        <time>2016-09-22T12:00:44Z</time>
      </trkpt>
      <trkpt lat="46.00803" lon="4.39221">
        <ele>585</ele>
        <time>2016-09-22T12:00:51Z</time>
      </trkpt>
      <trkpt lat="46.00803" lon="4.39223">
        <ele>585</ele>
        <time>2016-09-22T12:00:52Z</time>
      </trkpt>
      <trkpt lat="46.00807" lon="4.39232">
        <ele>586</ele>
        <time>2016-09-22T12:00:58Z</time>
      </trkpt>
      <trkpt lat="46.00808" lon="4.39234">
        <ele>586</ele>
        <time>2016-09-22T12:00:59Z</time>
      </trkpt>
      <trkpt lat="46.00812" lon="4.39244">
        <ele>587</ele>
        <time>2016-09-22T12:01:05Z</time>
      </trkpt>
      <trkpt lat="46.00813" lon="4.39246">
        <ele>587</ele>
        <time>2016-09-22T12:01:06Z</time>
      </trkpt>
      <trkpt lat="46.00816" lon="4.39256">
        <ele>589</ele>
        <time>2016-09-22T12:01:12Z</time>
      </trkpt>
      <trkpt lat="46.00817" lon="4.39258">
        <ele>589</ele>
        <time>2016-09-22T12:01:13Z</time>
      </trkpt>
      <trkpt lat="46.00821" lon="4.39268">
        <ele>589</ele>
        <time>2016-09-22T12:01:19Z</time>
      </trkpt>
      <trkpt lat="46.00822" lon="4.3927">
        <ele>589</ele>
        <time>2016-09-22T12:01:20Z</time>
      </trkpt>
      <trkpt lat="46.00827" lon="4.39279">
        <ele>589</ele>
        <time>2016-09-22T12:01:26Z</time>
      </trkpt>
      <trkpt lat="46.00828" lon="4.39281">
        <ele>589</ele>
        <time>2016-09-22T12:01:27Z</time>
      </trkpt>
      <trkpt lat="46.00833" lon="4.39291">
        <ele>589</ele>
        <time>2016-09-22T12:01:34Z</time>
      </trkpt>
      <trkpt lat="46.00833" lon="4.39293">
        <ele>589</ele>
        <time>2016-09-22T12:01:35Z</time>
      </trkpt>
      <trkpt lat="46.00836" lon="4.39305">
        <ele>590</ele>
        <time>2016-09-22T12:01:42Z</time>
      </trkpt>
      <trkpt lat="46.00836" lon="4.39306">
        <ele>590</ele>
        <time>2016-09-22T12:01:43Z</time>
      </trkpt>
      <trkpt lat="46.00839" lon="4.39318">
        <ele>591</ele>
        <time>2016-09-22T12:01:50Z</time>
      </trkpt>
      <trkpt lat="46.0084" lon="4.39319">
        <ele>591</ele>
        <time>2016-09-22T12:01:51Z</time>
      </trkpt>
      <trkpt lat="46.00841" lon="4.39332">
        <ele>592</ele>
        <time>2016-09-22T12:01:58Z</time>
      </trkpt>
      <trkpt lat="46.00841" lon="4.39333">
        <ele>592</ele>
        <time>2016-09-22T12:01:59Z</time>
      </trkpt>
      <trkpt lat="46.00845" lon="4.39344">
        <ele>592</ele>
        <time>2016-09-22T12:02:06Z</time>
      </trkpt>
      <trkpt lat="46.00845" lon="4.39346">
        <ele>592</ele>
        <time>2016-09-22T12:02:07Z</time>
      </trkpt>
      <trkpt lat="46.0085" lon="4.39356">
        <ele>591</ele>
        <time>2016-09-22T12:02:14Z</time>
      </trkpt>
      <trkpt lat="46.00851" lon="4.39358">
        <ele>591</ele>
        <time>2016-09-22T12:02:15Z</time>
      </trkpt>
      <trkpt lat="46.00855" lon="4.39367">
        <ele>591</ele>
        <time>2016-09-22T12:02:21Z</time>
      </trkpt>
      <trkpt lat="46.00856" lon="4.39368">
        <ele>591</ele>
        <time>2016-09-22T12:02:22Z</time>
      </trkpt>
      <trkpt lat="46.00858" lon="4.3938">
        <ele>591</ele>
        <time>2016-09-22T12:02:29Z</time>
      </trkpt>
      <trkpt lat="46.00859" lon="4.39381">
        <ele>591</ele>
        <time>2016-09-22T12:02:30Z</time>
      </trkpt>
      <trkpt lat="46.00862" lon="4.39393">
        <ele>591</ele>
        <time>2016-09-22T12:02:45Z</time>
      </trkpt>
      <trkpt lat="46.00863" lon="4.39394">
        <ele>591</ele>
        <time>2016-09-22T12:02:46Z</time>
      </trkpt>
      <trkpt lat="46.00868" lon="4.39403">
        <ele>591</ele>
        <time>2016-09-22T12:02:54Z</time>
      </trkpt>
      <trkpt lat="46.00869" lon="4.39404">
        <ele>591</ele>
        <time>2016-09-22T12:02:55Z</time>
      </trkpt>
      <trkpt lat="46.00872" lon="4.39416">
        <ele>591</ele>
        <time>2016-09-22T12:03:03Z</time>
      </trkpt>
      <trkpt lat="46.00873" lon="4.39417">
        <ele>594</ele>
        <time>2016-09-22T12:03:04Z</time>
      </trkpt>
      <trkpt lat="46.00876" lon="4.39428">
        <ele>594</ele>
        <time>2016-09-22T12:03:12Z</time>
      </trkpt>
      <trkpt lat="46.00876" lon="4.3943">
        <ele>594</ele>
        <time>2016-09-22T12:03:13Z</time>
      </trkpt>
      <trkpt lat="46.00878" lon="4.39441">
        <ele>594</ele>
        <time>2016-09-22T12:03:21Z</time>
      </trkpt>
      <trkpt lat="46.00878" lon="4.39443">
        <ele>594</ele>
        <time>2016-09-22T12:03:22Z</time>
      </trkpt>
      <trkpt lat="46.00882" lon="4.39452">
        <ele>594</ele>
        <time>2016-09-22T12:03:28Z</time>
      </trkpt>
      <trkpt lat="46.00883" lon="4.39453">
        <ele>594</ele>
        <time>2016-09-22T12:03:29Z</time>
      </trkpt>
      <trkpt lat="46.00886" lon="4.39465">
        <ele>594</ele>
        <time>2016-09-22T12:03:36Z</time>
      </trkpt>
      <trkpt lat="46.00887" lon="4.39467">
        <ele>595</ele>
        <time>2016-09-22T12:03:37Z</time>
      </trkpt>
      <trkpt lat="46.0089" lon="4.39479">
        <ele>595</ele>
        <time>2016-09-22T12:03:44Z</time>
      </trkpt>
      <trkpt lat="46.0089" lon="4.3948">
        <ele>595</ele>
        <time>2016-09-22T12:03:45Z</time>
      </trkpt>
      <trkpt lat="46.00893" lon="4.39492">
        <ele>595</ele>
        <time>2016-09-22T12:03:52Z</time>
      </trkpt>
      <trkpt lat="46.00893" lon="4.39493">
        <ele>595</ele>
        <time>2016-09-22T12:03:53Z</time>
      </trkpt>
      <trkpt lat="46.00895" lon="4.39504">
        <ele>598</ele>
        <time>2016-09-22T12:03:59Z</time>
      </trkpt>
      <trkpt lat="46.00896" lon="4.39506">
        <ele>598</ele>
        <time>2016-09-22T12:04:00Z</time>
      </trkpt>
      <trkpt lat="46.00898" lon="4.39518">
        <ele>598</ele>
        <time>2016-09-22T12:04:06Z</time>
      </trkpt>
      <trkpt lat="46.00898" lon="4.3952">
        <ele>598</ele>
        <time>2016-09-22T12:04:07Z</time>
      </trkpt>
      <trkpt lat="46.009" lon="4.39531">
        <ele>599</ele>
        <time>2016-09-22T12:04:12Z</time>
      </trkpt>
      <trkpt lat="46.00901" lon="4.39533">
        <ele>599</ele>
        <time>2016-09-22T12:04:13Z</time>
      </trkpt>
      <trkpt lat="46.00903" lon="4.39544">
        <ele>599</ele>
        <time>2016-09-22T12:04:19Z</time>
      </trkpt>
      <trkpt lat="46.00904" lon="4.39546">
        <ele>600</ele>
        <time>2016-09-22T12:04:20Z</time>
      </trkpt>
      <trkpt lat="46.00906" lon="4.39556">
        <ele>600</ele>
        <time>2016-09-22T12:04:26Z</time>
      </trkpt>
      <trkpt lat="46.00907" lon="4.39558">
        <ele>600</ele>
        <time>2016-09-22T12:04:27Z</time>
      </trkpt>
      <trkpt lat="46.00909" lon="4.39569">
        <ele>601</ele>
        <time>2016-09-22T12:04:33Z</time>
      </trkpt>
      <trkpt lat="46.00909" lon="4.39571">
        <ele>601</ele>
        <time>2016-09-22T12:04:34Z</time>
      </trkpt>
      <trkpt lat="46.00913" lon="4.39582">
        <ele>602</ele>
        <time>2016-09-22T12:04:41Z</time>
      </trkpt>
      <trkpt lat="46.00914" lon="4.39583">
        <ele>602</ele>
        <time>2016-09-22T12:04:42Z</time>
      </trkpt>
      <trkpt lat="46.00919" lon="4.39594">
        <ele>601</ele>
        <time>2016-09-22T12:04:49Z</time>
      </trkpt>
      <trkpt lat="46.00919" lon="4.39595">
        <ele>601</ele>
        <time>2016-09-22T12:04:50Z</time>
      </trkpt>
      <trkpt lat="46.00924" lon="4.39604">
        <ele>601</ele>
        <time>2016-09-22T12:04:57Z</time>
      </trkpt>
      <trkpt lat="46.00924" lon="4.39606">
        <ele>601</ele>
        <time>2016-09-22T12:04:58Z</time>
      </trkpt>
      <trkpt lat="46.00928" lon="4.39617">
        <ele>601</ele>
        <time>2016-09-22T12:05:05Z</time>
      </trkpt>
      <trkpt lat="46.00929" lon="4.39618">
        <ele>601</ele>
        <time>2016-09-22T12:05:06Z</time>
      </trkpt>
      <trkpt lat="46.00935" lon="4.39626">
        <ele>601</ele>
        <time>2016-09-22T12:05:12Z</time>
      </trkpt>
      <trkpt lat="46.00936" lon="4.39627">
        <ele>601</ele>
        <time>2016-09-22T12:05:13Z</time>
      </trkpt>
      <trkpt lat="46.00941" lon="4.39637">
        <ele>601</ele>
        <time>2016-09-22T12:05:20Z</time>
      </trkpt>
      <trkpt lat="46.00942" lon="4.39639">
        <ele>601</ele>
        <time>2016-09-22T12:05:21Z</time>
      </trkpt>
      <trkpt lat="46.00947" lon="4.39648">
        <ele>601</ele>
        <time>2016-09-22T12:05:28Z</time>
      </trkpt>
      <trkpt lat="46.00948" lon="4.39649">
        <ele>601</ele>
        <time>2016-09-22T12:05:29Z</time>
      </trkpt>
      <trkpt lat="46.00954" lon="4.39658">
        <ele>601</ele>
        <time>2016-09-22T12:05:36Z</time>
      </trkpt>
      <trkpt lat="46.00954" lon="4.39659">
        <ele>601</ele>
        <time>2016-09-22T12:05:37Z</time>
      </trkpt>
      <trkpt lat="46.0096" lon="4.39667">
        <ele>606</ele>
        <time>2016-09-22T12:05:44Z</time>
      </trkpt>
      <trkpt lat="46.00961" lon="4.39668">
        <ele>606</ele>
        <time>2016-09-22T12:05:45Z</time>
      </trkpt>
      <trkpt lat="46.00967" lon="4.39676">
        <ele>606</ele>
        <time>2016-09-22T12:05:52Z</time>
      </trkpt>
      <trkpt lat="46.00968" lon="4.39677">
        <ele>606</ele>
        <time>2016-09-22T12:05:53Z</time>
      </trkpt>
      <trkpt lat="46.00974" lon="4.39686">
        <ele>606</ele>
        <time>2016-09-22T12:06:00Z</time>
      </trkpt>
      <trkpt lat="46.00975" lon="4.39687">
        <ele>606</ele>
        <time>2016-09-22T12:06:01Z</time>
      </trkpt>
      <trkpt lat="46.00981" lon="4.39695">
        <ele>606</ele>
        <time>2016-09-22T12:06:08Z</time>
      </trkpt>
      <trkpt lat="46.00982" lon="4.39696">
        <ele>606</ele>
        <time>2016-09-22T12:06:09Z</time>
      </trkpt>
      <trkpt lat="46.00988" lon="4.39704">
        <ele>607</ele>
        <time>2016-09-22T12:06:16Z</time>
      </trkpt>
      <trkpt lat="46.00989" lon="4.39705">
        <ele>607</ele>
        <time>2016-09-22T12:06:17Z</time>
      </trkpt>
      <trkpt lat="46.00995" lon="4.39713">
        <ele>607</ele>
        <time>2016-09-22T12:06:24Z</time>
      </trkpt>
      <trkpt lat="46.00996" lon="4.39714">
        <ele>607</ele>
        <time>2016-09-22T12:06:25Z</time>
      </trkpt>
      <trkpt lat="46.01" lon="4.39724">
        <ele>608</ele>
        <time>2016-09-22T12:06:32Z</time>
      </trkpt>
      <trkpt lat="46.01001" lon="4.39725">
        <ele>609</ele>
        <time>2016-09-22T12:06:33Z</time>
      </trkpt>
      <trkpt lat="46.01007" lon="4.39733">
        <ele>610</ele>
        <time>2016-09-22T12:06:40Z</time>
      </trkpt>
      <trkpt lat="46.01008" lon="4.39734">
        <ele>610</ele>
        <time>2016-09-22T12:06:41Z</time>
      </trkpt>
      <trkpt lat="46.01014" lon="4.39742">
        <ele>610</ele>
        <time>2016-09-22T12:06:48Z</time>
      </trkpt>
      <trkpt lat="46.01015" lon="4.39743">
        <ele>610</ele>
        <time>2016-09-22T12:06:49Z</time>
      </trkpt>
      <trkpt lat="46.01022" lon="4.3975">
        <ele>610</ele>
        <time>2016-09-22T12:06:56Z</time>
      </trkpt>
      <trkpt lat="46.01023" lon="4.39751">
        <ele>611</ele>
        <time>2016-09-22T12:06:57Z</time>
      </trkpt>
      <trkpt lat="46.01031" lon="4.39758">
        <ele>611</ele>
        <time>2016-09-22T12:07:04Z</time>
      </trkpt>
      <trkpt lat="46.01032" lon="4.39758">
        <ele>611</ele>
        <time>2016-09-22T12:07:05Z</time>
      </trkpt>
      <trkpt lat="46.0104" lon="4.39762">
        <ele>611</ele>
        <time>2016-09-22T12:07:13Z</time>
      </trkpt>
      <trkpt lat="46.01041" lon="4.39763">
        <ele>611</ele>
        <time>2016-09-22T12:07:14Z</time>
      </trkpt>
      <trkpt lat="46.01048" lon="4.39767">
        <ele>611</ele>
        <time>2016-09-22T12:07:21Z</time>
      </trkpt>
      <trkpt lat="46.01049" lon="4.39768">
        <ele>611</ele>
        <time>2016-09-22T12:07:22Z</time>
      </trkpt>
      <trkpt lat="46.01057" lon="4.39771">
        <ele>611</ele>
        <time>2016-09-22T12:07:29Z</time>
      </trkpt>
      <trkpt lat="46.01058" lon="4.39772">
        <ele>611</ele>
        <time>2016-09-22T12:07:30Z</time>
      </trkpt>
      <trkpt lat="46.01067" lon="4.39775">
        <ele>612</ele>
        <time>2016-09-22T12:07:37Z</time>
      </trkpt>
      <trkpt lat="46.01068" lon="4.39775">
        <ele>612</ele>
        <time>2016-09-22T12:07:38Z</time>
      </trkpt>
      <trkpt lat="46.01077" lon="4.39779">
        <ele>612</ele>
        <time>2016-09-22T12:07:45Z</time>
      </trkpt>
      <trkpt lat="46.01078" lon="4.39779">
        <ele>612</ele>
        <time>2016-09-22T12:07:46Z</time>
      </trkpt>
      <trkpt lat="46.01085" lon="4.39782">
        <ele>616</ele>
        <time>2016-09-22T12:07:52Z</time>
      </trkpt>
      <trkpt lat="46.01087" lon="4.39783">
        <ele>617</ele>
        <time>2016-09-22T12:07:53Z</time>
      </trkpt>
      <trkpt lat="46.01095" lon="4.39784">
        <ele>617</ele>
        <time>2016-09-22T12:07:59Z</time>
      </trkpt>
      <trkpt lat="46.01097" lon="4.39784">
        <ele>617</ele>
        <time>2016-09-22T12:08:00Z</time>
      </trkpt>
      <trkpt lat="46.01105" lon="4.39786">
        <ele>617</ele>
        <time>2016-09-22T12:08:07Z</time>
      </trkpt>
      <trkpt lat="46.01106" lon="4.39786">
        <ele>617</ele>
        <time>2016-09-22T12:08:08Z</time>
      </trkpt>
      <trkpt lat="46.01114" lon="4.39789">
        <ele>618</ele>
        <time>2016-09-22T12:08:15Z</time>
      </trkpt>
      <trkpt lat="46.01116" lon="4.39789">
        <ele>618</ele>
        <time>2016-09-22T12:08:16Z</time>
      </trkpt>
      <trkpt lat="46.01124" lon="4.39791">
        <ele>618</ele>
        <time>2016-09-22T12:08:23Z</time>
      </trkpt>
      <trkpt lat="46.01125" lon="4.39791">
        <ele>619</ele>
        <time>2016-09-22T12:08:24Z</time>
      </trkpt>
      <trkpt lat="46.01134" lon="4.39793">
        <ele>619</ele>
        <time>2016-09-22T12:08:31Z</time>
      </trkpt>
      <trkpt lat="46.01135" lon="4.39793">
        <ele>619</ele>
        <time>2016-09-22T12:08:32Z</time>
      </trkpt>
      <trkpt lat="46.01143" lon="4.39799">
        <ele>620</ele>
        <time>2016-09-22T12:08:40Z</time>
      </trkpt>
      <trkpt lat="46.01143" lon="4.39799">
        <ele>620</ele>
        <time>2016-09-22T12:08:41Z</time>
      </trkpt>
      <trkpt lat="46.01149" lon="4.39808">
        <ele>620</ele>
        <time>2016-09-22T12:08:48Z</time>
      </trkpt>
      <trkpt lat="46.01149" lon="4.3981">
        <ele>620</ele>
        <time>2016-09-22T12:08:49Z</time>
      </trkpt>
      <trkpt lat="46.01153" lon="4.3982">
        <ele>621</ele>
        <time>2016-09-22T12:08:56Z</time>
      </trkpt>
      <trkpt lat="46.01154" lon="4.39821">
        <ele>622</ele>
        <time>2016-09-22T12:08:57Z</time>
      </trkpt>
      <trkpt lat="46.01159" lon="4.39831">
        <ele>623</ele>
        <time>2016-09-22T12:09:05Z</time>
      </trkpt>
      <trkpt lat="46.0116" lon="4.39832">
        <ele>623</ele>
        <time>2016-09-22T12:09:06Z</time>
      </trkpt>
      <trkpt lat="46.01167" lon="4.39839">
        <ele>627</ele>
        <time>2016-09-22T12:09:15Z</time>
      </trkpt>
      <trkpt lat="46.01168" lon="4.3984">
        <ele>627</ele>
        <time>2016-09-22T12:09:16Z</time>
      </trkpt>
      <trkpt lat="46.01175" lon="4.39844">
        <ele>628</ele>
        <time>2016-09-22T12:09:27Z</time>
      </trkpt>
      <trkpt lat="46.01176" lon="4.39844">
        <ele>629</ele>
        <time>2016-09-22T12:09:28Z</time>
      </trkpt>
      <trkpt lat="46.01184" lon="4.39851">
        <ele>630</ele>
        <time>2016-09-22T12:09:37Z</time>
      </trkpt>
      <trkpt lat="46.01184" lon="4.39852">
        <ele>630</ele>
        <time>2016-09-22T12:09:38Z</time>
      </trkpt>
      <trkpt lat="46.01192" lon="4.39857">
        <ele>632</ele>
        <time>2016-09-22T12:09:46Z</time>
      </trkpt>
      <trkpt lat="46.01193" lon="4.39858">
        <ele>632</ele>
        <time>2016-09-22T12:09:47Z</time>
      </trkpt>
      <trkpt lat="46.01201" lon="4.39864">
        <ele>633</ele>
        <time>2016-09-22T12:09:55Z</time>
      </trkpt>
      <trkpt lat="46.01202" lon="4.39865">
        <ele>633</ele>
        <time>2016-09-22T12:09:56Z</time>
      </trkpt>
      <trkpt lat="46.01209" lon="4.39872">
        <ele>633</ele>
        <time>2016-09-22T12:10:06Z</time>
      </trkpt>
      <trkpt lat="46.01209" lon="4.39873">
        <ele>633</ele>
        <time>2016-09-22T12:10:07Z</time>
      </trkpt>
      <trkpt lat="46.01215" lon="4.39882">
        <ele>634</ele>
        <time>2016-09-22T12:10:17Z</time>
      </trkpt>
      <trkpt lat="46.01216" lon="4.39883">
        <ele>634</ele>
        <time>2016-09-22T12:10:18Z</time>
      </trkpt>
      <trkpt lat="46.01223" lon="4.3989">
        <ele>634</ele>
        <time>2016-09-22T12:10:27Z</time>
      </trkpt>
      <trkpt lat="46.01223" lon="4.3989">
        <ele>635</ele>
        <time>2016-09-22T12:10:28Z</time>
      </trkpt>
      <trkpt lat="46.0123" lon="4.39897">
        <ele>635</ele>
        <time>2016-09-22T12:10:36Z</time>
      </trkpt>
      <trkpt lat="46.01231" lon="4.39898">
        <ele>635</ele>
        <time>2016-09-22T12:10:37Z</time>
      </trkpt>
      <trkpt lat="46.01237" lon="4.39905">
        <ele>636</ele>
        <time>2016-09-22T12:10:46Z</time>
      </trkpt>
      <trkpt lat="46.01238" lon="4.39905">
        <ele>636</ele>
        <time>2016-09-22T12:10:47Z</time>
      </trkpt>
      <trkpt lat="46.01246" lon="4.3991">
        <ele>638</ele>
        <time>2016-09-22T12:10:56Z</time>
      </trkpt>
      <trkpt lat="46.01246" lon="4.39911">
        <ele>638</ele>
        <time>2016-09-22T12:10:57Z</time>
      </trkpt>
      <trkpt lat="46.01253" lon="4.39919">
        <ele>640</ele>
        <time>2016-09-22T12:11:08Z</time>
      </trkpt>
      <trkpt lat="46.01254" lon="4.39919">
        <ele>640</ele>
        <time>2016-09-22T12:11:09Z</time>
      </trkpt>
      <trkpt lat="46.0126" lon="4.39926">
        <ele>641</ele>
        <time>2016-09-22T12:11:17Z</time>
      </trkpt>
      <trkpt lat="46.01261" lon="4.39927">
        <ele>642</ele>
        <time>2016-09-22T12:11:18Z</time>
      </trkpt>
      <trkpt lat="46.01268" lon="4.39935">
        <ele>643</ele>
        <time>2016-09-22T12:11:26Z</time>
      </trkpt>
      <trkpt lat="46.01269" lon="4.39936">
        <ele>643</ele>
        <time>2016-09-22T12:11:27Z</time>
      </trkpt>
      <trkpt lat="46.01276" lon="4.39943">
        <ele>643</ele>
        <time>2016-09-22T12:11:35Z</time>
      </trkpt>
      <trkpt lat="46.01277" lon="4.39944">
        <ele>644</ele>
        <time>2016-09-22T12:11:36Z</time>
      </trkpt>
      <trkpt lat="46.01284" lon="4.39951">
        <ele>644</ele>
        <time>2016-09-22T12:11:43Z</time>
      </trkpt>
      <trkpt lat="46.01285" lon="4.39952">
        <ele>644</ele>
        <time>2016-09-22T12:11:44Z</time>
      </trkpt>
      <trkpt lat="46.01291" lon="4.39959">
        <ele>644</ele>
        <time>2016-09-22T12:11:50Z</time>
      </trkpt>
      <trkpt lat="46.01292" lon="4.3996">
        <ele>644</ele>
        <time>2016-09-22T12:11:51Z</time>
      </trkpt>
      <trkpt lat="46.01299" lon="4.39967">
        <ele>645</ele>
        <time>2016-09-22T12:11:57Z</time>
      </trkpt>
      <trkpt lat="46.013" lon="4.39968">
        <ele>645</ele>
        <time>2016-09-22T12:11:58Z</time>
      </trkpt>
      <trkpt lat="46.01306" lon="4.39976">
        <ele>645</ele>
        <time>2016-09-22T12:12:04Z</time>
      </trkpt>
      <trkpt lat="46.01307" lon="4.39977">
        <ele>645</ele>
        <time>2016-09-22T12:12:05Z</time>
      </trkpt>
      <trkpt lat="46.01313" lon="4.39985">
        <ele>646</ele>
        <time>2016-09-22T12:12:11Z</time>
      </trkpt>
      <trkpt lat="46.01314" lon="4.39987">
        <ele>646</ele>
        <time>2016-09-22T12:12:12Z</time>
      </trkpt>
      <trkpt lat="46.01319" lon="4.39995">
        <ele>647</ele>
        <time>2016-09-22T12:12:18Z</time>
      </trkpt>
      <trkpt lat="46.0132" lon="4.39997">
        <ele>647</ele>
        <time>2016-09-22T12:12:19Z</time>
      </trkpt>
      <trkpt lat="46.01324" lon="4.40008">
        <ele>647</ele>
        <time>2016-09-22T12:12:26Z</time>
      </trkpt>
      <trkpt lat="46.01325" lon="4.40009">
        <ele>647</ele>
        <time>2016-09-22T12:12:27Z</time>
      </trkpt>
      <trkpt lat="46.01328" lon="4.40019">
        <ele>646</ele>
        <time>2016-09-22T12:12:34Z</time>
      </trkpt>
      <trkpt lat="46.01328" lon="4.40021">
        <ele>646</ele>
        <time>2016-09-22T12:12:35Z</time>
      </trkpt>
      <trkpt lat="46.01332" lon="4.40032">
        <ele>646</ele>
        <time>2016-09-22T12:12:42Z</time>
      </trkpt>
      <trkpt lat="46.01332" lon="4.40035">
        <ele>646</ele>
        <time>2016-09-22T12:12:43Z</time>
      </trkpt>
      <trkpt lat="46.01333" lon="4.40046">
        <ele>646</ele>
        <time>2016-09-22T12:12:50Z</time>
      </trkpt>
      <trkpt lat="46.01333" lon="4.40048">
        <ele>646</ele>
        <time>2016-09-22T12:12:51Z</time>
      </trkpt>
      <trkpt lat="46.01332" lon="4.40061">
        <ele>647</ele>
        <time>2016-09-22T12:12:59Z</time>
      </trkpt>
      <trkpt lat="46.01332" lon="4.40062">
        <ele>647</ele>
        <time>2016-09-22T12:13:00Z</time>
      </trkpt>
      <trkpt lat="46.01332" lon="4.40074">
        <ele>649</ele>
        <time>2016-09-22T12:13:08Z</time>
      </trkpt>
      <trkpt lat="46.01331" lon="4.40076">
        <ele>650</ele>
        <time>2016-09-22T12:13:09Z</time>
      </trkpt>
      <trkpt lat="46.0133" lon="4.40087">
        <ele>651</ele>
        <time>2016-09-22T12:13:17Z</time>
      </trkpt>
      <trkpt lat="46.0133" lon="4.40089">
        <ele>651</ele>
        <time>2016-09-22T12:13:18Z</time>
      </trkpt>
      <trkpt lat="46.01331" lon="4.40101">
        <ele>650</ele>
        <time>2016-09-22T12:13:26Z</time>
      </trkpt>
      <trkpt lat="46.01331" lon="4.40103">
        <ele>650</ele>
        <time>2016-09-22T12:13:27Z</time>
      </trkpt>
      <trkpt lat="46.01333" lon="4.40115">
        <ele>651</ele>
        <time>2016-09-22T12:13:35Z</time>
      </trkpt>
      <trkpt lat="46.01333" lon="4.40116">
        <ele>651</ele>
        <time>2016-09-22T12:13:36Z</time>
      </trkpt>
      <trkpt lat="46.01334" lon="4.40128">
        <ele>659</ele>
        <time>2016-09-22T12:13:44Z</time>
      </trkpt>
      <trkpt lat="46.01334" lon="4.40129">
        <ele>659</ele>
        <time>2016-09-22T12:13:45Z</time>
      </trkpt>
      <trkpt lat="46.01336" lon="4.40142">
        <ele>659</ele>
        <time>2016-09-22T12:13:54Z</time>
      </trkpt>
      <trkpt lat="46.01336" lon="4.40143">
        <ele>659</ele>
        <time>2016-09-22T12:13:55Z</time>
      </trkpt>
      <trkpt lat="46.01338" lon="4.40154">
        <ele>659</ele>
        <time>2016-09-22T12:14:03Z</time>
      </trkpt>
      <trkpt lat="46.01338" lon="4.40156">
        <ele>659</ele>
        <time>2016-09-22T12:14:04Z</time>
      </trkpt>
      <trkpt lat="46.01342" lon="4.40166">
        <ele>659</ele>
        <time>2016-09-22T12:14:12Z</time>
      </trkpt>
      <trkpt lat="46.01342" lon="4.40168">
        <ele>661</ele>
        <time>2016-09-22T12:14:13Z</time>
      </trkpt>
      <trkpt lat="46.01344" lon="4.4018">
        <ele>662</ele>
        <time>2016-09-22T12:14:23Z</time>
      </trkpt>
      <trkpt lat="46.01345" lon="4.40181">
        <ele>662</ele>
        <time>2016-09-22T12:14:24Z</time>
      </trkpt>
      <trkpt lat="46.01348" lon="4.40193">
        <ele>663</ele>
        <time>2016-09-22T12:14:33Z</time>
      </trkpt>
      <trkpt lat="46.01348" lon="4.40194">
        <ele>663</ele>
        <time>2016-09-22T12:14:34Z</time>
      </trkpt>
      <trkpt lat="46.01352" lon="4.40205">
        <ele>663</ele>
        <time>2016-09-22T12:14:41Z</time>
      </trkpt>
      <trkpt lat="46.01352" lon="4.40207">
        <ele>663</ele>
        <time>2016-09-22T12:14:42Z</time>
      </trkpt>
      <trkpt lat="46.01353" lon="4.40218">
        <ele>663</ele>
        <time>2016-09-22T12:14:49Z</time>
      </trkpt>
      <trkpt lat="46.01354" lon="4.4022">
        <ele>663</ele>
        <time>2016-09-22T12:14:50Z</time>
      </trkpt>
      <trkpt lat="46.01355" lon="4.40231">
        <ele>663</ele>
        <time>2016-09-22T12:14:57Z</time>
      </trkpt>
      <trkpt lat="46.01356" lon="4.40233">
        <ele>663</ele>
        <time>2016-09-22T12:14:58Z</time>
      </trkpt>
      <trkpt lat="46.01358" lon="4.40245">
        <ele>663</ele>
        <time>2016-09-22T12:15:05Z</time>
      </trkpt>
      <trkpt lat="46.01359" lon="4.40246">
        <ele>663</ele>
        <time>2016-09-22T12:15:06Z</time>
      </trkpt>
      <trkpt lat="46.01363" lon="4.40257">
        <ele>663</ele>
        <time>2016-09-22T12:15:14Z</time>
      </trkpt>
      <trkpt lat="46.01364" lon="4.40259">
        <ele>663</ele>
        <time>2016-09-22T12:15:15Z</time>
      </trkpt>
      <trkpt lat="46.01367" lon="4.4027">
        <ele>663</ele>
        <time>2016-09-22T12:15:22Z</time>
      </trkpt>
      <trkpt lat="46.01367" lon="4.40271">
        <ele>663</ele>
        <time>2016-09-22T12:15:23Z</time>
      </trkpt>
      <trkpt lat="46.01372" lon="4.40282">
        <ele>664</ele>
        <time>2016-09-22T12:15:30Z</time>
      </trkpt>
      <trkpt lat="46.01373" lon="4.40284">
        <ele>664</ele>
        <time>2016-09-22T12:15:31Z</time>
      </trkpt>
      <trkpt lat="46.01376" lon="4.40294">
        <ele>664</ele>
        <time>2016-09-22T12:15:37Z</time>
      </trkpt>
      <trkpt lat="46.01377" lon="4.40295">
        <ele>664</ele>
        <time>2016-09-22T12:15:38Z</time>
      </trkpt>
      <trkpt lat="46.01381" lon="4.40305">
        <ele>664</ele>
        <time>2016-09-22T12:15:45Z</time>
      </trkpt>
      <trkpt lat="46.01382" lon="4.40307">
        <ele>664</ele>
        <time>2016-09-22T12:15:46Z</time>
      </trkpt>
      <trkpt lat="46.01386" lon="4.40318">
        <ele>665</ele>
        <time>2016-09-22T12:15:53Z</time>
      </trkpt>
      <trkpt lat="46.01386" lon="4.40319">
        <ele>665</ele>
        <time>2016-09-22T12:15:54Z</time>
      </trkpt>
      <trkpt lat="46.01392" lon="4.40329">
        <ele>666</ele>
        <time>2016-09-22T12:16:02Z</time>
      </trkpt>
      <trkpt lat="46.01392" lon="4.40331">
        <ele>666</ele>
        <time>2016-09-22T12:16:03Z</time>
      </trkpt>
      <trkpt lat="46.01397" lon="4.40342">
        <ele>664</ele>
        <time>2016-09-22T12:16:10Z</time>
      </trkpt>
      <trkpt lat="46.01398" lon="4.40343">
        <ele>664</ele>
        <time>2016-09-22T12:16:11Z</time>
      </trkpt>
      <trkpt lat="46.01401" lon="4.40354">
        <ele>664</ele>
        <time>2016-09-22T12:16:18Z</time>
      </trkpt>
      <trkpt lat="46.01402" lon="4.40355">
        <ele>664</ele>
        <time>2016-09-22T12:16:19Z</time>
      </trkpt>
      <trkpt lat="46.01406" lon="4.40366">
        <ele>663</ele>
        <time>2016-09-22T12:16:26Z</time>
      </trkpt>
      <trkpt lat="46.01406" lon="4.40368">
        <ele>663</ele>
        <time>2016-09-22T12:16:27Z</time>
      </trkpt>
      <trkpt lat="46.01412" lon="4.40377">
        <ele>663</ele>
        <time>2016-09-22T12:16:33Z</time>
      </trkpt>
      <trkpt lat="46.01413" lon="4.40378">
        <ele>663</ele>
        <time>2016-09-22T12:16:34Z</time>
      </trkpt>
      <trkpt lat="46.01419" lon="4.40387">
        <ele>673</ele>
        <time>2016-09-22T12:16:41Z</time>
      </trkpt>
      <trkpt lat="46.01419" lon="4.40388">
        <ele>673</ele>
        <time>2016-09-22T12:16:42Z</time>
      </trkpt>
      <trkpt lat="46.01424" lon="4.40399">
        <ele>672</ele>
        <time>2016-09-22T12:16:53Z</time>
      </trkpt>
      <trkpt lat="46.01424" lon="4.404">
        <ele>672</ele>
        <time>2016-09-22T12:16:54Z</time>
      </trkpt>
      <trkpt lat="46.01428" lon="4.4041">
        <ele>672</ele>
        <time>2016-09-22T12:17:02Z</time>
      </trkpt>
      <trkpt lat="46.01429" lon="4.40411">
        <ele>672</ele>
        <time>2016-09-22T12:17:03Z</time>
      </trkpt>
      <trkpt lat="46.01433" lon="4.40421">
        <ele>670</ele>
        <time>2016-09-22T12:17:11Z</time>
      </trkpt>
      <trkpt lat="46.01434" lon="4.40423">
        <ele>671</ele>
        <time>2016-09-22T12:17:12Z</time>
      </trkpt>
      <trkpt lat="46.0144" lon="4.40432">
        <ele>671</ele>
        <time>2016-09-22T12:17:20Z</time>
      </trkpt>
      <trkpt lat="46.01441" lon="4.40434">
        <ele>671</ele>
        <time>2016-09-22T12:17:21Z</time>
      </trkpt>
      <trkpt lat="46.01445" lon="4.40444">
        <ele>672</ele>
        <time>2016-09-22T12:17:29Z</time>
      </trkpt>
      <trkpt lat="46.01446" lon="4.40445">
        <ele>672</ele>
        <time>2016-09-22T12:17:30Z</time>
      </trkpt>
      <trkpt lat="46.01452" lon="4.40454">
        <ele>672</ele>
        <time>2016-09-22T12:17:38Z</time>
      </trkpt>
      <trkpt lat="46.01453" lon="4.40455">
        <ele>672</ele>
        <time>2016-09-22T12:17:39Z</time>
      </trkpt>
      <trkpt lat="46.01459" lon="4.40464">
        <ele>672</ele>
        <time>2016-09-22T12:17:47Z</time>
      </trkpt>
      <trkpt lat="46.01459" lon="4.40465">
        <ele>672</ele>
        <time>2016-09-22T12:17:48Z</time>
      </trkpt>
      <trkpt lat="46.01463" lon="4.40477">
        <ele>672</ele>
        <time>2016-09-22T12:18:03Z</time>
      </trkpt>
      <trkpt lat="46.01463" lon="4.40478">
        <ele>672</ele>
        <time>2016-09-22T12:18:04Z</time>
      </trkpt>
      <trkpt lat="46.01469" lon="4.40486">
        <ele>673</ele>
        <time>2016-09-22T12:18:11Z</time>
      </trkpt>
      <trkpt lat="46.0147" lon="4.40487">
        <ele>673</ele>
        <time>2016-09-22T12:18:12Z</time>
      </trkpt>
      <trkpt lat="46.01475" lon="4.40497">
        <ele>674</ele>
        <time>2016-09-22T12:18:18Z</time>
      </trkpt>
      <trkpt lat="46.01476" lon="4.40499">
        <ele>674</ele>
        <time>2016-09-22T12:18:19Z</time>
      </trkpt>
      <trkpt lat="46.01482" lon="4.40506">
        <ele>671</ele>
        <time>2016-09-22T12:18:24Z</time>
      </trkpt>
      <trkpt lat="46.01483" lon="4.40507">
        <ele>671</ele>
        <time>2016-09-22T12:18:25Z</time>
      </trkpt>
      <trkpt lat="46.01489" lon="4.40513">
        <ele>672</ele>
        <time>2016-09-22T12:18:31Z</time>
      </trkpt>
      <trkpt lat="46.01491" lon="4.40515">
        <ele>672</ele>
        <time>2016-09-22T12:18:32Z</time>
      </trkpt>
      <trkpt lat="46.01496" lon="4.40523">
        <ele>671</ele>
        <time>2016-09-22T12:18:38Z</time>
      </trkpt>
      <trkpt lat="46.01497" lon="4.40524">
        <ele>671</ele>
        <time>2016-09-22T12:18:39Z</time>
      </trkpt>
      <trkpt lat="46.01505" lon="4.4053">
        <ele>680</ele>
        <time>2016-09-22T12:18:44Z</time>
      </trkpt>
      <trkpt lat="46.01506" lon="4.40531">
        <ele>680</ele>
        <time>2016-09-22T12:18:45Z</time>
      </trkpt>
      <trkpt lat="46.01512" lon="4.40539">
        <ele>679</ele>
        <time>2016-09-22T12:18:51Z</time>
      </trkpt>
      <trkpt lat="46.01512" lon="4.4054">
        <ele>679</ele>
        <time>2016-09-22T12:18:52Z</time>
      </trkpt>
      <trkpt lat="46.01516" lon="4.40551">
        <ele>679</ele>
        <time>2016-09-22T12:18:59Z</time>
      </trkpt>
      <trkpt lat="46.01516" lon="4.40552">
        <ele>679</ele>
        <time>2016-09-22T12:19:00Z</time>
      </trkpt>
      <trkpt lat="46.01523" lon="4.4056">
        <ele>679</ele>
        <time>2016-09-22T12:19:07Z</time>
      </trkpt>
      <trkpt lat="46.01524" lon="4.40561">
        <ele>679</ele>
        <time>2016-09-22T12:19:08Z</time>
      </trkpt>
      <trkpt lat="46.0153" lon="4.40569">
        <ele>679</ele>
        <time>2016-09-22T12:19:14Z</time>
      </trkpt>
      <trkpt lat="46.01531" lon="4.40571">
        <ele>679</ele>
        <time>2016-09-22T12:19:15Z</time>
      </trkpt>
      <trkpt lat="46.01537" lon="4.40579">
        <ele>680</ele>
        <time>2016-09-22T12:19:22Z</time>
      </trkpt>
      <trkpt lat="46.01538" lon="4.4058">
        <ele>680</ele>
        <time>2016-09-22T12:19:23Z</time>
      </trkpt>
      <trkpt lat="46.01543" lon="4.4059">
        <ele>678</ele>
        <time>2016-09-22T12:19:31Z</time>
      </trkpt>
      <trkpt lat="46.01543" lon="4.40591">
        <ele>678</ele>
        <time>2016-09-22T12:19:32Z</time>
      </trkpt>
      <trkpt lat="46.01546" lon="4.40602">
        <ele>678</ele>
        <time>2016-09-22T12:19:42Z</time>
      </trkpt>
      <trkpt lat="46.01547" lon="4.40603">
        <ele>678</ele>
        <time>2016-09-22T12:19:43Z</time>
      </trkpt>
      <trkpt lat="46.01551" lon="4.40614">
        <ele>678</ele>
        <time>2016-09-22T12:19:51Z</time>
      </trkpt>
      <trkpt lat="46.01551" lon="4.40615">
        <ele>678</ele>
        <time>2016-09-22T12:19:52Z</time>
      </trkpt>
      <trkpt lat="46.01559" lon="4.40622">
        <ele>679</ele>
        <time>2016-09-22T12:20:00Z</time>
      </trkpt>
      <trkpt lat="46.01559" lon="4.40622">
        <ele>679</ele>
        <time>2016-09-22T12:20:01Z</time>
      </trkpt>
      <trkpt lat="46.01564" lon="4.40629">
        <ele>679</ele>
        <time>2016-09-22T12:20:07Z</time>
      </trkpt>
      <trkpt lat="46.01566" lon="4.40631">
        <ele>679</ele>
        <time>2016-09-22T12:20:08Z</time>
      </trkpt>
      <trkpt lat="46.01572" lon="4.40636">
        <ele>680</ele>
        <time>2016-09-22T12:20:13Z</time>
      </trkpt>
      <trkpt lat="46.01574" lon="4.40638">
        <ele>680</ele>
        <time>2016-09-22T12:20:14Z</time>
      </trkpt>
      <trkpt lat="46.0158" lon="4.40643">
        <ele>681</ele>
        <time>2016-09-22T12:20:19Z</time>
      </trkpt>
      <trkpt lat="46.01582" lon="4.40644">
        <ele>681</ele>
        <time>2016-09-22T12:20:20Z</time>
      </trkpt>
      <trkpt lat="46.01588" lon="4.40652">
        <ele>685</ele>
        <time>2016-09-22T12:20:28Z</time>
      </trkpt>
      <trkpt lat="46.01589" lon="4.40654">
        <ele>685</ele>
        <time>2016-09-22T12:20:29Z</time>
      </trkpt>
      <trkpt lat="46.01594" lon="4.40663">
        <ele>685</ele>
        <time>2016-09-22T12:20:36Z</time>
      </trkpt>
      <trkpt lat="46.01595" lon="4.40664">
        <ele>685</ele>
        <time>2016-09-22T12:20:37Z</time>
      </trkpt>
      <trkpt lat="46.01602" lon="4.40671">
        <ele>687</ele>
        <time>2016-09-22T12:20:45Z</time>
      </trkpt>
      <trkpt lat="46.01603" lon="4.40672">
        <ele>687</ele>
        <time>2016-09-22T12:20:46Z</time>
      </trkpt>
      <trkpt lat="46.0161" lon="4.4068">
        <ele>687</ele>
        <time>2016-09-22T12:20:53Z</time>
      </trkpt>
      <trkpt lat="46.01612" lon="4.40681">
        <ele>687</ele>
        <time>2016-09-22T12:20:54Z</time>
      </trkpt>
      <trkpt lat="46.01618" lon="4.40688">
        <ele>688</ele>
        <time>2016-09-22T12:21:00Z</time>
      </trkpt>
      <trkpt lat="46.0162" lon="4.4069">
        <ele>688</ele>
        <time>2016-09-22T12:21:01Z</time>
      </trkpt>
      <trkpt lat="46.01625" lon="4.40699">
        <ele>688</ele>
        <time>2016-09-22T12:21:07Z</time>
      </trkpt>
      <trkpt lat="46.01626" lon="4.40701">
        <ele>688</ele>
        <time>2016-09-22T12:21:08Z</time>
      </trkpt>
      <trkpt lat="46.01631" lon="4.4071">
        <ele>689</ele>
        <time>2016-09-22T12:21:16Z</time>
      </trkpt>
      <trkpt lat="46.01631" lon="4.40712">
        <ele>689</ele>
        <time>2016-09-22T12:21:17Z</time>
      </trkpt>
      <trkpt lat="46.01636" lon="4.40723">
        <ele>689</ele>
        <time>2016-09-22T12:21:22Z</time>
      </trkpt>
      <trkpt lat="46.01637" lon="4.40724">
        <ele>689</ele>
        <time>2016-09-22T12:21:23Z</time>
      </trkpt>
      <trkpt lat="46.01642" lon="4.40734">
        <ele>690</ele>
        <time>2016-09-22T12:21:29Z</time>
      </trkpt>
      <trkpt lat="46.01642" lon="4.40735">
        <ele>690</ele>
        <time>2016-09-22T12:21:30Z</time>
      </trkpt>
      <trkpt lat="46.01649" lon="4.40744">
        <ele>692</ele>
        <time>2016-09-22T12:21:38Z</time>
      </trkpt>
      <trkpt lat="46.0165" lon="4.40745">
        <ele>692</ele>
        <time>2016-09-22T12:21:39Z</time>
      </trkpt>
      <trkpt lat="46.01654" lon="4.40756">
        <ele>692</ele>
        <time>2016-09-22T12:21:46Z</time>
      </trkpt>
      <trkpt lat="46.01654" lon="4.40757">
        <ele>692</ele>
        <time>2016-09-22T12:21:47Z</time>
      </trkpt>
      <trkpt lat="46.01659" lon="4.40767">
        <ele>691</ele>
        <time>2016-09-22T12:21:52Z</time>
      </trkpt>
      <trkpt lat="46.01661" lon="4.40768">
        <ele>691</ele>
        <time>2016-09-22T12:21:53Z</time>
      </trkpt>
      <trkpt lat="46.01667" lon="4.40777">
        <ele>690</ele>
        <time>2016-09-22T12:22:00Z</time>
      </trkpt>
      <trkpt lat="46.01667" lon="4.40778">
        <ele>692</ele>
        <time>2016-09-22T12:22:01Z</time>
      </trkpt>
      <trkpt lat="46.01671" lon="4.40789">
        <ele>692</ele>
        <time>2016-09-22T12:22:07Z</time>
      </trkpt>
      <trkpt lat="46.01671" lon="4.4079">
        <ele>692</ele>
        <time>2016-09-22T12:22:08Z</time>
      </trkpt>
      <trkpt lat="46.01675" lon="4.408">
        <ele>692</ele>
        <time>2016-09-22T12:22:15Z</time>
      </trkpt>
      <trkpt lat="46.01676" lon="4.40802">
        <ele>692</ele>
        <time>2016-09-22T12:22:16Z</time>
      </trkpt>
      <trkpt lat="46.0168" lon="4.40812">
        <ele>691</ele>
        <time>2016-09-22T12:22:23Z</time>
      </trkpt>
      <trkpt lat="46.01681" lon="4.40814">
        <ele>691</ele>
        <time>2016-09-22T12:22:24Z</time>
      </trkpt>
      <trkpt lat="46.01686" lon="4.40824">
        <ele>691</ele>
        <time>2016-09-22T12:22:30Z</time>
      </trkpt>
      <trkpt lat="46.01687" lon="4.40826">
        <ele>691</ele>
        <time>2016-09-22T12:22:31Z</time>
      </trkpt>
      <trkpt lat="46.0169" lon="4.40835">
        <ele>690</ele>
        <time>2016-09-22T12:22:36Z</time>
      </trkpt>
      <trkpt lat="46.01692" lon="4.40837">
        <ele>690</ele>
        <time>2016-09-22T12:22:37Z</time>
      </trkpt>
      <trkpt lat="46.01696" lon="4.40848">
        <ele>689</ele>
        <time>2016-09-22T12:22:42Z</time>
      </trkpt>
      <trkpt lat="46.01697" lon="4.40849">
        <ele>689</ele>
        <time>2016-09-22T12:22:43Z</time>
      </trkpt>
      <trkpt lat="46.01702" lon="4.40859">
        <ele>689</ele>
        <time>2016-09-22T12:22:49Z</time>
      </trkpt>
      <trkpt lat="46.01703" lon="4.4086">
        <ele>689</ele>
        <time>2016-09-22T12:22:50Z</time>
      </trkpt>
      <trkpt lat="46.01707" lon="4.4087">
        <ele>688</ele>
        <time>2016-09-22T12:22:55Z</time>
      </trkpt>
      <trkpt lat="46.01708" lon="4.40871">
        <ele>688</ele>
        <time>2016-09-22T12:22:56Z</time>
      </trkpt>
      <trkpt lat="46.01712" lon="4.4088">
        <ele>688</ele>
        <time>2016-09-22T12:23:01Z</time>
      </trkpt>
      <trkpt lat="46.01713" lon="4.40882">
        <ele>688</ele>
        <time>2016-09-22T12:23:02Z</time>
      </trkpt>
      <trkpt lat="46.01716" lon="4.40893">
        <ele>688</ele>
        <time>2016-09-22T12:23:08Z</time>
      </trkpt>
      <trkpt lat="46.01717" lon="4.40894">
        <ele>688</ele>
        <time>2016-09-22T12:23:09Z</time>
      </trkpt>
      <trkpt lat="46.01721" lon="4.40905">
        <ele>688</ele>
        <time>2016-09-22T12:23:15Z</time>
      </trkpt>
      <trkpt lat="46.01721" lon="4.40907">
        <ele>688</ele>
        <time>2016-09-22T12:23:16Z</time>
      </trkpt>
      <trkpt lat="46.01724" lon="4.40918">
        <ele>684</ele>
        <time>2016-09-22T12:23:22Z</time>
      </trkpt>
      <trkpt lat="46.01724" lon="4.40919">
        <ele>684</ele>
        <time>2016-09-22T12:23:23Z</time>
      </trkpt>
      <trkpt lat="46.01727" lon="4.40929">
        <ele>684</ele>
        <time>2016-09-22T12:23:29Z</time>
      </trkpt>
      <trkpt lat="46.01728" lon="4.40931">
        <ele>684</ele>
        <time>2016-09-22T12:23:30Z</time>
      </trkpt>
      <trkpt lat="46.01732" lon="4.40942">
        <ele>683</ele>
        <time>2016-09-22T12:23:36Z</time>
      </trkpt>
      <trkpt lat="46.01733" lon="4.40943">
        <ele>683</ele>
        <time>2016-09-22T12:23:37Z</time>
      </trkpt>
      <trkpt lat="46.01738" lon="4.40954">
        <ele>683</ele>
        <time>2016-09-22T12:23:43Z</time>
      </trkpt>
      <trkpt lat="46.01739" lon="4.40956">
        <ele>683</ele>
        <time>2016-09-22T12:23:44Z</time>
      </trkpt>
      <trkpt lat="46.0174" lon="4.40967">
        <ele>682</ele>
        <time>2016-09-22T12:23:50Z</time>
      </trkpt>
      <trkpt lat="46.01741" lon="4.40969">
        <ele>682</ele>
        <time>2016-09-22T12:23:51Z</time>
      </trkpt>
      <trkpt lat="46.01744" lon="4.40979">
        <ele>683</ele>
        <time>2016-09-22T12:23:57Z</time>
      </trkpt>
      <trkpt lat="46.01745" lon="4.40981">
        <ele>683</ele>
        <time>2016-09-22T12:23:58Z</time>
      </trkpt>
      <trkpt lat="46.01748" lon="4.40993">
        <ele>684</ele>
        <time>2016-09-22T12:24:05Z</time>
      </trkpt>
      <trkpt lat="46.01749" lon="4.40994">
        <ele>684</ele>
        <time>2016-09-22T12:24:06Z</time>
      </trkpt>
      <trkpt lat="46.01752" lon="4.41005">
        <ele>685</ele>
        <time>2016-09-22T12:24:13Z</time>
      </trkpt>
      <trkpt lat="46.01753" lon="4.41007">
        <ele>685</ele>
        <time>2016-09-22T12:24:14Z</time>
      </trkpt>
      <trkpt lat="46.01758" lon="4.41016">
        <ele>686</ele>
        <time>2016-09-22T12:24:20Z</time>
      </trkpt>
      <trkpt lat="46.01758" lon="4.41018">
        <ele>686</ele>
        <time>2016-09-22T12:24:21Z</time>
      </trkpt>
      <trkpt lat="46.01763" lon="4.41027">
        <ele>686</ele>
        <time>2016-09-22T12:24:27Z</time>
      </trkpt>
      <trkpt lat="46.01764" lon="4.41029">
        <ele>686</ele>
        <time>2016-09-22T12:24:28Z</time>
      </trkpt>
      <trkpt lat="46.01767" lon="4.4104">
        <ele>686</ele>
        <time>2016-09-22T12:24:34Z</time>
      </trkpt>
      <trkpt lat="46.01768" lon="4.41042">
        <ele>686</ele>
        <time>2016-09-22T12:24:35Z</time>
      </trkpt>
      <trkpt lat="46.01771" lon="4.41052">
        <ele>686</ele>
        <time>2016-09-22T12:24:42Z</time>
      </trkpt>
      <trkpt lat="46.01772" lon="4.41054">
        <ele>686</ele>
        <time>2016-09-22T12:24:43Z</time>
      </trkpt>
      <trkpt lat="46.01776" lon="4.41064">
        <ele>686</ele>
        <time>2016-09-22T12:24:50Z</time>
      </trkpt>
      <trkpt lat="46.01776" lon="4.41066">
        <ele>686</ele>
        <time>2016-09-22T12:24:51Z</time>
      </trkpt>
      <trkpt lat="46.01778" lon="4.41077">
        <ele>686</ele>
        <time>2016-09-22T12:24:59Z</time>
      </trkpt>
      <trkpt lat="46.01779" lon="4.41078">
        <ele>686</ele>
        <time>2016-09-22T12:25:00Z</time>
      </trkpt>
      <trkpt lat="46.01786" lon="4.41086">
        <ele>687</ele>
        <time>2016-09-22T12:25:08Z</time>
      </trkpt>
      <trkpt lat="46.01786" lon="4.41087">
        <ele>687</ele>
        <time>2016-09-22T12:25:09Z</time>
      </trkpt>
      <trkpt lat="46.01794" lon="4.41093">
        <ele>688</ele>
        <time>2016-09-22T12:25:18Z</time>
      </trkpt>
      <trkpt lat="46.01795" lon="4.41094">
        <ele>688</ele>
        <time>2016-09-22T12:25:19Z</time>
      </trkpt>
      <trkpt lat="46.01803" lon="4.411">
        <ele>689</ele>
        <time>2016-09-22T12:25:29Z</time>
      </trkpt>
      <trkpt lat="46.01803" lon="4.41101">
        <ele>689</ele>
        <time>2016-09-22T12:25:30Z</time>
      </trkpt>
      <trkpt lat="46.01806" lon="4.41112">
        <ele>689</ele>
        <time>2016-09-22T12:29:36Z</time>
      </trkpt>
      <trkpt lat="46.01807" lon="4.41114">
        <ele>689</ele>
        <time>2016-09-22T12:29:37Z</time>
      </trkpt>
      <trkpt lat="46.01812" lon="4.41124">
        <ele>689</ele>
        <time>2016-09-22T12:29:46Z</time>
      </trkpt>
      <trkpt lat="46.01812" lon="4.41125">
        <ele>689</ele>
        <time>2016-09-22T12:29:47Z</time>
      </trkpt>
      <trkpt lat="46.01818" lon="4.41134">
        <ele>690</ele>
        <time>2016-09-22T12:29:56Z</time>
      </trkpt>
      <trkpt lat="46.01818" lon="4.41135">
        <ele>690</ele>
        <time>2016-09-22T12:29:57Z</time>
      </trkpt>
      <trkpt lat="46.01822" lon="4.41146">
        <ele>692</ele>
        <time>2016-09-22T12:30:05Z</time>
      </trkpt>
      <trkpt lat="46.01822" lon="4.41147">
        <ele>692</ele>
        <time>2016-09-22T12:30:06Z</time>
      </trkpt>
      <trkpt lat="46.01822" lon="4.41159">
        <ele>693</ele>
        <time>2016-09-22T12:30:14Z</time>
      </trkpt>
      <trkpt lat="46.01822" lon="4.4116">
        <ele>693</ele>
        <time>2016-09-22T12:30:15Z</time>
      </trkpt>
      <trkpt lat="46.01826" lon="4.4117">
        <ele>694</ele>
        <time>2016-09-22T12:30:22Z</time>
      </trkpt>
      <trkpt lat="46.01827" lon="4.41172">
        <ele>694</ele>
        <time>2016-09-22T12:30:23Z</time>
      </trkpt>
      <trkpt lat="46.01829" lon="4.41183">
        <ele>691</ele>
        <time>2016-09-22T12:30:31Z</time>
      </trkpt>
      <trkpt lat="46.0183" lon="4.41185">
        <ele>691</ele>
        <time>2016-09-22T12:30:32Z</time>
      </trkpt>
      <trkpt lat="46.01837" lon="4.41193">
        <ele>701</ele>
        <time>2016-09-22T12:30:41Z</time>
      </trkpt>
      <trkpt lat="46.01837" lon="4.41194">
        <ele>701</ele>
        <time>2016-09-22T12:30:42Z</time>
      </trkpt>
      <trkpt lat="46.01843" lon="4.41202">
        <ele>701</ele>
        <time>2016-09-22T12:30:51Z</time>
      </trkpt>
      <trkpt lat="46.01844" lon="4.41203">
        <ele>701</ele>
        <time>2016-09-22T12:30:52Z</time>
      </trkpt>
      <trkpt lat="46.01849" lon="4.41211">
        <ele>702</ele>
        <time>2016-09-22T12:30:57Z</time>
      </trkpt>
      <trkpt lat="46.01851" lon="4.41212">
        <ele>702</ele>
        <time>2016-09-22T12:30:58Z</time>
      </trkpt>
      <trkpt lat="46.01858" lon="4.41219">
        <ele>702</ele>
        <time>2016-09-22T12:31:08Z</time>
      </trkpt>
      <trkpt lat="46.01858" lon="4.4122">
        <ele>702</ele>
        <time>2016-09-22T12:31:09Z</time>
      </trkpt>
      <trkpt lat="46.01864" lon="4.41228">
        <ele>703</ele>
        <time>2016-09-22T12:31:24Z</time>
      </trkpt>
      <trkpt lat="46.01865" lon="4.41229">
        <ele>703</ele>
        <time>2016-09-22T12:31:25Z</time>
      </trkpt>
      <trkpt lat="46.01871" lon="4.41237">
        <ele>704</ele>
        <time>2016-09-22T12:31:35Z</time>
      </trkpt>
      <trkpt lat="46.01872" lon="4.41238">
        <ele>704</ele>
        <time>2016-09-22T12:31:36Z</time>
      </trkpt>
      <trkpt lat="46.01878" lon="4.41246">
        <ele>705</ele>
        <time>2016-09-22T12:31:42Z</time>
      </trkpt>
      <trkpt lat="46.01879" lon="4.41247">
        <ele>705</ele>
        <time>2016-09-22T12:31:43Z</time>
      </trkpt>
      <trkpt lat="46.01885" lon="4.41255">
        <ele>708</ele>
        <time>2016-09-22T12:31:49Z</time>
      </trkpt>
      <trkpt lat="46.01885" lon="4.41256">
        <ele>708</ele>
        <time>2016-09-22T12:31:50Z</time>
      </trkpt>
      <trkpt lat="46.01893" lon="4.4126">
        <ele>710</ele>
        <time>2016-09-22T12:31:56Z</time>
      </trkpt>
      <trkpt lat="46.01894" lon="4.4126">
        <ele>710</ele>
        <time>2016-09-22T12:31:57Z</time>
      </trkpt>
      <trkpt lat="46.01903" lon="4.41263">
        <ele>712</ele>
        <time>2016-09-22T12:32:05Z</time>
      </trkpt>
      <trkpt lat="46.01904" lon="4.41263">
        <ele>712</ele>
        <time>2016-09-22T12:32:06Z</time>
      </trkpt>
      <trkpt lat="46.01912" lon="4.41264">
        <ele>713</ele>
        <time>2016-09-22T12:32:13Z</time>
      </trkpt>
      <trkpt lat="46.01913" lon="4.41265">
        <ele>713</ele>
        <time>2016-09-22T12:32:14Z</time>
      </trkpt>
      <trkpt lat="46.0192" lon="4.41273">
        <ele>721</ele>
        <time>2016-09-22T12:32:24Z</time>
      </trkpt>
      <trkpt lat="46.0192" lon="4.41274">
        <ele>721</ele>
        <time>2016-09-22T12:32:25Z</time>
      </trkpt>
      <trkpt lat="46.01924" lon="4.41284">
        <ele>722</ele>
        <time>2016-09-22T12:32:36Z</time>
      </trkpt>
      <trkpt lat="46.01924" lon="4.41286">
        <ele>722</ele>
        <time>2016-09-22T12:32:37Z</time>
      </trkpt>
      <trkpt lat="46.01928" lon="4.41297">
        <ele>723</ele>
        <time>2016-09-22T12:32:46Z</time>
      </trkpt>
      <trkpt lat="46.01929" lon="4.41298">
        <ele>723</ele>
        <time>2016-09-22T12:32:47Z</time>
      </trkpt>
      <trkpt lat="46.01935" lon="4.41306">
        <ele>724</ele>
        <time>2016-09-22T12:32:53Z</time>
      </trkpt>
      <trkpt lat="46.01935" lon="4.41308">
        <ele>724</ele>
        <time>2016-09-22T12:32:54Z</time>
      </trkpt>
      <trkpt lat="46.01938" lon="4.41319">
        <ele>724</ele>
        <time>2016-09-22T12:33:03Z</time>
      </trkpt>
      <trkpt lat="46.01939" lon="4.4132">
        <ele>724</ele>
        <time>2016-09-22T12:33:04Z</time>
      </trkpt>
      <trkpt lat="46.01944" lon="4.41329">
        <ele>725</ele>
        <time>2016-09-22T12:33:11Z</time>
      </trkpt>
      <trkpt lat="46.01945" lon="4.4133">
        <ele>725</ele>
        <time>2016-09-22T12:33:12Z</time>
      </trkpt>
      <trkpt lat="46.01949" lon="4.41341">
        <ele>726</ele>
        <time>2016-09-22T12:33:19Z</time>
      </trkpt>
      <trkpt lat="46.0195" lon="4.41343">
        <ele>726</ele>
        <time>2016-09-22T12:33:20Z</time>
      </trkpt>
      <trkpt lat="46.01953" lon="4.41354">
        <ele>727</ele>
        <time>2016-09-22T12:33:28Z</time>
      </trkpt>
      <trkpt lat="46.01953" lon="4.41355">
        <ele>727</ele>
        <time>2016-09-22T12:33:29Z</time>
      </trkpt>
      <trkpt lat="46.01957" lon="4.41365">
        <ele>727</ele>
        <time>2016-09-22T12:33:35Z</time>
      </trkpt>
      <trkpt lat="46.01957" lon="4.41367">
        <ele>727</ele>
        <time>2016-09-22T12:33:36Z</time>
      </trkpt>
      <trkpt lat="46.01962" lon="4.41378">
        <ele>727</ele>
        <time>2016-09-22T12:33:42Z</time>
      </trkpt>
      <trkpt lat="46.01962" lon="4.41379">
        <ele>727</ele>
        <time>2016-09-22T12:33:43Z</time>
      </trkpt>
      <trkpt lat="46.01968" lon="4.41386">
        <ele>728</ele>
        <time>2016-09-22T12:33:48Z</time>
      </trkpt>
      <trkpt lat="46.01969" lon="4.41389">
        <ele>728</ele>
        <time>2016-09-22T12:33:49Z</time>
      </trkpt>
      <trkpt lat="46.01974" lon="4.41399">
        <ele>729</ele>
        <time>2016-09-22T12:33:57Z</time>
      </trkpt>
      <trkpt lat="46.01973" lon="4.41401">
        <ele>729</ele>
        <time>2016-09-22T12:33:58Z</time>
      </trkpt>
      <trkpt lat="46.01975" lon="4.41413">
        <ele>730</ele>
        <time>2016-09-22T12:34:08Z</time>
      </trkpt>
      <trkpt lat="46.01976" lon="4.41414">
        <ele>730</ele>
        <time>2016-09-22T12:34:09Z</time>
      </trkpt>
      <trkpt lat="46.01982" lon="4.41422">
        <ele>731</ele>
        <time>2016-09-22T12:34:16Z</time>
      </trkpt>
      <trkpt lat="46.01983" lon="4.41423">
        <ele>731</ele>
        <time>2016-09-22T12:34:17Z</time>
      </trkpt>
      <trkpt lat="46.01987" lon="4.41435">
        <ele>730</ele>
        <time>2016-09-22T12:34:24Z</time>
      </trkpt>
      <trkpt lat="46.01987" lon="4.41436">
        <ele>730</ele>
        <time>2016-09-22T12:34:25Z</time>
      </trkpt>
      <trkpt lat="46.01991" lon="4.41447">
        <ele>730</ele>
        <time>2016-09-22T12:34:32Z</time>
      </trkpt>
      <trkpt lat="46.01993" lon="4.41448">
        <ele>730</ele>
        <time>2016-09-22T12:34:33Z</time>
      </trkpt>
      <trkpt lat="46.01997" lon="4.41458">
        <ele>730</ele>
        <time>2016-09-22T12:34:38Z</time>
      </trkpt>
      <trkpt lat="46.01997" lon="4.4146">
        <ele>730</ele>
        <time>2016-09-22T12:34:39Z</time>
      </trkpt>
      <trkpt lat="46.02002" lon="4.4147">
        <ele>741</ele>
        <time>2016-09-22T12:34:44Z</time>
      </trkpt>
      <trkpt lat="46.02002" lon="4.41471">
        <ele>741</ele>
        <time>2016-09-22T12:34:45Z</time>
      </trkpt>
      <trkpt lat="46.02008" lon="4.4148">
        <ele>741</ele>
        <time>2016-09-22T12:34:51Z</time>
      </trkpt>
      <trkpt lat="46.02008" lon="4.41481">
        <ele>741</ele>
        <time>2016-09-22T12:34:52Z</time>
      </trkpt>
      <trkpt lat="46.02014" lon="4.41489">
        <ele>741</ele>
        <time>2016-09-22T12:34:57Z</time>
      </trkpt>
      <trkpt lat="46.02015" lon="4.41491">
        <ele>741</ele>
        <time>2016-09-22T12:34:58Z</time>
      </trkpt>
      <trkpt lat="46.02018" lon="4.41501">
        <ele>739</ele>
        <time>2016-09-22T12:35:03Z</time>
      </trkpt>
      <trkpt lat="46.02018" lon="4.41503">
        <ele>739</ele>
        <time>2016-09-22T12:35:04Z</time>
      </trkpt>
      <trkpt lat="46.02022" lon="4.41513">
        <ele>739</ele>
        <time>2016-09-22T12:35:09Z</time>
      </trkpt>
      <trkpt lat="46.02023" lon="4.41515">
        <ele>739</ele>
        <time>2016-09-22T12:35:10Z</time>
      </trkpt>
      <trkpt lat="46.02026" lon="4.41527">
        <ele>739</ele>
        <time>2016-09-22T12:35:16Z</time>
      </trkpt>
      <trkpt lat="46.02026" lon="4.41528">
        <ele>739</ele>
        <time>2016-09-22T12:35:17Z</time>
      </trkpt>
      <trkpt lat="46.02031" lon="4.41539">
        <ele>739</ele>
        <time>2016-09-22T12:35:23Z</time>
      </trkpt>
      <trkpt lat="46.02031" lon="4.4154">
        <ele>739</ele>
        <time>2016-09-22T12:35:24Z</time>
      </trkpt>
      <trkpt lat="46.02035" lon="4.4155">
        <ele>738</ele>
        <time>2016-09-22T12:35:29Z</time>
      </trkpt>
      <trkpt lat="46.02036" lon="4.41552">
        <ele>738</ele>
        <time>2016-09-22T12:35:30Z</time>
      </trkpt>
      <trkpt lat="46.02039" lon="4.41562">
        <ele>738</ele>
        <time>2016-09-22T12:35:35Z</time>
      </trkpt>
      <trkpt lat="46.0204" lon="4.41564">
        <ele>738</ele>
        <time>2016-09-22T12:35:36Z</time>
      </trkpt>
      <trkpt lat="46.0204" lon="4.41575">
        <ele>737</ele>
        <time>2016-09-22T12:35:41Z</time>
      </trkpt>
      <trkpt lat="46.0204" lon="4.41577">
        <ele>737</ele>
        <time>2016-09-22T12:35:42Z</time>
      </trkpt>
      <trkpt lat="46.0204" lon="4.41589">
        <ele>730</ele>
        <time>2016-09-22T12:35:49Z</time>
      </trkpt>
      <trkpt lat="46.0204" lon="4.41591">
        <ele>730</ele>
        <time>2016-09-22T12:35:50Z</time>
      </trkpt>
      <trkpt lat="46.02041" lon="4.41602">
        <ele>730</ele>
        <time>2016-09-22T12:35:58Z</time>
      </trkpt>
      <trkpt lat="46.02041" lon="4.41604">
        <ele>730</ele>
        <time>2016-09-22T12:35:59Z</time>
      </trkpt>
      <trkpt lat="46.02041" lon="4.41616">
        <ele>729</ele>
        <time>2016-09-22T12:36:05Z</time>
      </trkpt>
      <trkpt lat="46.02041" lon="4.41618">
        <ele>729</ele>
        <time>2016-09-22T12:36:06Z</time>
      </trkpt>
      <trkpt lat="46.02038" lon="4.4163">
        <ele>728</ele>
        <time>2016-09-22T12:36:13Z</time>
      </trkpt>
      <trkpt lat="46.02038" lon="4.41631">
        <ele>727</ele>
        <time>2016-09-22T12:36:14Z</time>
      </trkpt>
      <trkpt lat="46.02039" lon="4.41643">
        <ele>727</ele>
        <time>2016-09-22T12:36:21Z</time>
      </trkpt>
      <trkpt lat="46.02039" lon="4.41645">
        <ele>726</ele>
        <time>2016-09-22T12:36:22Z</time>
      </trkpt>
      <trkpt lat="46.0204" lon="4.41657">
        <ele>726</ele>
        <time>2016-09-22T12:36:27Z</time>
      </trkpt>
      <trkpt lat="46.0204" lon="4.41659">
        <ele>726</ele>
        <time>2016-09-22T12:36:28Z</time>
      </trkpt>
      <trkpt lat="46.02041" lon="4.41671">
        <ele>721</ele>
        <time>2016-09-22T12:36:33Z</time>
      </trkpt>
      <trkpt lat="46.02041" lon="4.41674">
        <ele>721</ele>
        <time>2016-09-22T12:36:34Z</time>
      </trkpt>
      <trkpt lat="46.02041" lon="4.41686">
        <ele>721</ele>
        <time>2016-09-22T12:36:40Z</time>
      </trkpt>
      <trkpt lat="46.02041" lon="4.41688">
        <ele>721</ele>
        <time>2016-09-22T12:36:41Z</time>
      </trkpt>
      <trkpt lat="46.02043" lon="4.417">
        <ele>721</ele>
        <time>2016-09-22T12:36:47Z</time>
      </trkpt>
      <trkpt lat="46.02044" lon="4.41702">
        <ele>721</ele>
        <time>2016-09-22T12:36:48Z</time>
      </trkpt>
      <trkpt lat="46.02043" lon="4.41715">
        <ele>721</ele>
        <time>2016-09-22T12:36:54Z</time>
      </trkpt>
      <trkpt lat="46.02043" lon="4.41717">
        <ele>721</ele>
        <time>2016-09-22T12:36:55Z</time>
      </trkpt>
      <trkpt lat="46.02043" lon="4.41729">
        <ele>721</ele>
        <time>2016-09-22T12:37:01Z</time>
      </trkpt>
      <trkpt lat="46.02044" lon="4.41731">
        <ele>721</ele>
        <time>2016-09-22T12:37:02Z</time>
      </trkpt>
      <trkpt lat="46.02045" lon="4.41743">
        <ele>721</ele>
        <time>2016-09-22T12:37:09Z</time>
      </trkpt>
      <trkpt lat="46.02045" lon="4.41744">
        <ele>721</ele>
        <time>2016-09-22T12:37:10Z</time>
      </trkpt>
      <trkpt lat="46.02046" lon="4.41756">
        <ele>723</ele>
        <time>2016-09-22T12:37:16Z</time>
      </trkpt>
      <trkpt lat="46.02046" lon="4.41758">
        <ele>723</ele>
        <time>2016-09-22T12:37:17Z</time>
      </trkpt>
      <trkpt lat="46.02046" lon="4.4177">
        <ele>723</ele>
        <time>2016-09-22T12:37:24Z</time>
      </trkpt>
      <trkpt lat="46.02047" lon="4.41772">
        <ele>724</ele>
        <time>2016-09-22T12:37:25Z</time>
      </trkpt>
      <trkpt lat="46.02047" lon="4.41785">
        <ele>724</ele>
        <time>2016-09-22T12:37:32Z</time>
      </trkpt>
      <trkpt lat="46.02047" lon="4.41786">
        <ele>724</ele>
        <time>2016-09-22T12:37:33Z</time>
      </trkpt>
      <trkpt lat="46.02048" lon="4.41797">
        <ele>725</ele>
        <time>2016-09-22T12:37:39Z</time>
      </trkpt>
      <trkpt lat="46.02048" lon="4.41799">
        <ele>725</ele>
        <time>2016-09-22T12:37:40Z</time>
      </trkpt>
      <trkpt lat="46.02046" lon="4.41811">
        <ele>725</ele>
        <time>2016-09-22T12:37:46Z</time>
      </trkpt>
      <trkpt lat="46.02046" lon="4.41813">
        <ele>725</ele>
        <time>2016-09-22T12:37:47Z</time>
      </trkpt>
      <trkpt lat="46.02043" lon="4.41823">
        <ele>725</ele>
        <time>2016-09-22T12:37:53Z</time>
      </trkpt>
      <trkpt lat="46.02043" lon="4.41825">
        <ele>726</ele>
        <time>2016-09-22T12:37:54Z</time>
      </trkpt>
      <trkpt lat="46.0205" lon="4.41833">
        <ele>726</ele>
        <time>2016-09-22T12:38:26Z</time>
      </trkpt>
      <trkpt lat="46.0205" lon="4.41833">
        <ele>726</ele>
        <time>2016-09-22T12:38:27Z</time>
      </trkpt>
      <trkpt lat="46.02043" lon="4.41839">
        <ele>731</ele>
        <time>2016-09-22T12:39:33Z</time>
      </trkpt>
      <trkpt lat="46.02042" lon="4.4184">
        <ele>731</ele>
        <time>2016-09-22T12:39:34Z</time>
      </trkpt>
      <trkpt lat="46.02035" lon="4.41846">
        <ele>731</ele>
        <time>2016-09-22T12:39:40Z</time>
      </trkpt>
      <trkpt lat="46.02033" lon="4.41847">
        <ele>731</ele>
        <time>2016-09-22T12:39:41Z</time>
      </trkpt>
      <trkpt lat="46.02026" lon="4.41854">
        <ele>732</ele>
        <time>2016-09-22T12:39:47Z</time>
      </trkpt>
      <trkpt lat="46.02025" lon="4.41854">
        <ele>732</ele>
        <time>2016-09-22T12:39:48Z</time>
      </trkpt>
      <trkpt lat="46.02018" lon="4.4186">
        <ele>732</ele>
        <time>2016-09-22T12:39:54Z</time>
      </trkpt>
      <trkpt lat="46.02016" lon="4.4186">
        <ele>732</ele>
        <time>2016-09-22T12:39:55Z</time>
      </trkpt>
      <trkpt lat="46.02008" lon="4.41866">
        <ele>733</ele>
        <time>2016-09-22T12:40:03Z</time>
      </trkpt>
      <trkpt lat="46.02007" lon="4.41867">
        <ele>733</ele>
        <time>2016-09-22T12:40:04Z</time>
      </trkpt>
      <trkpt lat="46.02001" lon="4.41875">
        <ele>733</ele>
        <time>2016-09-22T12:40:11Z</time>
      </trkpt>
      <trkpt lat="46.02" lon="4.41876">
        <ele>735</ele>
        <time>2016-09-22T12:40:12Z</time>
      </trkpt>
      <trkpt lat="46.01994" lon="4.41884">
        <ele>736</ele>
        <time>2016-09-22T12:40:18Z</time>
      </trkpt>
      <trkpt lat="46.01992" lon="4.41885">
        <ele>736</ele>
        <time>2016-09-22T12:40:19Z</time>
      </trkpt>
      <trkpt lat="46.01986" lon="4.41893">
        <ele>737</ele>
        <time>2016-09-22T12:40:24Z</time>
      </trkpt>
      <trkpt lat="46.01985" lon="4.41895">
        <ele>737</ele>
        <time>2016-09-22T12:40:25Z</time>
      </trkpt>
      <trkpt lat="46.01979" lon="4.41901">
        <ele>737</ele>
        <time>2016-09-22T12:41:58Z</time>
      </trkpt>
      <trkpt lat="46.01978" lon="4.41902">
        <ele>737</ele>
        <time>2016-09-22T12:41:59Z</time>
      </trkpt>
      <trkpt lat="46.01972" lon="4.41909">
        <ele>737</ele>
        <time>2016-09-22T12:42:07Z</time>
      </trkpt>
      <trkpt lat="46.01971" lon="4.41911">
        <ele>737</ele>
        <time>2016-09-22T12:42:08Z</time>
      </trkpt>
      <trkpt lat="46.01964" lon="4.41919">
        <ele>744</ele>
        <time>2016-09-22T12:42:17Z</time>
      </trkpt>
      <trkpt lat="46.01963" lon="4.4192">
        <ele>744</ele>
        <time>2016-09-22T12:42:18Z</time>
      </trkpt>
      <trkpt lat="46.01958" lon="4.41929">
        <ele>744</ele>
        <time>2016-09-22T12:42:25Z</time>
      </trkpt>
      <trkpt lat="46.01957" lon="4.4193">
        <ele>744</ele>
        <time>2016-09-22T12:42:26Z</time>
      </trkpt>
      <trkpt lat="46.01951" lon="4.41939">
        <ele>745</ele>
        <time>2016-09-22T12:42:33Z</time>
      </trkpt>
      <trkpt lat="46.0195" lon="4.4194">
        <ele>745</ele>
        <time>2016-09-22T12:42:34Z</time>
      </trkpt>
      <trkpt lat="46.01943" lon="4.41948">
        <ele>745</ele>
        <time>2016-09-22T12:42:42Z</time>
      </trkpt>
      <trkpt lat="46.01942" lon="4.41948">
        <ele>745</ele>
        <time>2016-09-22T12:42:43Z</time>
      </trkpt>
      <trkpt lat="46.01936" lon="4.41957">
        <ele>746</ele>
        <time>2016-09-22T12:42:50Z</time>
      </trkpt>
      <trkpt lat="46.01935" lon="4.41959">
        <ele>746</ele>
        <time>2016-09-22T12:42:51Z</time>
      </trkpt>
      <trkpt lat="46.01929" lon="4.41966">
        <ele>746</ele>
        <time>2016-09-22T12:42:58Z</time>
      </trkpt>
      <trkpt lat="46.01928" lon="4.41967">
        <ele>746</ele>
        <time>2016-09-22T12:42:59Z</time>
      </trkpt>
      <trkpt lat="46.01925" lon="4.41978">
        <ele>747</ele>
        <time>2016-09-22T12:43:05Z</time>
      </trkpt>
      <trkpt lat="46.01924" lon="4.4198">
        <ele>747</ele>
        <time>2016-09-22T12:43:06Z</time>
      </trkpt>
      <trkpt lat="46.0192" lon="4.4199">
        <ele>748</ele>
        <time>2016-09-22T12:43:12Z</time>
      </trkpt>
      <trkpt lat="46.01919" lon="4.41992">
        <ele>748</ele>
        <time>2016-09-22T12:43:13Z</time>
      </trkpt>
      <trkpt lat="46.01913" lon="4.42001">
        <ele>748</ele>
        <time>2016-09-22T12:43:19Z</time>
      </trkpt>
      <trkpt lat="46.01913" lon="4.42003">
        <ele>748</ele>
        <time>2016-09-22T12:43:20Z</time>
      </trkpt>
      <trkpt lat="46.01907" lon="4.42013">
        <ele>747</ele>
        <time>2016-09-22T12:43:27Z</time>
      </trkpt>
      <trkpt lat="46.01907" lon="4.42014">
        <ele>747</ele>
        <time>2016-09-22T12:43:28Z</time>
      </trkpt>
      <trkpt lat="46.01902" lon="4.42024">
        <ele>746</ele>
        <time>2016-09-22T12:43:35Z</time>
      </trkpt>
      <trkpt lat="46.01902" lon="4.42026">
        <ele>746</ele>
        <time>2016-09-22T12:43:36Z</time>
      </trkpt>
      <trkpt lat="46.01897" lon="4.42037">
        <ele>746</ele>
        <time>2016-09-22T12:43:43Z</time>
      </trkpt>
      <trkpt lat="46.01896" lon="4.42038">
        <ele>746</ele>
        <time>2016-09-22T12:43:44Z</time>
      </trkpt>
      <trkpt lat="46.01894" lon="4.42049">
        <ele>747</ele>
        <time>2016-09-22T12:43:51Z</time>
      </trkpt>
      <trkpt lat="46.01894" lon="4.42051">
        <ele>747</ele>
        <time>2016-09-22T12:43:52Z</time>
      </trkpt>
      <trkpt lat="46.01889" lon="4.42061">
        <ele>747</ele>
        <time>2016-09-22T12:43:59Z</time>
      </trkpt>
      <trkpt lat="46.01888" lon="4.42062">
        <ele>747</ele>
        <time>2016-09-22T12:44:00Z</time>
      </trkpt>
      <trkpt lat="46.01885" lon="4.42073">
        <ele>747</ele>
        <time>2016-09-22T12:44:08Z</time>
      </trkpt>
      <trkpt lat="46.01885" lon="4.42074">
        <ele>747</ele>
        <time>2016-09-22T12:44:09Z</time>
      </trkpt>
      <trkpt lat="46.01882" lon="4.42086">
        <ele>749</ele>
        <time>2016-09-22T12:44:18Z</time>
      </trkpt>
      <trkpt lat="46.01882" lon="4.42088">
        <ele>749</ele>
        <time>2016-09-22T12:44:19Z</time>
      </trkpt>
      <trkpt lat="46.0188" lon="4.421">
        <ele>749</ele>
        <time>2016-09-22T12:44:27Z</time>
      </trkpt>
      <trkpt lat="46.01881" lon="4.42101">
        <ele>749</ele>
        <time>2016-09-22T12:44:28Z</time>
      </trkpt>
      <trkpt lat="46.01881" lon="4.42113">
        <ele>749</ele>
        <time>2016-09-22T12:44:36Z</time>
      </trkpt>
      <trkpt lat="46.01882" lon="4.42115">
        <ele>749</ele>
        <time>2016-09-22T12:44:37Z</time>
      </trkpt>
      <trkpt lat="46.01877" lon="4.42124">
        <ele>748</ele>
        <time>2016-09-22T12:44:43Z</time>
      </trkpt>
      <trkpt lat="46.01876" lon="4.42125">
        <ele>748</ele>
        <time>2016-09-22T12:44:44Z</time>
      </trkpt>
      <trkpt lat="46.01871" lon="4.42135">
        <ele>748</ele>
        <time>2016-09-22T12:44:51Z</time>
      </trkpt>
      <trkpt lat="46.0187" lon="4.42136">
        <ele>748</ele>
        <time>2016-09-22T12:44:52Z</time>
      </trkpt>
      <trkpt lat="46.01869" lon="4.42148">
        <ele>748</ele>
        <time>2016-09-22T12:44:59Z</time>
      </trkpt>
      <trkpt lat="46.01868" lon="4.4215">
        <ele>748</ele>
        <time>2016-09-22T12:45:00Z</time>
      </trkpt>
      <trkpt lat="46.01864" lon="4.42161">
        <ele>747</ele>
        <time>2016-09-22T12:45:07Z</time>
      </trkpt>
      <trkpt lat="46.01864" lon="4.42163">
        <ele>747</ele>
        <time>2016-09-22T12:45:08Z</time>
      </trkpt>
      <trkpt lat="46.01866" lon="4.42174">
        <ele>748</ele>
        <time>2016-09-22T12:45:14Z</time>
      </trkpt>
      <trkpt lat="46.01867" lon="4.42176">
        <ele>748</ele>
        <time>2016-09-22T12:45:15Z</time>
      </trkpt>
      <trkpt lat="46.0187" lon="4.42187">
        <ele>749</ele>
        <time>2016-09-22T12:45:19Z</time>
      </trkpt>
      <trkpt lat="46.01872" lon="4.42189">
        <ele>749</ele>
        <time>2016-09-22T12:45:20Z</time>
      </trkpt>
      <trkpt lat="46.01874" lon="4.422">
        <ele>749</ele>
        <time>2016-09-22T12:45:24Z</time>
      </trkpt>
      <trkpt lat="46.01875" lon="4.42202">
        <ele>749</ele>
        <time>2016-09-22T12:45:25Z</time>
      </trkpt>
      <trkpt lat="46.01875" lon="4.42213">
        <ele>749</ele>
        <time>2016-09-22T12:45:30Z</time>
      </trkpt>
      <trkpt lat="46.01875" lon="4.42216">
        <ele>749</ele>
        <time>2016-09-22T12:45:31Z</time>
      </trkpt>
      <trkpt lat="46.01875" lon="4.42227">
        <ele>749</ele>
        <time>2016-09-22T12:45:37Z</time>
      </trkpt>
      <trkpt lat="46.01875" lon="4.4223">
        <ele>749</ele>
        <time>2016-09-22T12:45:38Z</time>
      </trkpt>
      <trkpt lat="46.01878" lon="4.42242">
        <ele>750</ele>
        <time>2016-09-22T12:45:44Z</time>
      </trkpt>
      <trkpt lat="46.01879" lon="4.42243">
        <ele>750</ele>
        <time>2016-09-22T12:45:45Z</time>
      </trkpt>
      <trkpt lat="46.01884" lon="4.42252">
        <ele>750</ele>
        <time>2016-09-22T12:45:50Z</time>
      </trkpt>
      <trkpt lat="46.01884" lon="4.42254">
        <ele>750</ele>
        <time>2016-09-22T12:45:51Z</time>
      </trkpt>
      <trkpt lat="46.01885" lon="4.42265">
        <ele>750</ele>
        <time>2016-09-22T12:45:57Z</time>
      </trkpt>
      <trkpt lat="46.01886" lon="4.42267">
        <ele>750</ele>
        <time>2016-09-22T12:45:58Z</time>
      </trkpt>
      <trkpt lat="46.0189" lon="4.42278">
        <ele>750</ele>
        <time>2016-09-22T12:46:04Z</time>
      </trkpt>
      <trkpt lat="46.0189" lon="4.4228">
        <ele>750</ele>
        <time>2016-09-22T12:46:05Z</time>
      </trkpt>
      <trkpt lat="46.01892" lon="4.42292">
        <ele>750</ele>
        <time>2016-09-22T12:46:12Z</time>
      </trkpt>
      <trkpt lat="46.01891" lon="4.42293">
        <ele>750</ele>
        <time>2016-09-22T12:46:13Z</time>
      </trkpt>
      <trkpt lat="46.0189" lon="4.42305">
        <ele>750</ele>
        <time>2016-09-22T12:46:23Z</time>
      </trkpt>
      <trkpt lat="46.0189" lon="4.42307">
        <ele>750</ele>
        <time>2016-09-22T12:46:24Z</time>
      </trkpt>
      <trkpt lat="46.01889" lon="4.42319">
        <ele>750</ele>
        <time>2016-09-22T12:46:33Z</time>
      </trkpt>
      <trkpt lat="46.01889" lon="4.42321">
        <ele>750</ele>
        <time>2016-09-22T12:46:34Z</time>
      </trkpt>
      <trkpt lat="46.01892" lon="4.42333">
        <ele>751</ele>
        <time>2016-09-22T12:46:40Z</time>
      </trkpt>
      <trkpt lat="46.01893" lon="4.42335">
        <ele>752</ele>
        <time>2016-09-22T12:46:41Z</time>
      </trkpt>
      <trkpt lat="46.01897" lon="4.42344">
        <ele>753</ele>
        <time>2016-09-22T12:46:45Z</time>
      </trkpt>
      <trkpt lat="46.01898" lon="4.42346">
        <ele>753</ele>
        <time>2016-09-22T12:46:46Z</time>
      </trkpt>
      <trkpt lat="46.019" lon="4.42358">
        <ele>752</ele>
        <time>2016-09-22T12:46:51Z</time>
      </trkpt>
      <trkpt lat="46.01901" lon="4.4236">
        <ele>752</ele>
        <time>2016-09-22T12:46:52Z</time>
      </trkpt>
      <trkpt lat="46.01903" lon="4.42371">
        <ele>753</ele>
        <time>2016-09-22T12:46:58Z</time>
      </trkpt>
      <trkpt lat="46.01904" lon="4.42373">
        <ele>753</ele>
        <time>2016-09-22T12:46:59Z</time>
      </trkpt>
      <trkpt lat="46.01903" lon="4.42386">
        <ele>753</ele>
        <time>2016-09-22T12:47:06Z</time>
      </trkpt>
      <trkpt lat="46.01903" lon="4.42388">
        <ele>753</ele>
        <time>2016-09-22T12:47:07Z</time>
      </trkpt>
      <trkpt lat="46.01897" lon="4.42396">
        <ele>753</ele>
        <time>2016-09-22T12:47:14Z</time>
      </trkpt>
      <trkpt lat="46.01896" lon="4.42397">
        <ele>753</ele>
        <time>2016-09-22T12:47:15Z</time>
      </trkpt>
      <trkpt lat="46.01895" lon="4.42408">
        <ele>754</ele>
        <time>2016-09-22T12:47:22Z</time>
      </trkpt>
      <trkpt lat="46.01895" lon="4.4241">
        <ele>754</ele>
        <time>2016-09-22T12:47:23Z</time>
      </trkpt>
      <trkpt lat="46.01891" lon="4.42422">
        <ele>756</ele>
        <time>2016-09-22T12:47:30Z</time>
      </trkpt>
      <trkpt lat="46.01891" lon="4.42423">
        <ele>755</ele>
        <time>2016-09-22T12:47:31Z</time>
      </trkpt>
      <trkpt lat="46.01888" lon="4.42434">
        <ele>755</ele>
        <time>2016-09-22T12:47:37Z</time>
      </trkpt>
      <trkpt lat="46.01888" lon="4.42436">
        <ele>755</ele>
        <time>2016-09-22T12:47:38Z</time>
      </trkpt>
      <trkpt lat="46.01887" lon="4.42447">
        <ele>755</ele>
        <time>2016-09-22T12:47:43Z</time>
      </trkpt>
      <trkpt lat="46.01888" lon="4.42449">
        <ele>755</ele>
        <time>2016-09-22T12:47:44Z</time>
      </trkpt>
      <trkpt lat="46.01887" lon="4.42461">
        <ele>755</ele>
        <time>2016-09-22T12:47:50Z</time>
      </trkpt>
      <trkpt lat="46.01887" lon="4.42463">
        <ele>755</ele>
        <time>2016-09-22T12:47:51Z</time>
      </trkpt>
      <trkpt lat="46.01889" lon="4.42474">
        <ele>755</ele>
        <time>2016-09-22T12:47:59Z</time>
      </trkpt>
      <trkpt lat="46.01888" lon="4.42476">
        <ele>755</ele>
        <time>2016-09-22T12:48:00Z</time>
      </trkpt>
      <trkpt lat="46.01888" lon="4.42489">
        <ele>755</ele>
        <time>2016-09-22T12:48:06Z</time>
      </trkpt>
      <trkpt lat="46.01888" lon="4.42491">
        <ele>755</ele>
        <time>2016-09-22T12:48:07Z</time>
      </trkpt>
      <trkpt lat="46.01886" lon="4.42502">
        <ele>756</ele>
        <time>2016-09-22T12:48:13Z</time>
      </trkpt>
      <trkpt lat="46.01885" lon="4.42504">
        <ele>756</ele>
        <time>2016-09-22T12:48:14Z</time>
      </trkpt>
      <trkpt lat="46.01884" lon="4.42516">
        <ele>756</ele>
        <time>2016-09-22T12:48:20Z</time>
      </trkpt>
      <trkpt lat="46.01884" lon="4.42518">
        <ele>756</ele>
        <time>2016-09-22T12:48:21Z</time>
      </trkpt>
      <trkpt lat="46.01886" lon="4.42529">
        <ele>756</ele>
        <time>2016-09-22T12:48:26Z</time>
      </trkpt>
      <trkpt lat="46.01885" lon="4.42531">
        <ele>756</ele>
        <time>2016-09-22T12:48:27Z</time>
      </trkpt>
      <trkpt lat="46.0188" lon="4.4254">
        <ele>756</ele>
        <time>2016-09-22T12:48:32Z</time>
      </trkpt>
      <trkpt lat="46.01879" lon="4.42542">
        <ele>756</ele>
        <time>2016-09-22T12:48:33Z</time>
      </trkpt>
      <trkpt lat="46.01874" lon="4.42553">
        <ele>756</ele>
        <time>2016-09-22T12:48:39Z</time>
      </trkpt>
      <trkpt lat="46.01873" lon="4.42554">
        <ele>756</ele>
        <time>2016-09-22T12:48:40Z</time>
      </trkpt>
      <trkpt lat="46.01868" lon="4.42563">
        <ele>756</ele>
        <time>2016-09-22T12:48:46Z</time>
      </trkpt>
      <trkpt lat="46.01867" lon="4.42564">
        <ele>756</ele>
        <time>2016-09-22T12:48:47Z</time>
      </trkpt>
      <trkpt lat="46.01862" lon="4.42575">
        <ele>756</ele>
        <time>2016-09-22T12:48:56Z</time>
      </trkpt>
      <trkpt lat="46.01862" lon="4.42576">
        <ele>756</ele>
        <time>2016-09-22T12:48:57Z</time>
      </trkpt>
      <trkpt lat="46.01857" lon="4.42585">
        <ele>759</ele>
        <time>2016-09-22T12:49:04Z</time>
      </trkpt>
      <trkpt lat="46.01856" lon="4.42587">
        <ele>759</ele>
        <time>2016-09-22T12:49:05Z</time>
      </trkpt>
      <trkpt lat="46.0185" lon="4.42594">
        <ele>758</ele>
        <time>2016-09-22T12:49:11Z</time>
      </trkpt>
      <trkpt lat="46.01849" lon="4.42595">
        <ele>758</ele>
        <time>2016-09-22T12:49:12Z</time>
      </trkpt>
      <trkpt lat="46.01842" lon="4.42602">
        <ele>759</ele>
        <time>2016-09-22T12:49:19Z</time>
      </trkpt>
      <trkpt lat="46.01841" lon="4.42602">
        <ele>759</ele>
        <time>2016-09-22T12:49:20Z</time>
      </trkpt>
      <trkpt lat="46.01836" lon="4.42611">
        <ele>759</ele>
        <time>2016-09-22T12:49:27Z</time>
      </trkpt>
      <trkpt lat="46.01835" lon="4.42613">
        <ele>760</ele>
        <time>2016-09-22T12:49:28Z</time>
      </trkpt>
      <trkpt lat="46.01828" lon="4.4262">
        <ele>763</ele>
        <time>2016-09-22T12:49:37Z</time>
      </trkpt>
      <trkpt lat="46.01827" lon="4.42621">
        <ele>763</ele>
        <time>2016-09-22T12:49:38Z</time>
      </trkpt>
      <trkpt lat="46.01822" lon="4.4263">
        <ele>764</ele>
        <time>2016-09-22T12:49:46Z</time>
      </trkpt>
      <trkpt lat="46.01821" lon="4.42631">
        <ele>764</ele>
        <time>2016-09-22T12:49:47Z</time>
      </trkpt>
      <trkpt lat="46.01815" lon="4.42641">
        <ele>765</ele>
        <time>2016-09-22T12:49:58Z</time>
      </trkpt>
      <trkpt lat="46.01815" lon="4.42642">
        <ele>765</ele>
        <time>2016-09-22T12:49:59Z</time>
      </trkpt>
      <trkpt lat="46.01812" lon="4.42653">
        <ele>765</ele>
        <time>2016-09-22T12:50:09Z</time>
      </trkpt>
      <trkpt lat="46.01812" lon="4.42654">
        <ele>765</ele>
        <time>2016-09-22T12:50:10Z</time>
      </trkpt>
      <trkpt lat="46.01809" lon="4.42666">
        <ele>766</ele>
        <time>2016-09-22T12:50:18Z</time>
      </trkpt>
      <trkpt lat="46.01809" lon="4.42667">
        <ele>769</ele>
        <time>2016-09-22T12:50:19Z</time>
      </trkpt>
      <trkpt lat="46.01804" lon="4.42676">
        <ele>769</ele>
        <time>2016-09-22T12:50:26Z</time>
      </trkpt>
      <trkpt lat="46.01803" lon="4.42678">
        <ele>769</ele>
        <time>2016-09-22T12:50:27Z</time>
      </trkpt>
      <trkpt lat="46.01799" lon="4.42686">
        <ele>769</ele>
        <time>2016-09-22T12:50:34Z</time>
      </trkpt>
      <trkpt lat="46.01797" lon="4.42688">
        <ele>770</ele>
        <time>2016-09-22T12:50:35Z</time>
      </trkpt>
      <trkpt lat="46.01793" lon="4.42698">
        <ele>770</ele>
        <time>2016-09-22T12:50:42Z</time>
      </trkpt>
      <trkpt lat="46.01792" lon="4.427">
        <ele>770</ele>
        <time>2016-09-22T12:50:43Z</time>
      </trkpt>
      <trkpt lat="46.01789" lon="4.42711">
        <ele>770</ele>
        <time>2016-09-22T12:50:52Z</time>
      </trkpt>
      <trkpt lat="46.01789" lon="4.42713">
        <ele>770</ele>
        <time>2016-09-22T12:50:53Z</time>
      </trkpt>
      <trkpt lat="46.01785" lon="4.42723">
        <ele>770</ele>
        <time>2016-09-22T12:51:17Z</time>
      </trkpt>
      <trkpt lat="46.01784" lon="4.42724">
        <ele>770</ele>
        <time>2016-09-22T12:51:18Z</time>
      </trkpt>
      <trkpt lat="46.01779" lon="4.42734">
        <ele>771</ele>
        <time>2016-09-22T12:53:01Z</time>
      </trkpt>
      <trkpt lat="46.01779" lon="4.42735">
        <ele>771</ele>
        <time>2016-09-22T12:53:02Z</time>
      </trkpt>
      <trkpt lat="46.01779" lon="4.42748">
        <ele>771</ele>
        <time>2016-09-22T12:53:16Z</time>
      </trkpt>
      <trkpt lat="46.01779" lon="4.42749">
        <ele>771</ele>
        <time>2016-09-22T12:53:17Z</time>
      </trkpt>
      <trkpt lat="46.01777" lon="4.42761">
        <ele>769</ele>
        <time>2016-09-22T12:53:27Z</time>
      </trkpt>
      <trkpt lat="46.01777" lon="4.42762">
        <ele>769</ele>
        <time>2016-09-22T12:53:28Z</time>
      </trkpt>
      <trkpt lat="46.01773" lon="4.42773">
        <ele>769</ele>
        <time>2016-09-22T12:53:36Z</time>
      </trkpt>
      <trkpt lat="46.01773" lon="4.42774">
        <ele>769</ele>
        <time>2016-09-22T12:53:37Z</time>
      </trkpt>
      <trkpt lat="46.0177" lon="4.42786">
        <ele>769</ele>
        <time>2016-09-22T12:53:48Z</time>
      </trkpt>
      <trkpt lat="46.0177" lon="4.42787">
        <ele>769</ele>
        <time>2016-09-22T12:53:49Z</time>
      </trkpt>
      <trkpt lat="46.01767" lon="4.42798">
        <ele>768</ele>
        <time>2016-09-22T12:53:59Z</time>
      </trkpt>
      <trkpt lat="46.01766" lon="4.42799">
        <ele>768</ele>
        <time>2016-09-22T12:54:00Z</time>
      </trkpt>
      <trkpt lat="46.01762" lon="4.4281">
        <ele>768</ele>
        <time>2016-09-22T12:54:09Z</time>
      </trkpt>
      <trkpt lat="46.01761" lon="4.42812">
        <ele>768</ele>
        <time>2016-09-22T12:54:10Z</time>
      </trkpt>
      <trkpt lat="46.0176" lon="4.42823">
        <ele>767</ele>
        <time>2016-09-22T12:54:18Z</time>
      </trkpt>
      <trkpt lat="46.0176" lon="4.42825">
        <ele>767</ele>
        <time>2016-09-22T12:54:19Z</time>
      </trkpt>
      <trkpt lat="46.01759" lon="4.42837">
        <ele>765</ele>
        <time>2016-09-22T12:54:27Z</time>
      </trkpt>
      <trkpt lat="46.01758" lon="4.42839">
        <ele>765</ele>
        <time>2016-09-22T12:54:28Z</time>
      </trkpt>
      <trkpt lat="46.01755" lon="4.4285">
        <ele>764</ele>
        <time>2016-09-22T12:54:35Z</time>
      </trkpt>
      <trkpt lat="46.01754" lon="4.42851">
        <ele>764</ele>
        <time>2016-09-22T12:54:36Z</time>
      </trkpt>
      <trkpt lat="46.01748" lon="4.42859">
        <ele>764</ele>
        <time>2016-09-22T12:54:44Z</time>
      </trkpt>
      <trkpt lat="46.01747" lon="4.4286">
        <ele>764</ele>
        <time>2016-09-22T12:54:45Z</time>
      </trkpt>
      <trkpt lat="46.0174" lon="4.42867">
        <ele>763</ele>
        <time>2016-09-22T12:54:54Z</time>
      </trkpt>
      <trkpt lat="46.0174" lon="4.42869">
        <ele>763</ele>
        <time>2016-09-22T12:54:55Z</time>
      </trkpt>
      <trkpt lat="46.01735" lon="4.42879">
        <ele>762</ele>
        <time>2016-09-22T12:55:04Z</time>
      </trkpt>
      <trkpt lat="46.01734" lon="4.42881">
        <ele>762</ele>
        <time>2016-09-22T12:55:05Z</time>
      </trkpt>
      <trkpt lat="46.01728" lon="4.4289">
        <ele>762</ele>
        <time>2016-09-22T12:55:12Z</time>
      </trkpt>
      <trkpt lat="46.01727" lon="4.42892">
        <ele>762</ele>
        <time>2016-09-22T12:55:13Z</time>
      </trkpt>
      <trkpt lat="46.0172" lon="4.42897">
        <ele>761</ele>
        <time>2016-09-22T12:55:19Z</time>
      </trkpt>
      <trkpt lat="46.01718" lon="4.42897">
        <ele>761</ele>
        <time>2016-09-22T12:55:20Z</time>
      </trkpt>
      <trkpt lat="46.0171" lon="4.42902">
        <ele>762</ele>
        <time>2016-09-22T12:55:26Z</time>
      </trkpt>
      <trkpt lat="46.01709" lon="4.42903">
        <ele>762</ele>
        <time>2016-09-22T12:55:27Z</time>
      </trkpt>
      <trkpt lat="46.01702" lon="4.4291">
        <ele>761</ele>
        <time>2016-09-22T12:55:34Z</time>
      </trkpt>
      <trkpt lat="46.01701" lon="4.42911">
        <ele>761</ele>
        <time>2016-09-22T12:55:35Z</time>
      </trkpt>
      <trkpt lat="46.01695" lon="4.4292">
        <ele>754</ele>
        <time>2016-09-22T12:55:43Z</time>
      </trkpt>
      <trkpt lat="46.01694" lon="4.42921">
        <ele>754</ele>
        <time>2016-09-22T12:55:44Z</time>
      </trkpt>
      <trkpt lat="46.01689" lon="4.42929">
        <ele>754</ele>
        <time>2016-09-22T12:55:51Z</time>
      </trkpt>
      <trkpt lat="46.01688" lon="4.4293">
        <ele>754</ele>
        <time>2016-09-22T12:55:52Z</time>
      </trkpt>
      <trkpt lat="46.01683" lon="4.4294">
        <ele>754</ele>
        <time>2016-09-22T12:55:58Z</time>
      </trkpt>
      <trkpt lat="46.01683" lon="4.42942">
        <ele>754</ele>
        <time>2016-09-22T12:55:59Z</time>
      </trkpt>
      <trkpt lat="46.01676" lon="4.4295">
        <ele>753</ele>
        <time>2016-09-22T12:56:07Z</time>
      </trkpt>
      <trkpt lat="46.01675" lon="4.42951">
        <ele>753</ele>
        <time>2016-09-22T12:56:08Z</time>
      </trkpt>
      <trkpt lat="46.01669" lon="4.42959">
        <ele>752</ele>
        <time>2016-09-22T12:56:19Z</time>
      </trkpt>
      <trkpt lat="46.01669" lon="4.42961">
        <ele>752</ele>
        <time>2016-09-22T12:56:20Z</time>
      </trkpt>
      <trkpt lat="46.01662" lon="4.42969">
        <ele>755</ele>
        <time>2016-09-22T12:56:28Z</time>
      </trkpt>
      <trkpt lat="46.01662" lon="4.42969">
        <ele>755</ele>
        <time>2016-09-22T12:56:29Z</time>
      </trkpt>
      <trkpt lat="46.01654" lon="4.42974">
        <ele>754</ele>
        <time>2016-09-22T12:56:34Z</time>
      </trkpt>
      <trkpt lat="46.01653" lon="4.42974">
        <ele>754</ele>
        <time>2016-09-22T12:56:35Z</time>
      </trkpt>
      <trkpt lat="46.01645" lon="4.42976">
        <ele>755</ele>
        <time>2016-09-22T12:56:40Z</time>
      </trkpt>
      <trkpt lat="46.01644" lon="4.42976">
        <ele>755</ele>
        <time>2016-09-22T12:56:41Z</time>
      </trkpt>
      <trkpt lat="46.01637" lon="4.42979">
        <ele>755</ele>
        <time>2016-09-22T12:56:46Z</time>
      </trkpt>
      <trkpt lat="46.01635" lon="4.4298">
        <ele>755</ele>
        <time>2016-09-22T12:56:47Z</time>
      </trkpt>
      <trkpt lat="46.0163" lon="4.42991">
        <ele>755</ele>
        <time>2016-09-22T12:56:54Z</time>
      </trkpt>
      <trkpt lat="46.01629" lon="4.42992">
        <ele>755</ele>
        <time>2016-09-22T12:56:55Z</time>
      </trkpt>
      <trkpt lat="46.01622" lon="4.43">
        <ele>755</ele>
        <time>2016-09-22T12:57:03Z</time>
      </trkpt>
      <trkpt lat="46.01621" lon="4.43001">
        <ele>746</ele>
        <time>2016-09-22T12:57:04Z</time>
      </trkpt>
      <trkpt lat="46.01615" lon="4.4301">
        <ele>746</ele>
        <time>2016-09-22T12:57:12Z</time>
      </trkpt>
      <trkpt lat="46.01615" lon="4.43012">
        <ele>746</ele>
        <time>2016-09-22T12:57:13Z</time>
      </trkpt>
      <trkpt lat="46.01609" lon="4.4302">
        <ele>746</ele>
        <time>2016-09-22T12:57:19Z</time>
      </trkpt>
      <trkpt lat="46.01608" lon="4.43021">
        <ele>746</ele>
        <time>2016-09-22T12:57:20Z</time>
      </trkpt>
      <trkpt lat="46.01601" lon="4.43027">
        <ele>746</ele>
        <time>2016-09-22T12:57:25Z</time>
      </trkpt>
      <trkpt lat="46.016" lon="4.43028">
        <ele>746</ele>
        <time>2016-09-22T12:57:26Z</time>
      </trkpt>
      <trkpt lat="46.01591" lon="4.43031">
        <ele>746</ele>
        <time>2016-09-22T12:57:32Z</time>
      </trkpt>
      <trkpt lat="46.0159" lon="4.43032">
        <ele>746</ele>
        <time>2016-09-22T12:57:33Z</time>
      </trkpt>
      <trkpt lat="46.01582" lon="4.43034">
        <ele>752</ele>
        <time>2016-09-22T12:57:39Z</time>
      </trkpt>
      <trkpt lat="46.01581" lon="4.43034">
        <ele>752</ele>
        <time>2016-09-22T12:57:40Z</time>
      </trkpt>
      <trkpt lat="46.01572" lon="4.43037">
        <ele>752</ele>
        <time>2016-09-22T12:57:47Z</time>
      </trkpt>
      <trkpt lat="46.01571" lon="4.43038">
        <ele>752</ele>
        <time>2016-09-22T12:57:48Z</time>
      </trkpt>
      <trkpt lat="46.01564" lon="4.43044">
        <ele>752</ele>
        <time>2016-09-22T12:57:54Z</time>
      </trkpt>
      <trkpt lat="46.01563" lon="4.43045">
        <ele>752</ele>
        <time>2016-09-22T12:57:55Z</time>
      </trkpt>
      <trkpt lat="46.01557" lon="4.43052">
        <ele>751</ele>
        <time>2016-09-22T12:58:01Z</time>
      </trkpt>
      <trkpt lat="46.01556" lon="4.43054">
        <ele>751</ele>
        <time>2016-09-22T12:58:02Z</time>
      </trkpt>
      <trkpt lat="46.01552" lon="4.43065">
        <ele>751</ele>
        <time>2016-09-22T12:58:08Z</time>
      </trkpt>
      <trkpt lat="46.01551" lon="4.43067">
        <ele>751</ele>
        <time>2016-09-22T12:58:09Z</time>
      </trkpt>
      <trkpt lat="46.01546" lon="4.43077">
        <ele>750</ele>
        <time>2016-09-22T12:58:15Z</time>
      </trkpt>
      <trkpt lat="46.01545" lon="4.43079">
        <ele>750</ele>
        <time>2016-09-22T12:58:16Z</time>
      </trkpt>
      <trkpt lat="46.01542" lon="4.4309">
        <ele>743</ele>
        <time>2016-09-22T12:58:22Z</time>
      </trkpt>
      <trkpt lat="46.01541" lon="4.43092">
        <ele>743</ele>
        <time>2016-09-22T12:58:23Z</time>
      </trkpt>
      <trkpt lat="46.01536" lon="4.431">
        <ele>743</ele>
        <time>2016-09-22T12:58:28Z</time>
      </trkpt>
      <trkpt lat="46.01535" lon="4.43102">
        <ele>743</ele>
        <time>2016-09-22T12:58:29Z</time>
      </trkpt>
      <trkpt lat="46.01529" lon="4.4311">
        <ele>743</ele>
        <time>2016-09-22T12:58:36Z</time>
      </trkpt>
      <trkpt lat="46.01528" lon="4.43111">
        <ele>743</ele>
        <time>2016-09-22T12:58:37Z</time>
      </trkpt>
      <trkpt lat="46.01524" lon="4.43122">
        <ele>742</ele>
        <time>2016-09-22T12:58:44Z</time>
      </trkpt>
      <trkpt lat="46.01523" lon="4.43123">
        <ele>742</ele>
        <time>2016-09-22T12:58:45Z</time>
      </trkpt>
      <trkpt lat="46.01522" lon="4.43135">
        <ele>741</ele>
        <time>2016-09-22T12:58:52Z</time>
      </trkpt>
      <trkpt lat="46.01521" lon="4.43136">
        <ele>741</ele>
        <time>2016-09-22T12:58:53Z</time>
      </trkpt>
      <trkpt lat="46.01519" lon="4.43148">
        <ele>741</ele>
        <time>2016-09-22T12:59:01Z</time>
      </trkpt>
      <trkpt lat="46.01518" lon="4.4315">
        <ele>741</ele>
        <time>2016-09-22T12:59:02Z</time>
      </trkpt>
      <trkpt lat="46.01513" lon="4.43159">
        <ele>741</ele>
        <time>2016-09-22T12:59:10Z</time>
      </trkpt>
      <trkpt lat="46.01513" lon="4.4316">
        <ele>741</ele>
        <time>2016-09-22T12:59:11Z</time>
      </trkpt>
      <trkpt lat="46.01511" lon="4.43172">
        <ele>738</ele>
        <time>2016-09-22T12:59:19Z</time>
      </trkpt>
      <trkpt lat="46.0151" lon="4.43173">
        <ele>738</ele>
        <time>2016-09-22T12:59:20Z</time>
      </trkpt>
      <trkpt lat="46.01508" lon="4.43185">
        <ele>737</ele>
        <time>2016-09-22T12:59:28Z</time>
      </trkpt>
      <trkpt lat="46.01508" lon="4.43187">
        <ele>736</ele>
        <time>2016-09-22T12:59:29Z</time>
      </trkpt>
      <trkpt lat="46.01507" lon="4.43199">
        <ele>735</ele>
        <time>2016-09-22T12:59:36Z</time>
      </trkpt>
      <trkpt lat="46.01507" lon="4.432">
        <ele>735</ele>
        <time>2016-09-22T12:59:37Z</time>
      </trkpt>
      <trkpt lat="46.01504" lon="4.43212">
        <ele>735</ele>
        <time>2016-09-22T12:59:43Z</time>
      </trkpt>
      <trkpt lat="46.01503" lon="4.43213">
        <ele>735</ele>
        <time>2016-09-22T12:59:44Z</time>
      </trkpt>
      <trkpt lat="46.01502" lon="4.43224">
        <ele>734</ele>
        <time>2016-09-22T12:59:50Z</time>
      </trkpt>
      <trkpt lat="46.01502" lon="4.43226">
        <ele>734</ele>
        <time>2016-09-22T12:59:51Z</time>
      </trkpt>
      <trkpt lat="46.015" lon="4.43238">
        <ele>734</ele>
        <time>2016-09-22T12:59:58Z</time>
      </trkpt>
      <trkpt lat="46.01499" lon="4.43239">
        <ele>734</ele>
        <time>2016-09-22T12:59:59Z</time>
      </trkpt>
      <trkpt lat="46.01499" lon="4.43251">
        <ele>734</ele>
        <time>2016-09-22T13:00:05Z</time>
      </trkpt>
      <trkpt lat="46.01499" lon="4.43253">
        <ele>734</ele>
        <time>2016-09-22T13:00:06Z</time>
      </trkpt>
      <trkpt lat="46.01497" lon="4.43265">
        <ele>730</ele>
        <time>2016-09-22T13:00:13Z</time>
      </trkpt>
      <trkpt lat="46.01496" lon="4.43267">
        <ele>730</ele>
        <time>2016-09-22T13:00:14Z</time>
      </trkpt>
      <trkpt lat="46.01492" lon="4.43277">
        <ele>728</ele>
        <time>2016-09-22T13:00:20Z</time>
      </trkpt>
      <trkpt lat="46.01492" lon="4.43279">
        <ele>728</ele>
        <time>2016-09-22T13:00:21Z</time>
      </trkpt>
      <trkpt lat="46.01486" lon="4.43288">
        <ele>727</ele>
        <time>2016-09-22T13:00:28Z</time>
      </trkpt>
      <trkpt lat="46.01486" lon="4.43289">
        <ele>727</ele>
        <time>2016-09-22T13:00:29Z</time>
      </trkpt>
      <trkpt lat="46.01482" lon="4.43301">
        <ele>726</ele>
        <time>2016-09-22T13:00:38Z</time>
      </trkpt>
      <trkpt lat="46.01482" lon="4.43302">
        <ele>726</ele>
        <time>2016-09-22T13:00:39Z</time>
      </trkpt>
      <trkpt lat="46.01477" lon="4.43311">
        <ele>725</ele>
        <time>2016-09-22T13:00:46Z</time>
      </trkpt>
      <trkpt lat="46.01476" lon="4.43312">
        <ele>725</ele>
        <time>2016-09-22T13:00:47Z</time>
      </trkpt>
      <trkpt lat="46.01473" lon="4.43323">
        <ele>725</ele>
        <time>2016-09-22T13:00:56Z</time>
      </trkpt>
      <trkpt lat="46.01472" lon="4.43325">
        <ele>725</ele>
        <time>2016-09-22T13:00:57Z</time>
      </trkpt>
      <trkpt lat="46.01464" lon="4.43324">
        <ele>724</ele>
        <time>2016-09-22T13:01:06Z</time>
      </trkpt>
      <trkpt lat="46.01463" lon="4.43324">
        <ele>724</ele>
        <time>2016-09-22T13:01:07Z</time>
      </trkpt>
      <trkpt lat="46.01455" lon="4.43318">
        <ele>723</ele>
        <time>2016-09-22T13:01:15Z</time>
      </trkpt>
      <trkpt lat="46.01454" lon="4.43317">
        <ele>722</ele>
        <time>2016-09-22T13:01:16Z</time>
      </trkpt>
      <trkpt lat="46.01448" lon="4.43309">
        <ele>722</ele>
        <time>2016-09-22T13:01:23Z</time>
      </trkpt>
      <trkpt lat="46.01448" lon="4.43307">
        <ele>722</ele>
        <time>2016-09-22T13:01:24Z</time>
      </trkpt>
      <trkpt lat="46.01443" lon="4.43297">
        <ele>723</ele>
        <time>2016-09-22T13:01:32Z</time>
      </trkpt>
      <trkpt lat="46.01443" lon="4.43296">
        <ele>723</ele>
        <time>2016-09-22T13:01:33Z</time>
      </trkpt>
      <trkpt lat="46.01436" lon="4.43287">
        <ele>723</ele>
        <time>2016-09-22T13:01:41Z</time>
      </trkpt>
      <trkpt lat="46.01436" lon="4.43286">
        <ele>723</ele>
        <time>2016-09-22T13:01:42Z</time>
      </trkpt>
      <trkpt lat="46.01432" lon="4.43275">
        <ele>723</ele>
        <time>2016-09-22T13:01:49Z</time>
      </trkpt>
      <trkpt lat="46.01432" lon="4.43273">
        <ele>723</ele>
        <time>2016-09-22T13:01:50Z</time>
      </trkpt>
      <trkpt lat="46.0143" lon="4.43261">
        <ele>723</ele>
        <time>2016-09-22T13:01:59Z</time>
      </trkpt>
      <trkpt lat="46.01429" lon="4.4326">
        <ele>723</ele>
        <time>2016-09-22T13:02:00Z</time>
      </trkpt>
      <trkpt lat="46.01426" lon="4.43249">
        <ele>725</ele>
        <time>2016-09-22T13:02:07Z</time>
      </trkpt>
      <trkpt lat="46.01426" lon="4.43247">
        <ele>726</ele>
        <time>2016-09-22T13:02:08Z</time>
      </trkpt>
      <trkpt lat="46.01422" lon="4.43236">
        <ele>727</ele>
        <time>2016-09-22T13:02:16Z</time>
      </trkpt>
      <trkpt lat="46.01421" lon="4.43235">
        <ele>727</ele>
        <time>2016-09-22T13:02:17Z</time>
      </trkpt>
      <trkpt lat="46.01417" lon="4.43224">
        <ele>728</ele>
        <time>2016-09-22T13:02:25Z</time>
      </trkpt>
      <trkpt lat="46.01416" lon="4.43223">
        <ele>718</ele>
        <time>2016-09-22T13:02:26Z</time>
      </trkpt>
      <trkpt lat="46.01415" lon="4.43211">
        <ele>718</ele>
        <time>2016-09-22T13:02:33Z</time>
      </trkpt>
      <trkpt lat="46.01415" lon="4.43209">
        <ele>718</ele>
        <time>2016-09-22T13:02:34Z</time>
      </trkpt>
      <trkpt lat="46.0141" lon="4.43198">
        <ele>719</ele>
        <time>2016-09-22T13:02:43Z</time>
      </trkpt>
      <trkpt lat="46.01409" lon="4.43197">
        <ele>719</ele>
        <time>2016-09-22T13:02:44Z</time>
      </trkpt>
      <trkpt lat="46.01404" lon="4.43189">
        <ele>720</ele>
        <time>2016-09-22T13:02:49Z</time>
      </trkpt>
      <trkpt lat="46.01403" lon="4.43187">
        <ele>720</ele>
        <time>2016-09-22T13:02:50Z</time>
      </trkpt>
      <trkpt lat="46.01397" lon="4.43177">
        <ele>720</ele>
        <time>2016-09-22T13:02:56Z</time>
      </trkpt>
      <trkpt lat="46.01396" lon="4.43175">
        <ele>720</ele>
        <time>2016-09-22T13:02:57Z</time>
      </trkpt>
      <trkpt lat="46.01393" lon="4.43165">
        <ele>728</ele>
        <time>2016-09-22T13:03:03Z</time>
      </trkpt>
      <trkpt lat="46.01392" lon="4.43163">
        <ele>728</ele>
        <time>2016-09-22T13:03:04Z</time>
      </trkpt>
      <trkpt lat="46.01387" lon="4.43152">
        <ele>727</ele>
        <time>2016-09-22T13:03:11Z</time>
      </trkpt>
      <trkpt lat="46.01387" lon="4.4315">
        <ele>727</ele>
        <time>2016-09-22T13:03:12Z</time>
      </trkpt>
      <trkpt lat="46.0138" lon="4.43142">
        <ele>727</ele>
        <time>2016-09-22T13:03:18Z</time>
      </trkpt>
      <trkpt lat="46.01379" lon="4.43141">
        <ele>727</ele>
        <time>2016-09-22T13:03:19Z</time>
      </trkpt>
      <trkpt lat="46.01372" lon="4.43135">
        <ele>726</ele>
        <time>2016-09-22T13:03:26Z</time>
      </trkpt>
      <trkpt lat="46.0137" lon="4.43134">
        <ele>726</ele>
        <time>2016-09-22T13:03:27Z</time>
      </trkpt>
      <trkpt lat="46.01364" lon="4.43127">
        <ele>726</ele>
        <time>2016-09-22T13:03:33Z</time>
      </trkpt>
      <trkpt lat="46.01363" lon="4.43126">
        <ele>726</ele>
        <time>2016-09-22T13:03:34Z</time>
      </trkpt>
      <trkpt lat="46.01357" lon="4.43118">
        <ele>726</ele>
        <time>2016-09-22T13:03:41Z</time>
      </trkpt>
      <trkpt lat="46.01356" lon="4.43117">
        <ele>726</ele>
        <time>2016-09-22T13:03:42Z</time>
      </trkpt>
      <trkpt lat="46.01351" lon="4.43107">
        <ele>726</ele>
        <time>2016-09-22T13:03:50Z</time>
      </trkpt>
      <trkpt lat="46.01351" lon="4.43105">
        <ele>726</ele>
        <time>2016-09-22T13:03:51Z</time>
      </trkpt>
      <trkpt lat="46.01347" lon="4.43094">
        <ele>726</ele>
        <time>2016-09-22T13:03:58Z</time>
      </trkpt>
      <trkpt lat="46.01347" lon="4.43093">
        <ele>726</ele>
        <time>2016-09-22T13:03:59Z</time>
      </trkpt>
      <trkpt lat="46.01342" lon="4.43085">
        <ele>725</ele>
        <time>2016-09-22T13:04:07Z</time>
      </trkpt>
      <trkpt lat="46.0134" lon="4.43083">
        <ele>729</ele>
        <time>2016-09-22T13:04:08Z</time>
      </trkpt>
      <trkpt lat="46.01334" lon="4.43075">
        <ele>730</ele>
        <time>2016-09-22T13:04:14Z</time>
      </trkpt>
      <trkpt lat="46.01333" lon="4.43075">
        <ele>723</ele>
        <time>2016-09-22T13:04:15Z</time>
      </trkpt>
      <trkpt lat="46.01328" lon="4.43066">
        <ele>722</ele>
        <time>2016-09-22T13:04:19Z</time>
      </trkpt>
      <trkpt lat="46.01327" lon="4.43065">
        <ele>722</ele>
        <time>2016-09-22T13:04:20Z</time>
      </trkpt>
      <trkpt lat="46.01322" lon="4.43057">
        <ele>722</ele>
        <time>2016-09-22T13:04:24Z</time>
      </trkpt>
      <trkpt lat="46.01321" lon="4.43055">
        <ele>722</ele>
        <time>2016-09-22T13:04:25Z</time>
      </trkpt>
      <trkpt lat="46.01316" lon="4.43044">
        <ele>722</ele>
        <time>2016-09-22T13:04:31Z</time>
      </trkpt>
      <trkpt lat="46.01315" lon="4.43043">
        <ele>722</ele>
        <time>2016-09-22T13:04:32Z</time>
      </trkpt>
      <trkpt lat="46.01315" lon="4.4303">
        <ele>725</ele>
        <time>2016-09-22T13:04:38Z</time>
      </trkpt>
      <trkpt lat="46.01316" lon="4.43028">
        <ele>725</ele>
        <time>2016-09-22T13:04:39Z</time>
      </trkpt>
      <trkpt lat="46.01317" lon="4.43017">
        <ele>728</ele>
        <time>2016-09-22T13:04:44Z</time>
      </trkpt>
      <trkpt lat="46.01317" lon="4.43015">
        <ele>729</ele>
        <time>2016-09-22T13:04:45Z</time>
      </trkpt>
      <trkpt lat="46.01313" lon="4.43004">
        <ele>729</ele>
        <time>2016-09-22T13:04:51Z</time>
      </trkpt>
      <trkpt lat="46.01312" lon="4.43003">
        <ele>729</ele>
        <time>2016-09-22T13:04:52Z</time>
      </trkpt>
      <trkpt lat="46.01307" lon="4.42993">
        <ele>736</ele>
        <time>2016-09-22T13:04:58Z</time>
      </trkpt>
      <trkpt lat="46.01306" lon="4.4299">
        <ele>736</ele>
        <time>2016-09-22T13:04:59Z</time>
      </trkpt>
      <trkpt lat="46.01304" lon="4.42981">
        <ele>736</ele>
        <time>2016-09-22T13:05:03Z</time>
      </trkpt>
      <trkpt lat="46.01302" lon="4.42978">
        <ele>735</ele>
        <time>2016-09-22T13:05:04Z</time>
      </trkpt>
      <trkpt lat="46.01298" lon="4.42969">
        <ele>735</ele>
        <time>2016-09-22T13:05:09Z</time>
      </trkpt>
      <trkpt lat="46.01297" lon="4.42968">
        <ele>735</ele>
        <time>2016-09-22T13:05:10Z</time>
      </trkpt>
      <trkpt lat="46.01291" lon="4.4296">
        <ele>734</ele>
        <time>2016-09-22T13:05:16Z</time>
      </trkpt>
      <trkpt lat="46.0129" lon="4.42958">
        <ele>734</ele>
        <time>2016-09-22T13:05:17Z</time>
      </trkpt>
      <trkpt lat="46.01283" lon="4.42952">
        <ele>733</ele>
        <time>2016-09-22T13:05:24Z</time>
      </trkpt>
      <trkpt lat="46.01281" lon="4.42952">
        <ele>733</ele>
        <time>2016-09-22T13:05:25Z</time>
      </trkpt>
      <trkpt lat="46.01276" lon="4.42942">
        <ele>733</ele>
        <time>2016-09-22T13:05:33Z</time>
      </trkpt>
      <trkpt lat="46.01276" lon="4.4294">
        <ele>733</ele>
        <time>2016-09-22T13:05:34Z</time>
      </trkpt>
      <trkpt lat="46.01274" lon="4.42927">
        <ele>732</ele>
        <time>2016-09-22T13:05:49Z</time>
      </trkpt>
      <trkpt lat="46.01273" lon="4.42926">
        <ele>732</ele>
        <time>2016-09-22T13:05:50Z</time>
      </trkpt>
      <trkpt lat="46.01267" lon="4.42917">
        <ele>731</ele>
        <time>2016-09-22T13:05:57Z</time>
      </trkpt>
      <trkpt lat="46.01266" lon="4.42915">
        <ele>737</ele>
        <time>2016-09-22T13:05:58Z</time>
      </trkpt>
      <trkpt lat="46.01261" lon="4.42906">
        <ele>737</ele>
        <time>2016-09-22T13:06:03Z</time>
      </trkpt>
      <trkpt lat="46.01259" lon="4.42905">
        <ele>736</ele>
        <time>2016-09-22T13:06:04Z</time>
      </trkpt>
      <trkpt lat="46.01252" lon="4.42896">
        <ele>739</ele>
        <time>2016-09-22T13:06:10Z</time>
      </trkpt>
      <trkpt lat="46.01251" lon="4.42895">
        <ele>739</ele>
        <time>2016-09-22T13:06:11Z</time>
      </trkpt>
      <trkpt lat="46.01246" lon="4.42885">
        <ele>726</ele>
        <time>2016-09-22T13:06:20Z</time>
      </trkpt>
      <trkpt lat="46.01245" lon="4.42884">
        <ele>726</ele>
        <time>2016-09-22T13:06:21Z</time>
      </trkpt>
      <trkpt lat="46.01242" lon="4.42873">
        <ele>728</ele>
        <time>2016-09-22T13:06:28Z</time>
      </trkpt>
      <trkpt lat="46.01241" lon="4.42872">
        <ele>728</ele>
        <time>2016-09-22T13:06:29Z</time>
      </trkpt>
      <trkpt lat="46.01236" lon="4.42863">
        <ele>729</ele>
        <time>2016-09-22T13:06:35Z</time>
      </trkpt>
      <trkpt lat="46.01236" lon="4.42861">
        <ele>729</ele>
        <time>2016-09-22T13:06:36Z</time>
      </trkpt>
      <trkpt lat="46.01231" lon="4.42853">
        <ele>730</ele>
        <time>2016-09-22T13:06:43Z</time>
      </trkpt>
      <trkpt lat="46.0123" lon="4.42852">
        <ele>730</ele>
        <time>2016-09-22T13:06:44Z</time>
      </trkpt>
      <trkpt lat="46.01224" lon="4.42844">
        <ele>730</ele>
        <time>2016-09-22T13:06:51Z</time>
      </trkpt>
      <trkpt lat="46.01223" lon="4.42842">
        <ele>730</ele>
        <time>2016-09-22T13:06:52Z</time>
      </trkpt>
      <trkpt lat="46.01217" lon="4.42834">
        <ele>729</ele>
        <time>2016-09-22T13:07:00Z</time>
      </trkpt>
      <trkpt lat="46.01217" lon="4.42833">
        <ele>743</ele>
        <time>2016-09-22T13:07:01Z</time>
      </trkpt>
      <trkpt lat="46.01212" lon="4.42823">
        <ele>742</ele>
        <time>2016-09-22T13:07:09Z</time>
      </trkpt>
      <trkpt lat="46.01211" lon="4.42822">
        <ele>742</ele>
        <time>2016-09-22T13:07:10Z</time>
      </trkpt>
      <trkpt lat="46.01204" lon="4.42814">
        <ele>742</ele>
        <time>2016-09-22T13:07:19Z</time>
      </trkpt>
      <trkpt lat="46.01203" lon="4.42814">
        <ele>742</ele>
        <time>2016-09-22T13:07:20Z</time>
      </trkpt>
      <trkpt lat="46.01196" lon="4.42806">
        <ele>742</ele>
        <time>2016-09-22T13:07:29Z</time>
      </trkpt>
      <trkpt lat="46.01195" lon="4.42805">
        <ele>742</ele>
        <time>2016-09-22T13:07:30Z</time>
      </trkpt>
      <trkpt lat="46.01187" lon="4.428">
        <ele>742</ele>
        <time>2016-09-22T13:07:41Z</time>
      </trkpt>
      <trkpt lat="46.01186" lon="4.42799">
        <ele>742</ele>
        <time>2016-09-22T13:07:42Z</time>
      </trkpt>
      <trkpt lat="46.01178" lon="4.42796">
        <ele>742</ele>
        <time>2016-09-22T13:07:50Z</time>
      </trkpt>
      <trkpt lat="46.01177" lon="4.42795">
        <ele>742</ele>
        <time>2016-09-22T13:07:51Z</time>
      </trkpt>
      <trkpt lat="46.0117" lon="4.42787">
        <ele>743</ele>
        <time>2016-09-22T13:07:59Z</time>
      </trkpt>
      <trkpt lat="46.01169" lon="4.42786">
        <ele>743</ele>
        <time>2016-09-22T13:08:00Z</time>
      </trkpt>
      <trkpt lat="46.01162" lon="4.42778">
        <ele>731</ele>
        <time>2016-09-22T13:08:07Z</time>
      </trkpt>
      <trkpt lat="46.01161" lon="4.42777">
        <ele>732</ele>
        <time>2016-09-22T13:08:08Z</time>
      </trkpt>
      <trkpt lat="46.01157" lon="4.42766">
        <ele>734</ele>
        <time>2016-09-22T13:08:14Z</time>
      </trkpt>
      <trkpt lat="46.01156" lon="4.42765">
        <ele>734</ele>
        <time>2016-09-22T13:08:15Z</time>
      </trkpt>
      <trkpt lat="46.01151" lon="4.42756">
        <ele>735</ele>
        <time>2016-09-22T13:08:23Z</time>
      </trkpt>
      <trkpt lat="46.0115" lon="4.42755">
        <ele>735</ele>
        <time>2016-09-22T13:08:24Z</time>
      </trkpt>
      <trkpt lat="46.01147" lon="4.42744">
        <ele>744</ele>
        <time>2016-09-22T13:08:33Z</time>
      </trkpt>
      <trkpt lat="46.01147" lon="4.42743">
        <ele>744</ele>
        <time>2016-09-22T13:08:34Z</time>
      </trkpt>
      <trkpt lat="46.01146" lon="4.42731">
        <ele>744</ele>
        <time>2016-09-22T13:08:43Z</time>
      </trkpt>
      <trkpt lat="46.01145" lon="4.42729">
        <ele>744</ele>
        <time>2016-09-22T13:08:44Z</time>
      </trkpt>
      <trkpt lat="46.01142" lon="4.42719">
        <ele>745</ele>
        <time>2016-09-22T13:08:52Z</time>
      </trkpt>
      <trkpt lat="46.01141" lon="4.42717">
        <ele>745</ele>
        <time>2016-09-22T13:08:53Z</time>
      </trkpt>
      <trkpt lat="46.01137" lon="4.42706">
        <ele>746</ele>
        <time>2016-09-22T13:09:01Z</time>
      </trkpt>
      <trkpt lat="46.01136" lon="4.42705">
        <ele>746</ele>
        <time>2016-09-22T13:09:02Z</time>
      </trkpt>
      <trkpt lat="46.01133" lon="4.42695">
        <ele>747</ele>
        <time>2016-09-22T13:09:10Z</time>
      </trkpt>
      <trkpt lat="46.01133" lon="4.42693">
        <ele>747</ele>
        <time>2016-09-22T13:09:11Z</time>
      </trkpt>
      <trkpt lat="46.01128" lon="4.42684">
        <ele>747</ele>
        <time>2016-09-22T13:09:17Z</time>
      </trkpt>
      <trkpt lat="46.01127" lon="4.42683">
        <ele>747</ele>
        <time>2016-09-22T13:09:18Z</time>
      </trkpt>
      <trkpt lat="46.01124" lon="4.42671">
        <ele>747</ele>
        <time>2016-09-22T13:09:25Z</time>
      </trkpt>
      <trkpt lat="46.01124" lon="4.4267">
        <ele>747</ele>
        <time>2016-09-22T13:09:26Z</time>
      </trkpt>
      <trkpt lat="46.01121" lon="4.42659">
        <ele>759</ele>
        <time>2016-09-22T13:09:33Z</time>
      </trkpt>
      <trkpt lat="46.0112" lon="4.42657">
        <ele>759</ele>
        <time>2016-09-22T13:09:34Z</time>
      </trkpt>
      <trkpt lat="46.01117" lon="4.42645">
        <ele>760</ele>
        <time>2016-09-22T13:09:41Z</time>
      </trkpt>
      <trkpt lat="46.01116" lon="4.42644">
        <ele>760</ele>
        <time>2016-09-22T13:09:42Z</time>
      </trkpt>
      <trkpt lat="46.01113" lon="4.42632">
        <ele>761</ele>
        <time>2016-09-22T13:09:50Z</time>
      </trkpt>
      <trkpt lat="46.01113" lon="4.42631">
        <ele>761</ele>
        <time>2016-09-22T13:09:51Z</time>
      </trkpt>
      <trkpt lat="46.01109" lon="4.42619">
        <ele>762</ele>
        <time>2016-09-22T13:10:34Z</time>
      </trkpt>
      <trkpt lat="46.01109" lon="4.42618">
        <ele>762</ele>
        <time>2016-09-22T13:10:35Z</time>
      </trkpt>
      <trkpt lat="46.01107" lon="4.42605">
        <ele>763</ele>
        <time>2016-09-22T13:13:43Z</time>
      </trkpt>
      <trkpt lat="46.01107" lon="4.42605">
        <ele>763</ele>
        <time>2016-09-22T13:13:44Z</time>
      </trkpt>
      <trkpt lat="46.01104" lon="4.42593">
        <ele>764</ele>
        <time>2016-09-22T13:16:56Z</time>
      </trkpt>
      <trkpt lat="46.01104" lon="4.42592">
        <ele>764</ele>
        <time>2016-09-22T13:16:57Z</time>
      </trkpt>
      <trkpt lat="46.011" lon="4.42582">
        <ele>769</ele>
        <time>2016-09-22T13:17:09Z</time>
      </trkpt>
      <trkpt lat="46.01099" lon="4.4258">
        <ele>769</ele>
        <time>2016-09-22T13:17:10Z</time>
      </trkpt>
      <trkpt lat="46.01099" lon="4.42569">
        <ele>770</ele>
        <time>2016-09-22T13:17:19Z</time>
      </trkpt>
      <trkpt lat="46.01099" lon="4.42567">
        <ele>771</ele>
        <time>2016-09-22T13:17:20Z</time>
      </trkpt>
      <trkpt lat="46.01098" lon="4.42555">
        <ele>772</ele>
        <time>2016-09-22T13:17:30Z</time>
      </trkpt>
      <trkpt lat="46.01098" lon="4.42554">
        <ele>772</ele>
        <time>2016-09-22T13:17:31Z</time>
      </trkpt>
      <trkpt lat="46.01096" lon="4.42543">
        <ele>773</ele>
        <time>2016-09-22T13:17:39Z</time>
      </trkpt>
      <trkpt lat="46.01095" lon="4.42541">
        <ele>773</ele>
        <time>2016-09-22T13:17:40Z</time>
      </trkpt>
      <trkpt lat="46.01092" lon="4.42529">
        <ele>774</ele>
        <time>2016-09-22T13:17:48Z</time>
      </trkpt>
      <trkpt lat="46.01092" lon="4.42527">
        <ele>774</ele>
        <time>2016-09-22T13:17:49Z</time>
      </trkpt>
      <trkpt lat="46.01092" lon="4.42514">
        <ele>774</ele>
        <time>2016-09-22T13:17:57Z</time>
      </trkpt>
      <trkpt lat="46.01091" lon="4.42513">
        <ele>774</ele>
        <time>2016-09-22T13:17:58Z</time>
      </trkpt>
      <trkpt lat="46.01089" lon="4.42501">
        <ele>774</ele>
        <time>2016-09-22T13:18:06Z</time>
      </trkpt>
      <trkpt lat="46.01089" lon="4.42499">
        <ele>775</ele>
        <time>2016-09-22T13:18:07Z</time>
      </trkpt>
      <trkpt lat="46.01087" lon="4.42488">
        <ele>777</ele>
        <time>2016-09-22T13:18:13Z</time>
      </trkpt>
      <trkpt lat="46.01086" lon="4.42487">
        <ele>777</ele>
        <time>2016-09-22T13:18:14Z</time>
      </trkpt>
      <trkpt lat="46.01084" lon="4.42475">
        <ele>778</ele>
        <time>2016-09-22T13:18:21Z</time>
      </trkpt>
      <trkpt lat="46.01083" lon="4.42474">
        <ele>778</ele>
        <time>2016-09-22T13:18:22Z</time>
      </trkpt>
      <trkpt lat="46.01078" lon="4.42465">
        <ele>772</ele>
        <time>2016-09-22T13:18:30Z</time>
      </trkpt>
      <trkpt lat="46.01077" lon="4.42464">
        <ele>772</ele>
        <time>2016-09-22T13:18:31Z</time>
      </trkpt>
      <trkpt lat="46.01072" lon="4.42454">
        <ele>772</ele>
        <time>2016-09-22T13:18:40Z</time>
      </trkpt>
      <trkpt lat="46.01072" lon="4.42453">
        <ele>772</ele>
        <time>2016-09-22T13:18:41Z</time>
      </trkpt>
      <trkpt lat="46.0107" lon="4.4244">
        <ele>773</ele>
        <time>2016-09-22T13:18:49Z</time>
      </trkpt>
      <trkpt lat="46.0107" lon="4.42438">
        <ele>773</ele>
        <time>2016-09-22T13:18:50Z</time>
      </trkpt>
      <trkpt lat="46.01068" lon="4.42427">
        <ele>775</ele>
        <time>2016-09-22T13:18:57Z</time>
      </trkpt>
      <trkpt lat="46.01068" lon="4.42426">
        <ele>775</ele>
        <time>2016-09-22T13:18:58Z</time>
      </trkpt>
      <trkpt lat="46.01065" lon="4.42415">
        <ele>777</ele>
        <time>2016-09-22T13:19:05Z</time>
      </trkpt>
      <trkpt lat="46.01065" lon="4.42413">
        <ele>777</ele>
        <time>2016-09-22T13:19:06Z</time>
      </trkpt>
      <trkpt lat="46.01059" lon="4.42406">
        <ele>776</ele>
        <time>2016-09-22T13:19:12Z</time>
      </trkpt>
      <trkpt lat="46.01058" lon="4.42405">
        <ele>776</ele>
        <time>2016-09-22T13:19:13Z</time>
      </trkpt>
      <trkpt lat="46.01054" lon="4.42394">
        <ele>775</ele>
        <time>2016-09-22T13:19:21Z</time>
      </trkpt>
      <trkpt lat="46.01054" lon="4.42393">
        <ele>775</ele>
        <time>2016-09-22T13:19:22Z</time>
      </trkpt>
      <trkpt lat="46.01048" lon="4.42385">
        <ele>775</ele>
        <time>2016-09-22T13:19:31Z</time>
      </trkpt>
      <trkpt lat="46.01047" lon="4.42384">
        <ele>775</ele>
        <time>2016-09-22T13:19:32Z</time>
      </trkpt>
      <trkpt lat="46.0104" lon="4.42378">
        <ele>774</ele>
        <time>2016-09-22T13:19:38Z</time>
      </trkpt>
      <trkpt lat="46.01039" lon="4.42378">
        <ele>774</ele>
        <time>2016-09-22T13:19:39Z</time>
      </trkpt>
      <trkpt lat="46.01032" lon="4.42373">
        <ele>774</ele>
        <time>2016-09-22T13:19:43Z</time>
      </trkpt>
      <trkpt lat="46.0103" lon="4.42372">
        <ele>774</ele>
        <time>2016-09-22T13:19:44Z</time>
      </trkpt>
      <trkpt lat="46.01022" lon="4.42368">
        <ele>773</ele>
        <time>2016-09-22T13:19:49Z</time>
      </trkpt>
      <trkpt lat="46.01021" lon="4.42368">
        <ele>773</ele>
        <time>2016-09-22T13:19:50Z</time>
      </trkpt>
      <trkpt lat="46.01013" lon="4.42363">
        <ele>773</ele>
        <time>2016-09-22T13:19:55Z</time>
      </trkpt>
      <trkpt lat="46.01012" lon="4.42362">
        <ele>773</ele>
        <time>2016-09-22T13:19:56Z</time>
      </trkpt>
      <trkpt lat="46.01005" lon="4.42356">
        <ele>773</ele>
        <time>2016-09-22T13:20:02Z</time>
      </trkpt>
      <trkpt lat="46.01004" lon="4.42355">
        <ele>772</ele>
        <time>2016-09-22T13:20:03Z</time>
      </trkpt>
      <trkpt lat="46.00998" lon="4.42346">
        <ele>770</ele>
        <time>2016-09-22T13:20:09Z</time>
      </trkpt>
      <trkpt lat="46.00997" lon="4.42344">
        <ele>770</ele>
        <time>2016-09-22T13:20:10Z</time>
      </trkpt>
      <trkpt lat="46.0099" lon="4.42335">
        <ele>770</ele>
        <time>2016-09-22T13:20:16Z</time>
      </trkpt>
      <trkpt lat="46.00989" lon="4.42334">
        <ele>770</ele>
        <time>2016-09-22T13:20:17Z</time>
      </trkpt>
      <trkpt lat="46.00985" lon="4.42324">
        <ele>770</ele>
        <time>2016-09-22T13:20:24Z</time>
      </trkpt>
      <trkpt lat="46.00985" lon="4.42322">
        <ele>770</ele>
        <time>2016-09-22T13:20:25Z</time>
      </trkpt>
      <trkpt lat="46.00979" lon="4.42313">
        <ele>769</ele>
        <time>2016-09-22T13:20:33Z</time>
      </trkpt>
      <trkpt lat="46.00979" lon="4.42312">
        <ele>769</ele>
        <time>2016-09-22T13:20:34Z</time>
      </trkpt>
      <trkpt lat="46.00973" lon="4.42303">
        <ele>769</ele>
        <time>2016-09-22T13:20:41Z</time>
      </trkpt>
      <trkpt lat="46.00973" lon="4.42302">
        <ele>769</ele>
        <time>2016-09-22T13:20:42Z</time>
      </trkpt>
      <trkpt lat="46.00966" lon="4.42295">
        <ele>769</ele>
        <time>2016-09-22T13:20:53Z</time>
      </trkpt>
      <trkpt lat="46.00966" lon="4.42294">
        <ele>769</ele>
        <time>2016-09-22T13:20:54Z</time>
      </trkpt>
      <trkpt lat="46.0096" lon="4.42284">
        <ele>768</ele>
        <time>2016-09-22T13:21:04Z</time>
      </trkpt>
      <trkpt lat="46.00959" lon="4.42284">
        <ele>768</ele>
        <time>2016-09-22T13:21:05Z</time>
      </trkpt>
      <trkpt lat="46.00951" lon="4.4228">
        <ele>768</ele>
        <time>2016-09-22T13:21:11Z</time>
      </trkpt>
      <trkpt lat="46.0095" lon="4.42279">
        <ele>768</ele>
        <time>2016-09-22T13:21:12Z</time>
      </trkpt>
      <trkpt lat="46.00943" lon="4.42273">
        <ele>768</ele>
        <time>2016-09-22T13:21:17Z</time>
      </trkpt>
      <trkpt lat="46.00941" lon="4.42272">
        <ele>768</ele>
        <time>2016-09-22T13:21:18Z</time>
      </trkpt>
      <trkpt lat="46.00935" lon="4.42266">
        <ele>767</ele>
        <time>2016-09-22T13:21:22Z</time>
      </trkpt>
      <trkpt lat="46.00934" lon="4.42264">
        <ele>767</ele>
        <time>2016-09-22T13:21:23Z</time>
      </trkpt>
      <trkpt lat="46.00927" lon="4.42257">
        <ele>766</ele>
        <time>2016-09-22T13:21:28Z</time>
      </trkpt>
      <trkpt lat="46.00926" lon="4.42256">
        <ele>766</ele>
        <time>2016-09-22T13:21:29Z</time>
      </trkpt>
      <trkpt lat="46.00919" lon="4.42251">
        <ele>765</ele>
        <time>2016-09-22T13:21:34Z</time>
      </trkpt>
      <trkpt lat="46.00918" lon="4.4225">
        <ele>765</ele>
        <time>2016-09-22T13:21:35Z</time>
      </trkpt>
      <trkpt lat="46.00909" lon="4.42246">
        <ele>764</ele>
        <time>2016-09-22T13:21:41Z</time>
      </trkpt>
      <trkpt lat="46.00908" lon="4.42245">
        <ele>764</ele>
        <time>2016-09-22T13:21:42Z</time>
      </trkpt>
      <trkpt lat="46.00901" lon="4.4224">
        <ele>763</ele>
        <time>2016-09-22T13:21:48Z</time>
      </trkpt>
      <trkpt lat="46.009" lon="4.42239">
        <ele>763</ele>
        <time>2016-09-22T13:21:49Z</time>
      </trkpt>
      <trkpt lat="46.00892" lon="4.42236">
        <ele>763</ele>
        <time>2016-09-22T13:21:55Z</time>
      </trkpt>
      <trkpt lat="46.0089" lon="4.42235">
        <ele>763</ele>
        <time>2016-09-22T13:21:56Z</time>
      </trkpt>
      <trkpt lat="46.00883" lon="4.4223">
        <ele>762</ele>
        <time>2016-09-22T13:22:02Z</time>
      </trkpt>
      <trkpt lat="46.00882" lon="4.42229">
        <ele>762</ele>
        <time>2016-09-22T13:22:03Z</time>
      </trkpt>
      <trkpt lat="46.00874" lon="4.42225">
        <ele>762</ele>
        <time>2016-09-22T13:22:10Z</time>
      </trkpt>
      <trkpt lat="46.00873" lon="4.42224">
        <ele>762</ele>
        <time>2016-09-22T13:22:11Z</time>
      </trkpt>
      <trkpt lat="46.00865" lon="4.42218">
        <ele>762</ele>
        <time>2016-09-22T13:22:18Z</time>
      </trkpt>
      <trkpt lat="46.00864" lon="4.42217">
        <ele>762</ele>
        <time>2016-09-22T13:22:19Z</time>
      </trkpt>
      <trkpt lat="46.00856" lon="4.42212">
        <ele>762</ele>
        <time>2016-09-22T13:22:26Z</time>
      </trkpt>
      <trkpt lat="46.00856" lon="4.42211">
        <ele>762</ele>
        <time>2016-09-22T13:22:27Z</time>
      </trkpt>
      <trkpt lat="46.00849" lon="4.42204">
        <ele>762</ele>
        <time>2016-09-22T13:22:35Z</time>
      </trkpt>
      <trkpt lat="46.00848" lon="4.42203">
        <ele>761</ele>
        <time>2016-09-22T13:22:36Z</time>
      </trkpt>
      <trkpt lat="46.0084" lon="4.422">
        <ele>761</ele>
        <time>2016-09-22T13:22:43Z</time>
      </trkpt>
      <trkpt lat="46.00839" lon="4.422">
        <ele>761</ele>
        <time>2016-09-22T13:22:44Z</time>
      </trkpt>
      <trkpt lat="46.00831" lon="4.42199">
        <ele>762</ele>
        <time>2016-09-22T13:22:50Z</time>
      </trkpt>
      <trkpt lat="46.0083" lon="4.42199">
        <ele>762</ele>
        <time>2016-09-22T13:22:51Z</time>
      </trkpt>
      <trkpt lat="46.00822" lon="4.42203">
        <ele>763</ele>
        <time>2016-09-22T13:22:59Z</time>
      </trkpt>
      <trkpt lat="46.00821" lon="4.42204">
        <ele>763</ele>
        <time>2016-09-22T13:23:00Z</time>
      </trkpt>
      <trkpt lat="46.00813" lon="4.42205">
        <ele>763</ele>
        <time>2016-09-22T13:23:07Z</time>
      </trkpt>
      <trkpt lat="46.00812" lon="4.42206">
        <ele>763</ele>
        <time>2016-09-22T13:23:08Z</time>
      </trkpt>
      <trkpt lat="46.00803" lon="4.42205">
        <ele>763</ele>
        <time>2016-09-22T13:23:15Z</time>
      </trkpt>
      <trkpt lat="46.00802" lon="4.42204">
        <ele>763</ele>
        <time>2016-09-22T13:23:16Z</time>
      </trkpt>
      <trkpt lat="46.00794" lon="4.42202">
        <ele>763</ele>
        <time>2016-09-22T13:23:23Z</time>
      </trkpt>
      <trkpt lat="46.00793" lon="4.42202">
        <ele>763</ele>
        <time>2016-09-22T13:23:24Z</time>
      </trkpt>
      <trkpt lat="46.00784" lon="4.42204">
        <ele>764</ele>
        <time>2016-09-22T13:23:32Z</time>
      </trkpt>
      <trkpt lat="46.00783" lon="4.42204">
        <ele>764</ele>
        <time>2016-09-22T13:23:33Z</time>
      </trkpt>
      <trkpt lat="46.00775" lon="4.42204">
        <ele>764</ele>
        <time>2016-09-22T13:23:41Z</time>
      </trkpt>
      <trkpt lat="46.00774" lon="4.42204">
        <ele>764</ele>
        <time>2016-09-22T13:23:42Z</time>
      </trkpt>
      <trkpt lat="46.00765" lon="4.42205">
        <ele>764</ele>
        <time>2016-09-22T13:23:49Z</time>
      </trkpt>
      <trkpt lat="46.00764" lon="4.42205">
        <ele>764</ele>
        <time>2016-09-22T13:23:50Z</time>
      </trkpt>
      <trkpt lat="46.00755" lon="4.42204">
        <ele>764</ele>
        <time>2016-09-22T13:23:58Z</time>
      </trkpt>
      <trkpt lat="46.00754" lon="4.42204">
        <ele>764</ele>
        <time>2016-09-22T13:23:59Z</time>
      </trkpt>
      <trkpt lat="46.00745" lon="4.42206">
        <ele>768</ele>
        <time>2016-09-22T13:24:07Z</time>
      </trkpt>
      <trkpt lat="46.00744" lon="4.42206">
        <ele>768</ele>
        <time>2016-09-22T13:24:08Z</time>
      </trkpt>
      <trkpt lat="46.00736" lon="4.4221">
        <ele>768</ele>
        <time>2016-09-22T13:24:16Z</time>
      </trkpt>
      <trkpt lat="46.00735" lon="4.42211">
        <ele>768</ele>
        <time>2016-09-22T13:24:17Z</time>
      </trkpt>
      <trkpt lat="46.00727" lon="4.42214">
        <ele>769</ele>
        <time>2016-09-22T13:24:26Z</time>
      </trkpt>
      <trkpt lat="46.00726" lon="4.42214">
        <ele>769</ele>
        <time>2016-09-22T13:24:27Z</time>
      </trkpt>
      <trkpt lat="46.00719" lon="4.4222">
        <ele>769</ele>
        <time>2016-09-22T13:24:35Z</time>
      </trkpt>
      <trkpt lat="46.00718" lon="4.4222">
        <ele>769</ele>
        <time>2016-09-22T13:24:36Z</time>
      </trkpt>
      <trkpt lat="46.0071" lon="4.42225">
        <ele>769</ele>
        <time>2016-09-22T13:24:43Z</time>
      </trkpt>
      <trkpt lat="46.00709" lon="4.42226">
        <ele>769</ele>
        <time>2016-09-22T13:24:44Z</time>
      </trkpt>
      <trkpt lat="46.00702" lon="4.42231">
        <ele>770</ele>
        <time>2016-09-22T13:24:50Z</time>
      </trkpt>
      <trkpt lat="46.007" lon="4.42232">
        <ele>770</ele>
        <time>2016-09-22T13:24:51Z</time>
      </trkpt>
      <trkpt lat="46.00692" lon="4.42235">
        <ele>770</ele>
        <time>2016-09-22T13:24:58Z</time>
      </trkpt>
      <trkpt lat="46.00691" lon="4.42235">
        <ele>770</ele>
        <time>2016-09-22T13:24:59Z</time>
      </trkpt>
      <trkpt lat="46.00683" lon="4.42237">
        <ele>771</ele>
        <time>2016-09-22T13:25:06Z</time>
      </trkpt>
      <trkpt lat="46.00681" lon="4.42238">
        <ele>771</ele>
        <time>2016-09-22T13:25:07Z</time>
      </trkpt>
      <trkpt lat="46.00674" lon="4.4224">
        <ele>772</ele>
        <time>2016-09-22T13:25:11Z</time>
      </trkpt>
      <trkpt lat="46.00672" lon="4.42241">
        <ele>772</ele>
        <time>2016-09-22T13:25:12Z</time>
      </trkpt>
      <trkpt lat="46.00664" lon="4.42244">
        <ele>774</ele>
        <time>2016-09-22T13:25:17Z</time>
      </trkpt>
      <trkpt lat="46.00663" lon="4.42244">
        <ele>774</ele>
        <time>2016-09-22T13:25:18Z</time>
      </trkpt>
      <trkpt lat="46.00655" lon="4.42245">
        <ele>774</ele>
        <time>2016-09-22T13:25:23Z</time>
      </trkpt>
      <trkpt lat="46.00654" lon="4.42246">
        <ele>774</ele>
        <time>2016-09-22T13:25:24Z</time>
      </trkpt>
      <trkpt lat="46.00645" lon="4.42249">
        <ele>774</ele>
        <time>2016-09-22T13:25:31Z</time>
      </trkpt>
      <trkpt lat="46.00644" lon="4.4225">
        <ele>774</ele>
        <time>2016-09-22T13:25:32Z</time>
      </trkpt>
      <trkpt lat="46.00637" lon="4.42253">
        <ele>768</ele>
        <time>2016-09-22T13:25:38Z</time>
      </trkpt>
      <trkpt lat="46.00635" lon="4.42254">
        <ele>768</ele>
        <time>2016-09-22T13:25:39Z</time>
      </trkpt>
      <trkpt lat="46.00627" lon="4.4226">
        <ele>767</ele>
        <time>2016-09-22T13:25:46Z</time>
      </trkpt>
      <trkpt lat="46.00626" lon="4.4226">
        <ele>767</ele>
        <time>2016-09-22T13:25:47Z</time>
      </trkpt>
      <trkpt lat="46.00617" lon="4.42262">
        <ele>767</ele>
        <time>2016-09-22T13:25:53Z</time>
      </trkpt>
      <trkpt lat="46.00616" lon="4.42262">
        <ele>767</ele>
        <time>2016-09-22T13:25:54Z</time>
      </trkpt>
      <trkpt lat="46.00607" lon="4.42262">
        <ele>767</ele>
        <time>2016-09-22T13:25:59Z</time>
      </trkpt>
      <trkpt lat="46.00605" lon="4.42262">
        <ele>767</ele>
        <time>2016-09-22T13:26:00Z</time>
      </trkpt>
      <trkpt lat="46.00596" lon="4.42264">
        <ele>768</ele>
        <time>2016-09-22T13:26:07Z</time>
      </trkpt>
      <trkpt lat="46.00595" lon="4.42265">
        <ele>768</ele>
        <time>2016-09-22T13:26:08Z</time>
      </trkpt>
      <trkpt lat="46.00588" lon="4.4227">
        <ele>767</ele>
        <time>2016-09-22T13:26:15Z</time>
      </trkpt>
      <trkpt lat="46.00587" lon="4.4227">
        <ele>767</ele>
        <time>2016-09-22T13:26:16Z</time>
      </trkpt>
      <trkpt lat="46.00579" lon="4.42271">
        <ele>765</ele>
        <time>2016-09-22T13:26:21Z</time>
      </trkpt>
      <trkpt lat="46.00577" lon="4.42272">
        <ele>765</ele>
        <time>2016-09-22T13:26:22Z</time>
      </trkpt>
      <trkpt lat="46.0057" lon="4.42274">
        <ele>765</ele>
        <time>2016-09-22T13:26:27Z</time>
      </trkpt>
      <trkpt lat="46.00568" lon="4.42274">
        <ele>764</ele>
        <time>2016-09-22T13:26:28Z</time>
      </trkpt>
      <trkpt lat="46.0056" lon="4.42275">
        <ele>764</ele>
        <time>2016-09-22T13:26:36Z</time>
      </trkpt>
      <trkpt lat="46.00559" lon="4.42275">
        <ele>764</ele>
        <time>2016-09-22T13:26:37Z</time>
      </trkpt>
      <trkpt lat="46.00552" lon="4.42282">
        <ele>763</ele>
        <time>2016-09-22T13:26:42Z</time>
      </trkpt>
      <trkpt lat="46.00551" lon="4.42283">
        <ele>763</ele>
        <time>2016-09-22T13:26:43Z</time>
      </trkpt>
      <trkpt lat="46.00542" lon="4.42286">
        <ele>762</ele>
        <time>2016-09-22T13:26:49Z</time>
      </trkpt>
      <trkpt lat="46.00541" lon="4.42286">
        <ele>762</ele>
        <time>2016-09-22T13:26:50Z</time>
      </trkpt>
      <trkpt lat="46.00532" lon="4.42285">
        <ele>762</ele>
        <time>2016-09-22T13:26:55Z</time>
      </trkpt>
      <trkpt lat="46.00531" lon="4.42285">
        <ele>762</ele>
        <time>2016-09-22T13:26:56Z</time>
      </trkpt>
      <trkpt lat="46.00523" lon="4.4229">
        <ele>762</ele>
        <time>2016-09-22T13:27:02Z</time>
      </trkpt>
      <trkpt lat="46.00522" lon="4.42291">
        <ele>761</ele>
        <time>2016-09-22T13:27:03Z</time>
      </trkpt>
      <trkpt lat="46.00513" lon="4.42294">
        <ele>761</ele>
        <time>2016-09-22T13:27:10Z</time>
      </trkpt>
      <trkpt lat="46.00512" lon="4.42294">
        <ele>761</ele>
        <time>2016-09-22T13:27:11Z</time>
      </trkpt>
      <trkpt lat="46.00504" lon="4.42298">
        <ele>760</ele>
        <time>2016-09-22T13:27:17Z</time>
      </trkpt>
      <trkpt lat="46.00503" lon="4.42299">
        <ele>760</ele>
        <time>2016-09-22T13:27:18Z</time>
      </trkpt>
      <trkpt lat="46.00495" lon="4.42303">
        <ele>760</ele>
        <time>2016-09-22T13:27:24Z</time>
      </trkpt>
      <trkpt lat="46.00493" lon="4.42304">
        <ele>760</ele>
        <time>2016-09-22T13:27:25Z</time>
      </trkpt>
      <trkpt lat="46.00485" lon="4.42305">
        <ele>760</ele>
        <time>2016-09-22T13:27:32Z</time>
      </trkpt>
      <trkpt lat="46.00484" lon="4.42306">
        <ele>760</ele>
        <time>2016-09-22T13:27:33Z</time>
      </trkpt>
      <trkpt lat="46.00476" lon="4.42313">
        <ele>759</ele>
        <time>2016-09-22T13:27:40Z</time>
      </trkpt>
      <trkpt lat="46.00475" lon="4.42313">
        <ele>759</ele>
        <time>2016-09-22T13:27:41Z</time>
      </trkpt>
      <trkpt lat="46.00467" lon="4.42318">
        <ele>760</ele>
        <time>2016-09-22T13:27:47Z</time>
      </trkpt>
      <trkpt lat="46.00466" lon="4.42318">
        <ele>760</ele>
        <time>2016-09-22T13:27:48Z</time>
      </trkpt>
      <trkpt lat="46.00457" lon="4.42322">
        <ele>760</ele>
        <time>2016-09-22T13:27:54Z</time>
      </trkpt>
      <trkpt lat="46.00456" lon="4.42323">
        <ele>760</ele>
        <time>2016-09-22T13:27:55Z</time>
      </trkpt>
      <trkpt lat="46.00448" lon="4.42329">
        <ele>760</ele>
        <time>2016-09-22T13:28:02Z</time>
      </trkpt>
      <trkpt lat="46.00447" lon="4.4233">
        <ele>760</ele>
        <time>2016-09-22T13:28:03Z</time>
      </trkpt>
      <trkpt lat="46.00439" lon="4.42334">
        <ele>753</ele>
        <time>2016-09-22T13:28:09Z</time>
      </trkpt>
      <trkpt lat="46.00438" lon="4.42334">
        <ele>753</ele>
        <time>2016-09-22T13:28:10Z</time>
      </trkpt>
      <trkpt lat="46.00429" lon="4.42336">
        <ele>754</ele>
        <time>2016-09-22T13:28:16Z</time>
      </trkpt>
      <trkpt lat="46.00429" lon="4.42336">
        <ele>754</ele>
        <time>2016-09-22T13:28:17Z</time>
      </trkpt>
      <trkpt lat="46.00421" lon="4.4234">
        <ele>755</ele>
        <time>2016-09-22T13:28:25Z</time>
      </trkpt>
      <trkpt lat="46.00418" lon="4.4234">
        <ele>755</ele>
        <time>2016-09-22T13:28:26Z</time>
      </trkpt>
      <trkpt lat="46.00411" lon="4.42346">
        <ele>753</ele>
        <time>2016-09-22T13:28:33Z</time>
      </trkpt>
      <trkpt lat="46.0041" lon="4.42347">
        <ele>753</ele>
        <time>2016-09-22T13:28:34Z</time>
      </trkpt>
      <trkpt lat="46.00402" lon="4.42351">
        <ele>752</ele>
        <time>2016-09-22T13:28:42Z</time>
      </trkpt>
      <trkpt lat="46.00401" lon="4.42351">
        <ele>751</ele>
        <time>2016-09-22T13:28:43Z</time>
      </trkpt>
      <trkpt lat="46.00393" lon="4.42352">
        <ele>751</ele>
        <time>2016-09-22T13:28:49Z</time>
      </trkpt>
      <trkpt lat="46.00392" lon="4.42352">
        <ele>751</ele>
        <time>2016-09-22T13:28:50Z</time>
      </trkpt>
      <trkpt lat="46.00384" lon="4.4235">
        <ele>750</ele>
        <time>2016-09-22T13:28:56Z</time>
      </trkpt>
      <trkpt lat="46.00382" lon="4.42349">
        <ele>750</ele>
        <time>2016-09-22T13:28:57Z</time>
      </trkpt>
      <trkpt lat="46.00376" lon="4.42343">
        <ele>750</ele>
        <time>2016-09-22T13:29:03Z</time>
      </trkpt>
      <trkpt lat="46.00375" lon="4.42342">
        <ele>750</ele>
        <time>2016-09-22T13:29:04Z</time>
      </trkpt>
      <trkpt lat="46.00367" lon="4.42336">
        <ele>749</ele>
        <time>2016-09-22T13:29:09Z</time>
      </trkpt>
      <trkpt lat="46.00366" lon="4.42335">
        <ele>749</ele>
        <time>2016-09-22T13:29:10Z</time>
      </trkpt>
      <trkpt lat="46.00359" lon="4.42327">
        <ele>755</ele>
        <time>2016-09-22T13:29:17Z</time>
      </trkpt>
      <trkpt lat="46.00358" lon="4.42325">
        <ele>755</ele>
        <time>2016-09-22T13:29:18Z</time>
      </trkpt>
      <trkpt lat="46.00354" lon="4.42315">
        <ele>756</ele>
        <time>2016-09-22T13:29:25Z</time>
      </trkpt>
      <trkpt lat="46.00353" lon="4.42313">
        <ele>756</ele>
        <time>2016-09-22T13:29:26Z</time>
      </trkpt>
      <trkpt lat="46.0035" lon="4.42302">
        <ele>757</ele>
        <time>2016-09-22T13:29:33Z</time>
      </trkpt>
      <trkpt lat="46.00349" lon="4.42301">
        <ele>757</ele>
        <time>2016-09-22T13:29:34Z</time>
      </trkpt>
      <trkpt lat="46.00347" lon="4.42289">
        <ele>759</ele>
        <time>2016-09-22T13:29:42Z</time>
      </trkpt>
      <trkpt lat="46.00346" lon="4.42287">
        <ele>759</ele>
        <time>2016-09-22T13:29:43Z</time>
      </trkpt>
      <trkpt lat="46.00346" lon="4.42276">
        <ele>760</ele>
        <time>2016-09-22T13:29:50Z</time>
      </trkpt>
      <trkpt lat="46.00346" lon="4.42274">
        <ele>760</ele>
        <time>2016-09-22T13:29:51Z</time>
      </trkpt>
      <trkpt lat="46.00342" lon="4.42264">
        <ele>761</ele>
        <time>2016-09-22T13:29:57Z</time>
      </trkpt>
      <trkpt lat="46.00341" lon="4.42262">
        <ele>761</ele>
        <time>2016-09-22T13:29:58Z</time>
      </trkpt>
      <trkpt lat="46.00335" lon="4.42255">
        <ele>762</ele>
        <time>2016-09-22T13:30:05Z</time>
      </trkpt>
      <trkpt lat="46.00334" lon="4.42253">
        <ele>762</ele>
        <time>2016-09-22T13:30:06Z</time>
      </trkpt>
      <trkpt lat="46.00334" lon="4.42242">
        <ele>765</ele>
        <time>2016-09-22T13:30:13Z</time>
      </trkpt>
      <trkpt lat="46.00333" lon="4.4224">
        <ele>760</ele>
        <time>2016-09-22T13:30:14Z</time>
      </trkpt>
      <trkpt lat="46.00331" lon="4.42229">
        <ele>759</ele>
        <time>2016-09-22T13:30:20Z</time>
      </trkpt>
      <trkpt lat="46.0033" lon="4.42227">
        <ele>759</ele>
        <time>2016-09-22T13:30:21Z</time>
      </trkpt>
      <trkpt lat="46.0033" lon="4.42216">
        <ele>759</ele>
        <time>2016-09-22T13:30:26Z</time>
      </trkpt>
      <trkpt lat="46.00329" lon="4.42214">
        <ele>759</ele>
        <time>2016-09-22T13:30:27Z</time>
      </trkpt>
      <trkpt lat="46.00329" lon="4.42202">
        <ele>760</ele>
        <time>2016-09-22T13:30:33Z</time>
      </trkpt>
      <trkpt lat="46.00329" lon="4.422">
        <ele>761</ele>
        <time>2016-09-22T13:30:34Z</time>
      </trkpt>
      <trkpt lat="46.00329" lon="4.42187">
        <ele>763</ele>
        <time>2016-09-22T13:30:40Z</time>
      </trkpt>
      <trkpt lat="46.00328" lon="4.42185">
        <ele>764</ele>
        <time>2016-09-22T13:30:41Z</time>
      </trkpt>
      <trkpt lat="46.00329" lon="4.42173">
        <ele>768</ele>
        <time>2016-09-22T13:30:48Z</time>
      </trkpt>
      <trkpt lat="46.00329" lon="4.42172">
        <ele>769</ele>
        <time>2016-09-22T13:30:49Z</time>
      </trkpt>
      <trkpt lat="46.00325" lon="4.42161">
        <ele>772</ele>
        <time>2016-09-22T13:30:56Z</time>
      </trkpt>
      <trkpt lat="46.00325" lon="4.4216">
        <ele>772</ele>
        <time>2016-09-22T13:30:57Z</time>
      </trkpt>
      <trkpt lat="46.00321" lon="4.42149">
        <ele>772</ele>
        <time>2016-09-22T13:31:05Z</time>
      </trkpt>
      <trkpt lat="46.0032" lon="4.42148">
        <ele>772</ele>
        <time>2016-09-22T13:31:06Z</time>
      </trkpt>
      <trkpt lat="46.0032" lon="4.42135">
        <ele>773</ele>
        <time>2016-09-22T13:31:14Z</time>
      </trkpt>
      <trkpt lat="46.00319" lon="4.42133">
        <ele>773</ele>
        <time>2016-09-22T13:31:15Z</time>
      </trkpt>
      <trkpt lat="46.00314" lon="4.42123">
        <ele>774</ele>
        <time>2016-09-22T13:31:22Z</time>
      </trkpt>
      <trkpt lat="46.00313" lon="4.42122">
        <ele>774</ele>
        <time>2016-09-22T13:31:23Z</time>
      </trkpt>
      <trkpt lat="46.00308" lon="4.42112">
        <ele>774</ele>
        <time>2016-09-22T13:31:31Z</time>
      </trkpt>
      <trkpt lat="46.00308" lon="4.42111">
        <ele>774</ele>
        <time>2016-09-22T13:31:32Z</time>
      </trkpt>
      <trkpt lat="46.00303" lon="4.42101">
        <ele>775</ele>
        <time>2016-09-22T13:31:41Z</time>
      </trkpt>
      <trkpt lat="46.00303" lon="4.421">
        <ele>775</ele>
        <time>2016-09-22T13:31:42Z</time>
      </trkpt>
      <trkpt lat="46.00301" lon="4.42087">
        <ele>776</ele>
        <time>2016-09-22T13:31:51Z</time>
      </trkpt>
      <trkpt lat="46.003" lon="4.42086">
        <ele>776</ele>
        <time>2016-09-22T13:31:52Z</time>
      </trkpt>
      <trkpt lat="46.00295" lon="4.42077">
        <ele>789</ele>
        <time>2016-09-22T13:32:02Z</time>
      </trkpt>
      <trkpt lat="46.00294" lon="4.42076">
        <ele>789</ele>
        <time>2016-09-22T13:32:03Z</time>
      </trkpt>
      <trkpt lat="46.00287" lon="4.42068">
        <ele>788</ele>
        <time>2016-09-22T13:32:13Z</time>
      </trkpt>
      <trkpt lat="46.00287" lon="4.42068">
        <ele>788</ele>
        <time>2016-09-22T13:32:14Z</time>
      </trkpt>
      <trkpt lat="46.00279" lon="4.42061">
        <ele>788</ele>
        <time>2016-09-22T13:32:28Z</time>
      </trkpt>
      <trkpt lat="46.00279" lon="4.42061">
        <ele>788</ele>
        <time>2016-09-22T13:32:29Z</time>
      </trkpt>
      <trkpt lat="46.00271" lon="4.42057">
        <ele>787</ele>
        <time>2016-09-22T13:32:38Z</time>
      </trkpt>
      <trkpt lat="46.00269" lon="4.42056">
        <ele>787</ele>
        <time>2016-09-22T13:32:39Z</time>
      </trkpt>
      <trkpt lat="46.00261" lon="4.42053">
        <ele>787</ele>
        <time>2016-09-22T13:32:46Z</time>
      </trkpt>
      <trkpt lat="46.0026" lon="4.42053">
        <ele>787</ele>
        <time>2016-09-22T13:32:47Z</time>
      </trkpt>
      <trkpt lat="46.00251" lon="4.42051">
        <ele>786</ele>
        <time>2016-09-22T13:32:53Z</time>
      </trkpt>
      <trkpt lat="46.0025" lon="4.42051">
        <ele>786</ele>
        <time>2016-09-22T13:32:54Z</time>
      </trkpt>
      <trkpt lat="46.00243" lon="4.42047">
        <ele>780</ele>
        <time>2016-09-22T13:33:01Z</time>
      </trkpt>
      <trkpt lat="46.00242" lon="4.42047">
        <ele>780</ele>
        <time>2016-09-22T13:33:02Z</time>
      </trkpt>
      <trkpt lat="46.00233" lon="4.42045">
        <ele>780</ele>
        <time>2016-09-22T13:33:09Z</time>
      </trkpt>
      <trkpt lat="46.00232" lon="4.42044">
        <ele>780</ele>
        <time>2016-09-22T13:33:10Z</time>
      </trkpt>
      <trkpt lat="46.00223" lon="4.42043">
        <ele>781</ele>
        <time>2016-09-22T13:33:18Z</time>
      </trkpt>
      <trkpt lat="46.00222" lon="4.42042">
        <ele>781</ele>
        <time>2016-09-22T13:33:19Z</time>
      </trkpt>
      <trkpt lat="46.00214" lon="4.42043">
        <ele>780</ele>
        <time>2016-09-22T13:33:27Z</time>
      </trkpt>
      <trkpt lat="46.00211" lon="4.42043">
        <ele>780</ele>
        <time>2016-09-22T13:33:28Z</time>
      </trkpt>
      <trkpt lat="46.00203" lon="4.42038">
        <ele>781</ele>
        <time>2016-09-22T13:33:33Z</time>
      </trkpt>
      <trkpt lat="46.00202" lon="4.42036">
        <ele>781</ele>
        <time>2016-09-22T13:33:34Z</time>
      </trkpt>
      <trkpt lat="46.00194" lon="4.42032">
        <ele>782</ele>
        <time>2016-09-22T13:33:40Z</time>
      </trkpt>
      <trkpt lat="46.00193" lon="4.42031">
        <ele>782</ele>
        <time>2016-09-22T13:33:41Z</time>
      </trkpt>
      <trkpt lat="46.00185" lon="4.42032">
        <ele>782</ele>
        <time>2016-09-22T13:33:46Z</time>
      </trkpt>
      <trkpt lat="46.00184" lon="4.42031">
        <ele>782</ele>
        <time>2016-09-22T13:33:47Z</time>
      </trkpt>
      <trkpt lat="46.00175" lon="4.42033">
        <ele>782</ele>
        <time>2016-09-22T13:33:53Z</time>
      </trkpt>
      <trkpt lat="46.00174" lon="4.42033">
        <ele>781</ele>
        <time>2016-09-22T13:33:54Z</time>
      </trkpt>
      <trkpt lat="46.00165" lon="4.42031">
        <ele>783</ele>
        <time>2016-09-22T13:34:01Z</time>
      </trkpt>
      <trkpt lat="46.00164" lon="4.42032">
        <ele>783</ele>
        <time>2016-09-22T13:34:02Z</time>
      </trkpt>
      <trkpt lat="46.00156" lon="4.42033">
        <ele>783</ele>
        <time>2016-09-22T13:34:11Z</time>
      </trkpt>
      <trkpt lat="46.00155" lon="4.42033">
        <ele>783</ele>
        <time>2016-09-22T13:34:12Z</time>
      </trkpt>
      <trkpt lat="46.00147" lon="4.42036">
        <ele>782</ele>
        <time>2016-09-22T13:34:19Z</time>
      </trkpt>
      <trkpt lat="46.00146" lon="4.42037">
        <ele>782</ele>
        <time>2016-09-22T13:34:20Z</time>
      </trkpt>
      <trkpt lat="46.00137" lon="4.42038">
        <ele>782</ele>
        <time>2016-09-22T13:34:27Z</time>
      </trkpt>
      <trkpt lat="46.00136" lon="4.42039">
        <ele>782</ele>
        <time>2016-09-22T13:34:28Z</time>
      </trkpt>
      <trkpt lat="46.00127" lon="4.42039">
        <ele>783</ele>
        <time>2016-09-22T13:34:40Z</time>
      </trkpt>
      <trkpt lat="46.00127" lon="4.42039">
        <ele>783</ele>
        <time>2016-09-22T13:34:41Z</time>
      </trkpt>
      <trkpt lat="46.00118" lon="4.42039">
        <ele>783</ele>
        <time>2016-09-22T13:34:53Z</time>
      </trkpt>
      <trkpt lat="46.00117" lon="4.42039">
        <ele>783</ele>
        <time>2016-09-22T13:34:54Z</time>
      </trkpt>
      <trkpt lat="46.00108" lon="4.42036">
        <ele>784</ele>
        <time>2016-09-22T13:35:06Z</time>
      </trkpt>
      <trkpt lat="46.00108" lon="4.42036">
        <ele>784</ele>
        <time>2016-09-22T13:35:07Z</time>
      </trkpt>
      <trkpt lat="46.00101" lon="4.4203">
        <ele>785</ele>
        <time>2016-09-22T13:35:16Z</time>
      </trkpt>
      <trkpt lat="46.001" lon="4.4203">
        <ele>786</ele>
        <time>2016-09-22T13:35:17Z</time>
      </trkpt>
      <trkpt lat="46.00093" lon="4.42027">
        <ele>787</ele>
        <time>2016-09-22T13:35:22Z</time>
      </trkpt>
      <trkpt lat="46.00091" lon="4.42025">
        <ele>787</ele>
        <time>2016-09-22T13:35:23Z</time>
      </trkpt>
      <trkpt lat="46.00084" lon="4.4202">
        <ele>788</ele>
        <time>2016-09-22T13:35:28Z</time>
      </trkpt>
      <trkpt lat="46.00082" lon="4.42019">
        <ele>790</ele>
        <time>2016-09-22T13:35:29Z</time>
      </trkpt>
      <trkpt lat="46.00074" lon="4.42016">
        <ele>791</ele>
        <time>2016-09-22T13:35:36Z</time>
      </trkpt>
      <trkpt lat="46.00073" lon="4.42015">
        <ele>791</ele>
        <time>2016-09-22T13:35:37Z</time>
      </trkpt>
      <trkpt lat="46.00066" lon="4.42008">
        <ele>791</ele>
        <time>2016-09-22T13:35:44Z</time>
      </trkpt>
      <trkpt lat="46.00065" lon="4.42007">
        <ele>791</ele>
        <time>2016-09-22T13:35:45Z</time>
      </trkpt>
      <trkpt lat="46.0006" lon="4.41997">
        <ele>795</ele>
        <time>2016-09-22T13:35:53Z</time>
      </trkpt>
      <trkpt lat="46.00059" lon="4.41996">
        <ele>795</ele>
        <time>2016-09-22T13:35:54Z</time>
      </trkpt>
      <trkpt lat="46.0005" lon="4.41992">
        <ele>794</ele>
        <time>2016-09-22T13:36:00Z</time>
      </trkpt>
      <trkpt lat="46.00049" lon="4.41992">
        <ele>794</ele>
        <time>2016-09-22T13:36:01Z</time>
      </trkpt>
      <trkpt lat="46.00041" lon="4.41989">
        <ele>794</ele>
        <time>2016-09-22T13:36:06Z</time>
      </trkpt>
      <trkpt lat="46.0004" lon="4.41988">
        <ele>794</ele>
        <time>2016-09-22T13:36:07Z</time>
      </trkpt>
      <trkpt lat="46.00032" lon="4.41984">
        <ele>794</ele>
        <time>2016-09-22T13:36:13Z</time>
      </trkpt>
      <trkpt lat="46.0003" lon="4.41983">
        <ele>794</ele>
        <time>2016-09-22T13:36:14Z</time>
      </trkpt>
      <trkpt lat="46.00023" lon="4.41976">
        <ele>793</ele>
        <time>2016-09-22T13:36:19Z</time>
      </trkpt>
      <trkpt lat="46.00021" lon="4.41975">
        <ele>793</ele>
        <time>2016-09-22T13:36:20Z</time>
      </trkpt>
      <trkpt lat="46.00013" lon="4.41969">
        <ele>793</ele>
        <time>2016-09-22T13:36:26Z</time>
      </trkpt>
      <trkpt lat="46.00012" lon="4.41968">
        <ele>793</ele>
        <time>2016-09-22T13:36:27Z</time>
      </trkpt>
      <trkpt lat="46.00004" lon="4.41965">
        <ele>793</ele>
        <time>2016-09-22T13:36:33Z</time>
      </trkpt>
      <trkpt lat="46.00002" lon="4.41964">
        <ele>793</ele>
        <time>2016-09-22T13:36:34Z</time>
      </trkpt>
      <trkpt lat="45.99996" lon="4.41958">
        <ele>788</ele>
        <time>2016-09-22T13:36:40Z</time>
      </trkpt>
      <trkpt lat="45.99994" lon="4.41956">
        <ele>788</ele>
        <time>2016-09-22T13:36:41Z</time>
      </trkpt>
      <trkpt lat="45.99988" lon="4.4195">
        <ele>788</ele>
        <time>2016-09-22T13:36:47Z</time>
      </trkpt>
      <trkpt lat="45.99987" lon="4.41949">
        <ele>788</ele>
        <time>2016-09-22T13:36:48Z</time>
      </trkpt>
      <trkpt lat="45.99981" lon="4.4194">
        <ele>788</ele>
        <time>2016-09-22T13:36:56Z</time>
      </trkpt>
      <trkpt lat="45.9998" lon="4.41938">
        <ele>788</ele>
        <time>2016-09-22T13:36:57Z</time>
      </trkpt>
      <trkpt lat="45.99972" lon="4.41932">
        <ele>788</ele>
        <time>2016-09-22T13:37:07Z</time>
      </trkpt>
      <trkpt lat="45.99971" lon="4.41931">
        <ele>788</ele>
        <time>2016-09-22T13:37:08Z</time>
      </trkpt>
      <trkpt lat="45.99964" lon="4.41926">
        <ele>787</ele>
        <time>2016-09-22T13:37:15Z</time>
      </trkpt>
      <trkpt lat="45.99963" lon="4.41925">
        <ele>787</ele>
        <time>2016-09-22T13:37:16Z</time>
      </trkpt>
      <trkpt lat="45.99954" lon="4.41922">
        <ele>787</ele>
        <time>2016-09-22T13:37:25Z</time>
      </trkpt>
      <trkpt lat="45.99952" lon="4.41923">
        <ele>787</ele>
        <time>2016-09-22T13:37:26Z</time>
      </trkpt>
      <trkpt lat="45.99944" lon="4.41924">
        <ele>786</ele>
        <time>2016-09-22T13:37:31Z</time>
      </trkpt>
      <trkpt lat="45.99942" lon="4.41924">
        <ele>786</ele>
        <time>2016-09-22T13:37:32Z</time>
      </trkpt>
      <trkpt lat="45.99934" lon="4.41923">
        <ele>786</ele>
        <time>2016-09-22T13:37:39Z</time>
      </trkpt>
      <trkpt lat="45.99933" lon="4.41923">
        <ele>785</ele>
        <time>2016-09-22T13:37:40Z</time>
      </trkpt>
      <trkpt lat="45.99925" lon="4.4192">
        <ele>785</ele>
        <time>2016-09-22T13:37:50Z</time>
      </trkpt>
      <trkpt lat="45.99924" lon="4.4192">
        <ele>785</ele>
        <time>2016-09-22T13:37:51Z</time>
      </trkpt>
      <trkpt lat="45.99915" lon="4.41921">
        <ele>783</ele>
        <time>2016-09-22T13:37:57Z</time>
      </trkpt>
      <trkpt lat="45.99914" lon="4.41921">
        <ele>783</ele>
        <time>2016-09-22T13:37:58Z</time>
      </trkpt>
      <trkpt lat="45.99906" lon="4.4192">
        <ele>782</ele>
        <time>2016-09-22T13:38:03Z</time>
      </trkpt>
      <trkpt lat="45.99904" lon="4.4192">
        <ele>782</ele>
        <time>2016-09-22T13:38:04Z</time>
      </trkpt>
      <trkpt lat="45.99897" lon="4.41916">
        <ele>781</ele>
        <time>2016-09-22T13:38:10Z</time>
      </trkpt>
      <trkpt lat="45.99895" lon="4.41916">
        <ele>781</ele>
        <time>2016-09-22T13:38:11Z</time>
      </trkpt>
      <trkpt lat="45.99888" lon="4.41914">
        <ele>781</ele>
        <time>2016-09-22T13:38:16Z</time>
      </trkpt>
      <trkpt lat="45.99886" lon="4.41913">
        <ele>781</ele>
        <time>2016-09-22T13:38:17Z</time>
      </trkpt>
      <trkpt lat="45.99877" lon="4.4191">
        <ele>780</ele>
        <time>2016-09-22T13:38:23Z</time>
      </trkpt>
      <trkpt lat="45.99876" lon="4.4191">
        <ele>780</ele>
        <time>2016-09-22T13:38:24Z</time>
      </trkpt>
      <trkpt lat="45.99868" lon="4.41907">
        <ele>780</ele>
        <time>2016-09-22T13:38:30Z</time>
      </trkpt>
      <trkpt lat="45.99867" lon="4.41907">
        <ele>780</ele>
        <time>2016-09-22T13:38:31Z</time>
      </trkpt>
      <trkpt lat="45.99858" lon="4.41906">
        <ele>779</ele>
        <time>2016-09-22T13:38:39Z</time>
      </trkpt>
      <trkpt lat="45.99857" lon="4.41906">
        <ele>779</ele>
        <time>2016-09-22T13:38:40Z</time>
      </trkpt>
      <trkpt lat="45.99848" lon="4.41903">
        <ele>779</ele>
        <time>2016-09-22T13:39:20Z</time>
      </trkpt>
      <trkpt lat="45.99847" lon="4.41902">
        <ele>779</ele>
        <time>2016-09-22T13:39:21Z</time>
      </trkpt>
      <trkpt lat="45.99847" lon="4.41914">
        <ele>779</ele>
        <time>2016-09-22T13:44:42Z</time>
      </trkpt>
      <trkpt lat="45.99847" lon="4.41915">
        <ele>779</ele>
        <time>2016-09-22T13:44:43Z</time>
      </trkpt>
      <trkpt lat="45.99852" lon="4.41925">
        <ele>778</ele>
        <time>2016-09-22T13:44:53Z</time>
      </trkpt>
      <trkpt lat="45.99853" lon="4.41926">
        <ele>778</ele>
        <time>2016-09-22T13:44:54Z</time>
      </trkpt>
      <trkpt lat="45.99855" lon="4.41938">
        <ele>778</ele>
        <time>2016-09-22T13:45:02Z</time>
      </trkpt>
      <trkpt lat="45.99854" lon="4.41939">
        <ele>778</ele>
        <time>2016-09-22T13:45:03Z</time>
      </trkpt>
      <trkpt lat="45.99853" lon="4.41952">
        <ele>778</ele>
        <time>2016-09-22T13:45:10Z</time>
      </trkpt>
      <trkpt lat="45.99853" lon="4.41954">
        <ele>778</ele>
        <time>2016-09-22T13:45:11Z</time>
      </trkpt>
      <trkpt lat="45.99853" lon="4.41965">
        <ele>777</ele>
        <time>2016-09-22T13:45:17Z</time>
      </trkpt>
      <trkpt lat="45.99852" lon="4.41967">
        <ele>777</ele>
        <time>2016-09-22T13:45:18Z</time>
      </trkpt>
      <trkpt lat="45.9985" lon="4.41978">
        <ele>776</ele>
        <time>2016-09-22T13:45:24Z</time>
      </trkpt>
      <trkpt lat="45.9985" lon="4.41979">
        <ele>776</ele>
        <time>2016-09-22T13:45:25Z</time>
      </trkpt>
      <trkpt lat="45.9985" lon="4.41992">
        <ele>775</ele>
        <time>2016-09-22T13:45:33Z</time>
      </trkpt>
      <trkpt lat="45.99851" lon="4.41993">
        <ele>775</ele>
        <time>2016-09-22T13:45:34Z</time>
      </trkpt>
      <trkpt lat="45.99853" lon="4.42005">
        <ele>770</ele>
        <time>2016-09-22T13:45:45Z</time>
      </trkpt>
      <trkpt lat="45.99852" lon="4.42006">
        <ele>770</ele>
        <time>2016-09-22T13:45:46Z</time>
      </trkpt>
      <trkpt lat="45.99845" lon="4.42013">
        <ele>770</ele>
        <time>2016-09-22T13:45:59Z</time>
      </trkpt>
      <trkpt lat="45.99845" lon="4.42014">
        <ele>770</ele>
        <time>2016-09-22T13:46:00Z</time>
      </trkpt>
      <trkpt lat="45.99836" lon="4.42017">
        <ele>769</ele>
        <time>2016-09-22T13:46:10Z</time>
      </trkpt>
      <trkpt lat="45.99835" lon="4.42017">
        <ele>769</ele>
        <time>2016-09-22T13:46:11Z</time>
      </trkpt>
      <trkpt lat="45.99827" lon="4.42019">
        <ele>765</ele>
        <time>2016-09-22T13:46:20Z</time>
      </trkpt>
      <trkpt lat="45.99826" lon="4.42019">
        <ele>765</ele>
        <time>2016-09-22T13:46:21Z</time>
      </trkpt>
      <trkpt lat="45.99817" lon="4.42019">
        <ele>764</ele>
        <time>2016-09-22T13:46:32Z</time>
      </trkpt>
      <trkpt lat="45.99816" lon="4.42019">
        <ele>764</ele>
        <time>2016-09-22T13:46:33Z</time>
      </trkpt>
      <trkpt lat="45.99808" lon="4.42021">
        <ele>763</ele>
        <time>2016-09-22T13:46:40Z</time>
      </trkpt>
      <trkpt lat="45.99807" lon="4.4202">
        <ele>763</ele>
        <time>2016-09-22T13:46:41Z</time>
      </trkpt>
      <trkpt lat="45.99798" lon="4.42021">
        <ele>763</ele>
        <time>2016-09-22T13:46:48Z</time>
      </trkpt>
      <trkpt lat="45.99797" lon="4.42021">
        <ele>763</ele>
        <time>2016-09-22T13:46:49Z</time>
      </trkpt>
      <trkpt lat="45.99788" lon="4.42024">
        <ele>762</ele>
        <time>2016-09-22T13:47:01Z</time>
      </trkpt>
      <trkpt lat="45.99788" lon="4.42025">
        <ele>762</ele>
        <time>2016-09-22T13:47:02Z</time>
      </trkpt>
      <trkpt lat="45.9978" lon="4.4203">
        <ele>761</ele>
        <time>2016-09-22T13:47:12Z</time>
      </trkpt>
      <trkpt lat="45.99779" lon="4.4203">
        <ele>761</ele>
        <time>2016-09-22T13:47:13Z</time>
      </trkpt>
      <trkpt lat="45.9977" lon="4.42032">
        <ele>761</ele>
        <time>2016-09-22T13:47:25Z</time>
      </trkpt>
      <trkpt lat="45.9977" lon="4.42032">
        <ele>761</ele>
        <time>2016-09-22T13:47:26Z</time>
      </trkpt>
      <trkpt lat="45.99762" lon="4.42037">
        <ele>761</ele>
        <time>2016-09-22T13:47:34Z</time>
      </trkpt>
      <trkpt lat="45.99761" lon="4.42038">
        <ele>760</ele>
        <time>2016-09-22T13:47:35Z</time>
      </trkpt>
      <trkpt lat="45.99752" lon="4.42037">
        <ele>761</ele>
        <time>2016-09-22T13:47:44Z</time>
      </trkpt>
      <trkpt lat="45.99751" lon="4.42037">
        <ele>761</ele>
        <time>2016-09-22T13:47:45Z</time>
      </trkpt>
      <trkpt lat="45.99743" lon="4.42039">
        <ele>756</ele>
        <time>2016-09-22T13:47:53Z</time>
      </trkpt>
      <trkpt lat="45.99742" lon="4.42039">
        <ele>756</ele>
        <time>2016-09-22T13:47:54Z</time>
      </trkpt>
      <trkpt lat="45.99734" lon="4.42045">
        <ele>755</ele>
        <time>2016-09-22T13:48:02Z</time>
      </trkpt>
      <trkpt lat="45.99733" lon="4.42046">
        <ele>755</ele>
        <time>2016-09-22T13:48:03Z</time>
      </trkpt>
      <trkpt lat="45.99725" lon="4.42049">
        <ele>754</ele>
        <time>2016-09-22T13:48:11Z</time>
      </trkpt>
      <trkpt lat="45.99724" lon="4.4205">
        <ele>754</ele>
        <time>2016-09-22T13:48:12Z</time>
      </trkpt>
      <trkpt lat="45.99715" lon="4.42053">
        <ele>754</ele>
        <time>2016-09-22T13:48:18Z</time>
      </trkpt>
      <trkpt lat="45.99714" lon="4.42053">
        <ele>753</ele>
        <time>2016-09-22T13:48:19Z</time>
      </trkpt>
      <trkpt lat="45.99706" lon="4.42058">
        <ele>752</ele>
        <time>2016-09-22T13:48:26Z</time>
      </trkpt>
      <trkpt lat="45.99705" lon="4.42059">
        <ele>752</ele>
        <time>2016-09-22T13:48:27Z</time>
      </trkpt>
      <trkpt lat="45.99696" lon="4.42061">
        <ele>751</ele>
        <time>2016-09-22T13:48:34Z</time>
      </trkpt>
      <trkpt lat="45.99695" lon="4.42062">
        <ele>751</ele>
        <time>2016-09-22T13:48:35Z</time>
      </trkpt>
      <trkpt lat="45.99688" lon="4.42066">
        <ele>749</ele>
        <time>2016-09-22T13:48:42Z</time>
      </trkpt>
      <trkpt lat="45.99686" lon="4.42066">
        <ele>749</ele>
        <time>2016-09-22T13:48:43Z</time>
      </trkpt>
      <trkpt lat="45.99679" lon="4.42071">
        <ele>747</ele>
        <time>2016-09-22T13:48:51Z</time>
      </trkpt>
      <trkpt lat="45.99678" lon="4.42072">
        <ele>746</ele>
        <time>2016-09-22T13:48:52Z</time>
      </trkpt>
      <trkpt lat="45.9967" lon="4.42078">
        <ele>743</ele>
        <time>2016-09-22T13:49:10Z</time>
      </trkpt>
      <trkpt lat="45.9967" lon="4.42078">
        <ele>742</ele>
        <time>2016-09-22T13:49:11Z</time>
      </trkpt>
      <trkpt lat="45.99663" lon="4.42086">
        <ele>737</ele>
        <time>2016-09-22T13:49:21Z</time>
      </trkpt>
      <trkpt lat="45.99662" lon="4.42087">
        <ele>737</ele>
        <time>2016-09-22T13:49:22Z</time>
      </trkpt>
      <trkpt lat="45.99656" lon="4.42094">
        <ele>734</ele>
        <time>2016-09-22T13:49:28Z</time>
      </trkpt>
      <trkpt lat="45.99654" lon="4.42095">
        <ele>733</ele>
        <time>2016-09-22T13:49:29Z</time>
      </trkpt>
      <trkpt lat="45.99647" lon="4.421">
        <ele>732</ele>
        <time>2016-09-22T13:49:36Z</time>
      </trkpt>
      <trkpt lat="45.99645" lon="4.42101">
        <ele>731</ele>
        <time>2016-09-22T13:49:37Z</time>
      </trkpt>
      <trkpt lat="45.99639" lon="4.42109">
        <ele>730</ele>
        <time>2016-09-22T13:49:44Z</time>
      </trkpt>
      <trkpt lat="45.99638" lon="4.42111">
        <ele>730</ele>
        <time>2016-09-22T13:49:45Z</time>
      </trkpt>
      <trkpt lat="45.9963" lon="4.42113">
        <ele>729</ele>
        <time>2016-09-22T13:49:52Z</time>
      </trkpt>
      <trkpt lat="45.99629" lon="4.42113">
        <ele>729</ele>
        <time>2016-09-22T13:49:53Z</time>
      </trkpt>
      <trkpt lat="45.99621" lon="4.42117">
        <ele>728</ele>
        <time>2016-09-22T13:49:59Z</time>
      </trkpt>
      <trkpt lat="45.9962" lon="4.42118">
        <ele>728</ele>
        <time>2016-09-22T13:50:00Z</time>
      </trkpt>
      <trkpt lat="45.99612" lon="4.42122">
        <ele>728</ele>
        <time>2016-09-22T13:50:05Z</time>
      </trkpt>
      <trkpt lat="45.99611" lon="4.42123">
        <ele>728</ele>
        <time>2016-09-22T13:50:06Z</time>
      </trkpt>
      <trkpt lat="45.99603" lon="4.42126">
        <ele>727</ele>
        <time>2016-09-22T13:50:12Z</time>
      </trkpt>
      <trkpt lat="45.99602" lon="4.42126">
        <ele>727</ele>
        <time>2016-09-22T13:50:13Z</time>
      </trkpt>
      <trkpt lat="45.99594" lon="4.42129">
        <ele>727</ele>
        <time>2016-09-22T13:50:20Z</time>
      </trkpt>
      <trkpt lat="45.99593" lon="4.4213">
        <ele>727</ele>
        <time>2016-09-22T13:50:21Z</time>
      </trkpt>
      <trkpt lat="45.99585" lon="4.42132">
        <ele>726</ele>
        <time>2016-09-22T13:50:29Z</time>
      </trkpt>
      <trkpt lat="45.99584" lon="4.42133">
        <ele>726</ele>
        <time>2016-09-22T13:50:30Z</time>
      </trkpt>
      <trkpt lat="45.99576" lon="4.42139">
        <ele>728</ele>
        <time>2016-09-22T13:50:40Z</time>
      </trkpt>
      <trkpt lat="45.99575" lon="4.4214">
        <ele>727</ele>
        <time>2016-09-22T13:50:41Z</time>
      </trkpt>
      <trkpt lat="45.99569" lon="4.42146">
        <ele>727</ele>
        <time>2016-09-22T13:50:49Z</time>
      </trkpt>
      <trkpt lat="45.99568" lon="4.42148">
        <ele>727</ele>
        <time>2016-09-22T13:50:50Z</time>
      </trkpt>
      <trkpt lat="45.99562" lon="4.42157">
        <ele>726</ele>
        <time>2016-09-22T13:50:57Z</time>
      </trkpt>
      <trkpt lat="45.99561" lon="4.42158">
        <ele>726</ele>
        <time>2016-09-22T13:50:58Z</time>
      </trkpt>
      <trkpt lat="45.99557" lon="4.42169">
        <ele>721</ele>
        <time>2016-09-22T13:51:04Z</time>
      </trkpt>
      <trkpt lat="45.99556" lon="4.4217">
        <ele>721</ele>
        <time>2016-09-22T13:51:05Z</time>
      </trkpt>
      <trkpt lat="45.99551" lon="4.42178">
        <ele>721</ele>
        <time>2016-09-22T13:51:13Z</time>
      </trkpt>
      <trkpt lat="45.99549" lon="4.42178">
        <ele>721</ele>
        <time>2016-09-22T13:51:14Z</time>
      </trkpt>
      <trkpt lat="45.99545" lon="4.42188">
        <ele>721</ele>
        <time>2016-09-22T13:51:22Z</time>
      </trkpt>
      <trkpt lat="45.99545" lon="4.4219">
        <ele>721</ele>
        <time>2016-09-22T13:51:23Z</time>
      </trkpt>
      <trkpt lat="45.99542" lon="4.42201">
        <ele>721</ele>
        <time>2016-09-22T13:51:31Z</time>
      </trkpt>
      <trkpt lat="45.99541" lon="4.42202">
        <ele>721</ele>
        <time>2016-09-22T13:51:32Z</time>
      </trkpt>
      <trkpt lat="45.99535" lon="4.42211">
        <ele>721</ele>
        <time>2016-09-22T13:51:39Z</time>
      </trkpt>
      <trkpt lat="45.99534" lon="4.42212">
        <ele>721</ele>
        <time>2016-09-22T13:51:40Z</time>
      </trkpt>
      <trkpt lat="45.99532" lon="4.42223">
        <ele>721</ele>
        <time>2016-09-22T13:51:46Z</time>
      </trkpt>
      <trkpt lat="45.99532" lon="4.42225">
        <ele>721</ele>
        <time>2016-09-22T13:51:47Z</time>
      </trkpt>
      <trkpt lat="45.99533" lon="4.42238">
        <ele>720</ele>
        <time>2016-09-22T13:51:56Z</time>
      </trkpt>
      <trkpt lat="45.99534" lon="4.42239">
        <ele>720</ele>
        <time>2016-09-22T13:51:57Z</time>
      </trkpt>
      <trkpt lat="45.99538" lon="4.4225">
        <ele>719</ele>
        <time>2016-09-22T13:52:03Z</time>
      </trkpt>
      <trkpt lat="45.99539" lon="4.42252">
        <ele>715</ele>
        <time>2016-09-22T13:52:04Z</time>
      </trkpt>
      <trkpt lat="45.99541" lon="4.42263">
        <ele>714</ele>
        <time>2016-09-22T13:52:10Z</time>
      </trkpt>
      <trkpt lat="45.99542" lon="4.42265">
        <ele>714</ele>
        <time>2016-09-22T13:52:11Z</time>
      </trkpt>
      <trkpt lat="45.99544" lon="4.42277">
        <ele>714</ele>
        <time>2016-09-22T13:52:17Z</time>
      </trkpt>
      <trkpt lat="45.99545" lon="4.42279">
        <ele>714</ele>
        <time>2016-09-22T13:52:18Z</time>
      </trkpt>
      <trkpt lat="45.99545" lon="4.4229">
        <ele>713</ele>
        <time>2016-09-22T13:52:22Z</time>
      </trkpt>
      <trkpt lat="45.99546" lon="4.42293">
        <ele>713</ele>
        <time>2016-09-22T13:52:23Z</time>
      </trkpt>
      <trkpt lat="45.99551" lon="4.42301">
        <ele>712</ele>
        <time>2016-09-22T13:52:27Z</time>
      </trkpt>
      <trkpt lat="45.99552" lon="4.42303">
        <ele>712</ele>
        <time>2016-09-22T13:52:28Z</time>
      </trkpt>
      <trkpt lat="45.99555" lon="4.42315">
        <ele>711</ele>
        <time>2016-09-22T13:52:34Z</time>
      </trkpt>
      <trkpt lat="45.99556" lon="4.42316">
        <ele>711</ele>
        <time>2016-09-22T13:52:35Z</time>
      </trkpt>
      <trkpt lat="45.99561" lon="4.42325">
        <ele>710</ele>
        <time>2016-09-22T13:52:44Z</time>
      </trkpt>
      <trkpt lat="45.99562" lon="4.42327">
        <ele>709</ele>
        <time>2016-09-22T13:52:45Z</time>
      </trkpt>
      <trkpt lat="45.99568" lon="4.42336">
        <ele>708</ele>
        <time>2016-09-22T13:52:52Z</time>
      </trkpt>
      <trkpt lat="45.99569" lon="4.42337">
        <ele>708</ele>
        <time>2016-09-22T13:52:53Z</time>
      </trkpt>
      <trkpt lat="45.99575" lon="4.42344">
        <ele>707</ele>
        <time>2016-09-22T13:53:01Z</time>
      </trkpt>
      <trkpt lat="45.99576" lon="4.42345">
        <ele>707</ele>
        <time>2016-09-22T13:53:02Z</time>
      </trkpt>
      <trkpt lat="45.9958" lon="4.42355">
        <ele>709</ele>
        <time>2016-09-22T13:53:08Z</time>
      </trkpt>
      <trkpt lat="45.9958" lon="4.42357">
        <ele>709</ele>
        <time>2016-09-22T13:53:09Z</time>
      </trkpt>
      <trkpt lat="45.99585" lon="4.42367">
        <ele>699</ele>
        <time>2016-09-22T13:53:16Z</time>
      </trkpt>
      <trkpt lat="45.99585" lon="4.42369">
        <ele>699</ele>
        <time>2016-09-22T13:53:17Z</time>
      </trkpt>
      <trkpt lat="45.99591" lon="4.42377">
        <ele>699</ele>
        <time>2016-09-22T13:53:23Z</time>
      </trkpt>
      <trkpt lat="45.99592" lon="4.42379">
        <ele>699</ele>
        <time>2016-09-22T13:53:24Z</time>
      </trkpt>
      <trkpt lat="45.99599" lon="4.42385">
        <ele>698</ele>
        <time>2016-09-22T13:53:30Z</time>
      </trkpt>
      <trkpt lat="45.996" lon="4.42386">
        <ele>698</ele>
        <time>2016-09-22T13:53:31Z</time>
      </trkpt>
      <trkpt lat="45.99608" lon="4.42393">
        <ele>698</ele>
        <time>2016-09-22T13:53:40Z</time>
      </trkpt>
      <trkpt lat="45.99609" lon="4.42394">
        <ele>698</ele>
        <time>2016-09-22T13:53:41Z</time>
      </trkpt>
      <trkpt lat="45.99613" lon="4.42404">
        <ele>697</ele>
        <time>2016-09-22T13:53:47Z</time>
      </trkpt>
      <trkpt lat="45.99614" lon="4.42405">
        <ele>697</ele>
        <time>2016-09-22T13:53:48Z</time>
      </trkpt>
      <trkpt lat="45.99619" lon="4.42416">
        <ele>696</ele>
        <time>2016-09-22T13:53:54Z</time>
      </trkpt>
      <trkpt lat="45.9962" lon="4.42417">
        <ele>700</ele>
        <time>2016-09-22T13:53:55Z</time>
      </trkpt>
      <trkpt lat="45.99626" lon="4.42426">
        <ele>699</ele>
        <time>2016-09-22T13:54:03Z</time>
      </trkpt>
      <trkpt lat="45.99627" lon="4.42427">
        <ele>699</ele>
        <time>2016-09-22T13:54:04Z</time>
      </trkpt>
      <trkpt lat="45.99634" lon="4.42432">
        <ele>698</ele>
        <time>2016-09-22T13:54:13Z</time>
      </trkpt>
      <trkpt lat="45.99635" lon="4.42433">
        <ele>698</ele>
        <time>2016-09-22T13:54:14Z</time>
      </trkpt>
      <trkpt lat="45.99641" lon="4.42441">
        <ele>697</ele>
        <time>2016-09-22T13:54:21Z</time>
      </trkpt>
      <trkpt lat="45.99641" lon="4.42443">
        <ele>697</ele>
        <time>2016-09-22T13:54:22Z</time>
      </trkpt>
      <trkpt lat="45.99645" lon="4.42451">
        <ele>698</ele>
        <time>2016-09-22T13:54:27Z</time>
      </trkpt>
      <trkpt lat="45.99647" lon="4.42454">
        <ele>698</ele>
        <time>2016-09-22T13:54:28Z</time>
      </trkpt>
      <trkpt lat="45.99652" lon="4.42463">
        <ele>698</ele>
        <time>2016-09-22T13:54:34Z</time>
      </trkpt>
      <trkpt lat="45.99652" lon="4.42465">
        <ele>698</ele>
        <time>2016-09-22T13:54:35Z</time>
      </trkpt>
      <trkpt lat="45.99657" lon="4.42475">
        <ele>698</ele>
        <time>2016-09-22T13:54:42Z</time>
      </trkpt>
      <trkpt lat="45.99658" lon="4.42477">
        <ele>697</ele>
        <time>2016-09-22T13:54:43Z</time>
      </trkpt>
      <trkpt lat="45.99663" lon="4.42485">
        <ele>696</ele>
        <time>2016-09-22T13:54:51Z</time>
      </trkpt>
      <trkpt lat="45.99664" lon="4.4249">
        <ele>695</ele>
        <time>2016-09-22T13:54:52Z</time>
      </trkpt>
      <trkpt lat="45.99668" lon="4.42501">
        <ele>692</ele>
        <time>2016-09-22T13:55:18Z</time>
      </trkpt>
      <trkpt lat="45.99669" lon="4.42501">
        <ele>691</ele>
        <time>2016-09-22T13:55:19Z</time>
      </trkpt>
      <trkpt lat="45.99675" lon="4.4251">
        <ele>689</ele>
        <time>2016-09-22T13:55:31Z</time>
      </trkpt>
      <trkpt lat="45.99676" lon="4.42511">
        <ele>689</ele>
        <time>2016-09-22T13:55:32Z</time>
      </trkpt>
      <trkpt lat="45.99681" lon="4.42518">
        <ele>688</ele>
        <time>2016-09-22T13:55:37Z</time>
      </trkpt>
      <trkpt lat="45.99683" lon="4.4252">
        <ele>687</ele>
        <time>2016-09-22T13:55:38Z</time>
      </trkpt>
      <trkpt lat="45.99687" lon="4.4253">
        <ele>687</ele>
        <time>2016-09-22T13:55:42Z</time>
      </trkpt>
      <trkpt lat="45.99687" lon="4.42533">
        <ele>687</ele>
        <time>2016-09-22T13:55:43Z</time>
      </trkpt>
      <trkpt lat="45.99693" lon="4.42541">
        <ele>687</ele>
        <time>2016-09-22T13:55:49Z</time>
      </trkpt>
      <trkpt lat="45.99694" lon="4.42543">
        <ele>687</ele>
        <time>2016-09-22T13:55:50Z</time>
      </trkpt>
      <trkpt lat="45.99698" lon="4.42553">
        <ele>687</ele>
        <time>2016-09-22T13:55:56Z</time>
      </trkpt>
      <trkpt lat="45.99698" lon="4.42554">
        <ele>687</ele>
        <time>2016-09-22T13:55:57Z</time>
      </trkpt>
      <trkpt lat="45.99703" lon="4.42564">
        <ele>687</ele>
        <time>2016-09-22T13:56:03Z</time>
      </trkpt>
      <trkpt lat="45.99704" lon="4.42565">
        <ele>687</ele>
        <time>2016-09-22T13:56:04Z</time>
      </trkpt>
      <trkpt lat="45.99709" lon="4.42576">
        <ele>686</ele>
        <time>2016-09-22T13:56:11Z</time>
      </trkpt>
      <trkpt lat="45.9971" lon="4.42577">
        <ele>686</ele>
        <time>2016-09-22T13:56:12Z</time>
      </trkpt>
      <trkpt lat="45.99714" lon="4.42589">
        <ele>692</ele>
        <time>2016-09-22T13:56:19Z</time>
      </trkpt>
      <trkpt lat="45.99714" lon="4.4259">
        <ele>691</ele>
        <time>2016-09-22T13:56:20Z</time>
      </trkpt>
      <trkpt lat="45.99719" lon="4.426">
        <ele>691</ele>
        <time>2016-09-22T13:56:27Z</time>
      </trkpt>
      <trkpt lat="45.99719" lon="4.42601">
        <ele>691</ele>
        <time>2016-09-22T13:56:28Z</time>
      </trkpt>
      <trkpt lat="45.99724" lon="4.42612">
        <ele>691</ele>
        <time>2016-09-22T13:56:35Z</time>
      </trkpt>
      <trkpt lat="45.99725" lon="4.42614">
        <ele>691</ele>
        <time>2016-09-22T13:56:36Z</time>
      </trkpt>
      <trkpt lat="45.99729" lon="4.42625">
        <ele>691</ele>
        <time>2016-09-22T13:56:42Z</time>
      </trkpt>
      <trkpt lat="45.9973" lon="4.42626">
        <ele>691</ele>
        <time>2016-09-22T13:56:43Z</time>
      </trkpt>
      <trkpt lat="45.99736" lon="4.42635">
        <ele>691</ele>
        <time>2016-09-22T13:56:51Z</time>
      </trkpt>
      <trkpt lat="45.99737" lon="4.42637">
        <ele>691</ele>
        <time>2016-09-22T13:56:52Z</time>
      </trkpt>
      <trkpt lat="45.99741" lon="4.42646">
        <ele>690</ele>
        <time>2016-09-22T13:56:58Z</time>
      </trkpt>
      <trkpt lat="45.99741" lon="4.42648">
        <ele>690</ele>
        <time>2016-09-22T13:56:59Z</time>
      </trkpt>
      <trkpt lat="45.99747" lon="4.42658">
        <ele>687</ele>
        <time>2016-09-22T13:57:05Z</time>
      </trkpt>
      <trkpt lat="45.99748" lon="4.4266">
        <ele>687</ele>
        <time>2016-09-22T13:57:06Z</time>
      </trkpt>
      <trkpt lat="45.99752" lon="4.4267">
        <ele>683</ele>
        <time>2016-09-22T13:57:13Z</time>
      </trkpt>
      <trkpt lat="45.99753" lon="4.42671">
        <ele>682</ele>
        <time>2016-09-22T13:57:14Z</time>
      </trkpt>
      <trkpt lat="45.99759" lon="4.42678">
        <ele>680</ele>
        <time>2016-09-22T13:57:22Z</time>
      </trkpt>
      <trkpt lat="45.9976" lon="4.42679">
        <ele>680</ele>
        <time>2016-09-22T13:57:23Z</time>
      </trkpt>
      <trkpt lat="45.99767" lon="4.42686">
        <ele>678</ele>
        <time>2016-09-22T13:57:31Z</time>
      </trkpt>
      <trkpt lat="45.99768" lon="4.42688">
        <ele>678</ele>
        <time>2016-09-22T13:57:32Z</time>
      </trkpt>
      <trkpt lat="45.99774" lon="4.42697">
        <ele>677</ele>
        <time>2016-09-22T13:57:39Z</time>
      </trkpt>
      <trkpt lat="45.99774" lon="4.427">
        <ele>677</ele>
        <time>2016-09-22T13:57:40Z</time>
      </trkpt>
      <trkpt lat="45.99781" lon="4.42706">
        <ele>677</ele>
        <time>2016-09-22T13:57:47Z</time>
      </trkpt>
      <trkpt lat="45.99782" lon="4.42707">
        <ele>676</ele>
        <time>2016-09-22T13:57:48Z</time>
      </trkpt>
      <trkpt lat="45.99787" lon="4.42716">
        <ele>676</ele>
        <time>2016-09-22T13:57:57Z</time>
      </trkpt>
      <trkpt lat="45.99787" lon="4.42717">
        <ele>676</ele>
        <time>2016-09-22T13:57:58Z</time>
      </trkpt>
      <trkpt lat="45.99794" lon="4.42722">
        <ele>676</ele>
        <time>2016-09-22T13:58:03Z</time>
      </trkpt>
      <trkpt lat="45.99795" lon="4.42723">
        <ele>675</ele>
        <time>2016-09-22T13:58:04Z</time>
      </trkpt>
      <trkpt lat="45.99803" lon="4.42731">
        <ele>675</ele>
        <time>2016-09-22T13:58:10Z</time>
      </trkpt>
      <trkpt lat="45.99803" lon="4.42732">
        <ele>675</ele>
        <time>2016-09-22T13:58:11Z</time>
      </trkpt>
      <trkpt lat="45.9981" lon="4.42741">
        <ele>674</ele>
        <time>2016-09-22T13:58:18Z</time>
      </trkpt>
      <trkpt lat="45.99811" lon="4.42742">
        <ele>674</ele>
        <time>2016-09-22T13:58:19Z</time>
      </trkpt>
      <trkpt lat="45.99814" lon="4.42752">
        <ele>677</ele>
        <time>2016-09-22T13:58:26Z</time>
      </trkpt>
      <trkpt lat="45.99814" lon="4.42754">
        <ele>677</ele>
        <time>2016-09-22T13:58:27Z</time>
      </trkpt>
      <trkpt lat="45.99815" lon="4.42766">
        <ele>678</ele>
        <time>2016-09-22T13:58:34Z</time>
      </trkpt>
      <trkpt lat="45.99816" lon="4.42767">
        <ele>678</ele>
        <time>2016-09-22T13:58:35Z</time>
      </trkpt>
      <trkpt lat="45.9982" lon="4.42777">
        <ele>678</ele>
        <time>2016-09-22T13:58:41Z</time>
      </trkpt>
      <trkpt lat="45.99821" lon="4.42778">
        <ele>678</ele>
        <time>2016-09-22T13:58:42Z</time>
      </trkpt>
      <trkpt lat="45.99826" lon="4.42787">
        <ele>678</ele>
        <time>2016-09-22T13:58:48Z</time>
      </trkpt>
      <trkpt lat="45.99827" lon="4.42789">
        <ele>678</ele>
        <time>2016-09-22T13:58:49Z</time>
      </trkpt>
      <trkpt lat="45.99833" lon="4.42797">
        <ele>678</ele>
        <time>2016-09-22T13:58:54Z</time>
      </trkpt>
      <trkpt lat="45.99834" lon="4.42798">
        <ele>663</ele>
        <time>2016-09-22T13:58:55Z</time>
      </trkpt>
      <trkpt lat="45.9984" lon="4.42809">
        <ele>663</ele>
        <time>2016-09-22T13:59:01Z</time>
      </trkpt>
      <trkpt lat="45.99841" lon="4.4281">
        <ele>663</ele>
        <time>2016-09-22T13:59:02Z</time>
      </trkpt>
      <trkpt lat="45.99847" lon="4.42818">
        <ele>664</ele>
        <time>2016-09-22T13:59:08Z</time>
      </trkpt>
      <trkpt lat="45.99848" lon="4.4282">
        <ele>664</ele>
        <time>2016-09-22T13:59:09Z</time>
      </trkpt>
      <trkpt lat="45.99853" lon="4.42828">
        <ele>664</ele>
        <time>2016-09-22T13:59:14Z</time>
      </trkpt>
      <trkpt lat="45.99854" lon="4.42829">
        <ele>663</ele>
        <time>2016-09-22T13:59:15Z</time>
      </trkpt>
      <trkpt lat="45.99859" lon="4.4284">
        <ele>665</ele>
        <time>2016-09-22T13:59:21Z</time>
      </trkpt>
      <trkpt lat="45.9986" lon="4.42841">
        <ele>665</ele>
        <time>2016-09-22T13:59:22Z</time>
      </trkpt>
      <trkpt lat="45.99866" lon="4.42851">
        <ele>664</ele>
        <time>2016-09-22T13:59:30Z</time>
      </trkpt>
      <trkpt lat="45.99867" lon="4.42852">
        <ele>663</ele>
        <time>2016-09-22T13:59:31Z</time>
      </trkpt>
      <trkpt lat="45.99872" lon="4.42861">
        <ele>663</ele>
        <time>2016-09-22T13:59:38Z</time>
      </trkpt>
      <trkpt lat="45.99873" lon="4.42862">
        <ele>663</ele>
        <time>2016-09-22T13:59:39Z</time>
      </trkpt>
      <trkpt lat="45.99878" lon="4.42871">
        <ele>662</ele>
        <time>2016-09-22T13:59:45Z</time>
      </trkpt>
      <trkpt lat="45.99879" lon="4.42872">
        <ele>662</ele>
        <time>2016-09-22T13:59:46Z</time>
      </trkpt>
      <trkpt lat="45.99885" lon="4.4288">
        <ele>661</ele>
        <time>2016-09-22T13:59:52Z</time>
      </trkpt>
      <trkpt lat="45.99886" lon="4.42881">
        <ele>661</ele>
        <time>2016-09-22T13:59:53Z</time>
      </trkpt>
      <trkpt lat="45.9989" lon="4.42891">
        <ele>661</ele>
        <time>2016-09-22T13:59:58Z</time>
      </trkpt>
      <trkpt lat="45.99891" lon="4.42893">
        <ele>661</ele>
        <time>2016-09-22T13:59:59Z</time>
      </trkpt>
      <trkpt lat="45.99897" lon="4.42902">
        <ele>660</ele>
        <time>2016-09-22T14:00:06Z</time>
      </trkpt>
      <trkpt lat="45.99897" lon="4.42903">
        <ele>660</ele>
        <time>2016-09-22T14:00:07Z</time>
      </trkpt>
      <trkpt lat="45.99905" lon="4.4291">
        <ele>659</ele>
        <time>2016-09-22T14:00:15Z</time>
      </trkpt>
      <trkpt lat="45.99906" lon="4.42911">
        <ele>659</ele>
        <time>2016-09-22T14:00:16Z</time>
      </trkpt>
      <trkpt lat="45.99913" lon="4.42919">
        <ele>657</ele>
        <time>2016-09-22T14:00:23Z</time>
      </trkpt>
      <trkpt lat="45.99914" lon="4.4292">
        <ele>657</ele>
        <time>2016-09-22T14:00:24Z</time>
      </trkpt>
      <trkpt lat="45.9992" lon="4.42927">
        <ele>653</ele>
        <time>2016-09-22T14:00:30Z</time>
      </trkpt>
      <trkpt lat="45.99921" lon="4.42928">
        <ele>653</ele>
        <time>2016-09-22T14:00:31Z</time>
      </trkpt>
      <trkpt lat="45.99927" lon="4.42935">
        <ele>651</ele>
        <time>2016-09-22T14:00:37Z</time>
      </trkpt>
      <trkpt lat="45.99928" lon="4.42937">
        <ele>651</ele>
        <time>2016-09-22T14:00:38Z</time>
      </trkpt>
      <trkpt lat="45.99934" lon="4.42946">
        <ele>650</ele>
        <time>2016-09-22T14:00:45Z</time>
      </trkpt>
      <trkpt lat="45.99935" lon="4.42947">
        <ele>650</ele>
        <time>2016-09-22T14:00:46Z</time>
      </trkpt>
      <trkpt lat="45.99942" lon="4.42955">
        <ele>649</ele>
        <time>2016-09-22T14:00:53Z</time>
      </trkpt>
      <trkpt lat="45.99943" lon="4.42956">
        <ele>649</ele>
        <time>2016-09-22T14:00:54Z</time>
      </trkpt>
      <trkpt lat="45.99948" lon="4.42966">
        <ele>648</ele>
        <time>2016-09-22T14:01:00Z</time>
      </trkpt>
      <trkpt lat="45.99949" lon="4.42968">
        <ele>648</ele>
        <time>2016-09-22T14:01:01Z</time>
      </trkpt>
      <trkpt lat="45.99955" lon="4.42978">
        <ele>648</ele>
        <time>2016-09-22T14:01:08Z</time>
      </trkpt>
      <trkpt lat="45.99955" lon="4.42979">
        <ele>648</ele>
        <time>2016-09-22T14:01:09Z</time>
      </trkpt>
      <trkpt lat="45.99961" lon="4.42988">
        <ele>648</ele>
        <time>2016-09-22T14:01:18Z</time>
      </trkpt>
      <trkpt lat="45.99962" lon="4.42989">
        <ele>648</ele>
        <time>2016-09-22T14:01:19Z</time>
      </trkpt>
      <trkpt lat="45.99969" lon="4.42997">
        <ele>647</ele>
        <time>2016-09-22T14:01:25Z</time>
      </trkpt>
      <trkpt lat="45.99969" lon="4.42999">
        <ele>647</ele>
        <time>2016-09-22T14:01:26Z</time>
      </trkpt>
      <trkpt lat="45.99975" lon="4.43008">
        <ele>646</ele>
        <time>2016-09-22T14:01:33Z</time>
      </trkpt>
      <trkpt lat="45.99976" lon="4.43009">
        <ele>646</ele>
        <time>2016-09-22T14:01:34Z</time>
      </trkpt>
      <trkpt lat="45.99982" lon="4.43014">
        <ele>646</ele>
        <time>2016-09-22T14:01:39Z</time>
      </trkpt>
      <trkpt lat="45.99983" lon="4.43015">
        <ele>646</ele>
        <time>2016-09-22T14:01:40Z</time>
      </trkpt>
      <trkpt lat="45.99989" lon="4.43024">
        <ele>646</ele>
        <time>2016-09-22T14:01:46Z</time>
      </trkpt>
      <trkpt lat="45.9999" lon="4.43025">
        <ele>646</ele>
        <time>2016-09-22T14:01:47Z</time>
      </trkpt>
      <trkpt lat="45.99996" lon="4.43033">
        <ele>646</ele>
        <time>2016-09-22T14:01:54Z</time>
      </trkpt>
      <trkpt lat="45.99997" lon="4.43035">
        <ele>646</ele>
        <time>2016-09-22T14:01:55Z</time>
      </trkpt>
      <trkpt lat="46.00002" lon="4.43043">
        <ele>639</ele>
        <time>2016-09-22T14:02:00Z</time>
      </trkpt>
      <trkpt lat="46.00003" lon="4.43045">
        <ele>639</ele>
        <time>2016-09-22T14:02:01Z</time>
      </trkpt>
      <trkpt lat="46.00007" lon="4.43054">
        <ele>639</ele>
        <time>2016-09-22T14:02:06Z</time>
      </trkpt>
      <trkpt lat="46.00008" lon="4.43056">
        <ele>639</ele>
        <time>2016-09-22T14:02:07Z</time>
      </trkpt>
      <trkpt lat="46.00012" lon="4.43066">
        <ele>640</ele>
        <time>2016-09-22T14:02:16Z</time>
      </trkpt>
      <trkpt lat="46.00013" lon="4.43068">
        <ele>640</ele>
        <time>2016-09-22T14:02:17Z</time>
      </trkpt>
      <trkpt lat="46.0002" lon="4.43075">
        <ele>640</ele>
        <time>2016-09-22T14:02:24Z</time>
      </trkpt>
      <trkpt lat="46.00021" lon="4.43076">
        <ele>640</ele>
        <time>2016-09-22T14:02:25Z</time>
      </trkpt>
      <trkpt lat="46.00027" lon="4.43084">
        <ele>639</ele>
        <time>2016-09-22T14:02:31Z</time>
      </trkpt>
      <trkpt lat="46.00028" lon="4.43086">
        <ele>639</ele>
        <time>2016-09-22T14:02:32Z</time>
      </trkpt>
      <trkpt lat="46.00033" lon="4.43095">
        <ele>638</ele>
        <time>2016-09-22T14:02:37Z</time>
      </trkpt>
      <trkpt lat="46.00034" lon="4.43097">
        <ele>638</ele>
        <time>2016-09-22T14:02:38Z</time>
      </trkpt>
      <trkpt lat="46.00037" lon="4.43107">
        <ele>637</ele>
        <time>2016-09-22T14:02:43Z</time>
      </trkpt>
      <trkpt lat="46.00038" lon="4.43109">
        <ele>637</ele>
        <time>2016-09-22T14:02:44Z</time>
      </trkpt>
      <trkpt lat="46.00042" lon="4.43119">
        <ele>637</ele>
        <time>2016-09-22T14:02:50Z</time>
      </trkpt>
      <trkpt lat="46.00043" lon="4.4312">
        <ele>637</ele>
        <time>2016-09-22T14:02:51Z</time>
      </trkpt>
      <trkpt lat="46.00048" lon="4.43129">
        <ele>636</ele>
        <time>2016-09-22T14:02:57Z</time>
      </trkpt>
      <trkpt lat="46.00049" lon="4.4313">
        <ele>636</ele>
        <time>2016-09-22T14:02:58Z</time>
      </trkpt>
      <trkpt lat="46.00056" lon="4.43136">
        <ele>636</ele>
        <time>2016-09-22T14:03:04Z</time>
      </trkpt>
      <trkpt lat="46.00057" lon="4.43137">
        <ele>636</ele>
        <time>2016-09-22T14:03:05Z</time>
      </trkpt>
      <trkpt lat="46.00063" lon="4.43145">
        <ele>635</ele>
        <time>2016-09-22T14:03:10Z</time>
      </trkpt>
      <trkpt lat="46.00064" lon="4.43146">
        <ele>635</ele>
        <time>2016-09-22T14:03:11Z</time>
      </trkpt>
      <trkpt lat="46.00069" lon="4.43154">
        <ele>635</ele>
        <time>2016-09-22T14:03:17Z</time>
      </trkpt>
      <trkpt lat="46.0007" lon="4.43156">
        <ele>635</ele>
        <time>2016-09-22T14:03:18Z</time>
      </trkpt>
      <trkpt lat="46.00077" lon="4.43164">
        <ele>634</ele>
        <time>2016-09-22T14:03:25Z</time>
      </trkpt>
      <trkpt lat="46.00078" lon="4.43165">
        <ele>634</ele>
        <time>2016-09-22T14:03:26Z</time>
      </trkpt>
      <trkpt lat="46.00085" lon="4.43171">
        <ele>632</ele>
        <time>2016-09-22T14:03:32Z</time>
      </trkpt>
      <trkpt lat="46.00086" lon="4.43172">
        <ele>631</ele>
        <time>2016-09-22T14:03:33Z</time>
      </trkpt>
      <trkpt lat="46.00092" lon="4.43179">
        <ele>629</ele>
        <time>2016-09-22T14:03:39Z</time>
      </trkpt>
      <trkpt lat="46.00093" lon="4.43181">
        <ele>629</ele>
        <time>2016-09-22T14:03:40Z</time>
      </trkpt>
      <trkpt lat="46.001" lon="4.43188">
        <ele>628</ele>
        <time>2016-09-22T14:03:47Z</time>
      </trkpt>
      <trkpt lat="46.00102" lon="4.43189">
        <ele>628</ele>
        <time>2016-09-22T14:03:48Z</time>
      </trkpt>
      <trkpt lat="46.00108" lon="4.43196">
        <ele>627</ele>
        <time>2016-09-22T14:03:54Z</time>
      </trkpt>
      <trkpt lat="46.00109" lon="4.43198">
        <ele>627</ele>
        <time>2016-09-22T14:03:55Z</time>
      </trkpt>
      <trkpt lat="46.00115" lon="4.43204">
        <ele>626</ele>
        <time>2016-09-22T14:04:11Z</time>
      </trkpt>
      <trkpt lat="46.00116" lon="4.43205">
        <ele>626</ele>
        <time>2016-09-22T14:04:12Z</time>
      </trkpt>
      <trkpt lat="46.00122" lon="4.43212">
        <ele>626</ele>
        <time>2016-09-22T14:04:18Z</time>
      </trkpt>
      <trkpt lat="46.00123" lon="4.43214">
        <ele>626</ele>
        <time>2016-09-22T14:04:19Z</time>
      </trkpt>
      <trkpt lat="46.00129" lon="4.43222">
        <ele>625</ele>
        <time>2016-09-22T14:04:25Z</time>
      </trkpt>
      <trkpt lat="46.0013" lon="4.43223">
        <ele>625</ele>
        <time>2016-09-22T14:04:26Z</time>
      </trkpt>
      <trkpt lat="46.00137" lon="4.4323">
        <ele>625</ele>
        <time>2016-09-22T14:04:33Z</time>
      </trkpt>
      <trkpt lat="46.00138" lon="4.43231">
        <ele>625</ele>
        <time>2016-09-22T14:04:34Z</time>
      </trkpt>
      <trkpt lat="46.00142" lon="4.43241">
        <ele>625</ele>
        <time>2016-09-22T14:04:41Z</time>
      </trkpt>
      <trkpt lat="46.00143" lon="4.43242">
        <ele>625</ele>
        <time>2016-09-22T14:04:42Z</time>
      </trkpt>
      <trkpt lat="46.00148" lon="4.43253">
        <ele>624</ele>
        <time>2016-09-22T14:04:50Z</time>
      </trkpt>
      <trkpt lat="46.00148" lon="4.43254">
        <ele>624</ele>
        <time>2016-09-22T14:04:51Z</time>
      </trkpt>
      <trkpt lat="46.00155" lon="4.43263">
        <ele>624</ele>
        <time>2016-09-22T14:04:58Z</time>
      </trkpt>
      <trkpt lat="46.00155" lon="4.43265">
        <ele>624</ele>
        <time>2016-09-22T14:04:59Z</time>
      </trkpt>
      <trkpt lat="46.00159" lon="4.43276">
        <ele>624</ele>
        <time>2016-09-22T14:05:07Z</time>
      </trkpt>
      <trkpt lat="46.00159" lon="4.43277">
        <ele>624</ele>
        <time>2016-09-22T14:05:08Z</time>
      </trkpt>
      <trkpt lat="46.00165" lon="4.43286">
        <ele>624</ele>
        <time>2016-09-22T14:05:16Z</time>
      </trkpt>
      <trkpt lat="46.00165" lon="4.43288">
        <ele>624</ele>
        <time>2016-09-22T14:05:17Z</time>
      </trkpt>
      <trkpt lat="46.00168" lon="4.433">
        <ele>619</ele>
        <time>2016-09-22T14:05:26Z</time>
      </trkpt>
      <trkpt lat="46.00169" lon="4.43301">
        <ele>619</ele>
        <time>2016-09-22T14:05:27Z</time>
      </trkpt>
      <trkpt lat="46.00173" lon="4.43312">
        <ele>620</ele>
        <time>2016-09-22T14:05:36Z</time>
      </trkpt>
      <trkpt lat="46.00173" lon="4.43314">
        <ele>620</ele>
        <time>2016-09-22T14:05:37Z</time>
      </trkpt>
      <trkpt lat="46.00177" lon="4.43325">
        <ele>621</ele>
        <time>2016-09-22T14:05:46Z</time>
      </trkpt>
      <trkpt lat="46.00177" lon="4.43326">
        <ele>621</ele>
        <time>2016-09-22T14:05:47Z</time>
      </trkpt>
      <trkpt lat="46.00182" lon="4.43336">
        <ele>621</ele>
        <time>2016-09-22T14:05:55Z</time>
      </trkpt>
      <trkpt lat="46.00183" lon="4.43337">
        <ele>621</ele>
        <time>2016-09-22T14:05:56Z</time>
      </trkpt>
      <trkpt lat="46.00188" lon="4.43346">
        <ele>620</ele>
        <time>2016-09-22T14:06:03Z</time>
      </trkpt>
      <trkpt lat="46.00189" lon="4.43347">
        <ele>620</ele>
        <time>2016-09-22T14:06:04Z</time>
      </trkpt>
      <trkpt lat="46.00194" lon="4.43356">
        <ele>619</ele>
        <time>2016-09-22T14:06:11Z</time>
      </trkpt>
      <trkpt lat="46.00194" lon="4.43357">
        <ele>619</ele>
        <time>2016-09-22T14:06:12Z</time>
      </trkpt>
      <trkpt lat="46.00199" lon="4.43366">
        <ele>619</ele>
        <time>2016-09-22T14:06:19Z</time>
      </trkpt>
      <trkpt lat="46.002" lon="4.43367">
        <ele>619</ele>
        <time>2016-09-22T14:06:20Z</time>
      </trkpt>
      <trkpt lat="46.00205" lon="4.43376">
        <ele>619</ele>
        <time>2016-09-22T14:06:28Z</time>
      </trkpt>
      <trkpt lat="46.00205" lon="4.43377">
        <ele>619</ele>
        <time>2016-09-22T14:06:29Z</time>
      </trkpt>
      <trkpt lat="46.00211" lon="4.43385">
        <ele>619</ele>
        <time>2016-09-22T14:06:36Z</time>
      </trkpt>
      <trkpt lat="46.00212" lon="4.43386">
        <ele>619</ele>
        <time>2016-09-22T14:06:37Z</time>
      </trkpt>
      <trkpt lat="46.00217" lon="4.43397">
        <ele>619</ele>
        <time>2016-09-22T14:06:46Z</time>
      </trkpt>
      <trkpt lat="46.00218" lon="4.43399">
        <ele>619</ele>
        <time>2016-09-22T14:06:47Z</time>
      </trkpt>
      <trkpt lat="46.00224" lon="4.43406">
        <ele>619</ele>
        <time>2016-09-22T14:06:54Z</time>
      </trkpt>
      <trkpt lat="46.00224" lon="4.43407">
        <ele>619</ele>
        <time>2016-09-22T14:06:55Z</time>
      </trkpt>
      <trkpt lat="46.00229" lon="4.43418">
        <ele>619</ele>
        <time>2016-09-22T14:07:03Z</time>
      </trkpt>
      <trkpt lat="46.0023" lon="4.4342">
        <ele>619</ele>
        <time>2016-09-22T14:07:04Z</time>
      </trkpt>
      <trkpt lat="46.00235" lon="4.43429">
        <ele>619</ele>
        <time>2016-09-22T14:07:11Z</time>
      </trkpt>
      <trkpt lat="46.00235" lon="4.4343">
        <ele>619</ele>
        <time>2016-09-22T14:07:12Z</time>
      </trkpt>
      <trkpt lat="46.0024" lon="4.43441">
        <ele>619</ele>
        <time>2016-09-22T14:07:19Z</time>
      </trkpt>
      <trkpt lat="46.00241" lon="4.43443">
        <ele>619</ele>
        <time>2016-09-22T14:07:20Z</time>
      </trkpt>
      <trkpt lat="46.00245" lon="4.43453">
        <ele>620</ele>
        <time>2016-09-22T14:07:27Z</time>
      </trkpt>
      <trkpt lat="46.00245" lon="4.43455">
        <ele>620</ele>
        <time>2016-09-22T14:07:28Z</time>
      </trkpt>
      <trkpt lat="46.00249" lon="4.43465">
        <ele>620</ele>
        <time>2016-09-22T14:07:35Z</time>
      </trkpt>
      <trkpt lat="46.00249" lon="4.43467">
        <ele>620</ele>
        <time>2016-09-22T14:07:36Z</time>
      </trkpt>
      <trkpt lat="46.00254" lon="4.43476">
        <ele>618</ele>
        <time>2016-09-22T14:07:43Z</time>
      </trkpt>
      <trkpt lat="46.00254" lon="4.43478">
        <ele>618</ele>
        <time>2016-09-22T14:07:44Z</time>
      </trkpt>
      <trkpt lat="46.00258" lon="4.43489">
        <ele>619</ele>
        <time>2016-09-22T14:07:51Z</time>
      </trkpt>
      <trkpt lat="46.00259" lon="4.43491">
        <ele>620</ele>
        <time>2016-09-22T14:07:52Z</time>
      </trkpt>
      <trkpt lat="46.00262" lon="4.43503">
        <ele>620</ele>
        <time>2016-09-22T14:07:59Z</time>
      </trkpt>
      <trkpt lat="46.00262" lon="4.43504">
        <ele>620</ele>
        <time>2016-09-22T14:08:00Z</time>
      </trkpt>
      <trkpt lat="46.00266" lon="4.43514">
        <ele>619</ele>
        <time>2016-09-22T14:08:07Z</time>
      </trkpt>
      <trkpt lat="46.00267" lon="4.43516">
        <ele>618</ele>
        <time>2016-09-22T14:08:08Z</time>
      </trkpt>
      <trkpt lat="46.00269" lon="4.43528">
        <ele>618</ele>
        <time>2016-09-22T14:08:15Z</time>
      </trkpt>
      <trkpt lat="46.00269" lon="4.43529">
        <ele>617</ele>
        <time>2016-09-22T14:08:16Z</time>
      </trkpt>
      <trkpt lat="46.00271" lon="4.4354">
        <ele>617</ele>
        <time>2016-09-22T14:08:23Z</time>
      </trkpt>
      <trkpt lat="46.00271" lon="4.43542">
        <ele>617</ele>
        <time>2016-09-22T14:08:24Z</time>
      </trkpt>
      <trkpt lat="46.00273" lon="4.43554">
        <ele>616</ele>
        <time>2016-09-22T14:08:32Z</time>
      </trkpt>
      <trkpt lat="46.00273" lon="4.43555">
        <ele>616</ele>
        <time>2016-09-22T14:08:33Z</time>
      </trkpt>
      <trkpt lat="46.00273" lon="4.43568">
        <ele>616</ele>
        <time>2016-09-22T14:08:42Z</time>
      </trkpt>
      <trkpt lat="46.00272" lon="4.43569">
        <ele>616</ele>
        <time>2016-09-22T14:08:43Z</time>
      </trkpt>
      <trkpt lat="46.00272" lon="4.43581">
        <ele>616</ele>
        <time>2016-09-22T14:08:52Z</time>
      </trkpt>
      <trkpt lat="46.00272" lon="4.43583">
        <ele>616</ele>
        <time>2016-09-22T14:08:53Z</time>
      </trkpt>
      <trkpt lat="46.00272" lon="4.43595">
        <ele>615</ele>
        <time>2016-09-22T14:09:01Z</time>
      </trkpt>
      <trkpt lat="46.00272" lon="4.43597">
        <ele>615</ele>
        <time>2016-09-22T14:09:02Z</time>
      </trkpt>
      <trkpt lat="46.00271" lon="4.43609">
        <ele>615</ele>
        <time>2016-09-22T14:09:10Z</time>
      </trkpt>
      <trkpt lat="46.00271" lon="4.4361">
        <ele>615</ele>
        <time>2016-09-22T14:09:11Z</time>
      </trkpt>
      <trkpt lat="46.0027" lon="4.43622">
        <ele>615</ele>
        <time>2016-09-22T14:09:19Z</time>
      </trkpt>
      <trkpt lat="46.0027" lon="4.43623">
        <ele>615</ele>
        <time>2016-09-22T14:09:20Z</time>
      </trkpt>
      <trkpt lat="46.00269" lon="4.43635">
        <ele>615</ele>
        <time>2016-09-22T14:09:28Z</time>
      </trkpt>
      <trkpt lat="46.00269" lon="4.43636">
        <ele>615</ele>
        <time>2016-09-22T14:09:29Z</time>
      </trkpt>
      <trkpt lat="46.00269" lon="4.43648">
        <ele>615</ele>
        <time>2016-09-22T14:09:38Z</time>
      </trkpt>
      <trkpt lat="46.0027" lon="4.4365">
        <ele>615</ele>
        <time>2016-09-22T14:09:39Z</time>
      </trkpt>
      <trkpt lat="46.00271" lon="4.43661">
        <ele>615</ele>
        <time>2016-09-22T14:09:48Z</time>
      </trkpt>
      <trkpt lat="46.00271" lon="4.43663">
        <ele>615</ele>
        <time>2016-09-22T14:09:49Z</time>
      </trkpt>
      <trkpt lat="46.00271" lon="4.43675">
        <ele>613</ele>
        <time>2016-09-22T14:09:57Z</time>
      </trkpt>
      <trkpt lat="46.00271" lon="4.43677">
        <ele>613</ele>
        <time>2016-09-22T14:09:58Z</time>
      </trkpt>
      <trkpt lat="46.00271" lon="4.43689">
        <ele>612</ele>
        <time>2016-09-22T14:10:06Z</time>
      </trkpt>
      <trkpt lat="46.00271" lon="4.4369">
        <ele>612</ele>
        <time>2016-09-22T14:10:07Z</time>
      </trkpt>
      <trkpt lat="46.00273" lon="4.43702">
        <ele>611</ele>
        <time>2016-09-22T14:10:15Z</time>
      </trkpt>
      <trkpt lat="46.00274" lon="4.43704">
        <ele>611</ele>
        <time>2016-09-22T14:10:16Z</time>
      </trkpt>
      <trkpt lat="46.00277" lon="4.43715">
        <ele>611</ele>
        <time>2016-09-22T14:10:23Z</time>
      </trkpt>
      <trkpt lat="46.00277" lon="4.43717">
        <ele>610</ele>
        <time>2016-09-22T14:10:24Z</time>
      </trkpt>
      <trkpt lat="46.00279" lon="4.43728">
        <ele>610</ele>
        <time>2016-09-22T14:10:31Z</time>
      </trkpt>
      <trkpt lat="46.0028" lon="4.43729">
        <ele>610</ele>
        <time>2016-09-22T14:10:32Z</time>
      </trkpt>
      <trkpt lat="46.00282" lon="4.43741">
        <ele>609</ele>
        <time>2016-09-22T14:10:40Z</time>
      </trkpt>
      <trkpt lat="46.00282" lon="4.43742">
        <ele>609</ele>
        <time>2016-09-22T14:10:41Z</time>
      </trkpt>
      <trkpt lat="46.00286" lon="4.43753">
        <ele>604</ele>
        <time>2016-09-22T14:10:49Z</time>
      </trkpt>
      <trkpt lat="46.00286" lon="4.43754">
        <ele>604</ele>
        <time>2016-09-22T14:10:50Z</time>
      </trkpt>
      <trkpt lat="46.00289" lon="4.43765">
        <ele>604</ele>
        <time>2016-09-22T14:10:58Z</time>
      </trkpt>
      <trkpt lat="46.0029" lon="4.43767">
        <ele>604</ele>
        <time>2016-09-22T14:10:59Z</time>
      </trkpt>
      <trkpt lat="46.00293" lon="4.43777">
        <ele>603</ele>
        <time>2016-09-22T14:11:06Z</time>
      </trkpt>
      <trkpt lat="46.00293" lon="4.43779">
        <ele>603</ele>
        <time>2016-09-22T14:11:07Z</time>
      </trkpt>
      <trkpt lat="46.00299" lon="4.43789">
        <ele>603</ele>
        <time>2016-09-22T14:11:13Z</time>
      </trkpt>
      <trkpt lat="46.00299" lon="4.43791">
        <ele>603</ele>
        <time>2016-09-22T14:11:14Z</time>
      </trkpt>
      <trkpt lat="46.00303" lon="4.43801">
        <ele>602</ele>
        <time>2016-09-22T14:11:23Z</time>
      </trkpt>
      <trkpt lat="46.00303" lon="4.43803">
        <ele>602</ele>
        <time>2016-09-22T14:11:24Z</time>
      </trkpt>
      <trkpt lat="46.00304" lon="4.43815">
        <ele>602</ele>
        <time>2016-09-22T14:11:34Z</time>
      </trkpt>
      <trkpt lat="46.00305" lon="4.43816">
        <ele>602</ele>
        <time>2016-09-22T14:11:35Z</time>
      </trkpt>
      <trkpt lat="46.00306" lon="4.43827">
        <ele>602</ele>
        <time>2016-09-22T14:11:44Z</time>
      </trkpt>
      <trkpt lat="46.00306" lon="4.43829">
        <ele>602</ele>
        <time>2016-09-22T14:11:45Z</time>
      </trkpt>
      <trkpt lat="46.00307" lon="4.43842">
        <ele>597</ele>
        <time>2016-09-22T14:11:52Z</time>
      </trkpt>
      <trkpt lat="46.00307" lon="4.43843">
        <ele>597</ele>
        <time>2016-09-22T14:11:53Z</time>
      </trkpt>
      <trkpt lat="46.00309" lon="4.43855">
        <ele>597</ele>
        <time>2016-09-22T14:12:00Z</time>
      </trkpt>
      <trkpt lat="46.00309" lon="4.43856">
        <ele>597</ele>
        <time>2016-09-22T14:12:01Z</time>
      </trkpt>
      <trkpt lat="46.0031" lon="4.43868">
        <ele>596</ele>
        <time>2016-09-22T14:12:09Z</time>
      </trkpt>
      <trkpt lat="46.0031" lon="4.4387">
        <ele>596</ele>
        <time>2016-09-22T14:12:10Z</time>
      </trkpt>
      <trkpt lat="46.00312" lon="4.43881">
        <ele>596</ele>
        <time>2016-09-22T14:12:17Z</time>
      </trkpt>
      <trkpt lat="46.00312" lon="4.43883">
        <ele>596</ele>
        <time>2016-09-22T14:12:18Z</time>
      </trkpt>
      <trkpt lat="46.00314" lon="4.43895">
        <ele>595</ele>
        <time>2016-09-22T14:12:26Z</time>
      </trkpt>
      <trkpt lat="46.00314" lon="4.43897">
        <ele>595</ele>
        <time>2016-09-22T14:12:27Z</time>
      </trkpt>
      <trkpt lat="46.00314" lon="4.43909">
        <ele>595</ele>
        <time>2016-09-22T14:12:35Z</time>
      </trkpt>
      <trkpt lat="46.00314" lon="4.43911">
        <ele>595</ele>
        <time>2016-09-22T14:12:36Z</time>
      </trkpt>
      <trkpt lat="46.00314" lon="4.43922">
        <ele>592</ele>
        <time>2016-09-22T14:12:43Z</time>
      </trkpt>
      <trkpt lat="46.00314" lon="4.43924">
        <ele>592</ele>
        <time>2016-09-22T14:12:44Z</time>
      </trkpt>
      <trkpt lat="46.00315" lon="4.43936">
        <ele>592</ele>
        <time>2016-09-22T14:12:51Z</time>
      </trkpt>
      <trkpt lat="46.00315" lon="4.43937">
        <ele>592</ele>
        <time>2016-09-22T14:12:52Z</time>
      </trkpt>
      <trkpt lat="46.00317" lon="4.4395">
        <ele>591</ele>
        <time>2016-09-22T14:13:00Z</time>
      </trkpt>
      <trkpt lat="46.00317" lon="4.43951">
        <ele>591</ele>
        <time>2016-09-22T14:13:01Z</time>
      </trkpt>
      <trkpt lat="46.00318" lon="4.43963">
        <ele>591</ele>
        <time>2016-09-22T14:13:08Z</time>
      </trkpt>
      <trkpt lat="46.00318" lon="4.43965">
        <ele>590</ele>
        <time>2016-09-22T14:13:09Z</time>
      </trkpt>
      <trkpt lat="46.00319" lon="4.43976">
        <ele>590</ele>
        <time>2016-09-22T14:13:16Z</time>
      </trkpt>
      <trkpt lat="46.00319" lon="4.43978">
        <ele>590</ele>
        <time>2016-09-22T14:13:17Z</time>
      </trkpt>
      <trkpt lat="46.00319" lon="4.4399">
        <ele>590</ele>
        <time>2016-09-22T14:13:24Z</time>
      </trkpt>
      <trkpt lat="46.00319" lon="4.43992">
        <ele>590</ele>
        <time>2016-09-22T14:13:25Z</time>
      </trkpt>
      <trkpt lat="46.00318" lon="4.44004">
        <ele>588</ele>
        <time>2016-09-22T14:13:32Z</time>
      </trkpt>
      <trkpt lat="46.00318" lon="4.44006">
        <ele>588</ele>
        <time>2016-09-22T14:13:33Z</time>
      </trkpt>
      <trkpt lat="46.00316" lon="4.44017">
        <ele>588</ele>
        <time>2016-09-22T14:13:40Z</time>
      </trkpt>
      <trkpt lat="46.00316" lon="4.44019">
        <ele>588</ele>
        <time>2016-09-22T14:13:41Z</time>
      </trkpt>
      <trkpt lat="46.00315" lon="4.44031">
        <ele>587</ele>
        <time>2016-09-22T14:13:48Z</time>
      </trkpt>
      <trkpt lat="46.00315" lon="4.44033">
        <ele>587</ele>
        <time>2016-09-22T14:13:49Z</time>
      </trkpt>
      <trkpt lat="46.00312" lon="4.44044">
        <ele>587</ele>
        <time>2016-09-22T14:13:56Z</time>
      </trkpt>
      <trkpt lat="46.00312" lon="4.44045">
        <ele>587</ele>
        <time>2016-09-22T14:13:57Z</time>
      </trkpt>
      <trkpt lat="46.00308" lon="4.44057">
        <ele>586</ele>
        <time>2016-09-22T14:14:04Z</time>
      </trkpt>
      <trkpt lat="46.00308" lon="4.44059">
        <ele>586</ele>
        <time>2016-09-22T14:14:05Z</time>
      </trkpt>
      <trkpt lat="46.00305" lon="4.4407">
        <ele>586</ele>
        <time>2016-09-22T14:14:12Z</time>
      </trkpt>
      <trkpt lat="46.00304" lon="4.44072">
        <ele>586</ele>
        <time>2016-09-22T14:14:13Z</time>
      </trkpt>
      <trkpt lat="46.00302" lon="4.44083">
        <ele>586</ele>
        <time>2016-09-22T14:14:20Z</time>
      </trkpt>
      <trkpt lat="46.00302" lon="4.44085">
        <ele>584</ele>
        <time>2016-09-22T14:14:21Z</time>
      </trkpt>
      <trkpt lat="46.00297" lon="4.44094">
        <ele>584</ele>
        <time>2016-09-22T14:14:28Z</time>
      </trkpt>
      <trkpt lat="46.00296" lon="4.44095">
        <ele>584</ele>
        <time>2016-09-22T14:14:29Z</time>
      </trkpt>
      <trkpt lat="46.00292" lon="4.44105">
        <ele>584</ele>
        <time>2016-09-22T14:14:37Z</time>
      </trkpt>
      <trkpt lat="46.00292" lon="4.44107">
        <ele>584</ele>
        <time>2016-09-22T14:14:38Z</time>
      </trkpt>
      <trkpt lat="46.0029" lon="4.44119">
        <ele>584</ele>
        <time>2016-09-22T14:14:58Z</time>
      </trkpt>
      <trkpt lat="46.0029" lon="4.4412">
        <ele>584</ele>
        <time>2016-09-22T14:14:59Z</time>
      </trkpt>
      <trkpt lat="46.00288" lon="4.44132">
        <ele>584</ele>
        <time>2016-09-22T14:15:11Z</time>
      </trkpt>
      <trkpt lat="46.00287" lon="4.44133">
        <ele>584</ele>
        <time>2016-09-22T14:15:12Z</time>
      </trkpt>
      <trkpt lat="46.00283" lon="4.44143">
        <ele>584</ele>
        <time>2016-09-22T14:15:19Z</time>
      </trkpt>
      <trkpt lat="46.00283" lon="4.44145">
        <ele>584</ele>
        <time>2016-09-22T14:15:20Z</time>
      </trkpt>
      <trkpt lat="46.00279" lon="4.44156">
        <ele>584</ele>
        <time>2016-09-22T14:15:27Z</time>
      </trkpt>
      <trkpt lat="46.00279" lon="4.44157">
        <ele>584</ele>
        <time>2016-09-22T14:15:28Z</time>
      </trkpt>
      <trkpt lat="46.00275" lon="4.44169">
        <ele>581</ele>
        <time>2016-09-22T14:15:39Z</time>
      </trkpt>
      <trkpt lat="46.00275" lon="4.44169">
        <ele>581</ele>
        <time>2016-09-22T14:15:40Z</time>
      </trkpt>
      <trkpt lat="46.0027" lon="4.4418">
        <ele>581</ele>
        <time>2016-09-22T14:15:50Z</time>
      </trkpt>
      <trkpt lat="46.0027" lon="4.44181">
        <ele>581</ele>
        <time>2016-09-22T14:15:51Z</time>
      </trkpt>
      <trkpt lat="46.00265" lon="4.44192">
        <ele>581</ele>
        <time>2016-09-22T14:15:59Z</time>
      </trkpt>
      <trkpt lat="46.00265" lon="4.44193">
        <ele>581</ele>
        <time>2016-09-22T14:16:00Z</time>
      </trkpt>
      <trkpt lat="46.00264" lon="4.44205">
        <ele>580</ele>
        <time>2016-09-22T14:16:09Z</time>
      </trkpt>
      <trkpt lat="46.00263" lon="4.44206">
        <ele>580</ele>
        <time>2016-09-22T14:16:10Z</time>
      </trkpt>
      <trkpt lat="46.0026" lon="4.44218">
        <ele>580</ele>
        <time>2016-09-22T14:16:19Z</time>
      </trkpt>
      <trkpt lat="46.0026" lon="4.44219">
        <ele>580</ele>
        <time>2016-09-22T14:16:20Z</time>
      </trkpt>
      <trkpt lat="46.00263" lon="4.44231">
        <ele>579</ele>
        <time>2016-09-22T14:16:29Z</time>
      </trkpt>
      <trkpt lat="46.00264" lon="4.44233">
        <ele>579</ele>
        <time>2016-09-22T14:16:30Z</time>
      </trkpt>
      <trkpt lat="46.00269" lon="4.44242">
        <ele>579</ele>
        <time>2016-09-22T14:16:39Z</time>
      </trkpt>
      <trkpt lat="46.0027" lon="4.44242">
        <ele>579</ele>
        <time>2016-09-22T14:16:40Z</time>
      </trkpt>
      <trkpt lat="46.00278" lon="4.44248">
        <ele>579</ele>
        <time>2016-09-22T14:16:51Z</time>
      </trkpt>
      <trkpt lat="46.00278" lon="4.44248">
        <ele>579</ele>
        <time>2016-09-22T14:16:52Z</time>
      </trkpt>
      <trkpt lat="46.00282" lon="4.44252">
        <ele>574</ele>
        <time>2016-09-22T14:17:25.396Z</time>
      </trkpt>
    </trkseg>
  </trk>
</gpx>